<?xml version="1.0" encoding="UTF-8"?>
<gpx version="1.0" creator="Trackator" xmlns:xsi="http://www.w3.org/2001/XMLSchema-instance" xmlns="http://www.topografix.com/GPX/1/0" xmlns:topografix="http://www.topografix.com/GPX/Private/TopoGrafix/0/1" xsi:schemaLocation="http://www.topografix.com/GPX/1/0 http://www.topografix.com/GPX/1/0/gpx.xsd http://www.topografix.com/GPX/Private/TopoGrafix/0/1 http://www.topografix.com/GPX/Private/TopoGrafix/0/1/topografix.xsd">
<metadata>
<link href="http://www.trackator.com">
<text>Trackator</text>
</link>
</metadata>
<time>2014-05-25T:43:39Z</time>
<trk>
<name>Track: </name>
<desc>Canoeing-kayaking</desc>
<trkseg>
<trkpt lat="37.58144057" lon="-1.06861149">
<ele>39</ele>
<time>2014-05-25T:43:39Z</time>
</trkpt>
<trkpt lat="37.5814499" lon="-1.06867814">
<ele>42</ele>
<time>2014-05-25T12:43:41Z</time>
</trkpt>
<trkpt lat="37.58145072" lon="-1.06872812">
<ele>43</ele>
<time>2014-05-25T12:43:43Z</time>
</trkpt>
<trkpt lat="37.58144902" lon="-1.06876723">
<ele>44</ele>
<time>2014-05-25T12:43:45Z</time>
</trkpt>
<trkpt lat="37.58144171" lon="-1.06880165">
<ele>44</ele>
<time>2014-05-25T12:43:47Z</time>
</trkpt>
<trkpt lat="37.58142913" lon="-1.06883922">
<ele>43</ele>
<time>2014-05-25T12:43:49Z</time>
</trkpt>
<trkpt lat="37.58141987" lon="-1.06887937">
<ele>44</ele>
<time>2014-05-25T12:43:51Z</time>
</trkpt>
<trkpt lat="37.5814143" lon="-1.06891449">
<ele>45</ele>
<time>2014-05-25T12:43:53Z</time>
</trkpt>
<trkpt lat="37.58140729" lon="-1.06895533">
<ele>44</ele>
<time>2014-05-25T12:43:55Z</time>
</trkpt>
<trkpt lat="37.58139643" lon="-1.06899945">
<ele>45</ele>
<time>2014-05-25T12:43:57Z</time>
</trkpt>
<trkpt lat="37.58138502" lon="-1.06903805">
<ele>44</ele>
<time>2014-05-25T12:43:59Z</time>
</trkpt>
<trkpt lat="37.58138378" lon="-1.06907205">
<ele>45</ele>
<time>2014-05-25T12:44:01Z</time>
</trkpt>
<trkpt lat="37.5813768" lon="-1.06910473">
<ele>45</ele>
<time>2014-05-25T12:44:03Z</time>
</trkpt>
<trkpt lat="37.58137312" lon="-1.06913265">
<ele>45</ele>
<time>2014-05-25T12:44:05Z</time>
</trkpt>
<trkpt lat="37.5813658" lon="-1.06916157">
<ele>46</ele>
<time>2014-05-25T12:44:07Z</time>
</trkpt>
<trkpt lat="37.58135962" lon="-1.06918722">
<ele>45</ele>
<time>2014-05-25T12:44:09Z</time>
</trkpt>
<trkpt lat="37.58136404" lon="-1.06918663">
<ele>44</ele>
<time>2014-05-25T12:44:11Z</time>
</trkpt>
<trkpt lat="37.58136813" lon="-1.06918401">
<ele>44</ele>
<time>2014-05-25T12:44:13Z</time>
</trkpt>
<trkpt lat="37.5813676" lon="-1.06919746">
<ele>44</ele>
<time>2014-05-25T12:44:15Z</time>
</trkpt>
<trkpt lat="37.58136957" lon="-1.06921929">
<ele>44</ele>
<time>2014-05-25T12:44:17Z</time>
</trkpt>
<trkpt lat="37.58137308" lon="-1.06924983">
<ele>44</ele>
<time>2014-05-25T12:44:19Z</time>
</trkpt>
<trkpt lat="37.58137537" lon="-1.06928359">
<ele>43</ele>
<time>2014-05-25T12:44:21Z</time>
</trkpt>
<trkpt lat="37.58137454" lon="-1.06931806">
<ele>43</ele>
<time>2014-05-25T12:44:23Z</time>
</trkpt>
<trkpt lat="37.58137231" lon="-1.06935491">
<ele>43</ele>
<time>2014-05-25T12:44:25Z</time>
</trkpt>
<trkpt lat="37.58136964" lon="-1.06940432">
<ele>43</ele>
<time>2014-05-25T12:44:27Z</time>
</trkpt>
<trkpt lat="37.58136457" lon="-1.06945457">
<ele>42</ele>
<time>2014-05-25T12:44:29Z</time>
</trkpt>
<trkpt lat="37.581357" lon="-1.06949749">
<ele>42</ele>
<time>2014-05-25T12:44:31Z</time>
</trkpt>
<trkpt lat="37.58134881" lon="-1.06953445">
<ele>42</ele>
<time>2014-05-25T12:44:33Z</time>
</trkpt>
<trkpt lat="37.58133947" lon="-1.0695672">
<ele>42</ele>
<time>2014-05-25T12:44:35Z</time>
</trkpt>
<trkpt lat="37.58133898" lon="-1.06961564">
<ele>42</ele>
<time>2014-05-25T12:44:37Z</time>
</trkpt>
<trkpt lat="37.58134018" lon="-1.06966049">
<ele>41</ele>
<time>2014-05-25T12:44:39Z</time>
</trkpt>
<trkpt lat="37.58133884" lon="-1.06969049">
<ele>40</ele>
<time>2014-05-25T12:44:41Z</time>
</trkpt>
<trkpt lat="37.5813317" lon="-1.0697074">
<ele>39</ele>
<time>2014-05-25T12:44:43Z</time>
</trkpt>
<trkpt lat="37.58132989" lon="-1.06973622">
<ele>39</ele>
<time>2014-05-25T12:44:45Z</time>
</trkpt>
<trkpt lat="37.58132353" lon="-1.0697595">
<ele>39</ele>
<time>2014-05-25T12:44:47Z</time>
</trkpt>
<trkpt lat="37.58130949" lon="-1.0697836">
<ele>38</ele>
<time>2014-05-25T12:44:49Z</time>
</trkpt>
<trkpt lat="37.5812987" lon="-1.06980751">
<ele>39</ele>
<time>2014-05-25T12:44:51Z</time>
</trkpt>
<trkpt lat="37.58129105" lon="-1.06983101">
<ele>39</ele>
<time>2014-05-25T12:44:53Z</time>
</trkpt>
<trkpt lat="37.58128455" lon="-1.06985067">
<ele>38</ele>
<time>2014-05-25T12:44:55Z</time>
</trkpt>
<trkpt lat="37.58127896" lon="-1.06987417">
<ele>38</ele>
<time>2014-05-25T12:44:57Z</time>
</trkpt>
<trkpt lat="37.58127786" lon="-1.06989906">
<ele>39</ele>
<time>2014-05-25T12:44:59Z</time>
</trkpt>
<trkpt lat="37.58127173" lon="-1.06992979">
<ele>38</ele>
<time>2014-05-25T12:45:01Z</time>
</trkpt>
<trkpt lat="37.58126345" lon="-1.06996035">
<ele>38</ele>
<time>2014-05-25T12:45:03Z</time>
</trkpt>
<trkpt lat="37.58125535" lon="-1.06999254">
<ele>38</ele>
<time>2014-05-25T12:45:05Z</time>
</trkpt>
<trkpt lat="37.58124363" lon="-1.07003378">
<ele>39</ele>
<time>2014-05-25T12:45:07Z</time>
</trkpt>
<trkpt lat="37.58123289" lon="-1.07006793">
<ele>40</ele>
<time>2014-05-25T12:45:09Z</time>
</trkpt>
<trkpt lat="37.58122179" lon="-1.07010192">
<ele>41</ele>
<time>2014-05-25T12:45:11Z</time>
</trkpt>
<trkpt lat="37.58121177" lon="-1.07013202">
<ele>43</ele>
<time>2014-05-25T12:45:13Z</time>
</trkpt>
<trkpt lat="37.58120574" lon="-1.07015836">
<ele>45</ele>
<time>2014-05-25T12:45:15Z</time>
</trkpt>
<trkpt lat="37.58119706" lon="-1.07017982">
<ele>45</ele>
<time>2014-05-25T12:45:17Z</time>
</trkpt>
<trkpt lat="37.58118588" lon="-1.07020667">
<ele>45</ele>
<time>2014-05-25T12:45:19Z</time>
</trkpt>
<trkpt lat="37.58117241" lon="-1.0702281">
<ele>45</ele>
<time>2014-05-25T12:45:21Z</time>
</trkpt>
<trkpt lat="37.58115529" lon="-1.07025083">
<ele>46</ele>
<time>2014-05-25T12:45:23Z</time>
</trkpt>
<trkpt lat="37.58113901" lon="-1.07027383">
<ele>44</ele>
<time>2014-05-25T12:45:25Z</time>
</trkpt>
<trkpt lat="37.58112133" lon="-1.07029371">
<ele>45</ele>
<time>2014-05-25T12:45:27Z</time>
</trkpt>
<trkpt lat="37.58110454" lon="-1.07031448">
<ele>45</ele>
<time>2014-05-25T12:45:29Z</time>
</trkpt>
<trkpt lat="37.58108761" lon="-1.07033428">
<ele>45</ele>
<time>2014-05-25T12:45:31Z</time>
</trkpt>
<trkpt lat="37.58106901" lon="-1.07035551">
<ele>44</ele>
<time>2014-05-25T12:45:33Z</time>
</trkpt>
<trkpt lat="37.58105289" lon="-1.07037307">
<ele>44</ele>
<time>2014-05-25T12:45:35Z</time>
</trkpt>
<trkpt lat="37.58103781" lon="-1.07039154">
<ele>42</ele>
<time>2014-05-25T12:45:37Z</time>
</trkpt>
<trkpt lat="37.58102416" lon="-1.07040784">
<ele>43</ele>
<time>2014-05-25T12:45:39Z</time>
</trkpt>
<trkpt lat="37.58101444" lon="-1.07042375">
<ele>43</ele>
<time>2014-05-25T12:45:41Z</time>
</trkpt>
<trkpt lat="37.58100444" lon="-1.07044218">
<ele>44</ele>
<time>2014-05-25T12:45:43Z</time>
</trkpt>
<trkpt lat="37.58099603" lon="-1.07046109">
<ele>45</ele>
<time>2014-05-25T12:45:45Z</time>
</trkpt>
<trkpt lat="37.58098533" lon="-1.07048113">
<ele>45</ele>
<time>2014-05-25T12:45:47Z</time>
</trkpt>
<trkpt lat="37.58097544" lon="-1.07049855">
<ele>44</ele>
<time>2014-05-25T12:45:49Z</time>
</trkpt>
<trkpt lat="37.58096335" lon="-1.07051289">
<ele>44</ele>
<time>2014-05-25T12:45:51Z</time>
</trkpt>
<trkpt lat="37.58095009" lon="-1.07052884">
<ele>43</ele>
<time>2014-05-25T12:45:53Z</time>
</trkpt>
<trkpt lat="37.58094176" lon="-1.07053811">
<ele>44</ele>
<time>2014-05-25T12:45:55Z</time>
</trkpt>
<trkpt lat="37.5809346" lon="-1.07054437">
<ele>43</ele>
<time>2014-05-25T12:45:57Z</time>
</trkpt>
<trkpt lat="37.58092929" lon="-1.07055358">
<ele>43</ele>
<time>2014-05-25T12:45:59Z</time>
</trkpt>
<trkpt lat="37.58092037" lon="-1.0705702">
<ele>42</ele>
<time>2014-05-25T12:46:01Z</time>
</trkpt>
<trkpt lat="37.58091001" lon="-1.07059371">
<ele>42</ele>
<time>2014-05-25T12:46:03Z</time>
</trkpt>
<trkpt lat="37.58090126" lon="-1.07062387">
<ele>44</ele>
<time>2014-05-25T12:46:05Z</time>
</trkpt>
<trkpt lat="37.58089586" lon="-1.07065307">
<ele>43</ele>
<time>2014-05-25T12:46:07Z</time>
</trkpt>
<trkpt lat="37.58089205" lon="-1.07068859">
<ele>43</ele>
<time>2014-05-25T12:46:09Z</time>
</trkpt>
<trkpt lat="37.58089303" lon="-1.07072309">
<ele>43</ele>
<time>2014-05-25T12:46:11Z</time>
</trkpt>
<trkpt lat="37.58090057" lon="-1.07075919">
<ele>45</ele>
<time>2014-05-25T12:46:13Z</time>
</trkpt>
<trkpt lat="37.58091133" lon="-1.07079508">
<ele>45</ele>
<time>2014-05-25T12:46:15Z</time>
</trkpt>
<trkpt lat="37.58092847" lon="-1.07083081">
<ele>45</ele>
<time>2014-05-25T12:46:17Z</time>
</trkpt>
<trkpt lat="37.58094607" lon="-1.07086657">
<ele>44</ele>
<time>2014-05-25T12:46:19Z</time>
</trkpt>
<trkpt lat="37.5809585" lon="-1.07090258">
<ele>44</ele>
<time>2014-05-25T12:46:21Z</time>
</trkpt>
<trkpt lat="37.58096753" lon="-1.07093825">
<ele>43</ele>
<time>2014-05-25T12:46:23Z</time>
</trkpt>
<trkpt lat="37.58096573" lon="-1.07097304">
<ele>42</ele>
<time>2014-05-25T12:46:25Z</time>
</trkpt>
<trkpt lat="37.58096487" lon="-1.07100747">
<ele>43</ele>
<time>2014-05-25T12:46:27Z</time>
</trkpt>
<trkpt lat="37.58095657" lon="-1.07104161">
<ele>43</ele>
<time>2014-05-25T12:46:29Z</time>
</trkpt>
<trkpt lat="37.5809444" lon="-1.07107365">
<ele>44</ele>
<time>2014-05-25T12:46:31Z</time>
</trkpt>
<trkpt lat="37.58093474" lon="-1.07110297">
<ele>44</ele>
<time>2014-05-25T12:46:33Z</time>
</trkpt>
<trkpt lat="37.58091998" lon="-1.07112937">
<ele>44</ele>
<time>2014-05-25T12:46:35Z</time>
</trkpt>
<trkpt lat="37.58090673" lon="-1.07115278">
<ele>44</ele>
<time>2014-05-25T12:46:37Z</time>
</trkpt>
<trkpt lat="37.58089186" lon="-1.07118275">
<ele>45</ele>
<time>2014-05-25T12:46:39Z</time>
</trkpt>
<trkpt lat="37.58087795" lon="-1.07121172">
<ele>45</ele>
<time>2014-05-25T12:46:41Z</time>
</trkpt>
<trkpt lat="37.58086626" lon="-1.07123993">
<ele>45</ele>
<time>2014-05-25T12:46:43Z</time>
</trkpt>
<trkpt lat="37.58085201" lon="-1.07127241">
<ele>44</ele>
<time>2014-05-25T12:46:45Z</time>
</trkpt>
<trkpt lat="37.5808384" lon="-1.07129952">
<ele>44</ele>
<time>2014-05-25T12:46:47Z</time>
</trkpt>
<trkpt lat="37.58082931" lon="-1.07132175">
<ele>44</ele>
<time>2014-05-25T12:46:49Z</time>
</trkpt>
<trkpt lat="37.58081755" lon="-1.07134984">
<ele>44</ele>
<time>2014-05-25T12:46:51Z</time>
</trkpt>
<trkpt lat="37.58080392" lon="-1.07137806">
<ele>43</ele>
<time>2014-05-25T12:46:53Z</time>
</trkpt>
<trkpt lat="37.58078873" lon="-1.07140696">
<ele>44</ele>
<time>2014-05-25T12:46:55Z</time>
</trkpt>
<trkpt lat="37.58077314" lon="-1.07143671">
<ele>44</ele>
<time>2014-05-25T12:46:57Z</time>
</trkpt>
<trkpt lat="37.58075832" lon="-1.07146033">
<ele>41</ele>
<time>2014-05-25T12:46:59Z</time>
</trkpt>
<trkpt lat="37.58074355" lon="-1.07148328">
<ele>40</ele>
<time>2014-05-25T12:47:01Z</time>
</trkpt>
<trkpt lat="37.58072819" lon="-1.07150681">
<ele>39</ele>
<time>2014-05-25T12:47:03Z</time>
</trkpt>
<trkpt lat="37.58071464" lon="-1.07153206">
<ele>40</ele>
<time>2014-05-25T12:47:05Z</time>
</trkpt>
<trkpt lat="37.5807031" lon="-1.07155909">
<ele>40</ele>
<time>2014-05-25T12:47:07Z</time>
</trkpt>
<trkpt lat="37.58069396" lon="-1.07158778">
<ele>41</ele>
<time>2014-05-25T12:47:09Z</time>
</trkpt>
<trkpt lat="37.58069256" lon="-1.07162143">
<ele>41</ele>
<time>2014-05-25T12:47:11Z</time>
</trkpt>
<trkpt lat="37.58069077" lon="-1.07165616">
<ele>40</ele>
<time>2014-05-25T12:47:13Z</time>
</trkpt>
<trkpt lat="37.58068738" lon="-1.07169183">
<ele>41</ele>
<time>2014-05-25T12:47:15Z</time>
</trkpt>
<trkpt lat="37.58068393" lon="-1.07172535">
<ele>40</ele>
<time>2014-05-25T12:47:17Z</time>
</trkpt>
<trkpt lat="37.58067596" lon="-1.071765">
<ele>40</ele>
<time>2014-05-25T12:47:19Z</time>
</trkpt>
<trkpt lat="37.5806662" lon="-1.07179849">
<ele>40</ele>
<time>2014-05-25T12:47:21Z</time>
</trkpt>
<trkpt lat="37.58065302" lon="-1.07183957">
<ele>39</ele>
<time>2014-05-25T12:47:23Z</time>
</trkpt>
<trkpt lat="37.58064268" lon="-1.07188628">
<ele>42</ele>
<time>2014-05-25T12:47:25Z</time>
</trkpt>
<trkpt lat="37.58064236" lon="-1.07192102">
<ele>41</ele>
<time>2014-05-25T12:47:27Z</time>
</trkpt>
<trkpt lat="37.58063571" lon="-1.07194979">
<ele>42</ele>
<time>2014-05-25T12:47:29Z</time>
</trkpt>
<trkpt lat="37.58062839" lon="-1.0719764">
<ele>42</ele>
<time>2014-05-25T12:47:31Z</time>
</trkpt>
<trkpt lat="37.58062318" lon="-1.07199849">
<ele>41</ele>
<time>2014-05-25T12:47:33Z</time>
</trkpt>
<trkpt lat="37.58061739" lon="-1.07201734">
<ele>39</ele>
<time>2014-05-25T12:47:35Z</time>
</trkpt>
<trkpt lat="37.58060993" lon="-1.07204138">
<ele>38</ele>
<time>2014-05-25T12:47:37Z</time>
</trkpt>
<trkpt lat="37.58059987" lon="-1.07206615">
<ele>38</ele>
<time>2014-05-25T12:47:39Z</time>
</trkpt>
<trkpt lat="37.58059446" lon="-1.07208783">
<ele>38</ele>
<time>2014-05-25T12:47:41Z</time>
</trkpt>
<trkpt lat="37.58058592" lon="-1.07211236">
<ele>38</ele>
<time>2014-05-25T12:47:43Z</time>
</trkpt>
<trkpt lat="37.58058012" lon="-1.07213749">
<ele>39</ele>
<time>2014-05-25T12:47:45Z</time>
</trkpt>
<trkpt lat="37.58057283" lon="-1.07216769">
<ele>40</ele>
<time>2014-05-25T12:47:47Z</time>
</trkpt>
<trkpt lat="37.58056643" lon="-1.07220297">
<ele>40</ele>
<time>2014-05-25T12:47:49Z</time>
</trkpt>
<trkpt lat="37.58055576" lon="-1.07223693">
<ele>40</ele>
<time>2014-05-25T12:47:51Z</time>
</trkpt>
<trkpt lat="37.58055397" lon="-1.07226464">
<ele>41</ele>
<time>2014-05-25T12:47:53Z</time>
</trkpt>
<trkpt lat="37.58055896" lon="-1.07228942">
<ele>41</ele>
<time>2014-05-25T12:47:55Z</time>
</trkpt>
<trkpt lat="37.58055348" lon="-1.0723133">
<ele>42</ele>
<time>2014-05-25T12:47:57Z</time>
</trkpt>
<trkpt lat="37.58054193" lon="-1.07233792">
<ele>43</ele>
<time>2014-05-25T12:47:59Z</time>
</trkpt>
<trkpt lat="37.58053157" lon="-1.07236727">
<ele>44</ele>
<time>2014-05-25T12:48:01Z</time>
</trkpt>
<trkpt lat="37.58051861" lon="-1.07239696">
<ele>44</ele>
<time>2014-05-25T12:48:03Z</time>
</trkpt>
<trkpt lat="37.58050487" lon="-1.07242576">
<ele>44</ele>
<time>2014-05-25T12:48:05Z</time>
</trkpt>
<trkpt lat="37.58049349" lon="-1.07245868">
<ele>44</ele>
<time>2014-05-25T12:48:07Z</time>
</trkpt>
<trkpt lat="37.58048944" lon="-1.07248422">
<ele>45</ele>
<time>2014-05-25T12:48:09Z</time>
</trkpt>
<trkpt lat="37.58048189" lon="-1.07251164">
<ele>45</ele>
<time>2014-05-25T12:48:11Z</time>
</trkpt>
<trkpt lat="37.58046801" lon="-1.07254141">
<ele>46</ele>
<time>2014-05-25T12:48:13Z</time>
</trkpt>
<trkpt lat="37.58045626" lon="-1.07257553">
<ele>46</ele>
<time>2014-05-25T12:48:15Z</time>
</trkpt>
<trkpt lat="37.58044876" lon="-1.07261094">
<ele>46</ele>
<time>2014-05-25T12:48:17Z</time>
</trkpt>
<trkpt lat="37.58043111" lon="-1.07265701">
<ele>46</ele>
<time>2014-05-25T12:48:19Z</time>
</trkpt>
<trkpt lat="37.58042378" lon="-1.07268775">
<ele>47</ele>
<time>2014-05-25T12:48:21Z</time>
</trkpt>
<trkpt lat="37.58040757" lon="-1.07272382">
<ele>46</ele>
<time>2014-05-25T12:48:23Z</time>
</trkpt>
<trkpt lat="37.58039669" lon="-1.07275808">
<ele>46</ele>
<time>2014-05-25T12:48:25Z</time>
</trkpt>
<trkpt lat="37.5803907" lon="-1.07280116">
<ele>45</ele>
<time>2014-05-25T12:48:27Z</time>
</trkpt>
<trkpt lat="37.5803926" lon="-1.07283938">
<ele>43</ele>
<time>2014-05-25T12:48:29Z</time>
</trkpt>
<trkpt lat="37.58039436" lon="-1.07287108">
<ele>44</ele>
<time>2014-05-25T12:48:31Z</time>
</trkpt>
<trkpt lat="37.58040017" lon="-1.07289647">
<ele>44</ele>
<time>2014-05-25T12:48:33Z</time>
</trkpt>
<trkpt lat="37.58040249" lon="-1.0729281">
<ele>44</ele>
<time>2014-05-25T12:48:35Z</time>
</trkpt>
<trkpt lat="37.58040472" lon="-1.0729594">
<ele>44</ele>
<time>2014-05-25T12:48:37Z</time>
</trkpt>
<trkpt lat="37.58040602" lon="-1.0729858">
<ele>44</ele>
<time>2014-05-25T12:48:39Z</time>
</trkpt>
<trkpt lat="37.58040522" lon="-1.07301179">
<ele>44</ele>
<time>2014-05-25T12:48:41Z</time>
</trkpt>
<trkpt lat="37.58040127" lon="-1.0730391">
<ele>44</ele>
<time>2014-05-25T12:48:43Z</time>
</trkpt>
<trkpt lat="37.58039148" lon="-1.07306065">
<ele>44</ele>
<time>2014-05-25T12:48:45Z</time>
</trkpt>
<trkpt lat="37.58038689" lon="-1.07309243">
<ele>44</ele>
<time>2014-05-25T12:48:47Z</time>
</trkpt>
<trkpt lat="37.58038488" lon="-1.0731191">
<ele>44</ele>
<time>2014-05-25T12:48:49Z</time>
</trkpt>
<trkpt lat="37.58039069" lon="-1.07314204">
<ele>43</ele>
<time>2014-05-25T12:48:51Z</time>
</trkpt>
<trkpt lat="37.58039728" lon="-1.07316168">
<ele>42</ele>
<time>2014-05-25T12:48:53Z</time>
</trkpt>
<trkpt lat="37.58039957" lon="-1.07317795">
<ele>42</ele>
<time>2014-05-25T12:48:55Z</time>
</trkpt>
<trkpt lat="37.58040342" lon="-1.07319069">
<ele>47</ele>
<time>2014-05-25T12:48:57Z</time>
</trkpt>
<trkpt lat="37.58041408" lon="-1.07320575">
<ele>45</ele>
<time>2014-05-25T12:48:59Z</time>
</trkpt>
<trkpt lat="37.58043563" lon="-1.07321818">
<ele>45</ele>
<time>2014-05-25T12:49:01Z</time>
</trkpt>
<trkpt lat="37.58045439" lon="-1.0732316">
<ele>45</ele>
<time>2014-05-25T12:49:03Z</time>
</trkpt>
<trkpt lat="37.58047314" lon="-1.07323366">
<ele>45</ele>
<time>2014-05-25T12:49:05Z</time>
</trkpt>
<trkpt lat="37.58048215" lon="-1.07323551">
<ele>45</ele>
<time>2014-05-25T12:49:07Z</time>
</trkpt>
<trkpt lat="37.58048188" lon="-1.07324577">
<ele>44</ele>
<time>2014-05-25T12:49:09Z</time>
</trkpt>
<trkpt lat="37.58048174" lon="-1.07326418">
<ele>45</ele>
<time>2014-05-25T12:49:11Z</time>
</trkpt>
<trkpt lat="37.58048151" lon="-1.07327697">
<ele>44</ele>
<time>2014-05-25T12:49:13Z</time>
</trkpt>
<trkpt lat="37.58047805" lon="-1.07328136">
<ele>45</ele>
<time>2014-05-25T12:49:15Z</time>
</trkpt>
<trkpt lat="37.58047074" lon="-1.07327354">
<ele>44</ele>
<time>2014-05-25T12:49:17Z</time>
</trkpt>
<trkpt lat="37.5804659" lon="-1.07326529">
<ele>44</ele>
<time>2014-05-25T12:49:19Z</time>
</trkpt>
<trkpt lat="37.58046453" lon="-1.07327385">
<ele>45</ele>
<time>2014-05-25T12:49:21Z</time>
</trkpt>
<trkpt lat="37.58047393" lon="-1.07328476">
<ele>45</ele>
<time>2014-05-25T12:49:23Z</time>
</trkpt>
<trkpt lat="37.58048614" lon="-1.07329864">
<ele>46</ele>
<time>2014-05-25T12:49:25Z</time>
</trkpt>
<trkpt lat="37.58050069" lon="-1.07330526">
<ele>45</ele>
<time>2014-05-25T12:49:27Z</time>
</trkpt>
<trkpt lat="37.5805148" lon="-1.07331017">
<ele>45</ele>
<time>2014-05-25T12:49:29Z</time>
</trkpt>
<trkpt lat="37.58053117" lon="-1.07330857">
<ele>46</ele>
<time>2014-05-25T12:49:31Z</time>
</trkpt>
<trkpt lat="37.58054317" lon="-1.07330921">
<ele>46</ele>
<time>2014-05-25T12:49:33Z</time>
</trkpt>
<trkpt lat="37.58054901" lon="-1.07330526">
<ele>46</ele>
<time>2014-05-25T12:49:35Z</time>
</trkpt>
<trkpt lat="37.58055263" lon="-1.07331578">
<ele>46</ele>
<time>2014-05-25T12:49:37Z</time>
</trkpt>
<trkpt lat="37.58055777" lon="-1.07333551">
<ele>45</ele>
<time>2014-05-25T12:49:39Z</time>
</trkpt>
<trkpt lat="37.58056656" lon="-1.07336431">
<ele>45</ele>
<time>2014-05-25T12:49:41Z</time>
</trkpt>
<trkpt lat="37.58056939" lon="-1.07339753">
<ele>45</ele>
<time>2014-05-25T12:49:43Z</time>
</trkpt>
<trkpt lat="37.58057377" lon="-1.07342043">
<ele>44</ele>
<time>2014-05-25T12:49:45Z</time>
</trkpt>
<trkpt lat="37.58057718" lon="-1.07343986">
<ele>44</ele>
<time>2014-05-25T12:49:47Z</time>
</trkpt>
<trkpt lat="37.58057755" lon="-1.0734548">
<ele>44</ele>
<time>2014-05-25T12:49:49Z</time>
</trkpt>
<trkpt lat="37.58057496" lon="-1.07345677">
<ele>44</ele>
<time>2014-05-25T12:49:51Z</time>
</trkpt>
<trkpt lat="37.58057483" lon="-1.07345073">
<ele>44</ele>
<time>2014-05-25T12:49:53Z</time>
</trkpt>
<trkpt lat="37.58056093" lon="-1.07345314">
<ele>44</ele>
<time>2014-05-25T12:49:55Z</time>
</trkpt>
<trkpt lat="37.58054629" lon="-1.07346714">
<ele>44</ele>
<time>2014-05-25T12:49:57Z</time>
</trkpt>
<trkpt lat="37.58053283" lon="-1.07348053">
<ele>44</ele>
<time>2014-05-25T12:49:59Z</time>
</trkpt>
<trkpt lat="37.58052484" lon="-1.07348982">
<ele>42</ele>
<time>2014-05-25T12:50:01Z</time>
</trkpt>
<trkpt lat="37.58051935" lon="-1.07349208">
<ele>42</ele>
<time>2014-05-25T12:50:03Z</time>
</trkpt>
<trkpt lat="37.5805163" lon="-1.07350582">
<ele>42</ele>
<time>2014-05-25T12:50:05Z</time>
</trkpt>
<trkpt lat="37.58051051" lon="-1.07352221">
<ele>43</ele>
<time>2014-05-25T12:50:07Z</time>
</trkpt>
<trkpt lat="37.58050196" lon="-1.07353717">
<ele>43</ele>
<time>2014-05-25T12:50:09Z</time>
</trkpt>
<trkpt lat="37.58049821" lon="-1.0735508">
<ele>43</ele>
<time>2014-05-25T12:50:11Z</time>
</trkpt>
<trkpt lat="37.58049714" lon="-1.07355683">
<ele>43</ele>
<time>2014-05-25T12:50:13Z</time>
</trkpt>
<trkpt lat="37.58050186" lon="-1.07356185">
<ele>43</ele>
<time>2014-05-25T12:50:15Z</time>
</trkpt>
<trkpt lat="37.58050097" lon="-1.07356022">
<ele>43</ele>
<time>2014-05-25T12:50:17Z</time>
</trkpt>
<trkpt lat="37.58050223" lon="-1.07355074">
<ele>43</ele>
<time>2014-05-25T12:50:19Z</time>
</trkpt>
<trkpt lat="37.5805123" lon="-1.07354626">
<ele>42</ele>
<time>2014-05-25T12:50:21Z</time>
</trkpt>
<trkpt lat="37.5805111" lon="-1.07353809">
<ele>42</ele>
<time>2014-05-25T12:50:23Z</time>
</trkpt>
<trkpt lat="37.58050658" lon="-1.07355419">
<ele>41</ele>
<time>2014-05-25T12:50:25Z</time>
</trkpt>
<trkpt lat="37.58051588" lon="-1.07355291">
<ele>42</ele>
<time>2014-05-25T12:50:27Z</time>
</trkpt>
<trkpt lat="37.58052642" lon="-1.0735629">
<ele>41</ele>
<time>2014-05-25T12:50:29Z</time>
</trkpt>
<trkpt lat="37.58053659" lon="-1.07356442">
<ele>41</ele>
<time>2014-05-25T12:50:31Z</time>
</trkpt>
<trkpt lat="37.580544" lon="-1.07356684">
<ele>42</ele>
<time>2014-05-25T12:50:33Z</time>
</trkpt>
<trkpt lat="37.58055178" lon="-1.07358856">
<ele>42</ele>
<time>2014-05-25T12:50:35Z</time>
</trkpt>
<trkpt lat="37.58055819" lon="-1.07362708">
<ele>43</ele>
<time>2014-05-25T12:50:37Z</time>
</trkpt>
<trkpt lat="37.58055497" lon="-1.07365398">
<ele>42</ele>
<time>2014-05-25T12:50:39Z</time>
</trkpt>
<trkpt lat="37.58055204" lon="-1.07368073">
<ele>42</ele>
<time>2014-05-25T12:50:41Z</time>
</trkpt>
<trkpt lat="37.58054252" lon="-1.07372611">
<ele>41</ele>
<time>2014-05-25T12:50:43Z</time>
</trkpt>
<trkpt lat="37.58053538" lon="-1.07377109">
<ele>42</ele>
<time>2014-05-25T12:50:45Z</time>
</trkpt>
<trkpt lat="37.58052296" lon="-1.07381431">
<ele>42</ele>
<time>2014-05-25T12:50:47Z</time>
</trkpt>
<trkpt lat="37.58050906" lon="-1.0738388">
<ele>42</ele>
<time>2014-05-25T12:50:49Z</time>
</trkpt>
<trkpt lat="37.58049515" lon="-1.07384431">
<ele>42</ele>
<time>2014-05-25T12:50:51Z</time>
</trkpt>
<trkpt lat="37.58047531" lon="-1.07384518">
<ele>41</ele>
<time>2014-05-25T12:50:53Z</time>
</trkpt>
<trkpt lat="37.58045806" lon="-1.07385214">
<ele>41</ele>
<time>2014-05-25T12:50:55Z</time>
</trkpt>
<trkpt lat="37.58044082" lon="-1.07385456">
<ele>41</ele>
<time>2014-05-25T12:50:57Z</time>
</trkpt>
<trkpt lat="37.58042545" lon="-1.07386715">
<ele>41</ele>
<time>2014-05-25T12:50:59Z</time>
</trkpt>
<trkpt lat="37.5804092" lon="-1.07388927">
<ele>41</ele>
<time>2014-05-25T12:51:01Z</time>
</trkpt>
<trkpt lat="37.58039526" lon="-1.0739254">
<ele>41</ele>
<time>2014-05-25T12:51:03Z</time>
</trkpt>
<trkpt lat="37.58038297" lon="-1.07395509">
<ele>41</ele>
<time>2014-05-25T12:51:05Z</time>
</trkpt>
<trkpt lat="37.58036839" lon="-1.07400041">
<ele>42</ele>
<time>2014-05-25T12:51:07Z</time>
</trkpt>
<trkpt lat="37.58035633" lon="-1.07404813">
<ele>42</ele>
<time>2014-05-25T12:51:09Z</time>
</trkpt>
<trkpt lat="37.58034586" lon="-1.0741032">
<ele>42</ele>
<time>2014-05-25T12:51:11Z</time>
</trkpt>
<trkpt lat="37.58033791" lon="-1.07414192">
<ele>42</ele>
<time>2014-05-25T12:51:13Z</time>
</trkpt>
<trkpt lat="37.58032501" lon="-1.07418369">
<ele>43</ele>
<time>2014-05-25T12:51:15Z</time>
</trkpt>
<trkpt lat="37.58030458" lon="-1.07422613">
<ele>43</ele>
<time>2014-05-25T12:51:17Z</time>
</trkpt>
<trkpt lat="37.58028496" lon="-1.07426394">
<ele>42</ele>
<time>2014-05-25T12:51:19Z</time>
</trkpt>
<trkpt lat="37.58026322" lon="-1.07431337">
<ele>43</ele>
<time>2014-05-25T12:51:21Z</time>
</trkpt>
<trkpt lat="37.58024879" lon="-1.0743552">
<ele>43</ele>
<time>2014-05-25T12:51:23Z</time>
</trkpt>
<trkpt lat="37.58023611" lon="-1.0744026">
<ele>43</ele>
<time>2014-05-25T12:51:25Z</time>
</trkpt>
<trkpt lat="37.58022495" lon="-1.07444068">
<ele>42</ele>
<time>2014-05-25T12:51:27Z</time>
</trkpt>
<trkpt lat="37.58022365" lon="-1.0744675">
<ele>42</ele>
<time>2014-05-25T12:51:29Z</time>
</trkpt>
<trkpt lat="37.5802243" lon="-1.07449271">
<ele>42</ele>
<time>2014-05-25T12:51:31Z</time>
</trkpt>
<trkpt lat="37.58022888" lon="-1.07450462">
<ele>42</ele>
<time>2014-05-25T12:51:33Z</time>
</trkpt>
<trkpt lat="37.58021325" lon="-1.07453834">
<ele>42</ele>
<time>2014-05-25T12:51:35Z</time>
</trkpt>
<trkpt lat="37.58019719" lon="-1.07457968">
<ele>43</ele>
<time>2014-05-25T12:51:37Z</time>
</trkpt>
<trkpt lat="37.58018899" lon="-1.07462102">
<ele>44</ele>
<time>2014-05-25T12:51:39Z</time>
</trkpt>
<trkpt lat="37.58018484" lon="-1.07464654">
<ele>43</ele>
<time>2014-05-25T12:51:41Z</time>
</trkpt>
<trkpt lat="37.58018422" lon="-1.07466611">
<ele>44</ele>
<time>2014-05-25T12:51:43Z</time>
</trkpt>
<trkpt lat="37.58018766" lon="-1.07465275">
<ele>43</ele>
<time>2014-05-25T12:51:45Z</time>
</trkpt>
<trkpt lat="37.58018497" lon="-1.07465963">
<ele>44</ele>
<time>2014-05-25T12:51:47Z</time>
</trkpt>
<trkpt lat="37.58017605" lon="-1.0746899">
<ele>45</ele>
<time>2014-05-25T12:51:49Z</time>
</trkpt>
<trkpt lat="37.58016224" lon="-1.07473127">
<ele>46</ele>
<time>2014-05-25T12:51:51Z</time>
</trkpt>
<trkpt lat="37.58014867" lon="-1.07477278">
<ele>45</ele>
<time>2014-05-25T12:51:53Z</time>
</trkpt>
<trkpt lat="37.58014273" lon="-1.0747991">
<ele>45</ele>
<time>2014-05-25T12:51:55Z</time>
</trkpt>
<trkpt lat="37.58014028" lon="-1.07482291">
<ele>45</ele>
<time>2014-05-25T12:51:57Z</time>
</trkpt>
<trkpt lat="37.58013222" lon="-1.0748524">
<ele>45</ele>
<time>2014-05-25T12:51:59Z</time>
</trkpt>
<trkpt lat="37.58011333" lon="-1.0748912">
<ele>44</ele>
<time>2014-05-25T12:52:01Z</time>
</trkpt>
<trkpt lat="37.58009502" lon="-1.07493209">
<ele>46</ele>
<time>2014-05-25T12:52:03Z</time>
</trkpt>
<trkpt lat="37.58007816" lon="-1.07498389">
<ele>46</ele>
<time>2014-05-25T12:52:05Z</time>
</trkpt>
<trkpt lat="37.58006302" lon="-1.07503889">
<ele>46</ele>
<time>2014-05-25T12:52:07Z</time>
</trkpt>
<trkpt lat="37.58005532" lon="-1.075072">
<ele>45</ele>
<time>2014-05-25T12:52:09Z</time>
</trkpt>
<trkpt lat="37.58004639" lon="-1.07511226">
<ele>45</ele>
<time>2014-05-25T12:52:11Z</time>
</trkpt>
<trkpt lat="37.58004384" lon="-1.07514439">
<ele>46</ele>
<time>2014-05-25T12:52:13Z</time>
</trkpt>
<trkpt lat="37.5800338" lon="-1.07518056">
<ele>45</ele>
<time>2014-05-25T12:52:15Z</time>
</trkpt>
<trkpt lat="37.58002222" lon="-1.07521888">
<ele>44</ele>
<time>2014-05-25T12:52:17Z</time>
</trkpt>
<trkpt lat="37.58001196" lon="-1.07526128">
<ele>44</ele>
<time>2014-05-25T12:52:19Z</time>
</trkpt>
<trkpt lat="37.58001551" lon="-1.0752994">
<ele>44</ele>
<time>2014-05-25T12:52:21Z</time>
</trkpt>
<trkpt lat="37.58002227" lon="-1.07534047">
<ele>44</ele>
<time>2014-05-25T12:52:23Z</time>
</trkpt>
<trkpt lat="37.58003163" lon="-1.07537783">
<ele>43</ele>
<time>2014-05-25T12:52:25Z</time>
</trkpt>
<trkpt lat="37.5800365" lon="-1.07542038">
<ele>44</ele>
<time>2014-05-25T12:52:27Z</time>
</trkpt>
<trkpt lat="37.58003072" lon="-1.0754524">
<ele>45</ele>
<time>2014-05-25T12:52:29Z</time>
</trkpt>
<trkpt lat="37.58002261" lon="-1.07547908">
<ele>44</ele>
<time>2014-05-25T12:52:31Z</time>
</trkpt>
<trkpt lat="37.58001377" lon="-1.07550936">
<ele>44</ele>
<time>2014-05-25T12:52:33Z</time>
</trkpt>
<trkpt lat="37.58000953" lon="-1.07554482">
<ele>45</ele>
<time>2014-05-25T12:52:35Z</time>
</trkpt>
<trkpt lat="37.58000362" lon="-1.07558582">
<ele>45</ele>
<time>2014-05-25T12:52:37Z</time>
</trkpt>
<trkpt lat="37.58000404" lon="-1.07561763">
<ele>45</ele>
<time>2014-05-25T12:52:39Z</time>
</trkpt>
<trkpt lat="37.57999933" lon="-1.07564336">
<ele>45</ele>
<time>2014-05-25T12:52:41Z</time>
</trkpt>
<trkpt lat="37.57998986" lon="-1.07566395">
<ele>45</ele>
<time>2014-05-25T12:52:43Z</time>
</trkpt>
<trkpt lat="37.57997338" lon="-1.07568846">
<ele>45</ele>
<time>2014-05-25T12:52:45Z</time>
</trkpt>
<trkpt lat="37.57995652" lon="-1.0757065">
<ele>45</ele>
<time>2014-05-25T12:52:47Z</time>
</trkpt>
<trkpt lat="37.57994614" lon="-1.07572401">
<ele>45</ele>
<time>2014-05-25T12:52:49Z</time>
</trkpt>
<trkpt lat="37.57993512" lon="-1.0757449">
<ele>45</ele>
<time>2014-05-25T12:52:51Z</time>
</trkpt>
<trkpt lat="37.57992363" lon="-1.0757679">
<ele>44</ele>
<time>2014-05-25T12:52:53Z</time>
</trkpt>
<trkpt lat="37.57991435" lon="-1.07578001">
<ele>44</ele>
<time>2014-05-25T12:52:55Z</time>
</trkpt>
<trkpt lat="37.57990345" lon="-1.07579858">
<ele>44</ele>
<time>2014-05-25T12:52:57Z</time>
</trkpt>
<trkpt lat="37.57989929" lon="-1.07581091">
<ele>44</ele>
<time>2014-05-25T12:52:59Z</time>
</trkpt>
<trkpt lat="37.57989495" lon="-1.07583194">
<ele>43</ele>
<time>2014-05-25T12:53:01Z</time>
</trkpt>
<trkpt lat="37.57988458" lon="-1.07585107">
<ele>43</ele>
<time>2014-05-25T12:53:03Z</time>
</trkpt>
<trkpt lat="37.5798757" lon="-1.07587646">
<ele>42</ele>
<time>2014-05-25T12:53:05Z</time>
</trkpt>
<trkpt lat="37.57986679" lon="-1.07590926">
<ele>42</ele>
<time>2014-05-25T12:53:07Z</time>
</trkpt>
<trkpt lat="37.57985417" lon="-1.07594902">
<ele>42</ele>
<time>2014-05-25T12:53:09Z</time>
</trkpt>
<trkpt lat="37.57983689" lon="-1.07598268">
<ele>42</ele>
<time>2014-05-25T12:53:11Z</time>
</trkpt>
<trkpt lat="37.57982251" lon="-1.07601465">
<ele>42</ele>
<time>2014-05-25T12:53:13Z</time>
</trkpt>
<trkpt lat="37.57981481" lon="-1.07604651">
<ele>43</ele>
<time>2014-05-25T12:53:15Z</time>
</trkpt>
<trkpt lat="37.57980694" lon="-1.0760798">
<ele>42</ele>
<time>2014-05-25T12:53:17Z</time>
</trkpt>
<trkpt lat="37.57980526" lon="-1.07611006">
<ele>43</ele>
<time>2014-05-25T12:53:19Z</time>
</trkpt>
<trkpt lat="37.57980202" lon="-1.07612829">
<ele>42</ele>
<time>2014-05-25T12:53:21Z</time>
</trkpt>
<trkpt lat="37.57979467" lon="-1.07614292">
<ele>43</ele>
<time>2014-05-25T12:53:23Z</time>
</trkpt>
<trkpt lat="37.57976857" lon="-1.07619251">
<ele>43</ele>
<time>2014-05-25T12:53:25Z</time>
</trkpt>
<trkpt lat="37.57974555" lon="-1.07622929">
<ele>43</ele>
<time>2014-05-25T12:53:27Z</time>
</trkpt>
<trkpt lat="37.57972425" lon="-1.07626084">
<ele>43</ele>
<time>2014-05-25T12:53:29Z</time>
</trkpt>
<trkpt lat="37.57971202" lon="-1.0762877">
<ele>43</ele>
<time>2014-05-25T12:53:31Z</time>
</trkpt>
<trkpt lat="37.57970527" lon="-1.07629945">
<ele>43</ele>
<time>2014-05-25T12:53:33Z</time>
</trkpt>
<trkpt lat="37.57970784" lon="-1.07630119">
<ele>43</ele>
<time>2014-05-25T12:53:35Z</time>
</trkpt>
<trkpt lat="37.57970321" lon="-1.07631935">
<ele>42</ele>
<time>2014-05-25T12:53:37Z</time>
</trkpt>
<trkpt lat="37.57969861" lon="-1.07632816">
<ele>42</ele>
<time>2014-05-25T12:53:39Z</time>
</trkpt>
<trkpt lat="37.57970192" lon="-1.0763018">
<ele>42</ele>
<time>2014-05-25T12:53:41Z</time>
</trkpt>
<trkpt lat="37.57970461" lon="-1.0762908">
<ele>42</ele>
<time>2014-05-25T12:53:43Z</time>
</trkpt>
<trkpt lat="37.57970517" lon="-1.07629953">
<ele>41</ele>
<time>2014-05-25T12:53:45Z</time>
</trkpt>
<trkpt lat="37.57971001" lon="-1.07630513">
<ele>41</ele>
<time>2014-05-25T12:53:47Z</time>
</trkpt>
<trkpt lat="37.57971244" lon="-1.07632914">
<ele>40</ele>
<time>2014-05-25T12:53:49Z</time>
</trkpt>
<trkpt lat="37.57971526" lon="-1.07635045">
<ele>40</ele>
<time>2014-05-25T12:53:51Z</time>
</trkpt>
<trkpt lat="37.57971814" lon="-1.07636266">
<ele>39</ele>
<time>2014-05-25T12:53:53Z</time>
</trkpt>
<trkpt lat="37.57972445" lon="-1.07637013">
<ele>39</ele>
<time>2014-05-25T12:53:55Z</time>
</trkpt>
<trkpt lat="37.57972594" lon="-1.07639195">
<ele>38</ele>
<time>2014-05-25T12:53:57Z</time>
</trkpt>
<trkpt lat="37.57972008" lon="-1.07641354">
<ele>39</ele>
<time>2014-05-25T12:53:59Z</time>
</trkpt>
<trkpt lat="37.57971402" lon="-1.07642882">
<ele>39</ele>
<time>2014-05-25T12:54:01Z</time>
</trkpt>
<trkpt lat="37.57971203" lon="-1.07643927">
<ele>40</ele>
<time>2014-05-25T12:54:03Z</time>
</trkpt>
<trkpt lat="37.57970284" lon="-1.07644827">
<ele>41</ele>
<time>2014-05-25T12:54:05Z</time>
</trkpt>
<trkpt lat="37.57969906" lon="-1.07645853">
<ele>41</ele>
<time>2014-05-25T12:54:07Z</time>
</trkpt>
<trkpt lat="37.57969811" lon="-1.07646453">
<ele>40</ele>
<time>2014-05-25T12:54:09Z</time>
</trkpt>
<trkpt lat="37.57969579" lon="-1.07649493">
<ele>40</ele>
<time>2014-05-25T12:54:11Z</time>
</trkpt>
<trkpt lat="37.57969757" lon="-1.07654194">
<ele>41</ele>
<time>2014-05-25T12:54:13Z</time>
</trkpt>
<trkpt lat="37.57970434" lon="-1.07656295">
<ele>43</ele>
<time>2014-05-25T12:54:15Z</time>
</trkpt>
<trkpt lat="37.57971208" lon="-1.07657478">
<ele>43</ele>
<time>2014-05-25T12:54:17Z</time>
</trkpt>
<trkpt lat="37.57972047" lon="-1.07657404">
<ele>44</ele>
<time>2014-05-25T12:54:19Z</time>
</trkpt>
<trkpt lat="37.57972397" lon="-1.07660452">
<ele>44</ele>
<time>2014-05-25T12:54:21Z</time>
</trkpt>
<trkpt lat="37.5797237" lon="-1.0766406">
<ele>45</ele>
<time>2014-05-25T12:54:23Z</time>
</trkpt>
<trkpt lat="37.57972433" lon="-1.07667248">
<ele>45</ele>
<time>2014-05-25T12:54:25Z</time>
</trkpt>
<trkpt lat="37.57972962" lon="-1.07668629">
<ele>46</ele>
<time>2014-05-25T12:54:27Z</time>
</trkpt>
<trkpt lat="37.57974158" lon="-1.07668182">
<ele>48</ele>
<time>2014-05-25T12:54:29Z</time>
</trkpt>
<trkpt lat="37.57975737" lon="-1.07667563">
<ele>48</ele>
<time>2014-05-25T12:54:31Z</time>
</trkpt>
<trkpt lat="37.57977044" lon="-1.07666988">
<ele>49</ele>
<time>2014-05-25T12:54:33Z</time>
</trkpt>
<trkpt lat="37.5797794" lon="-1.07667401">
<ele>49</ele>
<time>2014-05-25T12:54:35Z</time>
</trkpt>
<trkpt lat="37.57978677" lon="-1.0766809">
<ele>49</ele>
<time>2014-05-25T12:54:37Z</time>
</trkpt>
<trkpt lat="37.57980028" lon="-1.07668421">
<ele>49</ele>
<time>2014-05-25T12:54:39Z</time>
</trkpt>
<trkpt lat="37.57980462" lon="-1.07669158">
<ele>49</ele>
<time>2014-05-25T12:54:41Z</time>
</trkpt>
<trkpt lat="37.5798149" lon="-1.07669663">
<ele>49</ele>
<time>2014-05-25T12:54:43Z</time>
</trkpt>
<trkpt lat="37.57981885" lon="-1.07669463">
<ele>49</ele>
<time>2014-05-25T12:54:45Z</time>
</trkpt>
<trkpt lat="37.57982287" lon="-1.07669362">
<ele>49</ele>
<time>2014-05-25T12:54:47Z</time>
</trkpt>
<trkpt lat="37.57982979" lon="-1.07669607">
<ele>49</ele>
<time>2014-05-25T12:54:49Z</time>
</trkpt>
<trkpt lat="37.5798358" lon="-1.07671075">
<ele>52</ele>
<time>2014-05-25T12:54:51Z</time>
</trkpt>
<trkpt lat="37.57983957" lon="-1.07671911">
<ele>52</ele>
<time>2014-05-25T12:54:53Z</time>
</trkpt>
<trkpt lat="37.57984269" lon="-1.07671213">
<ele>51</ele>
<time>2014-05-25T12:54:55Z</time>
</trkpt>
<trkpt lat="37.57984339" lon="-1.07670941">
<ele>51</ele>
<time>2014-05-25T12:54:57Z</time>
</trkpt>
<trkpt lat="37.57984775" lon="-1.07670816">
<ele>51</ele>
<time>2014-05-25T12:54:59Z</time>
</trkpt>
<trkpt lat="37.57985276" lon="-1.07671864">
<ele>51</ele>
<time>2014-05-25T12:55:01Z</time>
</trkpt>
<trkpt lat="37.57985707" lon="-1.07671827">
<ele>51</ele>
<time>2014-05-25T12:55:03Z</time>
</trkpt>
<trkpt lat="37.57986078" lon="-1.07672069">
<ele>50</ele>
<time>2014-05-25T12:55:05Z</time>
</trkpt>
<trkpt lat="37.57986478" lon="-1.07672384">
<ele>49</ele>
<time>2014-05-25T12:55:07Z</time>
</trkpt>
<trkpt lat="37.5798725" lon="-1.07672774">
<ele>49</ele>
<time>2014-05-25T12:55:09Z</time>
</trkpt>
<trkpt lat="37.57989027" lon="-1.07673061">
<ele>49</ele>
<time>2014-05-25T12:55:11Z</time>
</trkpt>
<trkpt lat="37.57990626" lon="-1.07672804">
<ele>50</ele>
<time>2014-05-25T12:55:13Z</time>
</trkpt>
<trkpt lat="37.57992116" lon="-1.07671868">
<ele>50</ele>
<time>2014-05-25T12:55:15Z</time>
</trkpt>
<trkpt lat="37.57993843" lon="-1.07671504">
<ele>50</ele>
<time>2014-05-25T12:55:17Z</time>
</trkpt>
<trkpt lat="37.57995085" lon="-1.07673032">
<ele>51</ele>
<time>2014-05-25T12:55:19Z</time>
</trkpt>
<trkpt lat="37.57995674" lon="-1.07676701">
<ele>51</ele>
<time>2014-05-25T12:55:21Z</time>
</trkpt>
<trkpt lat="37.57995582" lon="-1.07679359">
<ele>51</ele>
<time>2014-05-25T12:55:23Z</time>
</trkpt>
<trkpt lat="37.57994124" lon="-1.07683787">
<ele>50</ele>
<time>2014-05-25T12:55:25Z</time>
</trkpt>
<trkpt lat="37.57992711" lon="-1.07687573">
<ele>50</ele>
<time>2014-05-25T12:55:27Z</time>
</trkpt>
<trkpt lat="37.57991717" lon="-1.07693325">
<ele>50</ele>
<time>2014-05-25T12:55:29Z</time>
</trkpt>
<trkpt lat="37.57991071" lon="-1.07697947">
<ele>50</ele>
<time>2014-05-25T12:55:31Z</time>
</trkpt>
<trkpt lat="37.57990069" lon="-1.07703235">
<ele>50</ele>
<time>2014-05-25T12:55:33Z</time>
</trkpt>
<trkpt lat="37.57989108" lon="-1.07706741">
<ele>51</ele>
<time>2014-05-25T12:55:35Z</time>
</trkpt>
<trkpt lat="37.57987847" lon="-1.07710389">
<ele>50</ele>
<time>2014-05-25T12:55:37Z</time>
</trkpt>
<trkpt lat="37.57987035" lon="-1.07713963">
<ele>50</ele>
<time>2014-05-25T12:55:39Z</time>
</trkpt>
<trkpt lat="37.57986306" lon="-1.07717946">
<ele>50</ele>
<time>2014-05-25T12:55:41Z</time>
</trkpt>
<trkpt lat="37.57985132" lon="-1.07721066">
<ele>50</ele>
<time>2014-05-25T12:55:43Z</time>
</trkpt>
<trkpt lat="37.57984377" lon="-1.07724239">
<ele>50</ele>
<time>2014-05-25T12:55:45Z</time>
</trkpt>
<trkpt lat="37.57985217" lon="-1.07728633">
<ele>50</ele>
<time>2014-05-25T12:55:47Z</time>
</trkpt>
<trkpt lat="37.57985759" lon="-1.07732825">
<ele>50</ele>
<time>2014-05-25T12:55:49Z</time>
</trkpt>
<trkpt lat="37.57986299" lon="-1.0773784">
<ele>50</ele>
<time>2014-05-25T12:55:51Z</time>
</trkpt>
<trkpt lat="37.57986186" lon="-1.07742845">
<ele>50</ele>
<time>2014-05-25T12:55:53Z</time>
</trkpt>
<trkpt lat="37.57985622" lon="-1.07747298">
<ele>50</ele>
<time>2014-05-25T12:55:55Z</time>
</trkpt>
<trkpt lat="37.57984994" lon="-1.07751122">
<ele>50</ele>
<time>2014-05-25T12:55:57Z</time>
</trkpt>
<trkpt lat="37.57984403" lon="-1.07754007">
<ele>50</ele>
<time>2014-05-25T12:55:59Z</time>
</trkpt>
<trkpt lat="37.57983379" lon="-1.07756467">
<ele>50</ele>
<time>2014-05-25T12:56:01Z</time>
</trkpt>
<trkpt lat="37.57982203" lon="-1.0775864">
<ele>51</ele>
<time>2014-05-25T12:56:03Z</time>
</trkpt>
<trkpt lat="37.57981008" lon="-1.07761513">
<ele>51</ele>
<time>2014-05-25T12:56:05Z</time>
</trkpt>
<trkpt lat="37.57979598" lon="-1.0776567">
<ele>51</ele>
<time>2014-05-25T12:56:07Z</time>
</trkpt>
<trkpt lat="37.57978132" lon="-1.077722">
<ele>50</ele>
<time>2014-05-25T12:56:09Z</time>
</trkpt>
<trkpt lat="37.57977185" lon="-1.07778266">
<ele>50</ele>
<time>2014-05-25T12:56:11Z</time>
</trkpt>
<trkpt lat="37.57977252" lon="-1.07782446">
<ele>50</ele>
<time>2014-05-25T12:56:13Z</time>
</trkpt>
<trkpt lat="37.57976434" lon="-1.07788122">
<ele>49</ele>
<time>2014-05-25T12:56:15Z</time>
</trkpt>
<trkpt lat="37.57975435" lon="-1.07793769">
<ele>49</ele>
<time>2014-05-25T12:56:17Z</time>
</trkpt>
<trkpt lat="37.57975035" lon="-1.07801421">
<ele>49</ele>
<time>2014-05-25T12:56:19Z</time>
</trkpt>
<trkpt lat="37.57974575" lon="-1.07807834">
<ele>49</ele>
<time>2014-05-25T12:56:21Z</time>
</trkpt>
<trkpt lat="37.57973859" lon="-1.078134">
<ele>49</ele>
<time>2014-05-25T12:56:23Z</time>
</trkpt>
<trkpt lat="37.57972527" lon="-1.07818491">
<ele>50</ele>
<time>2014-05-25T12:56:25Z</time>
</trkpt>
<trkpt lat="37.57971116" lon="-1.07824056">
<ele>50</ele>
<time>2014-05-25T12:56:27Z</time>
</trkpt>
<trkpt lat="37.57970009" lon="-1.07829764">
<ele>50</ele>
<time>2014-05-25T12:56:29Z</time>
</trkpt>
<trkpt lat="37.5797091" lon="-1.0783184">
<ele>50</ele>
<time>2014-05-25T12:56:31Z</time>
</trkpt>
<trkpt lat="37.57971291" lon="-1.07833561">
<ele>50</ele>
<time>2014-05-25T12:56:33Z</time>
</trkpt>
<trkpt lat="37.57972762" lon="-1.07836065">
<ele>49</ele>
<time>2014-05-25T12:56:35Z</time>
</trkpt>
<trkpt lat="37.57975173" lon="-1.07839492">
<ele>49</ele>
<time>2014-05-25T12:56:37Z</time>
</trkpt>
<trkpt lat="37.57977172" lon="-1.07843583">
<ele>49</ele>
<time>2014-05-25T12:56:39Z</time>
</trkpt>
<trkpt lat="37.57979166" lon="-1.07846925">
<ele>49</ele>
<time>2014-05-25T12:56:41Z</time>
</trkpt>
<trkpt lat="37.57980756" lon="-1.07849087">
<ele>49</ele>
<time>2014-05-25T12:56:43Z</time>
</trkpt>
<trkpt lat="37.57981557" lon="-1.07851843">
<ele>49</ele>
<time>2014-05-25T12:56:45Z</time>
</trkpt>
<trkpt lat="37.57981911" lon="-1.07855064">
<ele>49</ele>
<time>2014-05-25T12:56:47Z</time>
</trkpt>
<trkpt lat="37.57982029" lon="-1.07858558">
<ele>49</ele>
<time>2014-05-25T12:56:49Z</time>
</trkpt>
<trkpt lat="37.57981701" lon="-1.07861465">
<ele>48</ele>
<time>2014-05-25T12:56:51Z</time>
</trkpt>
<trkpt lat="37.57981877" lon="-1.07864126">
<ele>48</ele>
<time>2014-05-25T12:56:53Z</time>
</trkpt>
<trkpt lat="37.57982217" lon="-1.07867186">
<ele>50</ele>
<time>2014-05-25T12:56:55Z</time>
</trkpt>
<trkpt lat="37.57981845" lon="-1.07871054">
<ele>50</ele>
<time>2014-05-25T12:56:57Z</time>
</trkpt>
<trkpt lat="37.57980754" lon="-1.07875144">
<ele>50</ele>
<time>2014-05-25T12:56:59Z</time>
</trkpt>
<trkpt lat="37.57980898" lon="-1.07878463">
<ele>50</ele>
<time>2014-05-25T12:57:01Z</time>
</trkpt>
<trkpt lat="37.57979021" lon="-1.07881943">
<ele>50</ele>
<time>2014-05-25T12:57:03Z</time>
</trkpt>
<trkpt lat="37.57977545" lon="-1.07882566">
<ele>51</ele>
<time>2014-05-25T12:57:05Z</time>
</trkpt>
<trkpt lat="37.57979806" lon="-1.07880975">
<ele>51</ele>
<time>2014-05-25T12:57:07Z</time>
</trkpt>
<trkpt lat="37.57980496" lon="-1.07881164">
<ele>52</ele>
<time>2014-05-25T12:57:09Z</time>
</trkpt>
<trkpt lat="37.57980687" lon="-1.07883773">
<ele>52</ele>
<time>2014-05-25T12:57:11Z</time>
</trkpt>
<trkpt lat="37.57980031" lon="-1.07886983">
<ele>52</ele>
<time>2014-05-25T12:57:13Z</time>
</trkpt>
<trkpt lat="37.5797943" lon="-1.0789123">
<ele>51</ele>
<time>2014-05-25T12:57:15Z</time>
</trkpt>
<trkpt lat="37.57978625" lon="-1.07895942">
<ele>51</ele>
<time>2014-05-25T12:57:17Z</time>
</trkpt>
<trkpt lat="37.57977383" lon="-1.07901315">
<ele>51</ele>
<time>2014-05-25T12:57:19Z</time>
</trkpt>
<trkpt lat="37.57976012" lon="-1.0790621">
<ele>52</ele>
<time>2014-05-25T12:57:21Z</time>
</trkpt>
<trkpt lat="37.5797441" lon="-1.07910807">
<ele>51</ele>
<time>2014-05-25T12:57:23Z</time>
</trkpt>
<trkpt lat="37.5797251" lon="-1.07914306">
<ele>51</ele>
<time>2014-05-25T12:57:25Z</time>
</trkpt>
<trkpt lat="37.57970359" lon="-1.07918468">
<ele>52</ele>
<time>2014-05-25T12:57:27Z</time>
</trkpt>
<trkpt lat="37.57968309" lon="-1.07922362">
<ele>52</ele>
<time>2014-05-25T12:57:29Z</time>
</trkpt>
<trkpt lat="37.57966802" lon="-1.07926004">
<ele>52</ele>
<time>2014-05-25T12:57:31Z</time>
</trkpt>
<trkpt lat="37.57965519" lon="-1.07928385">
<ele>52</ele>
<time>2014-05-25T12:57:33Z</time>
</trkpt>
<trkpt lat="37.57964379" lon="-1.0792932">
<ele>52</ele>
<time>2014-05-25T12:57:35Z</time>
</trkpt>
<trkpt lat="37.57963889" lon="-1.07928806">
<ele>51</ele>
<time>2014-05-25T12:57:37Z</time>
</trkpt>
<trkpt lat="37.57962669" lon="-1.07930187">
<ele>51</ele>
<time>2014-05-25T12:57:39Z</time>
</trkpt>
<trkpt lat="37.57962621" lon="-1.07930786">
<ele>51</ele>
<time>2014-05-25T12:57:41Z</time>
</trkpt>
<trkpt lat="37.57962529" lon="-1.07932927">
<ele>50</ele>
<time>2014-05-25T12:57:43Z</time>
</trkpt>
<trkpt lat="37.57961637" lon="-1.07936143">
<ele>50</ele>
<time>2014-05-25T12:57:45Z</time>
</trkpt>
<trkpt lat="37.57959595" lon="-1.07941589">
<ele>50</ele>
<time>2014-05-25T12:57:47Z</time>
</trkpt>
<trkpt lat="37.57957968" lon="-1.07949326">
<ele>50</ele>
<time>2014-05-25T12:57:49Z</time>
</trkpt>
<trkpt lat="37.57956534" lon="-1.07954824">
<ele>50</ele>
<time>2014-05-25T12:57:51Z</time>
</trkpt>
<trkpt lat="37.57955065" lon="-1.07959027">
<ele>49</ele>
<time>2014-05-25T12:57:53Z</time>
</trkpt>
<trkpt lat="37.57954787" lon="-1.07964807">
<ele>49</ele>
<time>2014-05-25T12:57:55Z</time>
</trkpt>
<trkpt lat="37.57954558" lon="-1.07968481">
<ele>50</ele>
<time>2014-05-25T12:57:57Z</time>
</trkpt>
<trkpt lat="37.5795444" lon="-1.07971887">
<ele>50</ele>
<time>2014-05-25T12:57:59Z</time>
</trkpt>
<trkpt lat="37.57953258" lon="-1.079758">
<ele>49</ele>
<time>2014-05-25T12:58:01Z</time>
</trkpt>
<trkpt lat="37.57951289" lon="-1.07979852">
<ele>49</ele>
<time>2014-05-25T12:58:03Z</time>
</trkpt>
<trkpt lat="37.57950241" lon="-1.07982063">
<ele>49</ele>
<time>2014-05-25T12:58:05Z</time>
</trkpt>
<trkpt lat="37.5794903" lon="-1.07984327">
<ele>49</ele>
<time>2014-05-25T12:58:07Z</time>
</trkpt>
<trkpt lat="37.57947818" lon="-1.07986532">
<ele>49</ele>
<time>2014-05-25T12:58:09Z</time>
</trkpt>
<trkpt lat="37.57945775" lon="-1.0798827">
<ele>49</ele>
<time>2014-05-25T12:58:11Z</time>
</trkpt>
<trkpt lat="37.57943155" lon="-1.07990168">
<ele>49</ele>
<time>2014-05-25T12:58:13Z</time>
</trkpt>
<trkpt lat="37.57942232" lon="-1.07992445">
<ele>49</ele>
<time>2014-05-25T12:58:15Z</time>
</trkpt>
<trkpt lat="37.57940935" lon="-1.0799513">
<ele>49</ele>
<time>2014-05-25T12:58:17Z</time>
</trkpt>
<trkpt lat="37.57939371" lon="-1.0799529">
<ele>49</ele>
<time>2014-05-25T12:58:19Z</time>
</trkpt>
<trkpt lat="37.57941247" lon="-1.07994761">
<ele>49</ele>
<time>2014-05-25T12:58:21Z</time>
</trkpt>
<trkpt lat="37.57941948" lon="-1.07994713">
<ele>49</ele>
<time>2014-05-25T12:58:23Z</time>
</trkpt>
<trkpt lat="37.57943006" lon="-1.07995623">
<ele>50</ele>
<time>2014-05-25T12:58:25Z</time>
</trkpt>
<trkpt lat="37.57943751" lon="-1.07996444">
<ele>49</ele>
<time>2014-05-25T12:58:27Z</time>
</trkpt>
<trkpt lat="37.57944114" lon="-1.07996906">
<ele>49</ele>
<time>2014-05-25T12:58:29Z</time>
</trkpt>
<trkpt lat="37.57943963" lon="-1.07997413">
<ele>49</ele>
<time>2014-05-25T12:58:31Z</time>
</trkpt>
<trkpt lat="37.57944066" lon="-1.07998547">
<ele>49</ele>
<time>2014-05-25T12:58:33Z</time>
</trkpt>
<trkpt lat="37.5794316" lon="-1.08000379">
<ele>49</ele>
<time>2014-05-25T12:58:35Z</time>
</trkpt>
<trkpt lat="37.57942882" lon="-1.08000827">
<ele>49</ele>
<time>2014-05-25T12:58:37Z</time>
</trkpt>
<trkpt lat="37.57943683" lon="-1.07998677">
<ele>49</ele>
<time>2014-05-25T12:58:39Z</time>
</trkpt>
<trkpt lat="37.57944054" lon="-1.07997248">
<ele>49</ele>
<time>2014-05-25T12:58:41Z</time>
</trkpt>
<trkpt lat="37.57943461" lon="-1.07996026">
<ele>49</ele>
<time>2014-05-25T12:58:43Z</time>
</trkpt>
<trkpt lat="37.57941779" lon="-1.07995073">
<ele>49</ele>
<time>2014-05-25T12:58:45Z</time>
</trkpt>
<trkpt lat="37.57940215" lon="-1.07993965">
<ele>49</ele>
<time>2014-05-25T12:58:47Z</time>
</trkpt>
<trkpt lat="37.57938627" lon="-1.07993609">
<ele>49</ele>
<time>2014-05-25T12:58:49Z</time>
</trkpt>
<trkpt lat="37.57935791" lon="-1.07992129">
<ele>49</ele>
<time>2014-05-25T12:58:51Z</time>
</trkpt>
<trkpt lat="37.57932302" lon="-1.0798952">
<ele>49</ele>
<time>2014-05-25T12:58:53Z</time>
</trkpt>
<trkpt lat="37.57928774" lon="-1.07987181">
<ele>49</ele>
<time>2014-05-25T12:58:55Z</time>
</trkpt>
<trkpt lat="37.57925994" lon="-1.0798504">
<ele>49</ele>
<time>2014-05-25T12:58:57Z</time>
</trkpt>
<trkpt lat="37.5792362" lon="-1.07983077">
<ele>49</ele>
<time>2014-05-25T12:58:59Z</time>
</trkpt>
<trkpt lat="37.57919171" lon="-1.07978792">
<ele>49</ele>
<time>2014-05-25T12:59:01Z</time>
</trkpt>
<trkpt lat="37.57914247" lon="-1.07975817">
<ele>49</ele>
<time>2014-05-25T12:59:03Z</time>
</trkpt>
<trkpt lat="37.5791064" lon="-1.07974841">
<ele>49</ele>
<time>2014-05-25T12:59:05Z</time>
</trkpt>
<trkpt lat="37.57907268" lon="-1.07974017">
<ele>49</ele>
<time>2014-05-25T12:59:07Z</time>
</trkpt>
<trkpt lat="37.57904104" lon="-1.07973681">
<ele>49</ele>
<time>2014-05-25T12:59:09Z</time>
</trkpt>
<trkpt lat="37.57902485" lon="-1.07973361">
<ele>49</ele>
<time>2014-05-25T12:59:11Z</time>
</trkpt>
<trkpt lat="37.57900137" lon="-1.07972708">
<ele>49</ele>
<time>2014-05-25T12:59:13Z</time>
</trkpt>
<trkpt lat="37.57897506" lon="-1.07971928">
<ele>49</ele>
<time>2014-05-25T12:59:15Z</time>
</trkpt>
<trkpt lat="37.57894944" lon="-1.07971271">
<ele>49</ele>
<time>2014-05-25T12:59:17Z</time>
</trkpt>
<trkpt lat="37.57892463" lon="-1.07970629">
<ele>49</ele>
<time>2014-05-25T12:59:19Z</time>
</trkpt>
<trkpt lat="37.57889937" lon="-1.07970367">
<ele>49</ele>
<time>2014-05-25T12:59:21Z</time>
</trkpt>
<trkpt lat="37.57887536" lon="-1.07970307">
<ele>49</ele>
<time>2014-05-25T12:59:23Z</time>
</trkpt>
<trkpt lat="37.57886699" lon="-1.07973361">
<ele>48</ele>
<time>2014-05-25T12:59:25Z</time>
</trkpt>
<trkpt lat="37.57885431" lon="-1.07975564">
<ele>48</ele>
<time>2014-05-25T12:59:27Z</time>
</trkpt>
<trkpt lat="37.57884412" lon="-1.07979124">
<ele>48</ele>
<time>2014-05-25T12:59:29Z</time>
</trkpt>
<trkpt lat="37.57882895" lon="-1.07982728">
<ele>48</ele>
<time>2014-05-25T12:59:31Z</time>
</trkpt>
<trkpt lat="37.57880971" lon="-1.07985852">
<ele>48</ele>
<time>2014-05-25T12:59:33Z</time>
</trkpt>
<trkpt lat="37.57901133" lon="-1.0798112">
<ele>49</ele>
<time>2014-05-25T12:59:35Z</time>
</trkpt>
<trkpt lat="37.57900738" lon="-1.07981849">
<ele>48</ele>
<time>2014-05-25T12:59:37Z</time>
</trkpt>
<trkpt lat="37.57899434" lon="-1.07982531">
<ele>48</ele>
<time>2014-05-25T12:59:39Z</time>
</trkpt>
<trkpt lat="37.57897688" lon="-1.07983375">
<ele>48</ele>
<time>2014-05-25T12:59:41Z</time>
</trkpt>
<trkpt lat="37.57895195" lon="-1.07985365">
<ele>48</ele>
<time>2014-05-25T12:59:43Z</time>
</trkpt>
<trkpt lat="37.5789223" lon="-1.07988518">
<ele>48</ele>
<time>2014-05-25T12:59:45Z</time>
</trkpt>
<trkpt lat="37.57890766" lon="-1.07992528">
<ele>48</ele>
<time>2014-05-25T12:59:47Z</time>
</trkpt>
<trkpt lat="37.57888966" lon="-1.07996315">
<ele>48</ele>
<time>2014-05-25T12:59:49Z</time>
</trkpt>
<trkpt lat="37.57886608" lon="-1.0799999">
<ele>48</ele>
<time>2014-05-25T12:59:51Z</time>
</trkpt>
<trkpt lat="37.5786971" lon="-1.0805461">
<ele>46</ele>
<time>2014-05-25T12:59:53Z</time>
</trkpt>
<trkpt lat="37.57869146" lon="-1.08056471">
<ele>44</ele>
<time>2014-05-25T12:59:55Z</time>
</trkpt>
<trkpt lat="37.57868765" lon="-1.08058252">
<ele>48</ele>
<time>2014-05-25T12:59:57Z</time>
</trkpt>
<trkpt lat="37.5786847" lon="-1.08058868">
<ele>46</ele>
<time>2014-05-25T12:59:59Z</time>
</trkpt>
<trkpt lat="37.57869109" lon="-1.08057806">
<ele>46</ele>
<time>2014-05-25T13:00:01Z</time>
</trkpt>
<trkpt lat="37.57870338" lon="-1.08055644">
<ele>50</ele>
<time>2014-05-25T13:00:03Z</time>
</trkpt>
<trkpt lat="37.57871655" lon="-1.08053012">
<ele>50</ele>
<time>2014-05-25T13:00:05Z</time>
</trkpt>
<trkpt lat="37.5787202" lon="-1.08052255">
<ele>50</ele>
<time>2014-05-25T13:00:07Z</time>
</trkpt>
<trkpt lat="37.57872204" lon="-1.08052158">
<ele>48</ele>
<time>2014-05-25T13:00:09Z</time>
</trkpt>
<trkpt lat="37.57872227" lon="-1.08052163">
<ele>48</ele>
<time>2014-05-25T13:00:11Z</time>
</trkpt>
<trkpt lat="37.57872069" lon="-1.08052469">
<ele>49</ele>
<time>2014-05-25T13:00:13Z</time>
</trkpt>
<trkpt lat="37.57872002" lon="-1.08052625">
<ele>49</ele>
<time>2014-05-25T13:00:15Z</time>
</trkpt>
<trkpt lat="37.57871936" lon="-1.08052538">
<ele>49</ele>
<time>2014-05-25T13:00:17Z</time>
</trkpt>
<trkpt lat="37.57871954" lon="-1.08052578">
<ele>49</ele>
<time>2014-05-25T13:00:19Z</time>
</trkpt>
<trkpt lat="37.57871969" lon="-1.0805259">
<ele>49</ele>
<time>2014-05-25T13:00:21Z</time>
</trkpt>
<trkpt lat="37.57871976" lon="-1.08052622">
<ele>49</ele>
<time>2014-05-25T13:00:23Z</time>
</trkpt>
<trkpt lat="37.5787198" lon="-1.08052622">
<ele>49</ele>
<time>2014-05-25T13:00:25Z</time>
</trkpt>
<trkpt lat="37.57871985" lon="-1.08052631">
<ele>49</ele>
<time>2014-05-25T13:00:27Z</time>
</trkpt>
<trkpt lat="37.57871986" lon="-1.08052646">
<ele>49</ele>
<time>2014-05-25T13:00:29Z</time>
</trkpt>
<trkpt lat="37.57871988" lon="-1.0805266">
<ele>49</ele>
<time>2014-05-25T13:00:31Z</time>
</trkpt>
<trkpt lat="37.57871986" lon="-1.08052666">
<ele>49</ele>
<time>2014-05-25T13:00:33Z</time>
</trkpt>
<trkpt lat="37.57871979" lon="-1.08052659">
<ele>49</ele>
<time>2014-05-25T13:00:35Z</time>
</trkpt>
<trkpt lat="37.57871964" lon="-1.08052646">
<ele>49</ele>
<time>2014-05-25T13:00:37Z</time>
</trkpt>
<trkpt lat="37.57871951" lon="-1.08052643">
<ele>49</ele>
<time>2014-05-25T13:00:39Z</time>
</trkpt>
<trkpt lat="37.57871936" lon="-1.08052644">
<ele>49</ele>
<time>2014-05-25T13:00:41Z</time>
</trkpt>
<trkpt lat="37.57871921" lon="-1.08052642">
<ele>49</ele>
<time>2014-05-25T13:00:43Z</time>
</trkpt>
<trkpt lat="37.57871921" lon="-1.0805265">
<ele>49</ele>
<time>2014-05-25T13:00:45Z</time>
</trkpt>
<trkpt lat="37.57871912" lon="-1.08052645">
<ele>49</ele>
<time>2014-05-25T13:00:47Z</time>
</trkpt>
<trkpt lat="37.57871237" lon="-1.08053153">
<ele>49</ele>
<time>2014-05-25T13:00:49Z</time>
</trkpt>
<trkpt lat="37.57870437" lon="-1.08055383">
<ele>50</ele>
<time>2014-05-25T13:00:51Z</time>
</trkpt>
<trkpt lat="37.57869174" lon="-1.08058899">
<ele>50</ele>
<time>2014-05-25T13:00:53Z</time>
</trkpt>
<trkpt lat="37.57867692" lon="-1.08061372">
<ele>50</ele>
<time>2014-05-25T13:00:55Z</time>
</trkpt>
<trkpt lat="37.57866421" lon="-1.08064837">
<ele>51</ele>
<time>2014-05-25T13:00:57Z</time>
</trkpt>
<trkpt lat="37.57864498" lon="-1.08068668">
<ele>52</ele>
<time>2014-05-25T13:00:59Z</time>
</trkpt>
<trkpt lat="37.57861697" lon="-1.08071984">
<ele>51</ele>
<time>2014-05-25T13:01:01Z</time>
</trkpt>
<trkpt lat="37.57858582" lon="-1.08075633">
<ele>52</ele>
<time>2014-05-25T13:01:03Z</time>
</trkpt>
<trkpt lat="37.57855498" lon="-1.08080588">
<ele>52</ele>
<time>2014-05-25T13:01:05Z</time>
</trkpt>
<trkpt lat="37.57852435" lon="-1.08085124">
<ele>51</ele>
<time>2014-05-25T13:01:07Z</time>
</trkpt>
<trkpt lat="37.57850819" lon="-1.08087673">
<ele>51</ele>
<time>2014-05-25T13:01:09Z</time>
</trkpt>
<trkpt lat="37.57849483" lon="-1.0809008">
<ele>49</ele>
<time>2014-05-25T13:01:11Z</time>
</trkpt>
<trkpt lat="37.57849255" lon="-1.08091127">
<ele>49</ele>
<time>2014-05-25T13:01:13Z</time>
</trkpt>
<trkpt lat="37.57849485" lon="-1.08092038">
<ele>48</ele>
<time>2014-05-25T13:01:15Z</time>
</trkpt>
<trkpt lat="37.57850199" lon="-1.08092808">
<ele>48</ele>
<time>2014-05-25T13:01:17Z</time>
</trkpt>
<trkpt lat="37.57850875" lon="-1.08092958">
<ele>47</ele>
<time>2014-05-25T13:01:19Z</time>
</trkpt>
<trkpt lat="37.57849302" lon="-1.08094424">
<ele>47</ele>
<time>2014-05-25T13:01:21Z</time>
</trkpt>
<trkpt lat="37.57847337" lon="-1.08096292">
<ele>47</ele>
<time>2014-05-25T13:01:23Z</time>
</trkpt>
<trkpt lat="37.57845399" lon="-1.08099267">
<ele>48</ele>
<time>2014-05-25T13:01:25Z</time>
</trkpt>
<trkpt lat="37.57844663" lon="-1.0810228">
<ele>48</ele>
<time>2014-05-25T13:01:27Z</time>
</trkpt>
<trkpt lat="37.57843291" lon="-1.08105677">
<ele>46</ele>
<time>2014-05-25T13:01:29Z</time>
</trkpt>
<trkpt lat="37.57841083" lon="-1.08108607">
<ele>46</ele>
<time>2014-05-25T13:01:31Z</time>
</trkpt>
<trkpt lat="37.5783876" lon="-1.08111045">
<ele>46</ele>
<time>2014-05-25T13:01:33Z</time>
</trkpt>
<trkpt lat="37.57836706" lon="-1.08112311">
<ele>46</ele>
<time>2014-05-25T13:01:35Z</time>
</trkpt>
<trkpt lat="37.57833676" lon="-1.08114815">
<ele>46</ele>
<time>2014-05-25T13:01:37Z</time>
</trkpt>
<trkpt lat="37.57832857" lon="-1.08117589">
<ele>46</ele>
<time>2014-05-25T13:01:39Z</time>
</trkpt>
<trkpt lat="37.57832709" lon="-1.08120419">
<ele>46</ele>
<time>2014-05-25T13:01:41Z</time>
</trkpt>
<trkpt lat="37.57831171" lon="-1.08122254">
<ele>47</ele>
<time>2014-05-25T13:01:43Z</time>
</trkpt>
<trkpt lat="37.57830448" lon="-1.08124071">
<ele>47</ele>
<time>2014-05-25T13:01:45Z</time>
</trkpt>
<trkpt lat="37.5783027" lon="-1.08126537">
<ele>46</ele>
<time>2014-05-25T13:01:47Z</time>
</trkpt>
<trkpt lat="37.57830261" lon="-1.08130385">
<ele>47</ele>
<time>2014-05-25T13:01:49Z</time>
</trkpt>
<trkpt lat="37.57830589" lon="-1.08134625">
<ele>46</ele>
<time>2014-05-25T13:01:51Z</time>
</trkpt>
<trkpt lat="37.57830018" lon="-1.08139905">
<ele>45</ele>
<time>2014-05-25T13:01:53Z</time>
</trkpt>
<trkpt lat="37.57828788" lon="-1.08144631">
<ele>44</ele>
<time>2014-05-25T13:01:55Z</time>
</trkpt>
<trkpt lat="37.57826749" lon="-1.08147194">
<ele>44</ele>
<time>2014-05-25T13:01:57Z</time>
</trkpt>
<trkpt lat="37.57824667" lon="-1.08149675">
<ele>44</ele>
<time>2014-05-25T13:01:59Z</time>
</trkpt>
<trkpt lat="37.57822148" lon="-1.08151732">
<ele>44</ele>
<time>2014-05-25T13:02:01Z</time>
</trkpt>
<trkpt lat="37.57820663" lon="-1.08154322">
<ele>44</ele>
<time>2014-05-25T13:02:03Z</time>
</trkpt>
<trkpt lat="37.57819311" lon="-1.08156685">
<ele>45</ele>
<time>2014-05-25T13:02:05Z</time>
</trkpt>
<trkpt lat="37.57817732" lon="-1.08158803">
<ele>44</ele>
<time>2014-05-25T13:02:07Z</time>
</trkpt>
<trkpt lat="37.57815739" lon="-1.08159116">
<ele>43</ele>
<time>2014-05-25T13:02:09Z</time>
</trkpt>
<trkpt lat="37.57813327" lon="-1.08158258">
<ele>44</ele>
<time>2014-05-25T13:02:11Z</time>
</trkpt>
<trkpt lat="37.57811884" lon="-1.08156526">
<ele>44</ele>
<time>2014-05-25T13:02:13Z</time>
</trkpt>
<trkpt lat="37.57810812" lon="-1.08156091">
<ele>43</ele>
<time>2014-05-25T13:02:15Z</time>
</trkpt>
<trkpt lat="37.57810822" lon="-1.08156366">
<ele>44</ele>
<time>2014-05-25T13:02:17Z</time>
</trkpt>
<trkpt lat="37.57811347" lon="-1.08158462">
<ele>43</ele>
<time>2014-05-25T13:02:19Z</time>
</trkpt>
<trkpt lat="37.57813153" lon="-1.08164174">
<ele>43</ele>
<time>2014-05-25T13:02:21Z</time>
</trkpt>
<trkpt lat="37.57814831" lon="-1.0816909">
<ele>44</ele>
<time>2014-05-25T13:02:23Z</time>
</trkpt>
<trkpt lat="37.57815339" lon="-1.08172804">
<ele>44</ele>
<time>2014-05-25T13:02:25Z</time>
</trkpt>
<trkpt lat="37.57815265" lon="-1.08177386">
<ele>45</ele>
<time>2014-05-25T13:02:27Z</time>
</trkpt>
<trkpt lat="37.57815726" lon="-1.08180989">
<ele>45</ele>
<time>2014-05-25T13:02:29Z</time>
</trkpt>
<trkpt lat="37.57813981" lon="-1.08184559">
<ele>47</ele>
<time>2014-05-25T13:02:31Z</time>
</trkpt>
<trkpt lat="37.57811991" lon="-1.08186605">
<ele>48</ele>
<time>2014-05-25T13:02:33Z</time>
</trkpt>
<trkpt lat="37.57808244" lon="-1.08187116">
<ele>48</ele>
<time>2014-05-25T13:02:35Z</time>
</trkpt>
<trkpt lat="37.57804444" lon="-1.08186325">
<ele>49</ele>
<time>2014-05-25T13:02:37Z</time>
</trkpt>
<trkpt lat="37.57800123" lon="-1.08186067">
<ele>48</ele>
<time>2014-05-25T13:02:39Z</time>
</trkpt>
<trkpt lat="37.57795755" lon="-1.0818463">
<ele>48</ele>
<time>2014-05-25T13:02:41Z</time>
</trkpt>
<trkpt lat="37.57791649" lon="-1.08183946">
<ele>49</ele>
<time>2014-05-25T13:02:43Z</time>
</trkpt>
<trkpt lat="37.57787574" lon="-1.08184676">
<ele>49</ele>
<time>2014-05-25T13:02:45Z</time>
</trkpt>
<trkpt lat="37.57784115" lon="-1.08185176">
<ele>51</ele>
<time>2014-05-25T13:02:47Z</time>
</trkpt>
<trkpt lat="37.57781359" lon="-1.08184906">
<ele>49</ele>
<time>2014-05-25T13:02:49Z</time>
</trkpt>
<trkpt lat="37.57779477" lon="-1.08183925">
<ele>51</ele>
<time>2014-05-25T13:02:51Z</time>
</trkpt>
<trkpt lat="37.57777219" lon="-1.08183464">
<ele>49</ele>
<time>2014-05-25T13:02:53Z</time>
</trkpt>
<trkpt lat="37.57774301" lon="-1.08184081">
<ele>48</ele>
<time>2014-05-25T13:02:55Z</time>
</trkpt>
<trkpt lat="37.57772035" lon="-1.0818704">
<ele>48</ele>
<time>2014-05-25T13:02:57Z</time>
</trkpt>
<trkpt lat="37.57769899" lon="-1.0818864">
<ele>48</ele>
<time>2014-05-25T13:02:59Z</time>
</trkpt>
<trkpt lat="37.57766902" lon="-1.08190579">
<ele>48</ele>
<time>2014-05-25T13:03:01Z</time>
</trkpt>
<trkpt lat="37.57763962" lon="-1.08190939">
<ele>47</ele>
<time>2014-05-25T13:03:03Z</time>
</trkpt>
<trkpt lat="37.57760876" lon="-1.0819029">
<ele>47</ele>
<time>2014-05-25T13:03:05Z</time>
</trkpt>
<trkpt lat="37.57758905" lon="-1.08191613">
<ele>47</ele>
<time>2014-05-25T13:03:07Z</time>
</trkpt>
<trkpt lat="37.57757551" lon="-1.08193278">
<ele>46</ele>
<time>2014-05-25T13:03:09Z</time>
</trkpt>
<trkpt lat="37.5775766" lon="-1.08193437">
<ele>47</ele>
<time>2014-05-25T13:03:11Z</time>
</trkpt>
<trkpt lat="37.57758251" lon="-1.08193322">
<ele>46</ele>
<time>2014-05-25T13:03:13Z</time>
</trkpt>
<trkpt lat="37.57758335" lon="-1.08192697">
<ele>47</ele>
<time>2014-05-25T13:03:15Z</time>
</trkpt>
<trkpt lat="37.57757601" lon="-1.08193262">
<ele>47</ele>
<time>2014-05-25T13:03:17Z</time>
</trkpt>
<trkpt lat="37.57755622" lon="-1.08195672">
<ele>48</ele>
<time>2014-05-25T13:03:19Z</time>
</trkpt>
<trkpt lat="37.57753347" lon="-1.08198086">
<ele>47</ele>
<time>2014-05-25T13:03:21Z</time>
</trkpt>
<trkpt lat="37.57751023" lon="-1.08199539">
<ele>47</ele>
<time>2014-05-25T13:03:23Z</time>
</trkpt>
<trkpt lat="37.57748725" lon="-1.0820139">
<ele>47</ele>
<time>2014-05-25T13:03:25Z</time>
</trkpt>
<trkpt lat="37.57746999" lon="-1.08203481">
<ele>47</ele>
<time>2014-05-25T13:03:27Z</time>
</trkpt>
<trkpt lat="37.57745857" lon="-1.08205427">
<ele>47</ele>
<time>2014-05-25T13:03:29Z</time>
</trkpt>
<trkpt lat="37.57745193" lon="-1.08207931">
<ele>47</ele>
<time>2014-05-25T13:03:31Z</time>
</trkpt>
<trkpt lat="37.57745536" lon="-1.08209963">
<ele>46</ele>
<time>2014-05-25T13:03:33Z</time>
</trkpt>
<trkpt lat="37.5774597" lon="-1.08212059">
<ele>47</ele>
<time>2014-05-25T13:03:35Z</time>
</trkpt>
<trkpt lat="37.577456" lon="-1.08214431">
<ele>47</ele>
<time>2014-05-25T13:03:37Z</time>
</trkpt>
<trkpt lat="37.57744383" lon="-1.08216165">
<ele>47</ele>
<time>2014-05-25T13:03:39Z</time>
</trkpt>
<trkpt lat="37.57742944" lon="-1.0821866">
<ele>46</ele>
<time>2014-05-25T13:03:41Z</time>
</trkpt>
<trkpt lat="37.57741719" lon="-1.08220885">
<ele>48</ele>
<time>2014-05-25T13:03:43Z</time>
</trkpt>
<trkpt lat="37.5774088" lon="-1.08222954">
<ele>47</ele>
<time>2014-05-25T13:03:45Z</time>
</trkpt>
<trkpt lat="37.57739895" lon="-1.08225206">
<ele>46</ele>
<time>2014-05-25T13:03:47Z</time>
</trkpt>
<trkpt lat="37.57738433" lon="-1.08226535">
<ele>46</ele>
<time>2014-05-25T13:03:49Z</time>
</trkpt>
<trkpt lat="37.57735576" lon="-1.08227599">
<ele>46</ele>
<time>2014-05-25T13:03:51Z</time>
</trkpt>
<trkpt lat="37.57733049" lon="-1.08227555">
<ele>45</ele>
<time>2014-05-25T13:03:53Z</time>
</trkpt>
<trkpt lat="37.5773102" lon="-1.08227255">
<ele>44</ele>
<time>2014-05-25T13:03:55Z</time>
</trkpt>
<trkpt lat="37.5772974" lon="-1.08227682">
<ele>43</ele>
<time>2014-05-25T13:03:57Z</time>
</trkpt>
<trkpt lat="37.57728929" lon="-1.08228783">
<ele>43</ele>
<time>2014-05-25T13:03:59Z</time>
</trkpt>
<trkpt lat="37.57728623" lon="-1.08230072">
<ele>44</ele>
<time>2014-05-25T13:04:01Z</time>
</trkpt>
<trkpt lat="37.57728144" lon="-1.08231575">
<ele>44</ele>
<time>2014-05-25T13:04:03Z</time>
</trkpt>
<trkpt lat="37.57727821" lon="-1.08234767">
<ele>44</ele>
<time>2014-05-25T13:04:05Z</time>
</trkpt>
<trkpt lat="37.57727935" lon="-1.08237368">
<ele>44</ele>
<time>2014-05-25T13:04:07Z</time>
</trkpt>
<trkpt lat="37.57727922" lon="-1.08240603">
<ele>45</ele>
<time>2014-05-25T13:04:09Z</time>
</trkpt>
<trkpt lat="37.57728032" lon="-1.08241416">
<ele>45</ele>
<time>2014-05-25T13:04:11Z</time>
</trkpt>
<trkpt lat="37.57727224" lon="-1.08241931">
<ele>44</ele>
<time>2014-05-25T13:04:13Z</time>
</trkpt>
<trkpt lat="37.57726001" lon="-1.08241469">
<ele>45</ele>
<time>2014-05-25T13:04:15Z</time>
</trkpt>
<trkpt lat="37.5772424" lon="-1.0824135">
<ele>45</ele>
<time>2014-05-25T13:04:17Z</time>
</trkpt>
<trkpt lat="37.57723094" lon="-1.08241286">
<ele>44</ele>
<time>2014-05-25T13:04:19Z</time>
</trkpt>
<trkpt lat="37.57722846" lon="-1.08242514">
<ele>44</ele>
<time>2014-05-25T13:04:21Z</time>
</trkpt>
<trkpt lat="37.57722358" lon="-1.08243293">
<ele>45</ele>
<time>2014-05-25T13:04:23Z</time>
</trkpt>
<trkpt lat="37.57721332" lon="-1.08243967">
<ele>43</ele>
<time>2014-05-25T13:04:25Z</time>
</trkpt>
<trkpt lat="37.57719755" lon="-1.08244658">
<ele>45</ele>
<time>2014-05-25T13:04:27Z</time>
</trkpt>
<trkpt lat="37.5771828" lon="-1.08245986">
<ele>44</ele>
<time>2014-05-25T13:04:29Z</time>
</trkpt>
<trkpt lat="37.57717679" lon="-1.08248686">
<ele>45</ele>
<time>2014-05-25T13:04:31Z</time>
</trkpt>
<trkpt lat="37.57717632" lon="-1.08250635">
<ele>43</ele>
<time>2014-05-25T13:04:33Z</time>
</trkpt>
<trkpt lat="37.57716834" lon="-1.08253013">
<ele>44</ele>
<time>2014-05-25T13:04:35Z</time>
</trkpt>
<trkpt lat="37.57715156" lon="-1.08254768">
<ele>44</ele>
<time>2014-05-25T13:04:37Z</time>
</trkpt>
<trkpt lat="37.57713409" lon="-1.08256438">
<ele>44</ele>
<time>2014-05-25T13:04:39Z</time>
</trkpt>
<trkpt lat="37.57711662" lon="-1.08257727">
<ele>46</ele>
<time>2014-05-25T13:04:41Z</time>
</trkpt>
<trkpt lat="37.57709461" lon="-1.08258688">
<ele>47</ele>
<time>2014-05-25T13:04:43Z</time>
</trkpt>
<trkpt lat="37.57707317" lon="-1.08264101">
<ele>48</ele>
<time>2014-05-25T13:04:45Z</time>
</trkpt>
<trkpt lat="37.57705745" lon="-1.08269158">
<ele>47</ele>
<time>2014-05-25T13:04:47Z</time>
</trkpt>
<trkpt lat="37.57704374" lon="-1.08271972">
<ele>47</ele>
<time>2014-05-25T13:04:49Z</time>
</trkpt>
<trkpt lat="37.57703397" lon="-1.08272658">
<ele>46</ele>
<time>2014-05-25T13:04:51Z</time>
</trkpt>
<trkpt lat="37.57702713" lon="-1.08271842">
<ele>47</ele>
<time>2014-05-25T13:04:53Z</time>
</trkpt>
<trkpt lat="37.57701478" lon="-1.08272064">
<ele>46</ele>
<time>2014-05-25T13:04:55Z</time>
</trkpt>
<trkpt lat="37.57700934" lon="-1.08273565">
<ele>46</ele>
<time>2014-05-25T13:04:57Z</time>
</trkpt>
<trkpt lat="37.57700007" lon="-1.08275238">
<ele>45</ele>
<time>2014-05-25T13:04:59Z</time>
</trkpt>
<trkpt lat="37.57699167" lon="-1.08276836">
<ele>45</ele>
<time>2014-05-25T13:05:01Z</time>
</trkpt>
<trkpt lat="37.57698811" lon="-1.08278526">
<ele>45</ele>
<time>2014-05-25T13:05:03Z</time>
</trkpt>
<trkpt lat="37.576985" lon="-1.08280593">
<ele>45</ele>
<time>2014-05-25T13:05:05Z</time>
</trkpt>
<trkpt lat="37.57697389" lon="-1.08281861">
<ele>46</ele>
<time>2014-05-25T13:05:07Z</time>
</trkpt>
<trkpt lat="37.57695734" lon="-1.08282306">
<ele>46</ele>
<time>2014-05-25T13:05:09Z</time>
</trkpt>
<trkpt lat="37.57693933" lon="-1.08283809">
<ele>46</ele>
<time>2014-05-25T13:05:11Z</time>
</trkpt>
<trkpt lat="37.57692981" lon="-1.08283961">
<ele>45</ele>
<time>2014-05-25T13:05:13Z</time>
</trkpt>
<trkpt lat="37.57691467" lon="-1.08286568">
<ele>45</ele>
<time>2014-05-25T13:05:15Z</time>
</trkpt>
<trkpt lat="37.57690231" lon="-1.08289246">
<ele>44</ele>
<time>2014-05-25T13:05:17Z</time>
</trkpt>
<trkpt lat="37.57688144" lon="-1.0829216">
<ele>45</ele>
<time>2014-05-25T13:05:19Z</time>
</trkpt>
<trkpt lat="37.57686838" lon="-1.08294985">
<ele>43</ele>
<time>2014-05-25T13:05:21Z</time>
</trkpt>
<trkpt lat="37.57686657" lon="-1.08298388">
<ele>43</ele>
<time>2014-05-25T13:05:23Z</time>
</trkpt>
<trkpt lat="37.57688461" lon="-1.08301197">
<ele>43</ele>
<time>2014-05-25T13:05:25Z</time>
</trkpt>
<trkpt lat="37.57691724" lon="-1.08304451">
<ele>44</ele>
<time>2014-05-25T13:05:27Z</time>
</trkpt>
<trkpt lat="37.57694149" lon="-1.08307492">
<ele>44</ele>
<time>2014-05-25T13:05:29Z</time>
</trkpt>
<trkpt lat="37.57694506" lon="-1.08311001">
<ele>45</ele>
<time>2014-05-25T13:05:31Z</time>
</trkpt>
<trkpt lat="37.57693694" lon="-1.08314144">
<ele>45</ele>
<time>2014-05-25T13:05:33Z</time>
</trkpt>
<trkpt lat="37.57692013" lon="-1.08316038">
<ele>46</ele>
<time>2014-05-25T13:05:35Z</time>
</trkpt>
<trkpt lat="37.57691433" lon="-1.08317209">
<ele>46</ele>
<time>2014-05-25T13:05:37Z</time>
</trkpt>
<trkpt lat="37.57689616" lon="-1.08319221">
<ele>45</ele>
<time>2014-05-25T13:05:39Z</time>
</trkpt>
<trkpt lat="37.57687984" lon="-1.08320682">
<ele>45</ele>
<time>2014-05-25T13:05:41Z</time>
</trkpt>
<trkpt lat="37.57686927" lon="-1.08322946">
<ele>44</ele>
<time>2014-05-25T13:05:43Z</time>
</trkpt>
<trkpt lat="37.57685907" lon="-1.08327346">
<ele>43</ele>
<time>2014-05-25T13:05:45Z</time>
</trkpt>
<trkpt lat="37.57683835" lon="-1.08331087">
<ele>43</ele>
<time>2014-05-25T13:05:47Z</time>
</trkpt>
<trkpt lat="37.57681984" lon="-1.0833379">
<ele>43</ele>
<time>2014-05-25T13:05:49Z</time>
</trkpt>
<trkpt lat="37.57679425" lon="-1.08336476">
<ele>44</ele>
<time>2014-05-25T13:05:51Z</time>
</trkpt>
<trkpt lat="37.57677167" lon="-1.08340244">
<ele>45</ele>
<time>2014-05-25T13:05:53Z</time>
</trkpt>
<trkpt lat="37.57674461" lon="-1.08344129">
<ele>45</ele>
<time>2014-05-25T13:05:55Z</time>
</trkpt>
<trkpt lat="37.57672298" lon="-1.08348119">
<ele>46</ele>
<time>2014-05-25T13:05:57Z</time>
</trkpt>
<trkpt lat="37.57670144" lon="-1.08351411">
<ele>47</ele>
<time>2014-05-25T13:05:59Z</time>
</trkpt>
<trkpt lat="37.57667122" lon="-1.08353442">
<ele>46</ele>
<time>2014-05-25T13:06:01Z</time>
</trkpt>
<trkpt lat="37.57664917" lon="-1.08354063">
<ele>46</ele>
<time>2014-05-25T13:06:03Z</time>
</trkpt>
<trkpt lat="37.57662422" lon="-1.08354009">
<ele>47</ele>
<time>2014-05-25T13:06:05Z</time>
</trkpt>
<trkpt lat="37.57660751" lon="-1.08354925">
<ele>47</ele>
<time>2014-05-25T13:06:07Z</time>
</trkpt>
<trkpt lat="37.57658834" lon="-1.08355178">
<ele>48</ele>
<time>2014-05-25T13:06:09Z</time>
</trkpt>
<trkpt lat="37.57656022" lon="-1.0835514">
<ele>47</ele>
<time>2014-05-25T13:06:11Z</time>
</trkpt>
<trkpt lat="37.57654122" lon="-1.08354164">
<ele>47</ele>
<time>2014-05-25T13:06:13Z</time>
</trkpt>
<trkpt lat="37.57652628" lon="-1.08354215">
<ele>47</ele>
<time>2014-05-25T13:06:15Z</time>
</trkpt>
<trkpt lat="37.57651986" lon="-1.08356075">
<ele>45</ele>
<time>2014-05-25T13:06:17Z</time>
</trkpt>
<trkpt lat="37.57650909" lon="-1.08359122">
<ele>46</ele>
<time>2014-05-25T13:06:19Z</time>
</trkpt>
<trkpt lat="37.57650943" lon="-1.08363668">
<ele>46</ele>
<time>2014-05-25T13:06:21Z</time>
</trkpt>
<trkpt lat="37.57652627" lon="-1.08367128">
<ele>46</ele>
<time>2014-05-25T13:06:23Z</time>
</trkpt>
<trkpt lat="37.57651983" lon="-1.08368961">
<ele>47</ele>
<time>2014-05-25T13:06:25Z</time>
</trkpt>
<trkpt lat="37.57651081" lon="-1.08370946">
<ele>46</ele>
<time>2014-05-25T13:06:27Z</time>
</trkpt>
<trkpt lat="37.5764787" lon="-1.08373694">
<ele>46</ele>
<time>2014-05-25T13:06:29Z</time>
</trkpt>
<trkpt lat="37.57643064" lon="-1.08376619">
<ele>46</ele>
<time>2014-05-25T13:06:31Z</time>
</trkpt>
<trkpt lat="37.57636544" lon="-1.08381029">
<ele>44</ele>
<time>2014-05-25T13:06:33Z</time>
</trkpt>
<trkpt lat="37.57632396" lon="-1.08382822">
<ele>46</ele>
<time>2014-05-25T13:06:35Z</time>
</trkpt>
<trkpt lat="37.57630122" lon="-1.08382069">
<ele>44</ele>
<time>2014-05-25T13:06:37Z</time>
</trkpt>
<trkpt lat="37.57629211" lon="-1.08380997">
<ele>44</ele>
<time>2014-05-25T13:06:39Z</time>
</trkpt>
<trkpt lat="37.576281" lon="-1.08382196">
<ele>45</ele>
<time>2014-05-25T13:06:41Z</time>
</trkpt>
<trkpt lat="37.57627588" lon="-1.08382925">
<ele>45</ele>
<time>2014-05-25T13:06:43Z</time>
</trkpt>
<trkpt lat="37.57627542" lon="-1.08383225">
<ele>46</ele>
<time>2014-05-25T13:06:45Z</time>
</trkpt>
<trkpt lat="37.57627601" lon="-1.08383398">
<ele>46</ele>
<time>2014-05-25T13:06:47Z</time>
</trkpt>
<trkpt lat="37.57627618" lon="-1.08383432">
<ele>46</ele>
<time>2014-05-25T13:06:49Z</time>
</trkpt>
<trkpt lat="37.57627647" lon="-1.08383468">
<ele>46</ele>
<time>2014-05-25T13:06:51Z</time>
</trkpt>
<trkpt lat="37.57627684" lon="-1.0838347">
<ele>46</ele>
<time>2014-05-25T13:06:53Z</time>
</trkpt>
<trkpt lat="37.57627624" lon="-1.08383452">
<ele>46</ele>
<time>2014-05-25T13:06:55Z</time>
</trkpt>
<trkpt lat="37.57627851" lon="-1.08383583">
<ele>46</ele>
<time>2014-05-25T13:06:57Z</time>
</trkpt>
<trkpt lat="37.57627862" lon="-1.08383624">
<ele>46</ele>
<time>2014-05-25T13:06:59Z</time>
</trkpt>
<trkpt lat="37.57627784" lon="-1.08383518">
<ele>46</ele>
<time>2014-05-25T13:07:01Z</time>
</trkpt>
<trkpt lat="37.57627726" lon="-1.0838349">
<ele>46</ele>
<time>2014-05-25T13:07:03Z</time>
</trkpt>
<trkpt lat="37.57627871" lon="-1.0838349">
<ele>46</ele>
<time>2014-05-25T13:07:05Z</time>
</trkpt>
<trkpt lat="37.57627978" lon="-1.08383487">
<ele>46</ele>
<time>2014-05-25T13:07:07Z</time>
</trkpt>
<trkpt lat="37.57627963" lon="-1.08383413">
<ele>46</ele>
<time>2014-05-25T13:07:09Z</time>
</trkpt>
<trkpt lat="37.57627702" lon="-1.08383504">
<ele>46</ele>
<time>2014-05-25T13:07:11Z</time>
</trkpt>
<trkpt lat="37.57627564" lon="-1.08383698">
<ele>46</ele>
<time>2014-05-25T13:07:13Z</time>
</trkpt>
<trkpt lat="37.57627654" lon="-1.08383792">
<ele>46</ele>
<time>2014-05-25T13:07:15Z</time>
</trkpt>
<trkpt lat="37.57627706" lon="-1.08383789">
<ele>46</ele>
<time>2014-05-25T13:07:17Z</time>
</trkpt>
<trkpt lat="37.57627716" lon="-1.08383785">
<ele>46</ele>
<time>2014-05-25T13:07:19Z</time>
</trkpt>
<trkpt lat="37.57627736" lon="-1.083838">
<ele>46</ele>
<time>2014-05-25T13:07:21Z</time>
</trkpt>
<trkpt lat="37.57627761" lon="-1.08383812">
<ele>46</ele>
<time>2014-05-25T13:07:23Z</time>
</trkpt>
<trkpt lat="37.57627789" lon="-1.08383855">
<ele>46</ele>
<time>2014-05-25T13:07:25Z</time>
</trkpt>
<trkpt lat="37.57627786" lon="-1.08383843">
<ele>46</ele>
<time>2014-05-25T13:07:27Z</time>
</trkpt>
<trkpt lat="37.57627819" lon="-1.08383846">
<ele>46</ele>
<time>2014-05-25T13:07:29Z</time>
</trkpt>
<trkpt lat="37.57627842" lon="-1.08383802">
<ele>46</ele>
<time>2014-05-25T13:07:31Z</time>
</trkpt>
<trkpt lat="37.57628248" lon="-1.08385063">
<ele>44</ele>
<time>2014-05-25T13:07:33Z</time>
</trkpt>
<trkpt lat="37.57630876" lon="-1.08386672">
<ele>44</ele>
<time>2014-05-25T13:07:35Z</time>
</trkpt>
<trkpt lat="37.57633255" lon="-1.08387548">
<ele>48</ele>
<time>2014-05-25T13:07:37Z</time>
</trkpt>
<trkpt lat="37.57633488" lon="-1.08387253">
<ele>48</ele>
<time>2014-05-25T13:07:39Z</time>
</trkpt>
<trkpt lat="37.57635347" lon="-1.08388221">
<ele>48</ele>
<time>2014-05-25T13:07:41Z</time>
</trkpt>
<trkpt lat="37.57637705" lon="-1.08388493">
<ele>48</ele>
<time>2014-05-25T13:07:43Z</time>
</trkpt>
<trkpt lat="37.57639303" lon="-1.08388959">
<ele>48</ele>
<time>2014-05-25T13:07:45Z</time>
</trkpt>
<trkpt lat="37.57639498" lon="-1.08389147">
<ele>47</ele>
<time>2014-05-25T13:07:47Z</time>
</trkpt>
<trkpt lat="37.57639398" lon="-1.08389273">
<ele>47</ele>
<time>2014-05-25T13:07:49Z</time>
</trkpt>
<trkpt lat="37.5763953" lon="-1.08389415">
<ele>48</ele>
<time>2014-05-25T13:07:51Z</time>
</trkpt>
<trkpt lat="37.57639779" lon="-1.08389533">
<ele>48</ele>
<time>2014-05-25T13:07:53Z</time>
</trkpt>
<trkpt lat="37.57640093" lon="-1.08389896">
<ele>47</ele>
<time>2014-05-25T13:07:55Z</time>
</trkpt>
<trkpt lat="37.57640811" lon="-1.08389879">
<ele>47</ele>
<time>2014-05-25T13:07:57Z</time>
</trkpt>
<trkpt lat="37.57641518" lon="-1.08389587">
<ele>47</ele>
<time>2014-05-25T13:07:59Z</time>
</trkpt>
<trkpt lat="37.57642009" lon="-1.08389277">
<ele>48</ele>
<time>2014-05-25T13:08:01Z</time>
</trkpt>
<trkpt lat="37.57643435" lon="-1.08388561">
<ele>49</ele>
<time>2014-05-25T13:08:03Z</time>
</trkpt>
<trkpt lat="37.57644932" lon="-1.08387395">
<ele>47</ele>
<time>2014-05-25T13:08:05Z</time>
</trkpt>
<trkpt lat="37.57646625" lon="-1.08386299">
<ele>47</ele>
<time>2014-05-25T13:08:07Z</time>
</trkpt>
<trkpt lat="37.57647564" lon="-1.08385448">
<ele>46</ele>
<time>2014-05-25T13:08:09Z</time>
</trkpt>
<trkpt lat="37.57648977" lon="-1.0838459">
<ele>45</ele>
<time>2014-05-25T13:08:11Z</time>
</trkpt>
<trkpt lat="37.57649932" lon="-1.08384056">
<ele>45</ele>
<time>2014-05-25T13:08:13Z</time>
</trkpt>
<trkpt lat="37.57649428" lon="-1.08384803">
<ele>44</ele>
<time>2014-05-25T13:08:15Z</time>
</trkpt>
<trkpt lat="37.57650279" lon="-1.08385132">
<ele>45</ele>
<time>2014-05-25T13:08:17Z</time>
</trkpt>
<trkpt lat="37.57650585" lon="-1.08385625">
<ele>46</ele>
<time>2014-05-25T13:08:19Z</time>
</trkpt>
<trkpt lat="37.57650803" lon="-1.08386101">
<ele>46</ele>
<time>2014-05-25T13:08:21Z</time>
</trkpt>
<trkpt lat="37.57651095" lon="-1.08386879">
<ele>47</ele>
<time>2014-05-25T13:08:23Z</time>
</trkpt>
<trkpt lat="37.57651112" lon="-1.08387311">
<ele>47</ele>
<time>2014-05-25T13:08:25Z</time>
</trkpt>
<trkpt lat="37.57651371" lon="-1.08387611">
<ele>46</ele>
<time>2014-05-25T13:08:27Z</time>
</trkpt>
<trkpt lat="37.57651538" lon="-1.08388078">
<ele>46</ele>
<time>2014-05-25T13:08:29Z</time>
</trkpt>
<trkpt lat="37.57651577" lon="-1.08388447">
<ele>46</ele>
<time>2014-05-25T13:08:31Z</time>
</trkpt>
<trkpt lat="37.57651591" lon="-1.08388578">
<ele>46</ele>
<time>2014-05-25T13:08:33Z</time>
</trkpt>
<trkpt lat="37.57651609" lon="-1.08388563">
<ele>46</ele>
<time>2014-05-25T13:08:35Z</time>
</trkpt>
<trkpt lat="37.57651948" lon="-1.08387384">
<ele>45</ele>
<time>2014-05-25T13:08:37Z</time>
</trkpt>
<trkpt lat="37.57652185" lon="-1.08386541">
<ele>45</ele>
<time>2014-05-25T13:08:39Z</time>
</trkpt>
<trkpt lat="37.57652736" lon="-1.08383562">
<ele>43</ele>
<time>2014-05-25T13:08:41Z</time>
</trkpt>
<trkpt lat="37.57652958" lon="-1.08380443">
<ele>43</ele>
<time>2014-05-25T13:08:43Z</time>
</trkpt>
<trkpt lat="37.57652585" lon="-1.0837734">
<ele>42</ele>
<time>2014-05-25T13:08:45Z</time>
</trkpt>
<trkpt lat="37.57651609" lon="-1.08374477">
<ele>40</ele>
<time>2014-05-25T13:08:47Z</time>
</trkpt>
<trkpt lat="37.57650439" lon="-1.08371845">
<ele>38</ele>
<time>2014-05-25T13:08:49Z</time>
</trkpt>
<trkpt lat="37.57648807" lon="-1.08369627">
<ele>37</ele>
<time>2014-05-25T13:08:51Z</time>
</trkpt>
<trkpt lat="37.57646639" lon="-1.08368692">
<ele>34</ele>
<time>2014-05-25T13:08:53Z</time>
</trkpt>
<trkpt lat="37.57644069" lon="-1.08368692">
<ele>32</ele>
<time>2014-05-25T13:08:55Z</time>
</trkpt>
<trkpt lat="37.57641497" lon="-1.08369868">
<ele>31</ele>
<time>2014-05-25T13:08:57Z</time>
</trkpt>
<trkpt lat="37.5763995" lon="-1.08371218">
<ele>32</ele>
<time>2014-05-25T13:08:59Z</time>
</trkpt>
<trkpt lat="37.57639036" lon="-1.08373003">
<ele>34</ele>
<time>2014-05-25T13:09:01Z</time>
</trkpt>
<trkpt lat="37.57638335" lon="-1.08375058">
<ele>34</ele>
<time>2014-05-25T13:09:03Z</time>
</trkpt>
<trkpt lat="37.57637691" lon="-1.08377126">
<ele>35</ele>
<time>2014-05-25T13:09:05Z</time>
</trkpt>
<trkpt lat="37.57636371" lon="-1.08379755">
<ele>35</ele>
<time>2014-05-25T13:09:07Z</time>
</trkpt>
<trkpt lat="37.57634968" lon="-1.08382531">
<ele>36</ele>
<time>2014-05-25T13:09:09Z</time>
</trkpt>
<trkpt lat="37.57633136" lon="-1.08385275">
<ele>36</ele>
<time>2014-05-25T13:09:11Z</time>
</trkpt>
<trkpt lat="37.57631461" lon="-1.08387692">
<ele>36</ele>
<time>2014-05-25T13:09:13Z</time>
</trkpt>
<trkpt lat="37.57630215" lon="-1.08389432">
<ele>38</ele>
<time>2014-05-25T13:09:15Z</time>
</trkpt>
<trkpt lat="37.57629347" lon="-1.08391775">
<ele>39</ele>
<time>2014-05-25T13:09:17Z</time>
</trkpt>
<trkpt lat="37.57628134" lon="-1.08394157">
<ele>41</ele>
<time>2014-05-25T13:09:19Z</time>
</trkpt>
<trkpt lat="37.57626303" lon="-1.08396596">
<ele>43</ele>
<time>2014-05-25T13:09:21Z</time>
</trkpt>
<trkpt lat="37.5762428" lon="-1.08398706">
<ele>44</ele>
<time>2014-05-25T13:09:23Z</time>
</trkpt>
<trkpt lat="37.576225" lon="-1.08401071">
<ele>44</ele>
<time>2014-05-25T13:09:25Z</time>
</trkpt>
<trkpt lat="37.57620823" lon="-1.08403649">
<ele>43</ele>
<time>2014-05-25T13:09:27Z</time>
</trkpt>
<trkpt lat="37.5761964" lon="-1.08406569">
<ele>44</ele>
<time>2014-05-25T13:09:29Z</time>
</trkpt>
<trkpt lat="37.57618553" lon="-1.08409764">
<ele>44</ele>
<time>2014-05-25T13:09:31Z</time>
</trkpt>
<trkpt lat="37.57617285" lon="-1.08413174">
<ele>46</ele>
<time>2014-05-25T13:09:33Z</time>
</trkpt>
<trkpt lat="37.57615708" lon="-1.08415882">
<ele>46</ele>
<time>2014-05-25T13:09:35Z</time>
</trkpt>
<trkpt lat="37.57614085" lon="-1.08418629">
<ele>46</ele>
<time>2014-05-25T13:09:37Z</time>
</trkpt>
<trkpt lat="37.57612194" lon="-1.08421488">
<ele>46</ele>
<time>2014-05-25T13:09:39Z</time>
</trkpt>
<trkpt lat="37.57610355" lon="-1.0842329">
<ele>47</ele>
<time>2014-05-25T13:09:41Z</time>
</trkpt>
<trkpt lat="37.57608791" lon="-1.08425587">
<ele>46</ele>
<time>2014-05-25T13:09:43Z</time>
</trkpt>
<trkpt lat="37.57607164" lon="-1.08427818">
<ele>45</ele>
<time>2014-05-25T13:09:45Z</time>
</trkpt>
<trkpt lat="37.57605257" lon="-1.08430266">
<ele>45</ele>
<time>2014-05-25T13:09:47Z</time>
</trkpt>
<trkpt lat="37.57603182" lon="-1.08432828">
<ele>46</ele>
<time>2014-05-25T13:09:49Z</time>
</trkpt>
<trkpt lat="37.57600612" lon="-1.084355">
<ele>46</ele>
<time>2014-05-25T13:09:51Z</time>
</trkpt>
<trkpt lat="37.57598289" lon="-1.08437839">
<ele>47</ele>
<time>2014-05-25T13:09:53Z</time>
</trkpt>
<trkpt lat="37.57595753" lon="-1.08440118">
<ele>48</ele>
<time>2014-05-25T13:09:55Z</time>
</trkpt>
<trkpt lat="37.57593059" lon="-1.08442605">
<ele>48</ele>
<time>2014-05-25T13:09:57Z</time>
</trkpt>
<trkpt lat="37.57590645" lon="-1.08444761">
<ele>48</ele>
<time>2014-05-25T13:09:59Z</time>
</trkpt>
<trkpt lat="37.57588113" lon="-1.08447684">
<ele>48</ele>
<time>2014-05-25T13:10:01Z</time>
</trkpt>
<trkpt lat="37.57586231" lon="-1.08450969">
<ele>47</ele>
<time>2014-05-25T13:10:03Z</time>
</trkpt>
<trkpt lat="37.5758413" lon="-1.08453503">
<ele>48</ele>
<time>2014-05-25T13:10:05Z</time>
</trkpt>
<trkpt lat="37.57582363" lon="-1.0845654">
<ele>48</ele>
<time>2014-05-25T13:10:07Z</time>
</trkpt>
<trkpt lat="37.5758051" lon="-1.08459192">
<ele>47</ele>
<time>2014-05-25T13:10:09Z</time>
</trkpt>
<trkpt lat="37.57578603" lon="-1.08461842">
<ele>47</ele>
<time>2014-05-25T13:10:11Z</time>
</trkpt>
<trkpt lat="37.57576295" lon="-1.08464155">
<ele>47</ele>
<time>2014-05-25T13:10:13Z</time>
</trkpt>
<trkpt lat="37.57574163" lon="-1.08466449">
<ele>48</ele>
<time>2014-05-25T13:10:15Z</time>
</trkpt>
<trkpt lat="37.57571857" lon="-1.08468633">
<ele>49</ele>
<time>2014-05-25T13:10:17Z</time>
</trkpt>
<trkpt lat="37.57569763" lon="-1.08471091">
<ele>49</ele>
<time>2014-05-25T13:10:19Z</time>
</trkpt>
<trkpt lat="37.57568042" lon="-1.08473688">
<ele>50</ele>
<time>2014-05-25T13:10:21Z</time>
</trkpt>
<trkpt lat="37.57566502" lon="-1.08476983">
<ele>50</ele>
<time>2014-05-25T13:10:23Z</time>
</trkpt>
<trkpt lat="37.57564913" lon="-1.08479854">
<ele>49</ele>
<time>2014-05-25T13:10:25Z</time>
</trkpt>
<trkpt lat="37.575631" lon="-1.08482976">
<ele>47</ele>
<time>2014-05-25T13:10:27Z</time>
</trkpt>
<trkpt lat="37.57561235" lon="-1.08485871">
<ele>48</ele>
<time>2014-05-25T13:10:29Z</time>
</trkpt>
<trkpt lat="37.57559049" lon="-1.08488543">
<ele>47</ele>
<time>2014-05-25T13:10:31Z</time>
</trkpt>
<trkpt lat="37.57557307" lon="-1.0849109">
<ele>47</ele>
<time>2014-05-25T13:10:33Z</time>
</trkpt>
<trkpt lat="37.57555748" lon="-1.08493763">
<ele>47</ele>
<time>2014-05-25T13:10:35Z</time>
</trkpt>
<trkpt lat="37.57554594" lon="-1.08496856">
<ele>48</ele>
<time>2014-05-25T13:10:37Z</time>
</trkpt>
<trkpt lat="37.57553149" lon="-1.08499789">
<ele>48</ele>
<time>2014-05-25T13:10:39Z</time>
</trkpt>
<trkpt lat="37.57551026" lon="-1.08502018">
<ele>48</ele>
<time>2014-05-25T13:10:41Z</time>
</trkpt>
<trkpt lat="37.57548877" lon="-1.08504023">
<ele>48</ele>
<time>2014-05-25T13:10:43Z</time>
</trkpt>
<trkpt lat="37.57547452" lon="-1.0850637">
<ele>49</ele>
<time>2014-05-25T13:10:45Z</time>
</trkpt>
<trkpt lat="37.57545736" lon="-1.08510015">
<ele>51</ele>
<time>2014-05-25T13:10:47Z</time>
</trkpt>
<trkpt lat="37.57545345" lon="-1.08513015">
<ele>51</ele>
<time>2014-05-25T13:10:49Z</time>
</trkpt>
<trkpt lat="37.5754398" lon="-1.08516005">
<ele>50</ele>
<time>2014-05-25T13:10:51Z</time>
</trkpt>
<trkpt lat="37.57543061" lon="-1.08519039">
<ele>49</ele>
<time>2014-05-25T13:10:53Z</time>
</trkpt>
<trkpt lat="37.5754225" lon="-1.08521748">
<ele>49</ele>
<time>2014-05-25T13:10:55Z</time>
</trkpt>
<trkpt lat="37.57540652" lon="-1.08524329">
<ele>50</ele>
<time>2014-05-25T13:10:57Z</time>
</trkpt>
<trkpt lat="37.57538689" lon="-1.08526657">
<ele>50</ele>
<time>2014-05-25T13:10:59Z</time>
</trkpt>
<trkpt lat="37.57537505" lon="-1.08530178">
<ele>49</ele>
<time>2014-05-25T13:11:01Z</time>
</trkpt>
<trkpt lat="37.57536692" lon="-1.08533629">
<ele>50</ele>
<time>2014-05-25T13:11:03Z</time>
</trkpt>
<trkpt lat="37.57535537" lon="-1.08536738">
<ele>50</ele>
<time>2014-05-25T13:11:05Z</time>
</trkpt>
<trkpt lat="37.57534072" lon="-1.08539323">
<ele>51</ele>
<time>2014-05-25T13:11:07Z</time>
</trkpt>
<trkpt lat="37.57532268" lon="-1.08541142">
<ele>52</ele>
<time>2014-05-25T13:11:09Z</time>
</trkpt>
<trkpt lat="37.57530743" lon="-1.08543148">
<ele>52</ele>
<time>2014-05-25T13:11:11Z</time>
</trkpt>
<trkpt lat="37.5752971" lon="-1.08545179">
<ele>53</ele>
<time>2014-05-25T13:11:13Z</time>
</trkpt>
<trkpt lat="37.5752864" lon="-1.08548151">
<ele>53</ele>
<time>2014-05-25T13:11:15Z</time>
</trkpt>
<trkpt lat="37.57526459" lon="-1.0854921">
<ele>54</ele>
<time>2014-05-25T13:11:17Z</time>
</trkpt>
<trkpt lat="37.57524904" lon="-1.08550223">
<ele>55</ele>
<time>2014-05-25T13:11:19Z</time>
</trkpt>
<trkpt lat="37.57523108" lon="-1.08552158">
<ele>54</ele>
<time>2014-05-25T13:11:21Z</time>
</trkpt>
<trkpt lat="37.5752131" lon="-1.0855445">
<ele>53</ele>
<time>2014-05-25T13:11:23Z</time>
</trkpt>
<trkpt lat="37.57519323" lon="-1.08557307">
<ele>54</ele>
<time>2014-05-25T13:11:25Z</time>
</trkpt>
<trkpt lat="37.57517508" lon="-1.08560399">
<ele>52</ele>
<time>2014-05-25T13:11:27Z</time>
</trkpt>
<trkpt lat="37.57515857" lon="-1.0856282">
<ele>53</ele>
<time>2014-05-25T13:11:29Z</time>
</trkpt>
<trkpt lat="37.57514558" lon="-1.08564365">
<ele>53</ele>
<time>2014-05-25T13:11:31Z</time>
</trkpt>
<trkpt lat="37.57513345" lon="-1.08566677">
<ele>52</ele>
<time>2014-05-25T13:11:33Z</time>
</trkpt>
<trkpt lat="37.5751177" lon="-1.08569143">
<ele>52</ele>
<time>2014-05-25T13:11:35Z</time>
</trkpt>
<trkpt lat="37.57509941" lon="-1.08571919">
<ele>53</ele>
<time>2014-05-25T13:11:37Z</time>
</trkpt>
<trkpt lat="37.57509745" lon="-1.08574826">
<ele>52</ele>
<time>2014-05-25T13:11:39Z</time>
</trkpt>
<trkpt lat="37.57508917" lon="-1.08577175">
<ele>53</ele>
<time>2014-05-25T13:11:41Z</time>
</trkpt>
<trkpt lat="37.57507721" lon="-1.08580075">
<ele>53</ele>
<time>2014-05-25T13:11:43Z</time>
</trkpt>
<trkpt lat="37.57506144" lon="-1.08582596">
<ele>53</ele>
<time>2014-05-25T13:11:45Z</time>
</trkpt>
<trkpt lat="37.57504839" lon="-1.08585242">
<ele>54</ele>
<time>2014-05-25T13:11:47Z</time>
</trkpt>
<trkpt lat="37.57502984" lon="-1.08588124">
<ele>55</ele>
<time>2014-05-25T13:11:49Z</time>
</trkpt>
<trkpt lat="37.57500716" lon="-1.08591041">
<ele>54</ele>
<time>2014-05-25T13:11:51Z</time>
</trkpt>
<trkpt lat="37.57498909" lon="-1.08594898">
<ele>52</ele>
<time>2014-05-25T13:11:53Z</time>
</trkpt>
<trkpt lat="37.57497147" lon="-1.08598007">
<ele>52</ele>
<time>2014-05-25T13:11:55Z</time>
</trkpt>
<trkpt lat="37.57494821" lon="-1.08600784">
<ele>53</ele>
<time>2014-05-25T13:11:57Z</time>
</trkpt>
<trkpt lat="37.57492579" lon="-1.08603975">
<ele>50</ele>
<time>2014-05-25T13:11:59Z</time>
</trkpt>
<trkpt lat="37.57490715" lon="-1.08607361">
<ele>49</ele>
<time>2014-05-25T13:12:01Z</time>
</trkpt>
<trkpt lat="37.57489328" lon="-1.08610275">
<ele>50</ele>
<time>2014-05-25T13:12:03Z</time>
</trkpt>
<trkpt lat="37.57488242" lon="-1.08614162">
<ele>52</ele>
<time>2014-05-25T13:12:05Z</time>
</trkpt>
<trkpt lat="37.57487749" lon="-1.08618279">
<ele>54</ele>
<time>2014-05-25T13:12:07Z</time>
</trkpt>
<trkpt lat="37.57487709" lon="-1.08622184">
<ele>54</ele>
<time>2014-05-25T13:12:09Z</time>
</trkpt>
<trkpt lat="37.57487591" lon="-1.08626338">
<ele>54</ele>
<time>2014-05-25T13:12:11Z</time>
</trkpt>
<trkpt lat="37.57487073" lon="-1.08629716">
<ele>53</ele>
<time>2014-05-25T13:12:13Z</time>
</trkpt>
<trkpt lat="37.57486128" lon="-1.08633047">
<ele>55</ele>
<time>2014-05-25T13:12:15Z</time>
</trkpt>
<trkpt lat="37.57484897" lon="-1.08635887">
<ele>55</ele>
<time>2014-05-25T13:12:17Z</time>
</trkpt>
<trkpt lat="37.57483454" lon="-1.08638335">
<ele>55</ele>
<time>2014-05-25T13:12:19Z</time>
</trkpt>
<trkpt lat="37.57482607" lon="-1.08640304">
<ele>54</ele>
<time>2014-05-25T13:12:21Z</time>
</trkpt>
<trkpt lat="37.57481752" lon="-1.08641857">
<ele>55</ele>
<time>2014-05-25T13:12:23Z</time>
</trkpt>
<trkpt lat="37.57480693" lon="-1.08644189">
<ele>55</ele>
<time>2014-05-25T13:12:25Z</time>
</trkpt>
<trkpt lat="37.57479652" lon="-1.08646614">
<ele>54</ele>
<time>2014-05-25T13:12:27Z</time>
</trkpt>
<trkpt lat="37.57478349" lon="-1.08649128">
<ele>54</ele>
<time>2014-05-25T13:12:29Z</time>
</trkpt>
<trkpt lat="37.5747713" lon="-1.08651523">
<ele>54</ele>
<time>2014-05-25T13:12:31Z</time>
</trkpt>
<trkpt lat="37.5747642" lon="-1.08654268">
<ele>54</ele>
<time>2014-05-25T13:12:33Z</time>
</trkpt>
<trkpt lat="37.57475634" lon="-1.08656701">
<ele>56</ele>
<time>2014-05-25T13:12:35Z</time>
</trkpt>
<trkpt lat="37.57474765" lon="-1.08658518">
<ele>56</ele>
<time>2014-05-25T13:12:37Z</time>
</trkpt>
<trkpt lat="37.57473931" lon="-1.08661774">
<ele>56</ele>
<time>2014-05-25T13:12:39Z</time>
</trkpt>
<trkpt lat="37.57474558" lon="-1.08662608">
<ele>56</ele>
<time>2014-05-25T13:12:41Z</time>
</trkpt>
<trkpt lat="37.57474902" lon="-1.08664426">
<ele>56</ele>
<time>2014-05-25T13:12:43Z</time>
</trkpt>
<trkpt lat="37.57474721" lon="-1.08664726">
<ele>56</ele>
<time>2014-05-25T13:12:45Z</time>
</trkpt>
<trkpt lat="37.5747461" lon="-1.08665197">
<ele>56</ele>
<time>2014-05-25T13:12:47Z</time>
</trkpt>
<trkpt lat="37.57474671" lon="-1.08666338">
<ele>56</ele>
<time>2014-05-25T13:12:49Z</time>
</trkpt>
<trkpt lat="37.57474671" lon="-1.08666338">
<ele>56</ele>
<time>2014-05-25T13:12:51Z</time>
</trkpt>
<trkpt lat="37.57474687" lon="-1.08669254">
<ele>57</ele>
<time>2014-05-25T13:12:53Z</time>
</trkpt>
<trkpt lat="37.57473353" lon="-1.08672548">
<ele>58</ele>
<time>2014-05-25T13:12:55Z</time>
</trkpt>
<trkpt lat="37.57472066" lon="-1.08677275">
<ele>58</ele>
<time>2014-05-25T13:12:57Z</time>
</trkpt>
<trkpt lat="37.57470896" lon="-1.08683012">
<ele>58</ele>
<time>2014-05-25T13:12:59Z</time>
</trkpt>
<trkpt lat="37.57469751" lon="-1.08687737">
<ele>57</ele>
<time>2014-05-25T13:13:01Z</time>
</trkpt>
<trkpt lat="37.57468555" lon="-1.0869199">
<ele>57</ele>
<time>2014-05-25T13:13:03Z</time>
</trkpt>
<trkpt lat="37.57467403" lon="-1.08695669">
<ele>57</ele>
<time>2014-05-25T13:13:05Z</time>
</trkpt>
<trkpt lat="37.57466748" lon="-1.08699069">
<ele>57</ele>
<time>2014-05-25T13:13:07Z</time>
</trkpt>
<trkpt lat="37.57466244" lon="-1.08702491">
<ele>58</ele>
<time>2014-05-25T13:13:09Z</time>
</trkpt>
<trkpt lat="37.57465975" lon="-1.08706084">
<ele>58</ele>
<time>2014-05-25T13:13:11Z</time>
</trkpt>
<trkpt lat="37.57466018" lon="-1.08709242">
<ele>58</ele>
<time>2014-05-25T13:13:13Z</time>
</trkpt>
<trkpt lat="37.57466264" lon="-1.08712664">
<ele>59</ele>
<time>2014-05-25T13:13:15Z</time>
</trkpt>
<trkpt lat="37.57466574" lon="-1.08716158">
<ele>60</ele>
<time>2014-05-25T13:13:17Z</time>
</trkpt>
<trkpt lat="37.5746713" lon="-1.08720194">
<ele>60</ele>
<time>2014-05-25T13:13:19Z</time>
</trkpt>
<trkpt lat="37.57468186" lon="-1.08724961">
<ele>61</ele>
<time>2014-05-25T13:13:21Z</time>
</trkpt>
<trkpt lat="37.57469169" lon="-1.08729398">
<ele>60</ele>
<time>2014-05-25T13:13:23Z</time>
</trkpt>
<trkpt lat="37.5746966" lon="-1.08733696">
<ele>62</ele>
<time>2014-05-25T13:13:25Z</time>
</trkpt>
<trkpt lat="37.57469949" lon="-1.08737291">
<ele>62</ele>
<time>2014-05-25T13:13:27Z</time>
</trkpt>
<trkpt lat="37.57470277" lon="-1.0874085">
<ele>63</ele>
<time>2014-05-25T13:13:29Z</time>
</trkpt>
<trkpt lat="37.57470732" lon="-1.087443">
<ele>64</ele>
<time>2014-05-25T13:13:31Z</time>
</trkpt>
<trkpt lat="37.57471315" lon="-1.08747698">
<ele>64</ele>
<time>2014-05-25T13:13:33Z</time>
</trkpt>
<trkpt lat="37.57471846" lon="-1.08752137">
<ele>63</ele>
<time>2014-05-25T13:13:35Z</time>
</trkpt>
<trkpt lat="37.57472573" lon="-1.08757166">
<ele>63</ele>
<time>2014-05-25T13:13:37Z</time>
</trkpt>
<trkpt lat="37.57473783" lon="-1.08762867">
<ele>63</ele>
<time>2014-05-25T13:13:39Z</time>
</trkpt>
<trkpt lat="37.57474929" lon="-1.08767376">
<ele>62</ele>
<time>2014-05-25T13:13:41Z</time>
</trkpt>
<trkpt lat="37.57475848" lon="-1.08770579">
<ele>62</ele>
<time>2014-05-25T13:13:43Z</time>
</trkpt>
<trkpt lat="37.5747693" lon="-1.08773256">
<ele>63</ele>
<time>2014-05-25T13:13:45Z</time>
</trkpt>
<trkpt lat="37.57477758" lon="-1.08774237">
<ele>62</ele>
<time>2014-05-25T13:13:47Z</time>
</trkpt>
<trkpt lat="37.57478601" lon="-1.08774644">
<ele>62</ele>
<time>2014-05-25T13:13:49Z</time>
</trkpt>
<trkpt lat="37.57479229" lon="-1.08774668">
<ele>61</ele>
<time>2014-05-25T13:13:51Z</time>
</trkpt>
<trkpt lat="37.57479327" lon="-1.08774023">
<ele>61</ele>
<time>2014-05-25T13:13:53Z</time>
</trkpt>
<trkpt lat="37.57479247" lon="-1.08773636">
<ele>61</ele>
<time>2014-05-25T13:13:55Z</time>
</trkpt>
<trkpt lat="37.5747933" lon="-1.08773664">
<ele>61</ele>
<time>2014-05-25T13:13:57Z</time>
</trkpt>
<trkpt lat="37.5747933" lon="-1.08773664">
<ele>61</ele>
<time>2014-05-25T13:13:59Z</time>
</trkpt>
<trkpt lat="37.5747796" lon="-1.08773078">
<ele>61</ele>
<time>2014-05-25T13:14:01Z</time>
</trkpt>
<trkpt lat="37.57477166" lon="-1.08773188">
<ele>61</ele>
<time>2014-05-25T13:14:03Z</time>
</trkpt>
<trkpt lat="37.57475319" lon="-1.08775044">
<ele>62</ele>
<time>2014-05-25T13:14:05Z</time>
</trkpt>
<trkpt lat="37.5747349" lon="-1.08776694">
<ele>62</ele>
<time>2014-05-25T13:14:07Z</time>
</trkpt>
<trkpt lat="37.57470263" lon="-1.08778305">
<ele>59</ele>
<time>2014-05-25T13:14:09Z</time>
</trkpt>
<trkpt lat="37.5746681" lon="-1.08779558">
<ele>58</ele>
<time>2014-05-25T13:14:11Z</time>
</trkpt>
<trkpt lat="37.57463214" lon="-1.08780339">
<ele>57</ele>
<time>2014-05-25T13:14:13Z</time>
</trkpt>
<trkpt lat="37.57459796" lon="-1.08781124">
<ele>57</ele>
<time>2014-05-25T13:14:15Z</time>
</trkpt>
<trkpt lat="37.57457206" lon="-1.08782611">
<ele>56</ele>
<time>2014-05-25T13:14:17Z</time>
</trkpt>
<trkpt lat="37.57454772" lon="-1.08784701">
<ele>55</ele>
<time>2014-05-25T13:14:19Z</time>
</trkpt>
<trkpt lat="37.57452252" lon="-1.08786691">
<ele>52</ele>
<time>2014-05-25T13:14:21Z</time>
</trkpt>
<trkpt lat="37.57449851" lon="-1.0878883">
<ele>52</ele>
<time>2014-05-25T13:14:23Z</time>
</trkpt>
<trkpt lat="37.57447595" lon="-1.08790756">
<ele>50</ele>
<time>2014-05-25T13:14:25Z</time>
</trkpt>
<trkpt lat="37.57444825" lon="-1.0879253">
<ele>49</ele>
<time>2014-05-25T13:14:27Z</time>
</trkpt>
<trkpt lat="37.57442389" lon="-1.08794007">
<ele>48</ele>
<time>2014-05-25T13:14:29Z</time>
</trkpt>
<trkpt lat="37.57439924" lon="-1.08795521">
<ele>46</ele>
<time>2014-05-25T13:14:31Z</time>
</trkpt>
<trkpt lat="37.57438034" lon="-1.08796812">
<ele>44</ele>
<time>2014-05-25T13:14:33Z</time>
</trkpt>
<trkpt lat="37.57436535" lon="-1.08797934">
<ele>44</ele>
<time>2014-05-25T13:14:35Z</time>
</trkpt>
<trkpt lat="37.57435634" lon="-1.08799276">
<ele>43</ele>
<time>2014-05-25T13:14:37Z</time>
</trkpt>
<trkpt lat="37.5743495" lon="-1.08800745">
<ele>43</ele>
<time>2014-05-25T13:14:39Z</time>
</trkpt>
<trkpt lat="37.57434149" lon="-1.08802896">
<ele>44</ele>
<time>2014-05-25T13:14:41Z</time>
</trkpt>
<trkpt lat="37.57433124" lon="-1.08804769">
<ele>43</ele>
<time>2014-05-25T13:14:43Z</time>
</trkpt>
<trkpt lat="37.57432117" lon="-1.08807057">
<ele>43</ele>
<time>2014-05-25T13:14:45Z</time>
</trkpt>
<trkpt lat="37.57431565" lon="-1.08809264">
<ele>44</ele>
<time>2014-05-25T13:14:47Z</time>
</trkpt>
<trkpt lat="37.57430771" lon="-1.08811498">
<ele>43</ele>
<time>2014-05-25T13:14:49Z</time>
</trkpt>
<trkpt lat="37.57430245" lon="-1.08813859">
<ele>43</ele>
<time>2014-05-25T13:14:51Z</time>
</trkpt>
<trkpt lat="37.5742922" lon="-1.08815855">
<ele>44</ele>
<time>2014-05-25T13:14:53Z</time>
</trkpt>
<trkpt lat="37.57428601" lon="-1.08817343">
<ele>44</ele>
<time>2014-05-25T13:14:55Z</time>
</trkpt>
<trkpt lat="37.574278" lon="-1.08818695">
<ele>45</ele>
<time>2014-05-25T13:14:57Z</time>
</trkpt>
<trkpt lat="37.57426537" lon="-1.0882088">
<ele>43</ele>
<time>2014-05-25T13:14:59Z</time>
</trkpt>
<trkpt lat="37.57425425" lon="-1.08823587">
<ele>43</ele>
<time>2014-05-25T13:15:01Z</time>
</trkpt>
<trkpt lat="37.57424322" lon="-1.08826216">
<ele>43</ele>
<time>2014-05-25T13:15:03Z</time>
</trkpt>
<trkpt lat="37.57423986" lon="-1.08829092">
<ele>45</ele>
<time>2014-05-25T13:15:05Z</time>
</trkpt>
<trkpt lat="37.57423096" lon="-1.08831352">
<ele>45</ele>
<time>2014-05-25T13:15:07Z</time>
</trkpt>
<trkpt lat="37.57422517" lon="-1.08833226">
<ele>45</ele>
<time>2014-05-25T13:15:09Z</time>
</trkpt>
<trkpt lat="37.57421393" lon="-1.08835209">
<ele>45</ele>
<time>2014-05-25T13:15:11Z</time>
</trkpt>
<trkpt lat="37.57420326" lon="-1.08836438">
<ele>46</ele>
<time>2014-05-25T13:15:13Z</time>
</trkpt>
<trkpt lat="37.57419506" lon="-1.08837525">
<ele>46</ele>
<time>2014-05-25T13:15:15Z</time>
</trkpt>
<trkpt lat="37.57419219" lon="-1.08839421">
<ele>46</ele>
<time>2014-05-25T13:15:17Z</time>
</trkpt>
<trkpt lat="37.57419307" lon="-1.08841941">
<ele>46</ele>
<time>2014-05-25T13:15:19Z</time>
</trkpt>
<trkpt lat="37.57418828" lon="-1.08844419">
<ele>46</ele>
<time>2014-05-25T13:15:21Z</time>
</trkpt>
<trkpt lat="37.57418435" lon="-1.08846423">
<ele>47</ele>
<time>2014-05-25T13:15:23Z</time>
</trkpt>
<trkpt lat="37.57418371" lon="-1.08848807">
<ele>47</ele>
<time>2014-05-25T13:15:25Z</time>
</trkpt>
<trkpt lat="37.57418077" lon="-1.08851636">
<ele>46</ele>
<time>2014-05-25T13:15:27Z</time>
</trkpt>
<trkpt lat="37.57417852" lon="-1.08854402">
<ele>46</ele>
<time>2014-05-25T13:15:29Z</time>
</trkpt>
<trkpt lat="37.57417339" lon="-1.08857129">
<ele>46</ele>
<time>2014-05-25T13:15:31Z</time>
</trkpt>
<trkpt lat="37.57416462" lon="-1.08859276">
<ele>46</ele>
<time>2014-05-25T13:15:33Z</time>
</trkpt>
<trkpt lat="37.57414856" lon="-1.08861203">
<ele>46</ele>
<time>2014-05-25T13:15:35Z</time>
</trkpt>
<trkpt lat="37.57413602" lon="-1.08863237">
<ele>46</ele>
<time>2014-05-25T13:15:37Z</time>
</trkpt>
<trkpt lat="37.57412607" lon="-1.08865752">
<ele>46</ele>
<time>2014-05-25T13:15:39Z</time>
</trkpt>
<trkpt lat="37.57412299" lon="-1.08868739">
<ele>45</ele>
<time>2014-05-25T13:15:41Z</time>
</trkpt>
<trkpt lat="37.57411854" lon="-1.08871246">
<ele>45</ele>
<time>2014-05-25T13:15:43Z</time>
</trkpt>
<trkpt lat="37.57410918" lon="-1.08873043">
<ele>46</ele>
<time>2014-05-25T13:15:45Z</time>
</trkpt>
<trkpt lat="37.57409613" lon="-1.08874453">
<ele>47</ele>
<time>2014-05-25T13:15:47Z</time>
</trkpt>
<trkpt lat="37.57408478" lon="-1.0887724">
<ele>46</ele>
<time>2014-05-25T13:15:49Z</time>
</trkpt>
<trkpt lat="37.5740768" lon="-1.08880939">
<ele>47</ele>
<time>2014-05-25T13:15:51Z</time>
</trkpt>
<trkpt lat="37.57407117" lon="-1.08884865">
<ele>45</ele>
<time>2014-05-25T13:15:53Z</time>
</trkpt>
<trkpt lat="37.57406798" lon="-1.08888508">
<ele>47</ele>
<time>2014-05-25T13:15:55Z</time>
</trkpt>
<trkpt lat="37.57406752" lon="-1.08891642">
<ele>46</ele>
<time>2014-05-25T13:15:57Z</time>
</trkpt>
<trkpt lat="37.57406369" lon="-1.08894761">
<ele>46</ele>
<time>2014-05-25T13:15:59Z</time>
</trkpt>
<trkpt lat="37.57406631" lon="-1.08898276">
<ele>46</ele>
<time>2014-05-25T13:16:01Z</time>
</trkpt>
<trkpt lat="37.57407334" lon="-1.08902763">
<ele>47</ele>
<time>2014-05-25T13:16:03Z</time>
</trkpt>
<trkpt lat="37.57407876" lon="-1.08907023">
<ele>47</ele>
<time>2014-05-25T13:16:05Z</time>
</trkpt>
<trkpt lat="37.57408702" lon="-1.08911506">
<ele>48</ele>
<time>2014-05-25T13:16:07Z</time>
</trkpt>
<trkpt lat="37.57409445" lon="-1.08915215">
<ele>48</ele>
<time>2014-05-25T13:16:09Z</time>
</trkpt>
<trkpt lat="37.57409818" lon="-1.08918715">
<ele>49</ele>
<time>2014-05-25T13:16:11Z</time>
</trkpt>
<trkpt lat="37.57410382" lon="-1.08922533">
<ele>48</ele>
<time>2014-05-25T13:16:13Z</time>
</trkpt>
<trkpt lat="37.57410215" lon="-1.08926073">
<ele>48</ele>
<time>2014-05-25T13:16:15Z</time>
</trkpt>
<trkpt lat="37.57409805" lon="-1.08929449">
<ele>47</ele>
<time>2014-05-25T13:16:17Z</time>
</trkpt>
<trkpt lat="37.57409453" lon="-1.08932274">
<ele>46</ele>
<time>2014-05-25T13:16:19Z</time>
</trkpt>
<trkpt lat="37.57409109" lon="-1.08934963">
<ele>46</ele>
<time>2014-05-25T13:16:21Z</time>
</trkpt>
<trkpt lat="37.57409214" lon="-1.0893714">
<ele>47</ele>
<time>2014-05-25T13:16:23Z</time>
</trkpt>
<trkpt lat="37.57409223" lon="-1.08937872">
<ele>46</ele>
<time>2014-05-25T13:16:25Z</time>
</trkpt>
<trkpt lat="37.57409129" lon="-1.08938571">
<ele>46</ele>
<time>2014-05-25T13:16:27Z</time>
</trkpt>
<trkpt lat="37.57409335" lon="-1.08939687">
<ele>47</ele>
<time>2014-05-25T13:16:29Z</time>
</trkpt>
<trkpt lat="37.5740978" lon="-1.08940856">
<ele>48</ele>
<time>2014-05-25T13:16:31Z</time>
</trkpt>
<trkpt lat="37.57410532" lon="-1.08941963">
<ele>48</ele>
<time>2014-05-25T13:16:33Z</time>
</trkpt>
<trkpt lat="37.57411339" lon="-1.08942911">
<ele>50</ele>
<time>2014-05-25T13:16:35Z</time>
</trkpt>
<trkpt lat="37.57412047" lon="-1.08943652">
<ele>51</ele>
<time>2014-05-25T13:16:37Z</time>
</trkpt>
<trkpt lat="37.57412879" lon="-1.08944684">
<ele>50</ele>
<time>2014-05-25T13:16:39Z</time>
</trkpt>
<trkpt lat="37.57413875" lon="-1.08945731">
<ele>49</ele>
<time>2014-05-25T13:16:41Z</time>
</trkpt>
<trkpt lat="37.57415118" lon="-1.08947148">
<ele>48</ele>
<time>2014-05-25T13:16:43Z</time>
</trkpt>
<trkpt lat="37.57415737" lon="-1.08948651">
<ele>48</ele>
<time>2014-05-25T13:16:45Z</time>
</trkpt>
<trkpt lat="37.57415691" lon="-1.08950019">
<ele>49</ele>
<time>2014-05-25T13:16:47Z</time>
</trkpt>
<trkpt lat="37.57415461" lon="-1.08951877">
<ele>49</ele>
<time>2014-05-25T13:16:49Z</time>
</trkpt>
<trkpt lat="37.57415171" lon="-1.08954719">
<ele>49</ele>
<time>2014-05-25T13:16:51Z</time>
</trkpt>
<trkpt lat="37.57415224" lon="-1.08957688">
<ele>48</ele>
<time>2014-05-25T13:16:53Z</time>
</trkpt>
<trkpt lat="37.57414809" lon="-1.0896066">
<ele>48</ele>
<time>2014-05-25T13:16:55Z</time>
</trkpt>
<trkpt lat="37.57414754" lon="-1.08963593">
<ele>48</ele>
<time>2014-05-25T13:16:57Z</time>
</trkpt>
<trkpt lat="37.5741445" lon="-1.08966513">
<ele>47</ele>
<time>2014-05-25T13:16:59Z</time>
</trkpt>
<trkpt lat="37.57414329" lon="-1.08969452">
<ele>47</ele>
<time>2014-05-25T13:17:01Z</time>
</trkpt>
<trkpt lat="37.57413848" lon="-1.08970748">
<ele>45</ele>
<time>2014-05-25T13:17:03Z</time>
</trkpt>
<trkpt lat="37.57413276" lon="-1.08972029">
<ele>45</ele>
<time>2014-05-25T13:17:05Z</time>
</trkpt>
<trkpt lat="37.57412472" lon="-1.08973723">
<ele>46</ele>
<time>2014-05-25T13:17:07Z</time>
</trkpt>
<trkpt lat="37.57412098" lon="-1.0897648">
<ele>47</ele>
<time>2014-05-25T13:17:09Z</time>
</trkpt>
<trkpt lat="37.57411418" lon="-1.08979608">
<ele>47</ele>
<time>2014-05-25T13:17:11Z</time>
</trkpt>
<trkpt lat="37.5741097" lon="-1.08983368">
<ele>47</ele>
<time>2014-05-25T13:17:13Z</time>
</trkpt>
<trkpt lat="37.574103" lon="-1.08987159">
<ele>48</ele>
<time>2014-05-25T13:17:15Z</time>
</trkpt>
<trkpt lat="37.57409595" lon="-1.08990792">
<ele>49</ele>
<time>2014-05-25T13:17:17Z</time>
</trkpt>
<trkpt lat="37.57409131" lon="-1.08994516">
<ele>49</ele>
<time>2014-05-25T13:17:19Z</time>
</trkpt>
<trkpt lat="37.57408813" lon="-1.08998272">
<ele>48</ele>
<time>2014-05-25T13:17:21Z</time>
</trkpt>
<trkpt lat="37.57408395" lon="-1.09001586">
<ele>49</ele>
<time>2014-05-25T13:17:23Z</time>
</trkpt>
<trkpt lat="37.57407514" lon="-1.09004822">
<ele>49</ele>
<time>2014-05-25T13:17:25Z</time>
</trkpt>
<trkpt lat="37.5740665" lon="-1.09008072">
<ele>49</ele>
<time>2014-05-25T13:17:27Z</time>
</trkpt>
<trkpt lat="37.57405916" lon="-1.09011645">
<ele>49</ele>
<time>2014-05-25T13:17:29Z</time>
</trkpt>
<trkpt lat="37.57405964" lon="-1.0901584">
<ele>51</ele>
<time>2014-05-25T13:17:31Z</time>
</trkpt>
<trkpt lat="37.57406371" lon="-1.09019629">
<ele>50</ele>
<time>2014-05-25T13:17:33Z</time>
</trkpt>
<trkpt lat="37.57406331" lon="-1.09023166">
<ele>52</ele>
<time>2014-05-25T13:17:35Z</time>
</trkpt>
<trkpt lat="37.57405813" lon="-1.09025966">
<ele>53</ele>
<time>2014-05-25T13:17:37Z</time>
</trkpt>
<trkpt lat="37.57405757" lon="-1.09027746">
<ele>53</ele>
<time>2014-05-25T13:17:39Z</time>
</trkpt>
<trkpt lat="37.57405294" lon="-1.09030093">
<ele>54</ele>
<time>2014-05-25T13:17:41Z</time>
</trkpt>
<trkpt lat="37.57404935" lon="-1.09031845">
<ele>54</ele>
<time>2014-05-25T13:17:43Z</time>
</trkpt>
<trkpt lat="37.5740434" lon="-1.09032993">
<ele>53</ele>
<time>2014-05-25T13:17:45Z</time>
</trkpt>
<trkpt lat="37.57403129" lon="-1.09035102">
<ele>53</ele>
<time>2014-05-25T13:17:47Z</time>
</trkpt>
<trkpt lat="37.57402066" lon="-1.09038546">
<ele>55</ele>
<time>2014-05-25T13:17:49Z</time>
</trkpt>
<trkpt lat="37.57400783" lon="-1.09042024">
<ele>55</ele>
<time>2014-05-25T13:17:51Z</time>
</trkpt>
<trkpt lat="37.57399636" lon="-1.09045794">
<ele>55</ele>
<time>2014-05-25T13:17:53Z</time>
</trkpt>
<trkpt lat="37.57398559" lon="-1.09048539">
<ele>54</ele>
<time>2014-05-25T13:17:55Z</time>
</trkpt>
<trkpt lat="37.57397498" lon="-1.09051115">
<ele>54</ele>
<time>2014-05-25T13:17:57Z</time>
</trkpt>
<trkpt lat="37.57395758" lon="-1.09053383">
<ele>54</ele>
<time>2014-05-25T13:17:59Z</time>
</trkpt>
<trkpt lat="37.57393807" lon="-1.09056086">
<ele>54</ele>
<time>2014-05-25T13:18:01Z</time>
</trkpt>
<trkpt lat="37.57391825" lon="-1.09058509">
<ele>53</ele>
<time>2014-05-25T13:18:03Z</time>
</trkpt>
<trkpt lat="37.57390631" lon="-1.09061888">
<ele>52</ele>
<time>2014-05-25T13:18:05Z</time>
</trkpt>
<trkpt lat="37.57389512" lon="-1.09065551">
<ele>52</ele>
<time>2014-05-25T13:18:07Z</time>
</trkpt>
<trkpt lat="37.57388385" lon="-1.09067957">
<ele>52</ele>
<time>2014-05-25T13:18:09Z</time>
</trkpt>
<trkpt lat="37.57388188" lon="-1.09069194">
<ele>52</ele>
<time>2014-05-25T13:18:11Z</time>
</trkpt>
<trkpt lat="37.57387835" lon="-1.09070146">
<ele>52</ele>
<time>2014-05-25T13:18:13Z</time>
</trkpt>
<trkpt lat="37.57387787" lon="-1.09070792">
<ele>52</ele>
<time>2014-05-25T13:18:15Z</time>
</trkpt>
<trkpt lat="37.57388227" lon="-1.0907267">
<ele>52</ele>
<time>2014-05-25T13:18:17Z</time>
</trkpt>
<trkpt lat="37.57386986" lon="-1.09080538">
<ele>51</ele>
<time>2014-05-25T13:18:19Z</time>
</trkpt>
<trkpt lat="37.57386247" lon="-1.09086902">
<ele>51</ele>
<time>2014-05-25T13:18:21Z</time>
</trkpt>
<trkpt lat="37.57385463" lon="-1.09093091">
<ele>52</ele>
<time>2014-05-25T13:18:23Z</time>
</trkpt>
<trkpt lat="37.57384577" lon="-1.09098257">
<ele>52</ele>
<time>2014-05-25T13:18:25Z</time>
</trkpt>
<trkpt lat="37.57383768" lon="-1.09102926">
<ele>53</ele>
<time>2014-05-25T13:18:27Z</time>
</trkpt>
<trkpt lat="37.5738276" lon="-1.09107352">
<ele>53</ele>
<time>2014-05-25T13:18:29Z</time>
</trkpt>
<trkpt lat="37.57383247" lon="-1.09109545">
<ele>54</ele>
<time>2014-05-25T13:18:31Z</time>
</trkpt>
<trkpt lat="37.57383008" lon="-1.0911036">
<ele>54</ele>
<time>2014-05-25T13:18:33Z</time>
</trkpt>
<trkpt lat="37.57382725" lon="-1.09111013">
<ele>54</ele>
<time>2014-05-25T13:18:35Z</time>
</trkpt>
<trkpt lat="37.57381854" lon="-1.09113025">
<ele>54</ele>
<time>2014-05-25T13:18:37Z</time>
</trkpt>
<trkpt lat="37.57380222" lon="-1.09117404">
<ele>53</ele>
<time>2014-05-25T13:18:39Z</time>
</trkpt>
<trkpt lat="37.57378575" lon="-1.09121909">
<ele>53</ele>
<time>2014-05-25T13:18:41Z</time>
</trkpt>
<trkpt lat="37.57376597" lon="-1.09126474">
<ele>55</ele>
<time>2014-05-25T13:18:43Z</time>
</trkpt>
<trkpt lat="37.57374436" lon="-1.09130979">
<ele>55</ele>
<time>2014-05-25T13:18:45Z</time>
</trkpt>
<trkpt lat="37.57372233" lon="-1.09134928">
<ele>56</ele>
<time>2014-05-25T13:18:47Z</time>
</trkpt>
<trkpt lat="37.573703" lon="-1.09139346">
<ele>56</ele>
<time>2014-05-25T13:18:49Z</time>
</trkpt>
<trkpt lat="37.57369195" lon="-1.09143809">
<ele>55</ele>
<time>2014-05-25T13:18:51Z</time>
</trkpt>
<trkpt lat="37.57367339" lon="-1.09146365">
<ele>56</ele>
<time>2014-05-25T13:18:53Z</time>
</trkpt>
<trkpt lat="37.57365102" lon="-1.09148413">
<ele>56</ele>
<time>2014-05-25T13:18:55Z</time>
</trkpt>
<trkpt lat="37.57362726" lon="-1.091506">
<ele>57</ele>
<time>2014-05-25T13:18:57Z</time>
</trkpt>
<trkpt lat="37.5736133" lon="-1.09153525">
<ele>57</ele>
<time>2014-05-25T13:18:59Z</time>
</trkpt>
<trkpt lat="37.57360006" lon="-1.09156057">
<ele>56</ele>
<time>2014-05-25T13:19:01Z</time>
</trkpt>
<trkpt lat="37.57358784" lon="-1.09159029">
<ele>55</ele>
<time>2014-05-25T13:19:03Z</time>
</trkpt>
<trkpt lat="37.57357938" lon="-1.09161962">
<ele>55</ele>
<time>2014-05-25T13:19:05Z</time>
</trkpt>
<trkpt lat="37.57357578" lon="-1.09163858">
<ele>55</ele>
<time>2014-05-25T13:19:07Z</time>
</trkpt>
<trkpt lat="37.5735739" lon="-1.09165506">
<ele>54</ele>
<time>2014-05-25T13:19:09Z</time>
</trkpt>
<trkpt lat="37.57356815" lon="-1.09166167">
<ele>54</ele>
<time>2014-05-25T13:19:11Z</time>
</trkpt>
<trkpt lat="37.57356999" lon="-1.09167051">
<ele>54</ele>
<time>2014-05-25T13:19:13Z</time>
</trkpt>
<trkpt lat="37.5735677" lon="-1.09167779">
<ele>53</ele>
<time>2014-05-25T13:19:15Z</time>
</trkpt>
<trkpt lat="37.57357048" lon="-1.09168897">
<ele>52</ele>
<time>2014-05-25T13:19:17Z</time>
</trkpt>
<trkpt lat="37.57356897" lon="-1.0917016">
<ele>52</ele>
<time>2014-05-25T13:19:19Z</time>
</trkpt>
<trkpt lat="37.57356459" lon="-1.09170948">
<ele>52</ele>
<time>2014-05-25T13:19:21Z</time>
</trkpt>
<trkpt lat="37.57356574" lon="-1.0917059">
<ele>52</ele>
<time>2014-05-25T13:19:23Z</time>
</trkpt>
<trkpt lat="37.57357039" lon="-1.09169761">
<ele>51</ele>
<time>2014-05-25T13:19:25Z</time>
</trkpt>
<trkpt lat="37.57357208" lon="-1.09169509">
<ele>51</ele>
<time>2014-05-25T13:19:27Z</time>
</trkpt>
<trkpt lat="37.57357502" lon="-1.09169314">
<ele>51</ele>
<time>2014-05-25T13:19:29Z</time>
</trkpt>
<trkpt lat="37.57357818" lon="-1.09169035">
<ele>51</ele>
<time>2014-05-25T13:19:31Z</time>
</trkpt>
<trkpt lat="37.57358082" lon="-1.0916907">
<ele>51</ele>
<time>2014-05-25T13:19:33Z</time>
</trkpt>
<trkpt lat="37.57357901" lon="-1.09168834">
<ele>51</ele>
<time>2014-05-25T13:19:35Z</time>
</trkpt>
<trkpt lat="37.57358382" lon="-1.09169474">
<ele>52</ele>
<time>2014-05-25T13:19:37Z</time>
</trkpt>
<trkpt lat="37.57358549" lon="-1.09169786">
<ele>52</ele>
<time>2014-05-25T13:19:39Z</time>
</trkpt>
<trkpt lat="37.57358688" lon="-1.09169935">
<ele>51</ele>
<time>2014-05-25T13:19:41Z</time>
</trkpt>
<trkpt lat="37.57358744" lon="-1.09169991">
<ele>52</ele>
<time>2014-05-25T13:19:43Z</time>
</trkpt>
<trkpt lat="37.57358739" lon="-1.09170015">
<ele>52</ele>
<time>2014-05-25T13:19:45Z</time>
</trkpt>
<trkpt lat="37.57358764" lon="-1.0917005">
<ele>52</ele>
<time>2014-05-25T13:19:47Z</time>
</trkpt>
<trkpt lat="37.57358766" lon="-1.09170054">
<ele>52</ele>
<time>2014-05-25T13:19:49Z</time>
</trkpt>
<trkpt lat="37.57358744" lon="-1.09170024">
<ele>52</ele>
<time>2014-05-25T13:19:51Z</time>
</trkpt>
<trkpt lat="37.57358733" lon="-1.09170003">
<ele>52</ele>
<time>2014-05-25T13:19:53Z</time>
</trkpt>
<trkpt lat="37.57358716" lon="-1.09169983">
<ele>52</ele>
<time>2014-05-25T13:19:55Z</time>
</trkpt>
<trkpt lat="37.57358705" lon="-1.09169947">
<ele>52</ele>
<time>2014-05-25T13:19:57Z</time>
</trkpt>
<trkpt lat="37.57358684" lon="-1.09169934">
<ele>52</ele>
<time>2014-05-25T13:19:59Z</time>
</trkpt>
<trkpt lat="37.57358695" lon="-1.09169888">
<ele>52</ele>
<time>2014-05-25T13:20:01Z</time>
</trkpt>
<trkpt lat="37.57358686" lon="-1.09169848">
<ele>52</ele>
<time>2014-05-25T13:20:03Z</time>
</trkpt>
<trkpt lat="37.57358678" lon="-1.09169846">
<ele>52</ele>
<time>2014-05-25T13:20:05Z</time>
</trkpt>
<trkpt lat="37.57358675" lon="-1.09169839">
<ele>52</ele>
<time>2014-05-25T13:20:07Z</time>
</trkpt>
<trkpt lat="37.57358667" lon="-1.09169833">
<ele>52</ele>
<time>2014-05-25T13:20:09Z</time>
</trkpt>
<trkpt lat="37.57358648" lon="-1.09169821">
<ele>52</ele>
<time>2014-05-25T13:20:11Z</time>
</trkpt>
<trkpt lat="37.57358631" lon="-1.09169841">
<ele>52</ele>
<time>2014-05-25T13:20:13Z</time>
</trkpt>
<trkpt lat="37.5735863" lon="-1.09169852">
<ele>52</ele>
<time>2014-05-25T13:20:15Z</time>
</trkpt>
<trkpt lat="37.57358628" lon="-1.09169869">
<ele>52</ele>
<time>2014-05-25T13:20:17Z</time>
</trkpt>
<trkpt lat="37.57358638" lon="-1.09169879">
<ele>52</ele>
<time>2014-05-25T13:20:19Z</time>
</trkpt>
<trkpt lat="37.57358647" lon="-1.09169883">
<ele>52</ele>
<time>2014-05-25T13:20:21Z</time>
</trkpt>
<trkpt lat="37.57358642" lon="-1.09169881">
<ele>52</ele>
<time>2014-05-25T13:20:23Z</time>
</trkpt>
<trkpt lat="37.57358656" lon="-1.09169859">
<ele>52</ele>
<time>2014-05-25T13:20:25Z</time>
</trkpt>
<trkpt lat="37.57358659" lon="-1.09169823">
<ele>52</ele>
<time>2014-05-25T13:20:27Z</time>
</trkpt>
<trkpt lat="37.57358675" lon="-1.09169808">
<ele>52</ele>
<time>2014-05-25T13:20:29Z</time>
</trkpt>
<trkpt lat="37.57358663" lon="-1.091698">
<ele>52</ele>
<time>2014-05-25T13:20:31Z</time>
</trkpt>
<trkpt lat="37.57358668" lon="-1.09169816">
<ele>52</ele>
<time>2014-05-25T13:20:33Z</time>
</trkpt>
<trkpt lat="37.57358678" lon="-1.09169822">
<ele>52</ele>
<time>2014-05-25T13:20:35Z</time>
</trkpt>
<trkpt lat="37.5735868" lon="-1.09169835">
<ele>52</ele>
<time>2014-05-25T13:20:37Z</time>
</trkpt>
<trkpt lat="37.5735867" lon="-1.09169842">
<ele>52</ele>
<time>2014-05-25T13:20:39Z</time>
</trkpt>
<trkpt lat="37.57358675" lon="-1.09169835">
<ele>52</ele>
<time>2014-05-25T13:20:41Z</time>
</trkpt>
<trkpt lat="37.57358673" lon="-1.09169799">
<ele>52</ele>
<time>2014-05-25T13:20:43Z</time>
</trkpt>
<trkpt lat="37.57358654" lon="-1.09169748">
<ele>52</ele>
<time>2014-05-25T13:20:45Z</time>
</trkpt>
<trkpt lat="37.57358597" lon="-1.091697">
<ele>52</ele>
<time>2014-05-25T13:20:47Z</time>
</trkpt>
<trkpt lat="37.57358546" lon="-1.09169657">
<ele>52</ele>
<time>2014-05-25T13:20:49Z</time>
</trkpt>
<trkpt lat="37.57358482" lon="-1.09169625">
<ele>52</ele>
<time>2014-05-25T13:20:51Z</time>
</trkpt>
<trkpt lat="37.57358434" lon="-1.09169601">
<ele>52</ele>
<time>2014-05-25T13:20:53Z</time>
</trkpt>
<trkpt lat="37.57358395" lon="-1.0916957">
<ele>52</ele>
<time>2014-05-25T13:20:55Z</time>
</trkpt>
<trkpt lat="37.57358365" lon="-1.09169563">
<ele>52</ele>
<time>2014-05-25T13:20:57Z</time>
</trkpt>
<trkpt lat="37.57358333" lon="-1.09169564">
<ele>52</ele>
<time>2014-05-25T13:20:59Z</time>
</trkpt>
<trkpt lat="37.57357594" lon="-1.09168304">
<ele>54</ele>
<time>2014-05-25T13:21:01Z</time>
</trkpt>
<trkpt lat="37.57357464" lon="-1.09166519">
<ele>55</ele>
<time>2014-05-25T13:21:03Z</time>
</trkpt>
<trkpt lat="37.57356693" lon="-1.09165265">
<ele>54</ele>
<time>2014-05-25T13:21:05Z</time>
</trkpt>
<trkpt lat="37.57356447" lon="-1.09163707">
<ele>57</ele>
<time>2014-05-25T13:21:07Z</time>
</trkpt>
<trkpt lat="37.57355768" lon="-1.0916377">
<ele>58</ele>
<time>2014-05-25T13:21:09Z</time>
</trkpt>
<trkpt lat="37.57354585" lon="-1.09164074">
<ele>56</ele>
<time>2014-05-25T13:21:11Z</time>
</trkpt>
<trkpt lat="37.57351127" lon="-1.09164273">
<ele>57</ele>
<time>2014-05-25T13:21:13Z</time>
</trkpt>
<trkpt lat="37.57347473" lon="-1.09163632">
<ele>56</ele>
<time>2014-05-25T13:21:15Z</time>
</trkpt>
<trkpt lat="37.57344795" lon="-1.09163932">
<ele>58</ele>
<time>2014-05-25T13:21:17Z</time>
</trkpt>
<trkpt lat="37.57342117" lon="-1.09164276">
<ele>58</ele>
<time>2014-05-25T13:21:19Z</time>
</trkpt>
<trkpt lat="37.57339818" lon="-1.09166196">
<ele>57</ele>
<time>2014-05-25T13:21:21Z</time>
</trkpt>
<trkpt lat="37.57337907" lon="-1.0916803">
<ele>57</ele>
<time>2014-05-25T13:21:23Z</time>
</trkpt>
<trkpt lat="37.57336399" lon="-1.09170565">
<ele>57</ele>
<time>2014-05-25T13:21:25Z</time>
</trkpt>
<trkpt lat="37.57333772" lon="-1.0917262">
<ele>57</ele>
<time>2014-05-25T13:21:27Z</time>
</trkpt>
<trkpt lat="37.5733201" lon="-1.09175318">
<ele>58</ele>
<time>2014-05-25T13:21:29Z</time>
</trkpt>
<trkpt lat="37.57330419" lon="-1.09178532">
<ele>58</ele>
<time>2014-05-25T13:21:31Z</time>
</trkpt>
<trkpt lat="37.57329905" lon="-1.09181942">
<ele>57</ele>
<time>2014-05-25T13:21:33Z</time>
</trkpt>
<trkpt lat="37.57329496" lon="-1.09185495">
<ele>58</ele>
<time>2014-05-25T13:21:35Z</time>
</trkpt>
<trkpt lat="37.57330137" lon="-1.09187495">
<ele>58</ele>
<time>2014-05-25T13:21:37Z</time>
</trkpt>
<trkpt lat="37.57331428" lon="-1.09188746">
<ele>59</ele>
<time>2014-05-25T13:21:39Z</time>
</trkpt>
<trkpt lat="37.57333397" lon="-1.09190417">
<ele>58</ele>
<time>2014-05-25T13:21:41Z</time>
</trkpt>
<trkpt lat="37.57335111" lon="-1.09192624">
<ele>58</ele>
<time>2014-05-25T13:21:43Z</time>
</trkpt>
<trkpt lat="37.57337734" lon="-1.09193282">
<ele>58</ele>
<time>2014-05-25T13:21:45Z</time>
</trkpt>
<trkpt lat="37.57340796" lon="-1.09194281">
<ele>60</ele>
<time>2014-05-25T13:21:47Z</time>
</trkpt>
<trkpt lat="37.573423" lon="-1.09195474">
<ele>60</ele>
<time>2014-05-25T13:21:49Z</time>
</trkpt>
<trkpt lat="37.57342859" lon="-1.09196957">
<ele>61</ele>
<time>2014-05-25T13:21:51Z</time>
</trkpt>
<trkpt lat="37.57343245" lon="-1.09198136">
<ele>61</ele>
<time>2014-05-25T13:21:53Z</time>
</trkpt>
<trkpt lat="37.57344002" lon="-1.09199727">
<ele>60</ele>
<time>2014-05-25T13:21:55Z</time>
</trkpt>
<trkpt lat="37.57343822" lon="-1.09201728">
<ele>62</ele>
<time>2014-05-25T13:21:57Z</time>
</trkpt>
<trkpt lat="37.5734248" lon="-1.09204375">
<ele>62</ele>
<time>2014-05-25T13:21:59Z</time>
</trkpt>
<trkpt lat="37.5734073" lon="-1.0920642">
<ele>62</ele>
<time>2014-05-25T13:22:01Z</time>
</trkpt>
<trkpt lat="37.57339802" lon="-1.09208737">
<ele>63</ele>
<time>2014-05-25T13:22:03Z</time>
</trkpt>
<trkpt lat="37.57338713" lon="-1.09210184">
<ele>64</ele>
<time>2014-05-25T13:22:05Z</time>
</trkpt>
<trkpt lat="37.57337775" lon="-1.09211869">
<ele>64</ele>
<time>2014-05-25T13:22:07Z</time>
</trkpt>
<trkpt lat="37.5733771" lon="-1.09212804">
<ele>64</ele>
<time>2014-05-25T13:22:09Z</time>
</trkpt>
<trkpt lat="37.57337622" lon="-1.09213583">
<ele>64</ele>
<time>2014-05-25T13:22:11Z</time>
</trkpt>
<trkpt lat="37.57338529" lon="-1.09215475">
<ele>64</ele>
<time>2014-05-25T13:22:13Z</time>
</trkpt>
<trkpt lat="37.57339206" lon="-1.092165">
<ele>64</ele>
<time>2014-05-25T13:22:15Z</time>
</trkpt>
<trkpt lat="37.57339318" lon="-1.09215979">
<ele>63</ele>
<time>2014-05-25T13:22:17Z</time>
</trkpt>
<trkpt lat="37.57337777" lon="-1.09216298">
<ele>63</ele>
<time>2014-05-25T13:22:19Z</time>
</trkpt>
<trkpt lat="37.5733685" lon="-1.09214725">
<ele>63</ele>
<time>2014-05-25T13:22:21Z</time>
</trkpt>
<trkpt lat="37.57336222" lon="-1.09212487">
<ele>63</ele>
<time>2014-05-25T13:22:23Z</time>
</trkpt>
<trkpt lat="37.57336207" lon="-1.09209929">
<ele>63</ele>
<time>2014-05-25T13:22:25Z</time>
</trkpt>
<trkpt lat="37.5733586" lon="-1.09207673">
<ele>63</ele>
<time>2014-05-25T13:22:27Z</time>
</trkpt>
<trkpt lat="37.57334188" lon="-1.0920525">
<ele>63</ele>
<time>2014-05-25T13:22:29Z</time>
</trkpt>
<trkpt lat="37.57332885" lon="-1.09204072">
<ele>62</ele>
<time>2014-05-25T13:22:31Z</time>
</trkpt>
<trkpt lat="37.57331156" lon="-1.09201751">
<ele>62</ele>
<time>2014-05-25T13:22:33Z</time>
</trkpt>
<trkpt lat="37.57327413" lon="-1.09199023">
<ele>62</ele>
<time>2014-05-25T13:22:35Z</time>
</trkpt>
<trkpt lat="37.57323514" lon="-1.09196309">
<ele>62</ele>
<time>2014-05-25T13:22:37Z</time>
</trkpt>
<trkpt lat="37.57320849" lon="-1.09190843">
<ele>62</ele>
<time>2014-05-25T13:22:39Z</time>
</trkpt>
<trkpt lat="37.57318644" lon="-1.09184812">
<ele>61</ele>
<time>2014-05-25T13:22:41Z</time>
</trkpt>
<trkpt lat="37.5731708" lon="-1.0917822">
<ele>61</ele>
<time>2014-05-25T13:22:43Z</time>
</trkpt>
<trkpt lat="37.57315185" lon="-1.09173277">
<ele>61</ele>
<time>2014-05-25T13:22:45Z</time>
</trkpt>
<trkpt lat="37.57312636" lon="-1.09169133">
<ele>61</ele>
<time>2014-05-25T13:22:47Z</time>
</trkpt>
<trkpt lat="37.57309872" lon="-1.09166139">
<ele>61</ele>
<time>2014-05-25T13:22:49Z</time>
</trkpt>
<trkpt lat="37.57308703" lon="-1.09165053">
<ele>61</ele>
<time>2014-05-25T13:22:51Z</time>
</trkpt>
<trkpt lat="37.5730765" lon="-1.09164451">
<ele>61</ele>
<time>2014-05-25T13:22:53Z</time>
</trkpt>
<trkpt lat="37.57307358" lon="-1.09164988">
<ele>61</ele>
<time>2014-05-25T13:22:55Z</time>
</trkpt>
<trkpt lat="37.57306895" lon="-1.09166113">
<ele>61</ele>
<time>2014-05-25T13:22:57Z</time>
</trkpt>
<trkpt lat="37.57304433" lon="-1.09167912">
<ele>61</ele>
<time>2014-05-25T13:22:59Z</time>
</trkpt>
<trkpt lat="37.57303" lon="-1.09168537">
<ele>61</ele>
<time>2014-05-25T13:23:01Z</time>
</trkpt>
<trkpt lat="37.57303215" lon="-1.09166952">
<ele>61</ele>
<time>2014-05-25T13:23:03Z</time>
</trkpt>
<trkpt lat="37.5730302" lon="-1.0916555">
<ele>61</ele>
<time>2014-05-25T13:23:05Z</time>
</trkpt>
<trkpt lat="37.57302238" lon="-1.09165532">
<ele>61</ele>
<time>2014-05-25T13:23:07Z</time>
</trkpt>
<trkpt lat="37.57299892" lon="-1.09165178">
<ele>61</ele>
<time>2014-05-25T13:23:09Z</time>
</trkpt>
<trkpt lat="37.57298037" lon="-1.09166287">
<ele>61</ele>
<time>2014-05-25T13:23:11Z</time>
</trkpt>
<trkpt lat="37.57295844" lon="-1.09168433">
<ele>61</ele>
<time>2014-05-25T13:23:13Z</time>
</trkpt>
<trkpt lat="37.57292396" lon="-1.09170113">
<ele>61</ele>
<time>2014-05-25T13:23:15Z</time>
</trkpt>
<trkpt lat="37.57289112" lon="-1.09172366">
<ele>61</ele>
<time>2014-05-25T13:23:17Z</time>
</trkpt>
<trkpt lat="37.57286288" lon="-1.09171887">
<ele>61</ele>
<time>2014-05-25T13:23:19Z</time>
</trkpt>
<trkpt lat="37.57283565" lon="-1.0917222">
<ele>61</ele>
<time>2014-05-25T13:23:21Z</time>
</trkpt>
<trkpt lat="37.57280343" lon="-1.09170886">
<ele>61</ele>
<time>2014-05-25T13:23:23Z</time>
</trkpt>
<trkpt lat="37.57276" lon="-1.09171513">
<ele>61</ele>
<time>2014-05-25T13:23:25Z</time>
</trkpt>
<trkpt lat="37.57272239" lon="-1.09172825">
<ele>61</ele>
<time>2014-05-25T13:23:27Z</time>
</trkpt>
<trkpt lat="37.57269892" lon="-1.09172318">
<ele>61</ele>
<time>2014-05-25T13:23:29Z</time>
</trkpt>
<trkpt lat="37.57267628" lon="-1.09172181">
<ele>60</ele>
<time>2014-05-25T13:23:31Z</time>
</trkpt>
<trkpt lat="37.57264756" lon="-1.09172383">
<ele>60</ele>
<time>2014-05-25T13:23:33Z</time>
</trkpt>
<trkpt lat="37.57262258" lon="-1.09172108">
<ele>60</ele>
<time>2014-05-25T13:23:35Z</time>
</trkpt>
<trkpt lat="37.57261906" lon="-1.09172315">
<ele>60</ele>
<time>2014-05-25T13:23:37Z</time>
</trkpt>
<trkpt lat="37.57261062" lon="-1.09172245">
<ele>59</ele>
<time>2014-05-25T13:23:39Z</time>
</trkpt>
<trkpt lat="37.57260407" lon="-1.09173189">
<ele>59</ele>
<time>2014-05-25T13:23:41Z</time>
</trkpt>
<trkpt lat="37.57256364" lon="-1.0917241">
<ele>59</ele>
<time>2014-05-25T13:23:43Z</time>
</trkpt>
<trkpt lat="37.57253424" lon="-1.09172924">
<ele>59</ele>
<time>2014-05-25T13:23:45Z</time>
</trkpt>
<trkpt lat="37.57249493" lon="-1.09173351">
<ele>58</ele>
<time>2014-05-25T13:23:47Z</time>
</trkpt>
<trkpt lat="37.57246342" lon="-1.09172765">
<ele>58</ele>
<time>2014-05-25T13:23:49Z</time>
</trkpt>
<trkpt lat="37.57244108" lon="-1.0917218">
<ele>57</ele>
<time>2014-05-25T13:23:51Z</time>
</trkpt>
<trkpt lat="37.57242761" lon="-1.09172058">
<ele>57</ele>
<time>2014-05-25T13:23:53Z</time>
</trkpt>
<trkpt lat="37.57241958" lon="-1.09171177">
<ele>57</ele>
<time>2014-05-25T13:23:55Z</time>
</trkpt>
<trkpt lat="37.57241083" lon="-1.09169809">
<ele>58</ele>
<time>2014-05-25T13:23:57Z</time>
</trkpt>
<trkpt lat="37.57240161" lon="-1.09167714">
<ele>57</ele>
<time>2014-05-25T13:23:59Z</time>
</trkpt>
<trkpt lat="37.57239259" lon="-1.09166158">
<ele>58</ele>
<time>2014-05-25T13:24:01Z</time>
</trkpt>
<trkpt lat="37.57239592" lon="-1.09163442">
<ele>59</ele>
<time>2014-05-25T13:24:03Z</time>
</trkpt>
<trkpt lat="37.57238334" lon="-1.09161441">
<ele>60</ele>
<time>2014-05-25T13:24:05Z</time>
</trkpt>
<trkpt lat="37.57237386" lon="-1.09159197">
<ele>60</ele>
<time>2014-05-25T13:24:07Z</time>
</trkpt>
<trkpt lat="37.57237724" lon="-1.09157041">
<ele>60</ele>
<time>2014-05-25T13:24:09Z</time>
</trkpt>
<trkpt lat="37.57239602" lon="-1.09155384">
<ele>58</ele>
<time>2014-05-25T13:24:11Z</time>
</trkpt>
<trkpt lat="37.57241377" lon="-1.09153506">
<ele>59</ele>
<time>2014-05-25T13:24:13Z</time>
</trkpt>
<trkpt lat="37.57244074" lon="-1.09151522">
<ele>59</ele>
<time>2014-05-25T13:24:15Z</time>
</trkpt>
<trkpt lat="37.5724542" lon="-1.09149216">
<ele>59</ele>
<time>2014-05-25T13:24:17Z</time>
</trkpt>
<trkpt lat="37.57248027" lon="-1.09148221">
<ele>52</ele>
<time>2014-05-25T13:24:19Z</time>
</trkpt>
<trkpt lat="37.57250967" lon="-1.09148418">
<ele>49</ele>
<time>2014-05-25T13:24:21Z</time>
</trkpt>
<trkpt lat="37.57251699" lon="-1.09148462">
<ele>48</ele>
<time>2014-05-25T13:24:23Z</time>
</trkpt>
<trkpt lat="37.57253339" lon="-1.09148854">
<ele>50</ele>
<time>2014-05-25T13:24:25Z</time>
</trkpt>
<trkpt lat="37.57254816" lon="-1.0914884">
<ele>49</ele>
<time>2014-05-25T13:24:27Z</time>
</trkpt>
<trkpt lat="37.57255591" lon="-1.09148708">
<ele>48</ele>
<time>2014-05-25T13:24:29Z</time>
</trkpt>
<trkpt lat="37.57256298" lon="-1.09148258">
<ele>50</ele>
<time>2014-05-25T13:24:31Z</time>
</trkpt>
<trkpt lat="37.5725766" lon="-1.09149029">
<ele>53</ele>
<time>2014-05-25T13:24:33Z</time>
</trkpt>
<trkpt lat="37.57257278" lon="-1.0914776">
<ele>54</ele>
<time>2014-05-25T13:24:35Z</time>
</trkpt>
<trkpt lat="37.57257268" lon="-1.09147487">
<ele>55</ele>
<time>2014-05-25T13:24:37Z</time>
</trkpt>
<trkpt lat="37.57257462" lon="-1.09147424">
<ele>55</ele>
<time>2014-05-25T13:24:39Z</time>
</trkpt>
<trkpt lat="37.57257431" lon="-1.09147427">
<ele>55</ele>
<time>2014-05-25T13:24:41Z</time>
</trkpt>
<trkpt lat="37.57257257" lon="-1.09147469">
<ele>55</ele>
<time>2014-05-25T13:24:43Z</time>
</trkpt>
<trkpt lat="37.57257043" lon="-1.09148112">
<ele>55</ele>
<time>2014-05-25T13:24:45Z</time>
</trkpt>
<trkpt lat="37.57256593" lon="-1.09148438">
<ele>55</ele>
<time>2014-05-25T13:24:47Z</time>
</trkpt>
<trkpt lat="37.57256483" lon="-1.0914842">
<ele>55</ele>
<time>2014-05-25T13:24:49Z</time>
</trkpt>
<trkpt lat="37.57256344" lon="-1.0914841">
<ele>55</ele>
<time>2014-05-25T13:24:51Z</time>
</trkpt>
<trkpt lat="37.57255145" lon="-1.09149598">
<ele>56</ele>
<time>2014-05-25T13:24:53Z</time>
</trkpt>
<trkpt lat="37.57252013" lon="-1.09151686">
<ele>57</ele>
<time>2014-05-25T13:24:55Z</time>
</trkpt>
<trkpt lat="37.57248824" lon="-1.09153761">
<ele>58</ele>
<time>2014-05-25T13:24:57Z</time>
</trkpt>
<trkpt lat="37.57244945" lon="-1.09154974">
<ele>58</ele>
<time>2014-05-25T13:24:59Z</time>
</trkpt>
<trkpt lat="37.57241122" lon="-1.09155641">
<ele>58</ele>
<time>2014-05-25T13:25:01Z</time>
</trkpt>
<trkpt lat="37.57237496" lon="-1.09156364">
<ele>60</ele>
<time>2014-05-25T13:25:03Z</time>
</trkpt>
<trkpt lat="37.57234899" lon="-1.09157816">
<ele>60</ele>
<time>2014-05-25T13:25:05Z</time>
</trkpt>
<trkpt lat="37.572324" lon="-1.09159916">
<ele>61</ele>
<time>2014-05-25T13:25:07Z</time>
</trkpt>
<trkpt lat="37.57230501" lon="-1.09162388">
<ele>61</ele>
<time>2014-05-25T13:25:09Z</time>
</trkpt>
<trkpt lat="37.57228252" lon="-1.0916521">
<ele>62</ele>
<time>2014-05-25T13:25:11Z</time>
</trkpt>
<trkpt lat="37.57226133" lon="-1.09168314">
<ele>61</ele>
<time>2014-05-25T13:25:13Z</time>
</trkpt>
<trkpt lat="37.57223916" lon="-1.09170884">
<ele>61</ele>
<time>2014-05-25T13:25:15Z</time>
</trkpt>
<trkpt lat="37.57221819" lon="-1.09173891">
<ele>60</ele>
<time>2014-05-25T13:25:17Z</time>
</trkpt>
<trkpt lat="37.5721979" lon="-1.0917723">
<ele>60</ele>
<time>2014-05-25T13:25:19Z</time>
</trkpt>
<trkpt lat="37.57218036" lon="-1.09180542">
<ele>59</ele>
<time>2014-05-25T13:25:21Z</time>
</trkpt>
<trkpt lat="37.57216274" lon="-1.09183194">
<ele>60</ele>
<time>2014-05-25T13:25:23Z</time>
</trkpt>
<trkpt lat="37.572146" lon="-1.09185385">
<ele>60</ele>
<time>2014-05-25T13:25:25Z</time>
</trkpt>
<trkpt lat="37.57212932" lon="-1.09186892">
<ele>61</ele>
<time>2014-05-25T13:25:27Z</time>
</trkpt>
<trkpt lat="37.57210866" lon="-1.09189006">
<ele>61</ele>
<time>2014-05-25T13:25:29Z</time>
</trkpt>
<trkpt lat="37.57209034" lon="-1.09191584">
<ele>62</ele>
<time>2014-05-25T13:25:31Z</time>
</trkpt>
<trkpt lat="37.57206811" lon="-1.09193579">
<ele>62</ele>
<time>2014-05-25T13:25:33Z</time>
</trkpt>
<trkpt lat="37.57204879" lon="-1.09195663">
<ele>63</ele>
<time>2014-05-25T13:25:35Z</time>
</trkpt>
<trkpt lat="37.57202805" lon="-1.09197305">
<ele>63</ele>
<time>2014-05-25T13:25:37Z</time>
</trkpt>
<trkpt lat="37.57200699" lon="-1.09199119">
<ele>63</ele>
<time>2014-05-25T13:25:39Z</time>
</trkpt>
<trkpt lat="37.57198882" lon="-1.0920084">
<ele>63</ele>
<time>2014-05-25T13:25:41Z</time>
</trkpt>
<trkpt lat="37.5719677" lon="-1.09202522">
<ele>62</ele>
<time>2014-05-25T13:25:43Z</time>
</trkpt>
<trkpt lat="37.57195294" lon="-1.09204611">
<ele>62</ele>
<time>2014-05-25T13:25:45Z</time>
</trkpt>
<trkpt lat="37.57193262" lon="-1.0920683">
<ele>62</ele>
<time>2014-05-25T13:25:47Z</time>
</trkpt>
<trkpt lat="37.57191416" lon="-1.092084">
<ele>62</ele>
<time>2014-05-25T13:25:49Z</time>
</trkpt>
<trkpt lat="37.5718947" lon="-1.09210429">
<ele>62</ele>
<time>2014-05-25T13:25:51Z</time>
</trkpt>
<trkpt lat="37.57187692" lon="-1.09212172">
<ele>62</ele>
<time>2014-05-25T13:25:53Z</time>
</trkpt>
<trkpt lat="37.57185821" lon="-1.09214161">
<ele>60</ele>
<time>2014-05-25T13:25:55Z</time>
</trkpt>
<trkpt lat="37.57183962" lon="-1.09216121">
<ele>60</ele>
<time>2014-05-25T13:25:57Z</time>
</trkpt>
<trkpt lat="37.57182212" lon="-1.09217993">
<ele>60</ele>
<time>2014-05-25T13:25:59Z</time>
</trkpt>
<trkpt lat="37.57180501" lon="-1.09220281">
<ele>60</ele>
<time>2014-05-25T13:26:01Z</time>
</trkpt>
<trkpt lat="37.57178648" lon="-1.09221802">
<ele>60</ele>
<time>2014-05-25T13:26:03Z</time>
</trkpt>
<trkpt lat="37.57176763" lon="-1.09222739">
<ele>60</ele>
<time>2014-05-25T13:26:05Z</time>
</trkpt>
<trkpt lat="37.57174559" lon="-1.09223518">
<ele>60</ele>
<time>2014-05-25T13:26:07Z</time>
</trkpt>
<trkpt lat="37.57172758" lon="-1.09224721">
<ele>60</ele>
<time>2014-05-25T13:26:09Z</time>
</trkpt>
<trkpt lat="37.57171244" lon="-1.09226102">
<ele>60</ele>
<time>2014-05-25T13:26:11Z</time>
</trkpt>
<trkpt lat="37.57168088" lon="-1.0922675">
<ele>60</ele>
<time>2014-05-25T13:26:13Z</time>
</trkpt>
<trkpt lat="37.57165462" lon="-1.09228341">
<ele>59</ele>
<time>2014-05-25T13:26:15Z</time>
</trkpt>
<trkpt lat="37.5716341" lon="-1.09231153">
<ele>58</ele>
<time>2014-05-25T13:26:17Z</time>
</trkpt>
<trkpt lat="37.57161343" lon="-1.09234054">
<ele>58</ele>
<time>2014-05-25T13:26:19Z</time>
</trkpt>
<trkpt lat="37.57159228" lon="-1.09236408">
<ele>58</ele>
<time>2014-05-25T13:26:21Z</time>
</trkpt>
<trkpt lat="37.5715718" lon="-1.09238276">
<ele>58</ele>
<time>2014-05-25T13:26:23Z</time>
</trkpt>
<trkpt lat="37.57155316" lon="-1.09239425">
<ele>59</ele>
<time>2014-05-25T13:26:25Z</time>
</trkpt>
<trkpt lat="37.5715287" lon="-1.09241271">
<ele>57</ele>
<time>2014-05-25T13:26:27Z</time>
</trkpt>
<trkpt lat="37.5714981" lon="-1.09243316">
<ele>56</ele>
<time>2014-05-25T13:26:29Z</time>
</trkpt>
<trkpt lat="37.5714682" lon="-1.09245419">
<ele>55</ele>
<time>2014-05-25T13:26:31Z</time>
</trkpt>
<trkpt lat="37.57144273" lon="-1.09246691">
<ele>55</ele>
<time>2014-05-25T13:26:33Z</time>
</trkpt>
<trkpt lat="37.57141737" lon="-1.09248039">
<ele>54</ele>
<time>2014-05-25T13:26:35Z</time>
</trkpt>
<trkpt lat="37.57139356" lon="-1.09250046">
<ele>54</ele>
<time>2014-05-25T13:26:37Z</time>
</trkpt>
<trkpt lat="37.57137638" lon="-1.09251711">
<ele>54</ele>
<time>2014-05-25T13:26:39Z</time>
</trkpt>
<trkpt lat="37.57136032" lon="-1.09252847">
<ele>54</ele>
<time>2014-05-25T13:26:41Z</time>
</trkpt>
<trkpt lat="37.57134419" lon="-1.09253424">
<ele>53</ele>
<time>2014-05-25T13:26:43Z</time>
</trkpt>
<trkpt lat="37.57132457" lon="-1.09253896">
<ele>54</ele>
<time>2014-05-25T13:26:45Z</time>
</trkpt>
<trkpt lat="37.57129903" lon="-1.09254263">
<ele>53</ele>
<time>2014-05-25T13:26:47Z</time>
</trkpt>
<trkpt lat="37.5712795" lon="-1.09255473">
<ele>53</ele>
<time>2014-05-25T13:26:49Z</time>
</trkpt>
<trkpt lat="37.57126588" lon="-1.09256944">
<ele>53</ele>
<time>2014-05-25T13:26:51Z</time>
</trkpt>
<trkpt lat="37.5712593" lon="-1.09257984">
<ele>53</ele>
<time>2014-05-25T13:26:53Z</time>
</trkpt>
<trkpt lat="37.57125596" lon="-1.09258483">
<ele>52</ele>
<time>2014-05-25T13:26:55Z</time>
</trkpt>
<trkpt lat="37.57125373" lon="-1.09258078">
<ele>53</ele>
<time>2014-05-25T13:26:57Z</time>
</trkpt>
<trkpt lat="37.57125616" lon="-1.09257736">
<ele>53</ele>
<time>2014-05-25T13:26:59Z</time>
</trkpt>
<trkpt lat="37.57126259" lon="-1.09257324">
<ele>53</ele>
<time>2014-05-25T13:27:01Z</time>
</trkpt>
<trkpt lat="37.57126703" lon="-1.09257479">
<ele>53</ele>
<time>2014-05-25T13:27:03Z</time>
</trkpt>
<trkpt lat="37.57127466" lon="-1.09258802">
<ele>54</ele>
<time>2014-05-25T13:27:05Z</time>
</trkpt>
<trkpt lat="37.57127874" lon="-1.09260404">
<ele>54</ele>
<time>2014-05-25T13:27:07Z</time>
</trkpt>
<trkpt lat="37.57128488" lon="-1.09261237">
<ele>53</ele>
<time>2014-05-25T13:27:09Z</time>
</trkpt>
<trkpt lat="37.57128803" lon="-1.09261398">
<ele>53</ele>
<time>2014-05-25T13:27:11Z</time>
</trkpt>
<trkpt lat="37.57129277" lon="-1.09261654">
<ele>53</ele>
<time>2014-05-25T13:27:13Z</time>
</trkpt>
<trkpt lat="37.57130986" lon="-1.09262129">
<ele>53</ele>
<time>2014-05-25T13:27:15Z</time>
</trkpt>
<trkpt lat="37.57131118" lon="-1.09262221">
<ele>53</ele>
<time>2014-05-25T13:27:17Z</time>
</trkpt>
<trkpt lat="37.57130791" lon="-1.09262973">
<ele>53</ele>
<time>2014-05-25T13:27:19Z</time>
</trkpt>
<trkpt lat="37.57130678" lon="-1.09263942">
<ele>53</ele>
<time>2014-05-25T13:27:21Z</time>
</trkpt>
<trkpt lat="37.57130735" lon="-1.09264166">
<ele>53</ele>
<time>2014-05-25T13:27:23Z</time>
</trkpt>
<trkpt lat="37.57131247" lon="-1.09263481">
<ele>53</ele>
<time>2014-05-25T13:27:25Z</time>
</trkpt>
<trkpt lat="37.57131396" lon="-1.0926324">
<ele>53</ele>
<time>2014-05-25T13:27:27Z</time>
</trkpt>
<trkpt lat="37.57131485" lon="-1.09263133">
<ele>53</ele>
<time>2014-05-25T13:27:29Z</time>
</trkpt>
<trkpt lat="37.57131562" lon="-1.09263087">
<ele>53</ele>
<time>2014-05-25T13:27:31Z</time>
</trkpt>
<trkpt lat="37.57131613" lon="-1.09263134">
<ele>53</ele>
<time>2014-05-25T13:27:33Z</time>
</trkpt>
<trkpt lat="37.57131623" lon="-1.09263126">
<ele>53</ele>
<time>2014-05-25T13:27:35Z</time>
</trkpt>
<trkpt lat="37.57131598" lon="-1.09263082">
<ele>53</ele>
<time>2014-05-25T13:27:37Z</time>
</trkpt>
<trkpt lat="37.57131593" lon="-1.09263042">
<ele>53</ele>
<time>2014-05-25T13:27:39Z</time>
</trkpt>
<trkpt lat="37.57131586" lon="-1.09262986">
<ele>53</ele>
<time>2014-05-25T13:27:41Z</time>
</trkpt>
<trkpt lat="37.57131559" lon="-1.09262957">
<ele>53</ele>
<time>2014-05-25T13:27:43Z</time>
</trkpt>
<trkpt lat="37.57131565" lon="-1.09262949">
<ele>53</ele>
<time>2014-05-25T13:27:45Z</time>
</trkpt>
<trkpt lat="37.57131562" lon="-1.09262933">
<ele>53</ele>
<time>2014-05-25T13:27:47Z</time>
</trkpt>
<trkpt lat="37.57131562" lon="-1.09262936">
<ele>53</ele>
<time>2014-05-25T13:27:49Z</time>
</trkpt>
<trkpt lat="37.57131536" lon="-1.0926289">
<ele>53</ele>
<time>2014-05-25T13:27:51Z</time>
</trkpt>
<trkpt lat="37.57131561" lon="-1.09262883">
<ele>53</ele>
<time>2014-05-25T13:27:53Z</time>
</trkpt>
<trkpt lat="37.57132278" lon="-1.09260847">
<ele>52</ele>
<time>2014-05-25T13:27:55Z</time>
</trkpt>
<trkpt lat="37.57133999" lon="-1.09259589">
<ele>50</ele>
<time>2014-05-25T13:27:57Z</time>
</trkpt>
<trkpt lat="37.57135195" lon="-1.09258121">
<ele>50</ele>
<time>2014-05-25T13:27:59Z</time>
</trkpt>
<trkpt lat="37.57135881" lon="-1.09256909">
<ele>51</ele>
<time>2014-05-25T13:28:01Z</time>
</trkpt>
<trkpt lat="37.57136848" lon="-1.09255476">
<ele>52</ele>
<time>2014-05-25T13:28:03Z</time>
</trkpt>
<trkpt lat="37.5713762" lon="-1.09253983">
<ele>52</ele>
<time>2014-05-25T13:28:05Z</time>
</trkpt>
<trkpt lat="37.57138288" lon="-1.09252372">
<ele>52</ele>
<time>2014-05-25T13:28:07Z</time>
</trkpt>
<trkpt lat="37.5713891" lon="-1.09252165">
<ele>51</ele>
<time>2014-05-25T13:28:09Z</time>
</trkpt>
<trkpt lat="37.57138783" lon="-1.09252971">
<ele>50</ele>
<time>2014-05-25T13:28:11Z</time>
</trkpt>
<trkpt lat="37.57138909" lon="-1.0925479">
<ele>51</ele>
<time>2014-05-25T13:28:13Z</time>
</trkpt>
<trkpt lat="37.57138716" lon="-1.09256692">
<ele>50</ele>
<time>2014-05-25T13:28:15Z</time>
</trkpt>
<trkpt lat="37.57138224" lon="-1.09257941">
<ele>49</ele>
<time>2014-05-25T13:28:17Z</time>
</trkpt>
<trkpt lat="37.57137522" lon="-1.09258978">
<ele>49</ele>
<time>2014-05-25T13:28:19Z</time>
</trkpt>
<trkpt lat="37.57137367" lon="-1.09259406">
<ele>49</ele>
<time>2014-05-25T13:28:21Z</time>
</trkpt>
<trkpt lat="37.57137212" lon="-1.09259922">
<ele>49</ele>
<time>2014-05-25T13:28:23Z</time>
</trkpt>
<trkpt lat="37.57134398" lon="-1.0926143">
<ele>50</ele>
<time>2014-05-25T13:28:25Z</time>
</trkpt>
<trkpt lat="37.57131991" lon="-1.09262779">
<ele>50</ele>
<time>2014-05-25T13:28:27Z</time>
</trkpt>
<trkpt lat="37.5712916" lon="-1.09264448">
<ele>49</ele>
<time>2014-05-25T13:28:29Z</time>
</trkpt>
<trkpt lat="37.5712642" lon="-1.09266491">
<ele>49</ele>
<time>2014-05-25T13:28:31Z</time>
</trkpt>
<trkpt lat="37.5712386" lon="-1.09267621">
<ele>49</ele>
<time>2014-05-25T13:28:33Z</time>
</trkpt>
<trkpt lat="37.57121668" lon="-1.09268707">
<ele>49</ele>
<time>2014-05-25T13:28:35Z</time>
</trkpt>
<trkpt lat="37.57119657" lon="-1.09268865">
<ele>48</ele>
<time>2014-05-25T13:28:37Z</time>
</trkpt>
<trkpt lat="37.57117489" lon="-1.09269937">
<ele>47</ele>
<time>2014-05-25T13:28:39Z</time>
</trkpt>
<trkpt lat="37.57115073" lon="-1.09271506">
<ele>47</ele>
<time>2014-05-25T13:28:41Z</time>
</trkpt>
<trkpt lat="37.57112309" lon="-1.09272787">
<ele>45</ele>
<time>2014-05-25T13:28:43Z</time>
</trkpt>
<trkpt lat="37.57109731" lon="-1.0927406">
<ele>45</ele>
<time>2014-05-25T13:28:45Z</time>
</trkpt>
<trkpt lat="37.57107054" lon="-1.09275068">
<ele>45</ele>
<time>2014-05-25T13:28:47Z</time>
</trkpt>
<trkpt lat="37.57104558" lon="-1.09276173">
<ele>45</ele>
<time>2014-05-25T13:28:49Z</time>
</trkpt>
<trkpt lat="37.57102099" lon="-1.09277171">
<ele>45</ele>
<time>2014-05-25T13:28:51Z</time>
</trkpt>
<trkpt lat="37.57099577" lon="-1.09278975">
<ele>44</ele>
<time>2014-05-25T13:28:53Z</time>
</trkpt>
<trkpt lat="37.57097115" lon="-1.092807">
<ele>44</ele>
<time>2014-05-25T13:28:55Z</time>
</trkpt>
<trkpt lat="37.57095247" lon="-1.09282143">
<ele>45</ele>
<time>2014-05-25T13:28:57Z</time>
</trkpt>
<trkpt lat="37.57093565" lon="-1.0928263">
<ele>46</ele>
<time>2014-05-25T13:28:59Z</time>
</trkpt>
<trkpt lat="37.5709227" lon="-1.09283725">
<ele>47</ele>
<time>2014-05-25T13:29:01Z</time>
</trkpt>
<trkpt lat="37.57090597" lon="-1.09283938">
<ele>47</ele>
<time>2014-05-25T13:29:03Z</time>
</trkpt>
<trkpt lat="37.57088911" lon="-1.09284875">
<ele>47</ele>
<time>2014-05-25T13:29:05Z</time>
</trkpt>
<trkpt lat="37.57086743" lon="-1.09285605">
<ele>46</ele>
<time>2014-05-25T13:29:07Z</time>
</trkpt>
<trkpt lat="37.57084742" lon="-1.09286887">
<ele>47</ele>
<time>2014-05-25T13:29:09Z</time>
</trkpt>
<trkpt lat="37.57082526" lon="-1.09288301">
<ele>47</ele>
<time>2014-05-25T13:29:11Z</time>
</trkpt>
<trkpt lat="37.57081048" lon="-1.0929023">
<ele>47</ele>
<time>2014-05-25T13:29:13Z</time>
</trkpt>
<trkpt lat="37.57079757" lon="-1.09292517">
<ele>46</ele>
<time>2014-05-25T13:29:15Z</time>
</trkpt>
<trkpt lat="37.57078711" lon="-1.092951">
<ele>46</ele>
<time>2014-05-25T13:29:17Z</time>
</trkpt>
<trkpt lat="37.57077803" lon="-1.09298029">
<ele>45</ele>
<time>2014-05-25T13:29:19Z</time>
</trkpt>
<trkpt lat="37.57077237" lon="-1.09301288">
<ele>46</ele>
<time>2014-05-25T13:29:21Z</time>
</trkpt>
<trkpt lat="37.57076747" lon="-1.0930422">
<ele>46</ele>
<time>2014-05-25T13:29:23Z</time>
</trkpt>
<trkpt lat="37.57075781" lon="-1.09306737">
<ele>46</ele>
<time>2014-05-25T13:29:25Z</time>
</trkpt>
<trkpt lat="37.57074759" lon="-1.09308403">
<ele>46</ele>
<time>2014-05-25T13:29:27Z</time>
</trkpt>
<trkpt lat="37.57072962" lon="-1.09309475">
<ele>46</ele>
<time>2014-05-25T13:29:29Z</time>
</trkpt>
<trkpt lat="37.57071277" lon="-1.09310544">
<ele>46</ele>
<time>2014-05-25T13:29:31Z</time>
</trkpt>
<trkpt lat="37.57069809" lon="-1.09311397">
<ele>46</ele>
<time>2014-05-25T13:29:33Z</time>
</trkpt>
<trkpt lat="37.57068195" lon="-1.0931266">
<ele>46</ele>
<time>2014-05-25T13:29:35Z</time>
</trkpt>
<trkpt lat="37.57066937" lon="-1.09314299">
<ele>46</ele>
<time>2014-05-25T13:29:37Z</time>
</trkpt>
<trkpt lat="37.57065911" lon="-1.09315954">
<ele>47</ele>
<time>2014-05-25T13:29:39Z</time>
</trkpt>
<trkpt lat="37.57064587" lon="-1.09317636">
<ele>47</ele>
<time>2014-05-25T13:29:41Z</time>
</trkpt>
<trkpt lat="37.5706339" lon="-1.09318804">
<ele>48</ele>
<time>2014-05-25T13:29:43Z</time>
</trkpt>
<trkpt lat="37.5706221" lon="-1.09319905">
<ele>49</ele>
<time>2014-05-25T13:29:45Z</time>
</trkpt>
<trkpt lat="37.5706082" lon="-1.09320381">
<ele>51</ele>
<time>2014-05-25T13:29:47Z</time>
</trkpt>
<trkpt lat="37.57059432" lon="-1.09321066">
<ele>52</ele>
<time>2014-05-25T13:29:49Z</time>
</trkpt>
<trkpt lat="37.57058344" lon="-1.09321522">
<ele>52</ele>
<time>2014-05-25T13:29:51Z</time>
</trkpt>
<trkpt lat="37.57057404" lon="-1.0932248">
<ele>53</ele>
<time>2014-05-25T13:29:53Z</time>
</trkpt>
<trkpt lat="37.57056616" lon="-1.0932402">
<ele>52</ele>
<time>2014-05-25T13:29:55Z</time>
</trkpt>
<trkpt lat="37.57054483" lon="-1.09327366">
<ele>50</ele>
<time>2014-05-25T13:29:57Z</time>
</trkpt>
<trkpt lat="37.57053346" lon="-1.09331628">
<ele>50</ele>
<time>2014-05-25T13:29:59Z</time>
</trkpt>
<trkpt lat="37.57052548" lon="-1.09334912">
<ele>50</ele>
<time>2014-05-25T13:30:01Z</time>
</trkpt>
<trkpt lat="37.57051918" lon="-1.09336677">
<ele>51</ele>
<time>2014-05-25T13:30:03Z</time>
</trkpt>
<trkpt lat="37.57052363" lon="-1.09338343">
<ele>51</ele>
<time>2014-05-25T13:30:05Z</time>
</trkpt>
<trkpt lat="37.5705344" lon="-1.09339894">
<ele>51</ele>
<time>2014-05-25T13:30:07Z</time>
</trkpt>
<trkpt lat="37.57054688" lon="-1.09340913">
<ele>51</ele>
<time>2014-05-25T13:30:09Z</time>
</trkpt>
<trkpt lat="37.5705577" lon="-1.09342214">
<ele>51</ele>
<time>2014-05-25T13:30:11Z</time>
</trkpt>
<trkpt lat="37.57056482" lon="-1.09344072">
<ele>51</ele>
<time>2014-05-25T13:30:13Z</time>
</trkpt>
<trkpt lat="37.57056243" lon="-1.09345265">
<ele>51</ele>
<time>2014-05-25T13:30:15Z</time>
</trkpt>
<trkpt lat="37.57055428" lon="-1.09346038">
<ele>51</ele>
<time>2014-05-25T13:30:17Z</time>
</trkpt>
<trkpt lat="37.57055728" lon="-1.09346932">
<ele>51</ele>
<time>2014-05-25T13:30:19Z</time>
</trkpt>
<trkpt lat="37.570567" lon="-1.09347206">
<ele>51</ele>
<time>2014-05-25T13:30:21Z</time>
</trkpt>
<trkpt lat="37.5705767" lon="-1.09347004">
<ele>50</ele>
<time>2014-05-25T13:30:23Z</time>
</trkpt>
<trkpt lat="37.57057808" lon="-1.09347041">
<ele>50</ele>
<time>2014-05-25T13:30:25Z</time>
</trkpt>
<trkpt lat="37.57058123" lon="-1.09347304">
<ele>50</ele>
<time>2014-05-25T13:30:27Z</time>
</trkpt>
<trkpt lat="37.57058749" lon="-1.09348119">
<ele>50</ele>
<time>2014-05-25T13:30:29Z</time>
</trkpt>
<trkpt lat="37.57059185" lon="-1.09349374">
<ele>50</ele>
<time>2014-05-25T13:30:31Z</time>
</trkpt>
<trkpt lat="37.57059532" lon="-1.0935013">
<ele>50</ele>
<time>2014-05-25T13:30:33Z</time>
</trkpt>
<trkpt lat="37.57059956" lon="-1.09350875">
<ele>50</ele>
<time>2014-05-25T13:30:35Z</time>
</trkpt>
<trkpt lat="37.57060922" lon="-1.09352088">
<ele>50</ele>
<time>2014-05-25T13:30:37Z</time>
</trkpt>
<trkpt lat="37.57061876" lon="-1.09352625">
<ele>50</ele>
<time>2014-05-25T13:30:39Z</time>
</trkpt>
<trkpt lat="37.57062378" lon="-1.09353364">
<ele>50</ele>
<time>2014-05-25T13:30:41Z</time>
</trkpt>
<trkpt lat="37.57062394" lon="-1.09352989">
<ele>50</ele>
<time>2014-05-25T13:30:43Z</time>
</trkpt>
<trkpt lat="37.57063086" lon="-1.09353811">
<ele>49</ele>
<time>2014-05-25T13:30:45Z</time>
</trkpt>
<trkpt lat="37.5706339" lon="-1.09354339">
<ele>50</ele>
<time>2014-05-25T13:30:47Z</time>
</trkpt>
<trkpt lat="37.57063161" lon="-1.09354538">
<ele>50</ele>
<time>2014-05-25T13:30:49Z</time>
</trkpt>
<trkpt lat="37.57064525" lon="-1.09355887">
<ele>48</ele>
<time>2014-05-25T13:30:51Z</time>
</trkpt>
<trkpt lat="37.57065279" lon="-1.09355739">
<ele>48</ele>
<time>2014-05-25T13:30:53Z</time>
</trkpt>
<trkpt lat="37.57065821" lon="-1.09355327">
<ele>48</ele>
<time>2014-05-25T13:30:55Z</time>
</trkpt>
<trkpt lat="37.57065899" lon="-1.09355439">
<ele>49</ele>
<time>2014-05-25T13:30:57Z</time>
</trkpt>
<trkpt lat="37.57065602" lon="-1.09356428">
<ele>48</ele>
<time>2014-05-25T13:30:59Z</time>
</trkpt>
<trkpt lat="37.57064875" lon="-1.09356058">
<ele>48</ele>
<time>2014-05-25T13:31:01Z</time>
</trkpt>
<trkpt lat="37.57063908" lon="-1.09355838">
<ele>46</ele>
<time>2014-05-25T13:31:03Z</time>
</trkpt>
<trkpt lat="37.57062999" lon="-1.09352742">
<ele>43</ele>
<time>2014-05-25T13:31:05Z</time>
</trkpt>
<trkpt lat="37.57063287" lon="-1.09348078">
<ele>42</ele>
<time>2014-05-25T13:31:07Z</time>
</trkpt>
<trkpt lat="37.57063557" lon="-1.09346396">
<ele>42</ele>
<time>2014-05-25T13:31:09Z</time>
</trkpt>
<trkpt lat="37.57063557" lon="-1.09346396">
<ele>42</ele>
<time>2014-05-25T13:31:11Z</time>
</trkpt>
<trkpt lat="37.57063456" lon="-1.09344916">
<ele>43</ele>
<time>2014-05-25T13:31:13Z</time>
</trkpt>
<trkpt lat="37.5706343" lon="-1.09344446">
<ele>43</ele>
<time>2014-05-25T13:31:15Z</time>
</trkpt>
<trkpt lat="37.57062859" lon="-1.09343667">
<ele>45</ele>
<time>2014-05-25T13:31:17Z</time>
</trkpt>
<trkpt lat="37.5706236" lon="-1.09343155">
<ele>46</ele>
<time>2014-05-25T13:31:19Z</time>
</trkpt>
<trkpt lat="37.5706239" lon="-1.09343392">
<ele>46</ele>
<time>2014-05-25T13:31:21Z</time>
</trkpt>
<trkpt lat="37.5706272" lon="-1.09343181">
<ele>46</ele>
<time>2014-05-25T13:31:23Z</time>
</trkpt>
<trkpt lat="37.57063091" lon="-1.09342646">
<ele>46</ele>
<time>2014-05-25T13:31:25Z</time>
</trkpt>
<trkpt lat="37.57063036" lon="-1.09342341">
<ele>46</ele>
<time>2014-05-25T13:31:27Z</time>
</trkpt>
<trkpt lat="37.5706293" lon="-1.09342261">
<ele>46</ele>
<time>2014-05-25T13:31:29Z</time>
</trkpt>
<trkpt lat="37.57062848" lon="-1.09342287">
<ele>46</ele>
<time>2014-05-25T13:31:31Z</time>
</trkpt>
<trkpt lat="37.57061746" lon="-1.09342864">
<ele>46</ele>
<time>2014-05-25T13:31:33Z</time>
</trkpt>
<trkpt lat="37.57058953" lon="-1.09344921">
<ele>47</ele>
<time>2014-05-25T13:31:35Z</time>
</trkpt>
<trkpt lat="37.57056255" lon="-1.09347202">
<ele>49</ele>
<time>2014-05-25T13:31:37Z</time>
</trkpt>
<trkpt lat="37.57053119" lon="-1.09349495">
<ele>49</ele>
<time>2014-05-25T13:31:39Z</time>
</trkpt>
<trkpt lat="37.57049475" lon="-1.0935195">
<ele>49</ele>
<time>2014-05-25T13:31:41Z</time>
</trkpt>
<trkpt lat="37.57046073" lon="-1.09354291">
<ele>50</ele>
<time>2014-05-25T13:31:43Z</time>
</trkpt>
<trkpt lat="37.57042845" lon="-1.09356696">
<ele>50</ele>
<time>2014-05-25T13:31:45Z</time>
</trkpt>
<trkpt lat="37.57040145" lon="-1.09358728">
<ele>51</ele>
<time>2014-05-25T13:31:47Z</time>
</trkpt>
<trkpt lat="37.57037992" lon="-1.09360762">
<ele>52</ele>
<time>2014-05-25T13:31:49Z</time>
</trkpt>
<trkpt lat="37.57035708" lon="-1.09362584">
<ele>53</ele>
<time>2014-05-25T13:31:51Z</time>
</trkpt>
<trkpt lat="37.57033886" lon="-1.09364679">
<ele>53</ele>
<time>2014-05-25T13:31:53Z</time>
</trkpt>
<trkpt lat="37.57031911" lon="-1.09367012">
<ele>53</ele>
<time>2014-05-25T13:31:55Z</time>
</trkpt>
<trkpt lat="37.57029938" lon="-1.09368942">
<ele>54</ele>
<time>2014-05-25T13:31:57Z</time>
</trkpt>
<trkpt lat="37.57027839" lon="-1.09371233">
<ele>54</ele>
<time>2014-05-25T13:31:59Z</time>
</trkpt>
<trkpt lat="37.57025352" lon="-1.09372806">
<ele>55</ele>
<time>2014-05-25T13:32:01Z</time>
</trkpt>
<trkpt lat="37.570225" lon="-1.09374285">
<ele>56</ele>
<time>2014-05-25T13:32:03Z</time>
</trkpt>
<trkpt lat="37.57019784" lon="-1.09375683">
<ele>57</ele>
<time>2014-05-25T13:32:05Z</time>
</trkpt>
<trkpt lat="37.57017325" lon="-1.09377305">
<ele>58</ele>
<time>2014-05-25T13:32:07Z</time>
</trkpt>
<trkpt lat="37.57014873" lon="-1.09379026">
<ele>59</ele>
<time>2014-05-25T13:32:09Z</time>
</trkpt>
<trkpt lat="37.57012647" lon="-1.09380604">
<ele>59</ele>
<time>2014-05-25T13:32:11Z</time>
</trkpt>
<trkpt lat="37.57010293" lon="-1.09382165">
<ele>60</ele>
<time>2014-05-25T13:32:13Z</time>
</trkpt>
<trkpt lat="37.57007597" lon="-1.09383566">
<ele>61</ele>
<time>2014-05-25T13:32:15Z</time>
</trkpt>
<trkpt lat="37.57004918" lon="-1.09385214">
<ele>61</ele>
<time>2014-05-25T13:32:17Z</time>
</trkpt>
<trkpt lat="37.57002066" lon="-1.09387207">
<ele>61</ele>
<time>2014-05-25T13:32:19Z</time>
</trkpt>
<trkpt lat="37.56999607" lon="-1.09389163">
<ele>61</ele>
<time>2014-05-25T13:32:21Z</time>
</trkpt>
<trkpt lat="37.56997502" lon="-1.09390996">
<ele>62</ele>
<time>2014-05-25T13:32:23Z</time>
</trkpt>
<trkpt lat="37.56995433" lon="-1.09393236">
<ele>62</ele>
<time>2014-05-25T13:32:25Z</time>
</trkpt>
<trkpt lat="37.56993432" lon="-1.09395225">
<ele>61</ele>
<time>2014-05-25T13:32:27Z</time>
</trkpt>
<trkpt lat="37.56991069" lon="-1.09397378">
<ele>61</ele>
<time>2014-05-25T13:32:29Z</time>
</trkpt>
<trkpt lat="37.56988911" lon="-1.09399309">
<ele>60</ele>
<time>2014-05-25T13:32:31Z</time>
</trkpt>
<trkpt lat="37.56986648" lon="-1.09401324">
<ele>60</ele>
<time>2014-05-25T13:32:33Z</time>
</trkpt>
<trkpt lat="37.56984257" lon="-1.09403161">
<ele>59</ele>
<time>2014-05-25T13:32:35Z</time>
</trkpt>
<trkpt lat="37.56981597" lon="-1.09405156">
<ele>58</ele>
<time>2014-05-25T13:32:37Z</time>
</trkpt>
<trkpt lat="37.56978762" lon="-1.09407151">
<ele>57</ele>
<time>2014-05-25T13:32:39Z</time>
</trkpt>
<trkpt lat="37.56976343" lon="-1.09409025">
<ele>57</ele>
<time>2014-05-25T13:32:41Z</time>
</trkpt>
<trkpt lat="37.56974199" lon="-1.09410912">
<ele>57</ele>
<time>2014-05-25T13:32:43Z</time>
</trkpt>
<trkpt lat="37.56972247" lon="-1.09412726">
<ele>56</ele>
<time>2014-05-25T13:32:45Z</time>
</trkpt>
<trkpt lat="37.56970057" lon="-1.09414355">
<ele>55</ele>
<time>2014-05-25T13:32:47Z</time>
</trkpt>
<trkpt lat="37.56967828" lon="-1.09416056">
<ele>55</ele>
<time>2014-05-25T13:32:49Z</time>
</trkpt>
<trkpt lat="37.56965503" lon="-1.09417517">
<ele>54</ele>
<time>2014-05-25T13:32:51Z</time>
</trkpt>
<trkpt lat="37.56963085" lon="-1.09419404">
<ele>53</ele>
<time>2014-05-25T13:32:53Z</time>
</trkpt>
<trkpt lat="37.56960529" lon="-1.09421324">
<ele>52</ele>
<time>2014-05-25T13:32:55Z</time>
</trkpt>
<trkpt lat="37.56958247" lon="-1.09422693">
<ele>51</ele>
<time>2014-05-25T13:32:57Z</time>
</trkpt>
<trkpt lat="37.56955673" lon="-1.09423812">
<ele>52</ele>
<time>2014-05-25T13:32:59Z</time>
</trkpt>
<trkpt lat="37.56953411" lon="-1.0942509">
<ele>52</ele>
<time>2014-05-25T13:33:01Z</time>
</trkpt>
<trkpt lat="37.5695149" lon="-1.09426633">
<ele>52</ele>
<time>2014-05-25T13:33:03Z</time>
</trkpt>
<trkpt lat="37.56949684" lon="-1.09428271">
<ele>52</ele>
<time>2014-05-25T13:33:05Z</time>
</trkpt>
<trkpt lat="37.56947682" lon="-1.09430563">
<ele>51</ele>
<time>2014-05-25T13:33:07Z</time>
</trkpt>
<trkpt lat="37.56945917" lon="-1.09432738">
<ele>52</ele>
<time>2014-05-25T13:33:09Z</time>
</trkpt>
<trkpt lat="37.56943789" lon="-1.09435108">
<ele>51</ele>
<time>2014-05-25T13:33:11Z</time>
</trkpt>
<trkpt lat="37.56942007" lon="-1.09437803">
<ele>52</ele>
<time>2014-05-25T13:33:13Z</time>
</trkpt>
<trkpt lat="37.56940028" lon="-1.09440591">
<ele>52</ele>
<time>2014-05-25T13:33:15Z</time>
</trkpt>
<trkpt lat="37.56937985" lon="-1.09442856">
<ele>52</ele>
<time>2014-05-25T13:33:17Z</time>
</trkpt>
<trkpt lat="37.56935823" lon="-1.09445085">
<ele>51</ele>
<time>2014-05-25T13:33:19Z</time>
</trkpt>
<trkpt lat="37.56933859" lon="-1.09447598">
<ele>51</ele>
<time>2014-05-25T13:33:21Z</time>
</trkpt>
<trkpt lat="37.56931821" lon="-1.0944945">
<ele>52</ele>
<time>2014-05-25T13:33:23Z</time>
</trkpt>
<trkpt lat="37.56930163" lon="-1.09451474">
<ele>52</ele>
<time>2014-05-25T13:33:25Z</time>
</trkpt>
<trkpt lat="37.56928495" lon="-1.09453508">
<ele>52</ele>
<time>2014-05-25T13:33:27Z</time>
</trkpt>
<trkpt lat="37.56926545" lon="-1.09455746">
<ele>52</ele>
<time>2014-05-25T13:33:29Z</time>
</trkpt>
<trkpt lat="37.56924872" lon="-1.09457309">
<ele>53</ele>
<time>2014-05-25T13:33:31Z</time>
</trkpt>
<trkpt lat="37.56923329" lon="-1.09459173">
<ele>53</ele>
<time>2014-05-25T13:33:33Z</time>
</trkpt>
<trkpt lat="37.56921979" lon="-1.0946138">
<ele>53</ele>
<time>2014-05-25T13:33:35Z</time>
</trkpt>
<trkpt lat="37.56920588" lon="-1.09463908">
<ele>52</ele>
<time>2014-05-25T13:33:37Z</time>
</trkpt>
<trkpt lat="37.569196" lon="-1.0946715">
<ele>53</ele>
<time>2014-05-25T13:33:39Z</time>
</trkpt>
<trkpt lat="37.56918433" lon="-1.09470102">
<ele>54</ele>
<time>2014-05-25T13:33:41Z</time>
</trkpt>
<trkpt lat="37.56917205" lon="-1.09473196">
<ele>54</ele>
<time>2014-05-25T13:33:43Z</time>
</trkpt>
<trkpt lat="37.56915908" lon="-1.09477063">
<ele>52</ele>
<time>2014-05-25T13:33:45Z</time>
</trkpt>
<trkpt lat="37.56914675" lon="-1.09480772">
<ele>52</ele>
<time>2014-05-25T13:33:47Z</time>
</trkpt>
<trkpt lat="37.56913151" lon="-1.09484684">
<ele>52</ele>
<time>2014-05-25T13:33:49Z</time>
</trkpt>
<trkpt lat="37.56911734" lon="-1.09487785">
<ele>52</ele>
<time>2014-05-25T13:33:51Z</time>
</trkpt>
<trkpt lat="37.56911321" lon="-1.09491695">
<ele>52</ele>
<time>2014-05-25T13:33:53Z</time>
</trkpt>
<trkpt lat="37.56910844" lon="-1.09495017">
<ele>51</ele>
<time>2014-05-25T13:33:55Z</time>
</trkpt>
<trkpt lat="37.56910059" lon="-1.09498588">
<ele>51</ele>
<time>2014-05-25T13:33:57Z</time>
</trkpt>
<trkpt lat="37.56909003" lon="-1.09502226">
<ele>50</ele>
<time>2014-05-25T13:33:59Z</time>
</trkpt>
<trkpt lat="37.56908016" lon="-1.09505552">
<ele>51</ele>
<time>2014-05-25T13:34:01Z</time>
</trkpt>
<trkpt lat="37.56907183" lon="-1.09508412">
<ele>50</ele>
<time>2014-05-25T13:34:03Z</time>
</trkpt>
<trkpt lat="37.56906185" lon="-1.09511106">
<ele>50</ele>
<time>2014-05-25T13:34:05Z</time>
</trkpt>
<trkpt lat="37.56905195" lon="-1.09514635">
<ele>50</ele>
<time>2014-05-25T13:34:07Z</time>
</trkpt>
<trkpt lat="37.56904206" lon="-1.09517473">
<ele>50</ele>
<time>2014-05-25T13:34:09Z</time>
</trkpt>
<trkpt lat="37.56903343" lon="-1.09520309">
<ele>51</ele>
<time>2014-05-25T13:34:11Z</time>
</trkpt>
<trkpt lat="37.56902729" lon="-1.09522698">
<ele>51</ele>
<time>2014-05-25T13:34:13Z</time>
</trkpt>
<trkpt lat="37.56902227" lon="-1.09525145">
<ele>51</ele>
<time>2014-05-25T13:34:15Z</time>
</trkpt>
<trkpt lat="37.56900608" lon="-1.09528209">
<ele>53</ele>
<time>2014-05-25T13:34:17Z</time>
</trkpt>
<trkpt lat="37.56898301" lon="-1.09531479">
<ele>52</ele>
<time>2014-05-25T13:34:19Z</time>
</trkpt>
<trkpt lat="37.56895962" lon="-1.09534641">
<ele>54</ele>
<time>2014-05-25T13:34:21Z</time>
</trkpt>
<trkpt lat="37.56893724" lon="-1.09537378">
<ele>54</ele>
<time>2014-05-25T13:34:23Z</time>
</trkpt>
<trkpt lat="37.56891108" lon="-1.09540918">
<ele>53</ele>
<time>2014-05-25T13:34:25Z</time>
</trkpt>
<trkpt lat="37.56888866" lon="-1.0954395">
<ele>54</ele>
<time>2014-05-25T13:34:27Z</time>
</trkpt>
<trkpt lat="37.56886839" lon="-1.09546992">
<ele>53</ele>
<time>2014-05-25T13:34:29Z</time>
</trkpt>
<trkpt lat="37.56884487" lon="-1.0955015">
<ele>53</ele>
<time>2014-05-25T13:34:31Z</time>
</trkpt>
<trkpt lat="37.56884377" lon="-1.0955337">
<ele>53</ele>
<time>2014-05-25T13:34:33Z</time>
</trkpt>
<trkpt lat="37.56883169" lon="-1.09556308">
<ele>52</ele>
<time>2014-05-25T13:34:35Z</time>
</trkpt>
<trkpt lat="37.56882043" lon="-1.09559159">
<ele>52</ele>
<time>2014-05-25T13:34:37Z</time>
</trkpt>
<trkpt lat="37.56881374" lon="-1.09562196">
<ele>53</ele>
<time>2014-05-25T13:34:39Z</time>
</trkpt>
<trkpt lat="37.56880814" lon="-1.09565292">
<ele>54</ele>
<time>2014-05-25T13:34:41Z</time>
</trkpt>
<trkpt lat="37.56880496" lon="-1.09568174">
<ele>55</ele>
<time>2014-05-25T13:34:43Z</time>
</trkpt>
<trkpt lat="37.56879764" lon="-1.09571062">
<ele>55</ele>
<time>2014-05-25T13:34:45Z</time>
</trkpt>
<trkpt lat="37.56878963" lon="-1.09573667">
<ele>56</ele>
<time>2014-05-25T13:34:47Z</time>
</trkpt>
<trkpt lat="37.56878087" lon="-1.09576239">
<ele>56</ele>
<time>2014-05-25T13:34:49Z</time>
</trkpt>
<trkpt lat="37.56877265" lon="-1.09579065">
<ele>56</ele>
<time>2014-05-25T13:34:51Z</time>
</trkpt>
<trkpt lat="37.56876277" lon="-1.09581682">
<ele>55</ele>
<time>2014-05-25T13:34:53Z</time>
</trkpt>
<trkpt lat="37.568753" lon="-1.0958447">
<ele>55</ele>
<time>2014-05-25T13:34:55Z</time>
</trkpt>
<trkpt lat="37.568742" lon="-1.09587376">
<ele>55</ele>
<time>2014-05-25T13:34:57Z</time>
</trkpt>
<trkpt lat="37.56873164" lon="-1.09590461">
<ele>55</ele>
<time>2014-05-25T13:34:59Z</time>
</trkpt>
<trkpt lat="37.56872184" lon="-1.09593808">
<ele>55</ele>
<time>2014-05-25T13:35:01Z</time>
</trkpt>
<trkpt lat="37.56871373" lon="-1.09597369">
<ele>55</ele>
<time>2014-05-25T13:35:03Z</time>
</trkpt>
<trkpt lat="37.56870591" lon="-1.09600987">
<ele>55</ele>
<time>2014-05-25T13:35:05Z</time>
</trkpt>
<trkpt lat="37.56869966" lon="-1.09604355">
<ele>56</ele>
<time>2014-05-25T13:35:07Z</time>
</trkpt>
<trkpt lat="37.56868972" lon="-1.09607811">
<ele>55</ele>
<time>2014-05-25T13:35:09Z</time>
</trkpt>
<trkpt lat="37.56867926" lon="-1.09611048">
<ele>55</ele>
<time>2014-05-25T13:35:11Z</time>
</trkpt>
<trkpt lat="37.56866945" lon="-1.09614356">
<ele>55</ele>
<time>2014-05-25T13:35:13Z</time>
</trkpt>
<trkpt lat="37.5686581" lon="-1.09617141">
<ele>55</ele>
<time>2014-05-25T13:35:15Z</time>
</trkpt>
<trkpt lat="37.56864534" lon="-1.09620006">
<ele>55</ele>
<time>2014-05-25T13:35:17Z</time>
</trkpt>
<trkpt lat="37.56863452" lon="-1.0962272">
<ele>55</ele>
<time>2014-05-25T13:35:19Z</time>
</trkpt>
<trkpt lat="37.56862404" lon="-1.096256">
<ele>57</ele>
<time>2014-05-25T13:35:21Z</time>
</trkpt>
<trkpt lat="37.5686139" lon="-1.09628583">
<ele>56</ele>
<time>2014-05-25T13:35:23Z</time>
</trkpt>
<trkpt lat="37.56860356" lon="-1.09631512">
<ele>57</ele>
<time>2014-05-25T13:35:25Z</time>
</trkpt>
<trkpt lat="37.56859441" lon="-1.09634532">
<ele>58</ele>
<time>2014-05-25T13:35:27Z</time>
</trkpt>
<trkpt lat="37.56858714" lon="-1.09637309">
<ele>57</ele>
<time>2014-05-25T13:35:29Z</time>
</trkpt>
<trkpt lat="37.56857831" lon="-1.09640082">
<ele>57</ele>
<time>2014-05-25T13:35:31Z</time>
</trkpt>
<trkpt lat="37.56856865" lon="-1.09642663">
<ele>58</ele>
<time>2014-05-25T13:35:33Z</time>
</trkpt>
<trkpt lat="37.56855625" lon="-1.0964534">
<ele>57</ele>
<time>2014-05-25T13:35:35Z</time>
</trkpt>
<trkpt lat="37.56853896" lon="-1.09647866">
<ele>57</ele>
<time>2014-05-25T13:35:37Z</time>
</trkpt>
<trkpt lat="37.56852193" lon="-1.0965032">
<ele>58</ele>
<time>2014-05-25T13:35:39Z</time>
</trkpt>
<trkpt lat="37.56850891" lon="-1.09652535">
<ele>58</ele>
<time>2014-05-25T13:35:41Z</time>
</trkpt>
<trkpt lat="37.56849835" lon="-1.09654525">
<ele>59</ele>
<time>2014-05-25T13:35:43Z</time>
</trkpt>
<trkpt lat="37.56849267" lon="-1.09656443">
<ele>59</ele>
<time>2014-05-25T13:35:45Z</time>
</trkpt>
<trkpt lat="37.5684874" lon="-1.09658012">
<ele>58</ele>
<time>2014-05-25T13:35:47Z</time>
</trkpt>
<trkpt lat="37.5684853" lon="-1.09659705">
<ele>59</ele>
<time>2014-05-25T13:35:49Z</time>
</trkpt>
<trkpt lat="37.56848373" lon="-1.09661665">
<ele>59</ele>
<time>2014-05-25T13:35:51Z</time>
</trkpt>
<trkpt lat="37.56847908" lon="-1.09663993">
<ele>60</ele>
<time>2014-05-25T13:35:53Z</time>
</trkpt>
<trkpt lat="37.56847145" lon="-1.09666229">
<ele>60</ele>
<time>2014-05-25T13:35:55Z</time>
</trkpt>
<trkpt lat="37.5684635" lon="-1.0966913">
<ele>60</ele>
<time>2014-05-25T13:35:57Z</time>
</trkpt>
<trkpt lat="37.56845537" lon="-1.09672332">
<ele>60</ele>
<time>2014-05-25T13:35:59Z</time>
</trkpt>
<trkpt lat="37.5684457" lon="-1.09675611">
<ele>60</ele>
<time>2014-05-25T13:36:01Z</time>
</trkpt>
<trkpt lat="37.56843187" lon="-1.09678603">
<ele>61</ele>
<time>2014-05-25T13:36:03Z</time>
</trkpt>
<trkpt lat="37.568419" lon="-1.09681565">
<ele>61</ele>
<time>2014-05-25T13:36:05Z</time>
</trkpt>
<trkpt lat="37.56840665" lon="-1.09684853">
<ele>61</ele>
<time>2014-05-25T13:36:07Z</time>
</trkpt>
<trkpt lat="37.56839806" lon="-1.09688059">
<ele>62</ele>
<time>2014-05-25T13:36:09Z</time>
</trkpt>
<trkpt lat="37.5683892" lon="-1.09691566">
<ele>62</ele>
<time>2014-05-25T13:36:11Z</time>
</trkpt>
<trkpt lat="37.56838316" lon="-1.09695109">
<ele>62</ele>
<time>2014-05-25T13:36:13Z</time>
</trkpt>
<trkpt lat="37.56837923" lon="-1.09698662">
<ele>62</ele>
<time>2014-05-25T13:36:15Z</time>
</trkpt>
<trkpt lat="37.56837449" lon="-1.09702084">
<ele>62</ele>
<time>2014-05-25T13:36:17Z</time>
</trkpt>
<trkpt lat="37.56836961" lon="-1.0970525">
<ele>62</ele>
<time>2014-05-25T13:36:19Z</time>
</trkpt>
<trkpt lat="37.56836021" lon="-1.09708552">
<ele>62</ele>
<time>2014-05-25T13:36:21Z</time>
</trkpt>
<trkpt lat="37.56835295" lon="-1.09711599">
<ele>62</ele>
<time>2014-05-25T13:36:23Z</time>
</trkpt>
<trkpt lat="37.5683442" lon="-1.0971477">
<ele>63</ele>
<time>2014-05-25T13:36:25Z</time>
</trkpt>
<trkpt lat="37.56833474" lon="-1.09718041">
<ele>62</ele>
<time>2014-05-25T13:36:27Z</time>
</trkpt>
<trkpt lat="37.56832609" lon="-1.09721338">
<ele>62</ele>
<time>2014-05-25T13:36:29Z</time>
</trkpt>
<trkpt lat="37.56831823" lon="-1.09724575">
<ele>62</ele>
<time>2014-05-25T13:36:31Z</time>
</trkpt>
<trkpt lat="37.56831099" lon="-1.09727897">
<ele>62</ele>
<time>2014-05-25T13:36:33Z</time>
</trkpt>
<trkpt lat="37.56830362" lon="-1.09730864">
<ele>62</ele>
<time>2014-05-25T13:36:35Z</time>
</trkpt>
<trkpt lat="37.56829616" lon="-1.09734179">
<ele>62</ele>
<time>2014-05-25T13:36:37Z</time>
</trkpt>
<trkpt lat="37.56828936" lon="-1.09737479">
<ele>62</ele>
<time>2014-05-25T13:36:39Z</time>
</trkpt>
<trkpt lat="37.56828019" lon="-1.0974074">
<ele>62</ele>
<time>2014-05-25T13:36:41Z</time>
</trkpt>
<trkpt lat="37.5682751" lon="-1.09743941">
<ele>63</ele>
<time>2014-05-25T13:36:43Z</time>
</trkpt>
<trkpt lat="37.56827126" lon="-1.09747222">
<ele>62</ele>
<time>2014-05-25T13:36:45Z</time>
</trkpt>
<trkpt lat="37.5682672" lon="-1.09750406">
<ele>62</ele>
<time>2014-05-25T13:36:47Z</time>
</trkpt>
<trkpt lat="37.56826358" lon="-1.09753719">
<ele>62</ele>
<time>2014-05-25T13:36:49Z</time>
</trkpt>
<trkpt lat="37.5682622" lon="-1.09756609">
<ele>63</ele>
<time>2014-05-25T13:36:51Z</time>
</trkpt>
<trkpt lat="37.56825808" lon="-1.09759537">
<ele>63</ele>
<time>2014-05-25T13:36:53Z</time>
</trkpt>
<trkpt lat="37.56825278" lon="-1.09762489">
<ele>62</ele>
<time>2014-05-25T13:36:55Z</time>
</trkpt>
<trkpt lat="37.56824621" lon="-1.09765728">
<ele>62</ele>
<time>2014-05-25T13:36:57Z</time>
</trkpt>
<trkpt lat="37.56824151" lon="-1.09768641">
<ele>62</ele>
<time>2014-05-25T13:36:59Z</time>
</trkpt>
<trkpt lat="37.56823799" lon="-1.09771672">
<ele>62</ele>
<time>2014-05-25T13:37:01Z</time>
</trkpt>
<trkpt lat="37.56823529" lon="-1.09774697">
<ele>62</ele>
<time>2014-05-25T13:37:03Z</time>
</trkpt>
<trkpt lat="37.56823096" lon="-1.09777608">
<ele>62</ele>
<time>2014-05-25T13:37:05Z</time>
</trkpt>
<trkpt lat="37.56822627" lon="-1.0978053">
<ele>62</ele>
<time>2014-05-25T13:37:07Z</time>
</trkpt>
<trkpt lat="37.5682199" lon="-1.097827">
<ele>61</ele>
<time>2014-05-25T13:37:09Z</time>
</trkpt>
<trkpt lat="37.56821643" lon="-1.09784553">
<ele>61</ele>
<time>2014-05-25T13:37:11Z</time>
</trkpt>
<trkpt lat="37.56821476" lon="-1.09785961">
<ele>61</ele>
<time>2014-05-25T13:37:13Z</time>
</trkpt>
<trkpt lat="37.56821447" lon="-1.09787994">
<ele>60</ele>
<time>2014-05-25T13:37:15Z</time>
</trkpt>
<trkpt lat="37.56821245" lon="-1.09789865">
<ele>60</ele>
<time>2014-05-25T13:37:17Z</time>
</trkpt>
<trkpt lat="37.56820324" lon="-1.0979308">
<ele>56</ele>
<time>2014-05-25T13:37:19Z</time>
</trkpt>
<trkpt lat="37.56819543" lon="-1.09795533">
<ele>53</ele>
<time>2014-05-25T13:37:21Z</time>
</trkpt>
<trkpt lat="37.56819428" lon="-1.09797265">
<ele>53</ele>
<time>2014-05-25T13:37:23Z</time>
</trkpt>
<trkpt lat="37.56818994" lon="-1.09798988">
<ele>53</ele>
<time>2014-05-25T13:37:25Z</time>
</trkpt>
<trkpt lat="37.56818417" lon="-1.09799846">
<ele>53</ele>
<time>2014-05-25T13:37:27Z</time>
</trkpt>
<trkpt lat="37.56818179" lon="-1.09800087">
<ele>52</ele>
<time>2014-05-25T13:37:29Z</time>
</trkpt>
<trkpt lat="37.5681792" lon="-1.09800463">
<ele>52</ele>
<time>2014-05-25T13:37:31Z</time>
</trkpt>
<trkpt lat="37.5681769" lon="-1.09800555">
<ele>51</ele>
<time>2014-05-25T13:37:33Z</time>
</trkpt>
<trkpt lat="37.56817584" lon="-1.09800511">
<ele>51</ele>
<time>2014-05-25T13:37:35Z</time>
</trkpt>
<trkpt lat="37.56817547" lon="-1.09800289">
<ele>51</ele>
<time>2014-05-25T13:37:37Z</time>
</trkpt>
<trkpt lat="37.56817704" lon="-1.09800047">
<ele>51</ele>
<time>2014-05-25T13:37:39Z</time>
</trkpt>
<trkpt lat="37.56817589" lon="-1.09800134">
<ele>51</ele>
<time>2014-05-25T13:37:41Z</time>
</trkpt>
<trkpt lat="37.56817511" lon="-1.09800218">
<ele>51</ele>
<time>2014-05-25T13:37:43Z</time>
</trkpt>
<trkpt lat="37.56817484" lon="-1.09800263">
<ele>51</ele>
<time>2014-05-25T13:37:45Z</time>
</trkpt>
<trkpt lat="37.56817481" lon="-1.09800324">
<ele>51</ele>
<time>2014-05-25T13:37:47Z</time>
</trkpt>
<trkpt lat="37.56817474" lon="-1.09800364">
<ele>51</ele>
<time>2014-05-25T13:37:49Z</time>
</trkpt>
<trkpt lat="37.56817469" lon="-1.09800394">
<ele>51</ele>
<time>2014-05-25T13:37:51Z</time>
</trkpt>
<trkpt lat="37.56817469" lon="-1.09800418">
<ele>51</ele>
<time>2014-05-25T13:37:53Z</time>
</trkpt>
<trkpt lat="37.56817416" lon="-1.09800682">
<ele>50</ele>
<time>2014-05-25T13:37:55Z</time>
</trkpt>
<trkpt lat="37.56817263" lon="-1.09800785">
<ele>50</ele>
<time>2014-05-25T13:37:57Z</time>
</trkpt>
<trkpt lat="37.56816791" lon="-1.09802048">
<ele>50</ele>
<time>2014-05-25T13:37:59Z</time>
</trkpt>
<trkpt lat="37.56815168" lon="-1.09804888">
<ele>50</ele>
<time>2014-05-25T13:38:01Z</time>
</trkpt>
<trkpt lat="37.56813935" lon="-1.09808093">
<ele>51</ele>
<time>2014-05-25T13:38:03Z</time>
</trkpt>
<trkpt lat="37.56812318" lon="-1.09811867">
<ele>51</ele>
<time>2014-05-25T13:38:05Z</time>
</trkpt>
<trkpt lat="37.56810737" lon="-1.0981584">
<ele>49</ele>
<time>2014-05-25T13:38:07Z</time>
</trkpt>
<trkpt lat="37.56808953" lon="-1.0982039">
<ele>50</ele>
<time>2014-05-25T13:38:09Z</time>
</trkpt>
<trkpt lat="37.56807611" lon="-1.09825601">
<ele>47</ele>
<time>2014-05-25T13:38:11Z</time>
</trkpt>
<trkpt lat="37.56806409" lon="-1.09831254">
<ele>47</ele>
<time>2014-05-25T13:38:13Z</time>
</trkpt>
<trkpt lat="37.56805501" lon="-1.0983717">
<ele>47</ele>
<time>2014-05-25T13:38:15Z</time>
</trkpt>
<trkpt lat="37.5680456" lon="-1.09842717">
<ele>47</ele>
<time>2014-05-25T13:38:17Z</time>
</trkpt>
<trkpt lat="37.56803236" lon="-1.09847638">
<ele>48</ele>
<time>2014-05-25T13:38:19Z</time>
</trkpt>
<trkpt lat="37.56802046" lon="-1.09852101">
<ele>47</ele>
<time>2014-05-25T13:38:21Z</time>
</trkpt>
<trkpt lat="37.56801272" lon="-1.09856552">
<ele>46</ele>
<time>2014-05-25T13:38:23Z</time>
</trkpt>
<trkpt lat="37.5680083" lon="-1.09861415">
<ele>45</ele>
<time>2014-05-25T13:38:25Z</time>
</trkpt>
<trkpt lat="37.56800746" lon="-1.098664">
<ele>45</ele>
<time>2014-05-25T13:38:27Z</time>
</trkpt>
<trkpt lat="37.56800356" lon="-1.09871314">
<ele>44</ele>
<time>2014-05-25T13:38:29Z</time>
</trkpt>
<trkpt lat="37.5680064" lon="-1.09875828">
<ele>44</ele>
<time>2014-05-25T13:38:31Z</time>
</trkpt>
<trkpt lat="37.56801271" lon="-1.0988074">
<ele>43</ele>
<time>2014-05-25T13:38:33Z</time>
</trkpt>
<trkpt lat="37.56801848" lon="-1.09885716">
<ele>43</ele>
<time>2014-05-25T13:38:35Z</time>
</trkpt>
<trkpt lat="37.5680176" lon="-1.09890641">
<ele>42</ele>
<time>2014-05-25T13:38:37Z</time>
</trkpt>
<trkpt lat="37.56800673" lon="-1.09894173">
<ele>43</ele>
<time>2014-05-25T13:38:39Z</time>
</trkpt>
<trkpt lat="37.56800326" lon="-1.09898491">
<ele>42</ele>
<time>2014-05-25T13:38:41Z</time>
</trkpt>
<trkpt lat="37.56799969" lon="-1.0990264">
<ele>42</ele>
<time>2014-05-25T13:38:43Z</time>
</trkpt>
<trkpt lat="37.56800058" lon="-1.09906599">
<ele>43</ele>
<time>2014-05-25T13:38:45Z</time>
</trkpt>
<trkpt lat="37.56800312" lon="-1.09910169">
<ele>42</ele>
<time>2014-05-25T13:38:47Z</time>
</trkpt>
<trkpt lat="37.56801077" lon="-1.09913335">
<ele>42</ele>
<time>2014-05-25T13:38:49Z</time>
</trkpt>
<trkpt lat="37.56801557" lon="-1.09915689">
<ele>41</ele>
<time>2014-05-25T13:38:51Z</time>
</trkpt>
<trkpt lat="37.5680248" lon="-1.09918554">
<ele>39</ele>
<time>2014-05-25T13:38:53Z</time>
</trkpt>
<trkpt lat="37.56803349" lon="-1.09921466">
<ele>40</ele>
<time>2014-05-25T13:38:55Z</time>
</trkpt>
<trkpt lat="37.56804106" lon="-1.09925016">
<ele>39</ele>
<time>2014-05-25T13:38:57Z</time>
</trkpt>
<trkpt lat="37.56804645" lon="-1.09928359">
<ele>38</ele>
<time>2014-05-25T13:38:59Z</time>
</trkpt>
<trkpt lat="37.56805309" lon="-1.0993187">
<ele>38</ele>
<time>2014-05-25T13:39:01Z</time>
</trkpt>
<trkpt lat="37.56805541" lon="-1.09935941">
<ele>38</ele>
<time>2014-05-25T13:39:03Z</time>
</trkpt>
<trkpt lat="37.56805639" lon="-1.0993974">
<ele>38</ele>
<time>2014-05-25T13:39:05Z</time>
</trkpt>
<trkpt lat="37.56805826" lon="-1.09943296">
<ele>38</ele>
<time>2014-05-25T13:39:07Z</time>
</trkpt>
<trkpt lat="37.56806206" lon="-1.09946965">
<ele>38</ele>
<time>2014-05-25T13:39:09Z</time>
</trkpt>
<trkpt lat="37.56806155" lon="-1.09949773">
<ele>37</ele>
<time>2014-05-25T13:39:11Z</time>
</trkpt>
<trkpt lat="37.56805598" lon="-1.09952115">
<ele>37</ele>
<time>2014-05-25T13:39:13Z</time>
</trkpt>
<trkpt lat="37.56804632" lon="-1.09954629">
<ele>38</ele>
<time>2014-05-25T13:39:15Z</time>
</trkpt>
<trkpt lat="37.56803645" lon="-1.09957171">
<ele>38</ele>
<time>2014-05-25T13:39:17Z</time>
</trkpt>
<trkpt lat="37.56802824" lon="-1.09959397">
<ele>38</ele>
<time>2014-05-25T13:39:19Z</time>
</trkpt>
<trkpt lat="37.56802933" lon="-1.09962677">
<ele>37</ele>
<time>2014-05-25T13:39:21Z</time>
</trkpt>
<trkpt lat="37.56802544" lon="-1.09966088">
<ele>37</ele>
<time>2014-05-25T13:39:23Z</time>
</trkpt>
<trkpt lat="37.56801928" lon="-1.09969418">
<ele>37</ele>
<time>2014-05-25T13:39:25Z</time>
</trkpt>
<trkpt lat="37.56800878" lon="-1.09972987">
<ele>36</ele>
<time>2014-05-25T13:39:27Z</time>
</trkpt>
<trkpt lat="37.5680018" lon="-1.09976983">
<ele>36</ele>
<time>2014-05-25T13:39:29Z</time>
</trkpt>
<trkpt lat="37.5679936" lon="-1.09980356">
<ele>37</ele>
<time>2014-05-25T13:39:31Z</time>
</trkpt>
<trkpt lat="37.56798802" lon="-1.09983546">
<ele>36</ele>
<time>2014-05-25T13:39:33Z</time>
</trkpt>
<trkpt lat="37.56798558" lon="-1.09986729">
<ele>35</ele>
<time>2014-05-25T13:39:35Z</time>
</trkpt>
<trkpt lat="37.56798989" lon="-1.09989489">
<ele>36</ele>
<time>2014-05-25T13:39:37Z</time>
</trkpt>
<trkpt lat="37.56799719" lon="-1.09992861">
<ele>37</ele>
<time>2014-05-25T13:39:39Z</time>
</trkpt>
<trkpt lat="37.56800031" lon="-1.09995869">
<ele>37</ele>
<time>2014-05-25T13:39:41Z</time>
</trkpt>
<trkpt lat="37.56800469" lon="-1.09998846">
<ele>37</ele>
<time>2014-05-25T13:39:43Z</time>
</trkpt>
<trkpt lat="37.56800526" lon="-1.10001475">
<ele>37</ele>
<time>2014-05-25T13:39:45Z</time>
</trkpt>
<trkpt lat="37.56800856" lon="-1.10004402">
<ele>37</ele>
<time>2014-05-25T13:39:47Z</time>
</trkpt>
<trkpt lat="37.5680089" lon="-1.10007727">
<ele>38</ele>
<time>2014-05-25T13:39:49Z</time>
</trkpt>
<trkpt lat="37.56800772" lon="-1.10011641">
<ele>39</ele>
<time>2014-05-25T13:39:51Z</time>
</trkpt>
<trkpt lat="37.56800418" lon="-1.10015462">
<ele>38</ele>
<time>2014-05-25T13:39:53Z</time>
</trkpt>
<trkpt lat="37.56799662" lon="-1.10018715">
<ele>37</ele>
<time>2014-05-25T13:39:55Z</time>
</trkpt>
<trkpt lat="37.56799196" lon="-1.10021339">
<ele>38</ele>
<time>2014-05-25T13:39:57Z</time>
</trkpt>
<trkpt lat="37.56798931" lon="-1.10024402">
<ele>39</ele>
<time>2014-05-25T13:39:59Z</time>
</trkpt>
<trkpt lat="37.56798348" lon="-1.10026848">
<ele>39</ele>
<time>2014-05-25T13:40:01Z</time>
</trkpt>
<trkpt lat="37.56797213" lon="-1.1002909">
<ele>40</ele>
<time>2014-05-25T13:40:03Z</time>
</trkpt>
<trkpt lat="37.56795966" lon="-1.10031478">
<ele>40</ele>
<time>2014-05-25T13:40:05Z</time>
</trkpt>
<trkpt lat="37.56794479" lon="-1.10033554">
<ele>40</ele>
<time>2014-05-25T13:40:07Z</time>
</trkpt>
<trkpt lat="37.56792157" lon="-1.10035467">
<ele>40</ele>
<time>2014-05-25T13:40:09Z</time>
</trkpt>
<trkpt lat="37.56789905" lon="-1.10037719">
<ele>42</ele>
<time>2014-05-25T13:40:11Z</time>
</trkpt>
<trkpt lat="37.56788375" lon="-1.10040496">
<ele>41</ele>
<time>2014-05-25T13:40:13Z</time>
</trkpt>
<trkpt lat="37.56787032" lon="-1.10044077">
<ele>42</ele>
<time>2014-05-25T13:40:15Z</time>
</trkpt>
<trkpt lat="37.56786127" lon="-1.10047892">
<ele>42</ele>
<time>2014-05-25T13:40:17Z</time>
</trkpt>
<trkpt lat="37.56784472" lon="-1.10051429">
<ele>44</ele>
<time>2014-05-25T13:40:19Z</time>
</trkpt>
<trkpt lat="37.56783108" lon="-1.10054828">
<ele>45</ele>
<time>2014-05-25T13:40:21Z</time>
</trkpt>
<trkpt lat="37.56781892" lon="-1.10058076">
<ele>45</ele>
<time>2014-05-25T13:40:23Z</time>
</trkpt>
<trkpt lat="37.56780627" lon="-1.10060483">
<ele>46</ele>
<time>2014-05-25T13:40:25Z</time>
</trkpt>
<trkpt lat="37.56779008" lon="-1.10063426">
<ele>46</ele>
<time>2014-05-25T13:40:27Z</time>
</trkpt>
<trkpt lat="37.56777323" lon="-1.10066162">
<ele>46</ele>
<time>2014-05-25T13:40:29Z</time>
</trkpt>
<trkpt lat="37.56775892" lon="-1.10069361">
<ele>44</ele>
<time>2014-05-25T13:40:31Z</time>
</trkpt>
<trkpt lat="37.56774753" lon="-1.10072354">
<ele>44</ele>
<time>2014-05-25T13:40:33Z</time>
</trkpt>
<trkpt lat="37.56773229" lon="-1.10075195">
<ele>44</ele>
<time>2014-05-25T13:40:35Z</time>
</trkpt>
<trkpt lat="37.56772279" lon="-1.10077785">
<ele>44</ele>
<time>2014-05-25T13:40:37Z</time>
</trkpt>
<trkpt lat="37.56771453" lon="-1.10080721">
<ele>44</ele>
<time>2014-05-25T13:40:39Z</time>
</trkpt>
<trkpt lat="37.56771235" lon="-1.10084222">
<ele>45</ele>
<time>2014-05-25T13:40:41Z</time>
</trkpt>
<trkpt lat="37.56770934" lon="-1.10087628">
<ele>45</ele>
<time>2014-05-25T13:40:43Z</time>
</trkpt>
<trkpt lat="37.56770245" lon="-1.10090982">
<ele>44</ele>
<time>2014-05-25T13:40:45Z</time>
</trkpt>
<trkpt lat="37.56769177" lon="-1.10093677">
<ele>44</ele>
<time>2014-05-25T13:40:47Z</time>
</trkpt>
<trkpt lat="37.56768187" lon="-1.10095999">
<ele>45</ele>
<time>2014-05-25T13:40:49Z</time>
</trkpt>
<trkpt lat="37.56767841" lon="-1.10098153">
<ele>45</ele>
<time>2014-05-25T13:40:51Z</time>
</trkpt>
<trkpt lat="37.56767709" lon="-1.10101094">
<ele>46</ele>
<time>2014-05-25T13:40:53Z</time>
</trkpt>
<trkpt lat="37.56767447" lon="-1.101044">
<ele>46</ele>
<time>2014-05-25T13:40:55Z</time>
</trkpt>
<trkpt lat="37.56766979" lon="-1.10107681">
<ele>46</ele>
<time>2014-05-25T13:40:57Z</time>
</trkpt>
<trkpt lat="37.56766797" lon="-1.1011094">
<ele>47</ele>
<time>2014-05-25T13:40:59Z</time>
</trkpt>
<trkpt lat="37.56766506" lon="-1.10114258">
<ele>46</ele>
<time>2014-05-25T13:41:01Z</time>
</trkpt>
<trkpt lat="37.56766359" lon="-1.10117158">
<ele>45</ele>
<time>2014-05-25T13:41:03Z</time>
</trkpt>
<trkpt lat="37.56766267" lon="-1.10120584">
<ele>44</ele>
<time>2014-05-25T13:41:05Z</time>
</trkpt>
<trkpt lat="37.56766171" lon="-1.10123896">
<ele>45</ele>
<time>2014-05-25T13:41:07Z</time>
</trkpt>
<trkpt lat="37.56766076" lon="-1.10127218">
<ele>45</ele>
<time>2014-05-25T13:41:09Z</time>
</trkpt>
<trkpt lat="37.56766429" lon="-1.10130716">
<ele>45</ele>
<time>2014-05-25T13:41:11Z</time>
</trkpt>
<trkpt lat="37.5676729" lon="-1.10134334">
<ele>44</ele>
<time>2014-05-25T13:41:13Z</time>
</trkpt>
<trkpt lat="37.56768238" lon="-1.10137653">
<ele>43</ele>
<time>2014-05-25T13:41:15Z</time>
</trkpt>
<trkpt lat="37.56768468" lon="-1.10140787">
<ele>42</ele>
<time>2014-05-25T13:41:17Z</time>
</trkpt>
<trkpt lat="37.56769001" lon="-1.10144487">
<ele>41</ele>
<time>2014-05-25T13:41:19Z</time>
</trkpt>
<trkpt lat="37.5676958" lon="-1.10148587">
<ele>41</ele>
<time>2014-05-25T13:41:21Z</time>
</trkpt>
<trkpt lat="37.56770021" lon="-1.10152995">
<ele>41</ele>
<time>2014-05-25T13:41:23Z</time>
</trkpt>
<trkpt lat="37.56769972" lon="-1.10157377">
<ele>40</ele>
<time>2014-05-25T13:41:25Z</time>
</trkpt>
<trkpt lat="37.56769663" lon="-1.10161319">
<ele>41</ele>
<time>2014-05-25T13:41:27Z</time>
</trkpt>
<trkpt lat="37.56769652" lon="-1.10164683">
<ele>41</ele>
<time>2014-05-25T13:41:29Z</time>
</trkpt>
<trkpt lat="37.56770456" lon="-1.10168014">
<ele>40</ele>
<time>2014-05-25T13:41:31Z</time>
</trkpt>
<trkpt lat="37.56770823" lon="-1.10170444">
<ele>41</ele>
<time>2014-05-25T13:41:33Z</time>
</trkpt>
<trkpt lat="37.56771461" lon="-1.10172543">
<ele>41</ele>
<time>2014-05-25T13:41:35Z</time>
</trkpt>
<trkpt lat="37.56772081" lon="-1.1017496">
<ele>39</ele>
<time>2014-05-25T13:41:37Z</time>
</trkpt>
<trkpt lat="37.56772465" lon="-1.10177523">
<ele>39</ele>
<time>2014-05-25T13:41:39Z</time>
</trkpt>
<trkpt lat="37.56772983" lon="-1.10180184">
<ele>38</ele>
<time>2014-05-25T13:41:41Z</time>
</trkpt>
<trkpt lat="37.56773439" lon="-1.10183047">
<ele>38</ele>
<time>2014-05-25T13:41:43Z</time>
</trkpt>
<trkpt lat="37.56774523" lon="-1.10185979">
<ele>38</ele>
<time>2014-05-25T13:41:45Z</time>
</trkpt>
<trkpt lat="37.56775666" lon="-1.10189053">
<ele>36</ele>
<time>2014-05-25T13:41:47Z</time>
</trkpt>
<trkpt lat="37.56776531" lon="-1.10191624">
<ele>37</ele>
<time>2014-05-25T13:41:49Z</time>
</trkpt>
<trkpt lat="37.56778003" lon="-1.10193721">
<ele>38</ele>
<time>2014-05-25T13:41:51Z</time>
</trkpt>
<trkpt lat="37.56779029" lon="-1.10195606">
<ele>38</ele>
<time>2014-05-25T13:41:53Z</time>
</trkpt>
<trkpt lat="37.5678005" lon="-1.10197151">
<ele>39</ele>
<time>2014-05-25T13:41:55Z</time>
</trkpt>
<trkpt lat="37.5678125" lon="-1.10199088">
<ele>38</ele>
<time>2014-05-25T13:41:57Z</time>
</trkpt>
<trkpt lat="37.56782342" lon="-1.10200278">
<ele>39</ele>
<time>2014-05-25T13:41:59Z</time>
</trkpt>
<trkpt lat="37.56783101" lon="-1.10201226">
<ele>39</ele>
<time>2014-05-25T13:42:01Z</time>
</trkpt>
<trkpt lat="37.56783323" lon="-1.10201565">
<ele>38</ele>
<time>2014-05-25T13:42:03Z</time>
</trkpt>
<trkpt lat="37.56783663" lon="-1.10201875">
<ele>38</ele>
<time>2014-05-25T13:42:05Z</time>
</trkpt>
<trkpt lat="37.56783863" lon="-1.10202918">
<ele>36</ele>
<time>2014-05-25T13:42:07Z</time>
</trkpt>
<trkpt lat="37.56783877" lon="-1.10204426">
<ele>36</ele>
<time>2014-05-25T13:42:09Z</time>
</trkpt>
<trkpt lat="37.56784018" lon="-1.10205949">
<ele>35</ele>
<time>2014-05-25T13:42:11Z</time>
</trkpt>
<trkpt lat="37.56784377" lon="-1.10207242">
<ele>35</ele>
<time>2014-05-25T13:42:13Z</time>
</trkpt>
<trkpt lat="37.56783913" lon="-1.10208682">
<ele>34</ele>
<time>2014-05-25T13:42:15Z</time>
</trkpt>
<trkpt lat="37.56783573" lon="-1.1021015">
<ele>34</ele>
<time>2014-05-25T13:42:17Z</time>
</trkpt>
<trkpt lat="37.56783199" lon="-1.10211006">
<ele>34</ele>
<time>2014-05-25T13:42:19Z</time>
</trkpt>
<trkpt lat="37.56783336" lon="-1.10211244">
<ele>35</ele>
<time>2014-05-25T13:42:21Z</time>
</trkpt>
<trkpt lat="37.56783959" lon="-1.10212157">
<ele>35</ele>
<time>2014-05-25T13:42:23Z</time>
</trkpt>
<trkpt lat="37.56785008" lon="-1.10212018">
<ele>35</ele>
<time>2014-05-25T13:42:25Z</time>
</trkpt>
<trkpt lat="37.56786203" lon="-1.10211892">
<ele>36</ele>
<time>2014-05-25T13:42:27Z</time>
</trkpt>
<trkpt lat="37.56787488" lon="-1.10211572">
<ele>36</ele>
<time>2014-05-25T13:42:29Z</time>
</trkpt>
<trkpt lat="37.5678857" lon="-1.10211548">
<ele>37</ele>
<time>2014-05-25T13:42:31Z</time>
</trkpt>
<trkpt lat="37.56789608" lon="-1.10212273">
<ele>37</ele>
<time>2014-05-25T13:42:33Z</time>
</trkpt>
<trkpt lat="37.56790442" lon="-1.10212929">
<ele>37</ele>
<time>2014-05-25T13:42:35Z</time>
</trkpt>
<trkpt lat="37.5679188" lon="-1.10214298">
<ele>37</ele>
<time>2014-05-25T13:42:37Z</time>
</trkpt>
<trkpt lat="37.56793781" lon="-1.1021595">
<ele>37</ele>
<time>2014-05-25T13:42:39Z</time>
</trkpt>
<trkpt lat="37.56794772" lon="-1.10218272">
<ele>38</ele>
<time>2014-05-25T13:42:41Z</time>
</trkpt>
<trkpt lat="37.56794803" lon="-1.10220666">
<ele>37</ele>
<time>2014-05-25T13:42:43Z</time>
</trkpt>
<trkpt lat="37.56794044" lon="-1.10221698">
<ele>37</ele>
<time>2014-05-25T13:42:45Z</time>
</trkpt>
<trkpt lat="37.5679335" lon="-1.10221036">
<ele>37</ele>
<time>2014-05-25T13:42:47Z</time>
</trkpt>
<trkpt lat="37.56793139" lon="-1.10219638">
<ele>37</ele>
<time>2014-05-25T13:42:49Z</time>
</trkpt>
<trkpt lat="37.56793321" lon="-1.10217332">
<ele>37</ele>
<time>2014-05-25T13:42:51Z</time>
</trkpt>
<trkpt lat="37.56793461" lon="-1.10216393">
<ele>37</ele>
<time>2014-05-25T13:42:53Z</time>
</trkpt>
<trkpt lat="37.56793317" lon="-1.10215969">
<ele>37</ele>
<time>2014-05-25T13:42:55Z</time>
</trkpt>
<trkpt lat="37.56792756" lon="-1.10214635">
<ele>37</ele>
<time>2014-05-25T13:42:57Z</time>
</trkpt>
<trkpt lat="37.56791528" lon="-1.10213195">
<ele>37</ele>
<time>2014-05-25T13:42:59Z</time>
</trkpt>
<trkpt lat="37.56790902" lon="-1.10211932">
<ele>37</ele>
<time>2014-05-25T13:43:01Z</time>
</trkpt>
<trkpt lat="37.5679252" lon="-1.10211101">
<ele>38</ele>
<time>2014-05-25T13:43:03Z</time>
</trkpt>
<trkpt lat="37.56794337" lon="-1.10209937">
<ele>38</ele>
<time>2014-05-25T13:43:05Z</time>
</trkpt>
<trkpt lat="37.56794935" lon="-1.10208812">
<ele>39</ele>
<time>2014-05-25T13:43:07Z</time>
</trkpt>
<trkpt lat="37.56793822" lon="-1.10208014">
<ele>39</ele>
<time>2014-05-25T13:43:09Z</time>
</trkpt>
<trkpt lat="37.56794265" lon="-1.10208543">
<ele>39</ele>
<time>2014-05-25T13:43:11Z</time>
</trkpt>
<trkpt lat="37.56795139" lon="-1.10209809">
<ele>39</ele>
<time>2014-05-25T13:43:13Z</time>
</trkpt>
<trkpt lat="37.56796649" lon="-1.10212441">
<ele>38</ele>
<time>2014-05-25T13:43:15Z</time>
</trkpt>
<trkpt lat="37.56797683" lon="-1.10214064">
<ele>39</ele>
<time>2014-05-25T13:43:17Z</time>
</trkpt>
<trkpt lat="37.56798646" lon="-1.10215729">
<ele>39</ele>
<time>2014-05-25T13:43:19Z</time>
</trkpt>
<trkpt lat="37.56798876" lon="-1.10217342">
<ele>38</ele>
<time>2014-05-25T13:43:21Z</time>
</trkpt>
<trkpt lat="37.56800287" lon="-1.10218971">
<ele>39</ele>
<time>2014-05-25T13:43:23Z</time>
</trkpt>
<trkpt lat="37.56802178" lon="-1.10220502">
<ele>39</ele>
<time>2014-05-25T13:43:25Z</time>
</trkpt>
<trkpt lat="37.56804326" lon="-1.10223894">
<ele>39</ele>
<time>2014-05-25T13:43:27Z</time>
</trkpt>
<trkpt lat="37.56806219" lon="-1.10227206">
<ele>39</ele>
<time>2014-05-25T13:43:29Z</time>
</trkpt>
<trkpt lat="37.56806691" lon="-1.10229218">
<ele>38</ele>
<time>2014-05-25T13:43:31Z</time>
</trkpt>
<trkpt lat="37.56807208" lon="-1.10231239">
<ele>38</ele>
<time>2014-05-25T13:43:33Z</time>
</trkpt>
<trkpt lat="37.56809511" lon="-1.10232955">
<ele>38</ele>
<time>2014-05-25T13:43:35Z</time>
</trkpt>
<trkpt lat="37.56812227" lon="-1.10235118">
<ele>38</ele>
<time>2014-05-25T13:43:37Z</time>
</trkpt>
<trkpt lat="37.56815278" lon="-1.10235839">
<ele>37</ele>
<time>2014-05-25T13:43:39Z</time>
</trkpt>
<trkpt lat="37.56819557" lon="-1.10237704">
<ele>38</ele>
<time>2014-05-25T13:43:41Z</time>
</trkpt>
<trkpt lat="37.56823843" lon="-1.10239891">
<ele>39</ele>
<time>2014-05-25T13:43:43Z</time>
</trkpt>
<trkpt lat="37.56827335" lon="-1.10242886">
<ele>38</ele>
<time>2014-05-25T13:43:45Z</time>
</trkpt>
<trkpt lat="37.56831402" lon="-1.10246441">
<ele>37</ele>
<time>2014-05-25T13:43:47Z</time>
</trkpt>
<trkpt lat="37.56835509" lon="-1.1024943">
<ele>38</ele>
<time>2014-05-25T13:43:49Z</time>
</trkpt>
<trkpt lat="37.56839012" lon="-1.10252498">
<ele>38</ele>
<time>2014-05-25T13:43:51Z</time>
</trkpt>
<trkpt lat="37.56840618" lon="-1.10254155">
<ele>39</ele>
<time>2014-05-25T13:43:53Z</time>
</trkpt>
<trkpt lat="37.56842029" lon="-1.10255745">
<ele>38</ele>
<time>2014-05-25T13:43:55Z</time>
</trkpt>
<trkpt lat="37.56844147" lon="-1.10257563">
<ele>38</ele>
<time>2014-05-25T13:43:57Z</time>
</trkpt>
<trkpt lat="37.56846372" lon="-1.10259576">
<ele>38</ele>
<time>2014-05-25T13:43:59Z</time>
</trkpt>
<trkpt lat="37.56847318" lon="-1.10261689">
<ele>38</ele>
<time>2014-05-25T13:44:01Z</time>
</trkpt>
<trkpt lat="37.56848531" lon="-1.10264554">
<ele>38</ele>
<time>2014-05-25T13:44:03Z</time>
</trkpt>
<trkpt lat="37.56849096" lon="-1.10266428">
<ele>38</ele>
<time>2014-05-25T13:44:05Z</time>
</trkpt>
<trkpt lat="37.56848911" lon="-1.10266204">
<ele>41</ele>
<time>2014-05-25T13:44:07Z</time>
</trkpt>
<trkpt lat="37.56847647" lon="-1.10266808">
<ele>42</ele>
<time>2014-05-25T13:44:09Z</time>
</trkpt>
<trkpt lat="37.56845646" lon="-1.10268145">
<ele>45</ele>
<time>2014-05-25T13:44:11Z</time>
</trkpt>
<trkpt lat="37.56845936" lon="-1.1026904">
<ele>44</ele>
<time>2014-05-25T13:44:13Z</time>
</trkpt>
<trkpt lat="37.56846374" lon="-1.10270392">
<ele>39</ele>
<time>2014-05-25T13:44:15Z</time>
</trkpt>
<trkpt lat="37.56847395" lon="-1.10271657">
<ele>40</ele>
<time>2014-05-25T13:44:17Z</time>
</trkpt>
<trkpt lat="37.56848874" lon="-1.10272325">
<ele>40</ele>
<time>2014-05-25T13:44:19Z</time>
</trkpt>
<trkpt lat="37.56851509" lon="-1.1027635">
<ele>47</ele>
<time>2014-05-25T13:44:21Z</time>
</trkpt>
<trkpt lat="37.56852806" lon="-1.10279604">
<ele>47</ele>
<time>2014-05-25T13:44:23Z</time>
</trkpt>
<trkpt lat="37.56852744" lon="-1.10280188">
<ele>47</ele>
<time>2014-05-25T13:44:25Z</time>
</trkpt>
<trkpt lat="37.56852504" lon="-1.10280175">
<ele>46</ele>
<time>2014-05-25T13:44:27Z</time>
</trkpt>
<trkpt lat="37.56853413" lon="-1.1028065">
<ele>46</ele>
<time>2014-05-25T13:44:29Z</time>
</trkpt>
<trkpt lat="37.56854913" lon="-1.1028115">
<ele>45</ele>
<time>2014-05-25T13:44:31Z</time>
</trkpt>
<trkpt lat="37.5685603" lon="-1.10280734">
<ele>42</ele>
<time>2014-05-25T13:44:33Z</time>
</trkpt>
<trkpt lat="37.56857184" lon="-1.10279961">
<ele>44</ele>
<time>2014-05-25T13:44:35Z</time>
</trkpt>
<trkpt lat="37.56858538" lon="-1.1027947">
<ele>44</ele>
<time>2014-05-25T13:44:37Z</time>
</trkpt>
<trkpt lat="37.56859486" lon="-1.10279059">
<ele>44</ele>
<time>2014-05-25T13:44:39Z</time>
</trkpt>
<trkpt lat="37.56860169" lon="-1.1027953">
<ele>44</ele>
<time>2014-05-25T13:44:41Z</time>
</trkpt>
<trkpt lat="37.56860435" lon="-1.10278234">
<ele>40</ele>
<time>2014-05-25T13:44:43Z</time>
</trkpt>
<trkpt lat="37.56860904" lon="-1.10278131">
<ele>40</ele>
<time>2014-05-25T13:44:45Z</time>
</trkpt>
<trkpt lat="37.56861229" lon="-1.10278387">
<ele>40</ele>
<time>2014-05-25T13:44:47Z</time>
</trkpt>
<trkpt lat="37.56861355" lon="-1.10278616">
<ele>43</ele>
<time>2014-05-25T13:44:49Z</time>
</trkpt>
<trkpt lat="37.56861905" lon="-1.102791">
<ele>42</ele>
<time>2014-05-25T13:44:51Z</time>
</trkpt>
<trkpt lat="37.56861762" lon="-1.10279065">
<ele>42</ele>
<time>2014-05-25T13:44:53Z</time>
</trkpt>
<trkpt lat="37.56860913" lon="-1.10278566">
<ele>42</ele>
<time>2014-05-25T13:44:55Z</time>
</trkpt>
<trkpt lat="37.56860213" lon="-1.10278407">
<ele>41</ele>
<time>2014-05-25T13:44:57Z</time>
</trkpt>
<trkpt lat="37.56860238" lon="-1.10278378">
<ele>41</ele>
<time>2014-05-25T13:44:59Z</time>
</trkpt>
<trkpt lat="37.5686038" lon="-1.10278565">
<ele>41</ele>
<time>2014-05-25T13:45:01Z</time>
</trkpt>
<trkpt lat="37.56860281" lon="-1.10278725">
<ele>41</ele>
<time>2014-05-25T13:45:03Z</time>
</trkpt>
<trkpt lat="37.56860059" lon="-1.10278862">
<ele>41</ele>
<time>2014-05-25T13:45:05Z</time>
</trkpt>
<trkpt lat="37.56859852" lon="-1.10279003">
<ele>41</ele>
<time>2014-05-25T13:45:07Z</time>
</trkpt>
<trkpt lat="37.56859885" lon="-1.10278987">
<ele>41</ele>
<time>2014-05-25T13:45:09Z</time>
</trkpt>
<trkpt lat="37.56860069" lon="-1.10279104">
<ele>42</ele>
<time>2014-05-25T13:45:11Z</time>
</trkpt>
<trkpt lat="37.56860228" lon="-1.1027916">
<ele>42</ele>
<time>2014-05-25T13:45:13Z</time>
</trkpt>
<trkpt lat="37.56860296" lon="-1.10279178">
<ele>42</ele>
<time>2014-05-25T13:45:15Z</time>
</trkpt>
<trkpt lat="37.568603" lon="-1.10279062">
<ele>42</ele>
<time>2014-05-25T13:45:17Z</time>
</trkpt>
<trkpt lat="37.56860358" lon="-1.10278875">
<ele>42</ele>
<time>2014-05-25T13:45:19Z</time>
</trkpt>
<trkpt lat="37.56860404" lon="-1.10278786">
<ele>42</ele>
<time>2014-05-25T13:45:21Z</time>
</trkpt>
<trkpt lat="37.56860418" lon="-1.10278763">
<ele>42</ele>
<time>2014-05-25T13:45:23Z</time>
</trkpt>
<trkpt lat="37.56860419" lon="-1.10278758">
<ele>42</ele>
<time>2014-05-25T13:45:25Z</time>
</trkpt>
<trkpt lat="37.56860419" lon="-1.10278755">
<ele>42</ele>
<time>2014-05-25T13:45:27Z</time>
</trkpt>
<trkpt lat="37.56860399" lon="-1.10278754">
<ele>42</ele>
<time>2014-05-25T13:45:29Z</time>
</trkpt>
<trkpt lat="37.56860389" lon="-1.10278755">
<ele>42</ele>
<time>2014-05-25T13:45:31Z</time>
</trkpt>
<trkpt lat="37.56860382" lon="-1.10278757">
<ele>42</ele>
<time>2014-05-25T13:45:33Z</time>
</trkpt>
<trkpt lat="37.56860381" lon="-1.10278757">
<ele>42</ele>
<time>2014-05-25T13:45:35Z</time>
</trkpt>
<trkpt lat="37.56860377" lon="-1.10278756">
<ele>42</ele>
<time>2014-05-25T13:45:37Z</time>
</trkpt>
<trkpt lat="37.56860376" lon="-1.10278753">
<ele>42</ele>
<time>2014-05-25T13:45:39Z</time>
</trkpt>
<trkpt lat="37.56860376" lon="-1.10278752">
<ele>42</ele>
<time>2014-05-25T13:45:41Z</time>
</trkpt>
<trkpt lat="37.56860378" lon="-1.10278752">
<ele>42</ele>
<time>2014-05-25T13:45:43Z</time>
</trkpt>
<trkpt lat="37.56860464" lon="-1.10278768">
<ele>42</ele>
<time>2014-05-25T13:45:45Z</time>
</trkpt>
<trkpt lat="37.56860489" lon="-1.10278772">
<ele>42</ele>
<time>2014-05-25T13:45:47Z</time>
</trkpt>
<trkpt lat="37.56860483" lon="-1.10278833">
<ele>42</ele>
<time>2014-05-25T13:45:49Z</time>
</trkpt>
<trkpt lat="37.56860482" lon="-1.10278843">
<ele>42</ele>
<time>2014-05-25T13:45:51Z</time>
</trkpt>
<trkpt lat="37.56860485" lon="-1.1027885">
<ele>42</ele>
<time>2014-05-25T13:45:53Z</time>
</trkpt>
<trkpt lat="37.56860486" lon="-1.10278853">
<ele>42</ele>
<time>2014-05-25T13:45:55Z</time>
</trkpt>
<trkpt lat="37.56860487" lon="-1.10278855">
<ele>42</ele>
<time>2014-05-25T13:45:57Z</time>
</trkpt>
<trkpt lat="37.56860485" lon="-1.10278857">
<ele>42</ele>
<time>2014-05-25T13:45:59Z</time>
</trkpt>
<trkpt lat="37.56860485" lon="-1.10278857">
<ele>42</ele>
<time>2014-05-25T13:46:01Z</time>
</trkpt>
<trkpt lat="37.56860485" lon="-1.10278856">
<ele>42</ele>
<time>2014-05-25T13:46:03Z</time>
</trkpt>
<trkpt lat="37.56860487" lon="-1.10278855">
<ele>42</ele>
<time>2014-05-25T13:46:05Z</time>
</trkpt>
<trkpt lat="37.56860486" lon="-1.10278854">
<ele>42</ele>
<time>2014-05-25T13:46:07Z</time>
</trkpt>
<trkpt lat="37.56860605" lon="-1.10278952">
<ele>42</ele>
<time>2014-05-25T13:46:09Z</time>
</trkpt>
<trkpt lat="37.56860619" lon="-1.1027896">
<ele>42</ele>
<time>2014-05-25T13:46:11Z</time>
</trkpt>
<trkpt lat="37.56860624" lon="-1.10278961">
<ele>42</ele>
<time>2014-05-25T13:46:13Z</time>
</trkpt>
<trkpt lat="37.56860627" lon="-1.1027896">
<ele>42</ele>
<time>2014-05-25T13:46:15Z</time>
</trkpt>
<trkpt lat="37.56860631" lon="-1.10278957">
<ele>42</ele>
<time>2014-05-25T13:46:17Z</time>
</trkpt>
<trkpt lat="37.56860631" lon="-1.10278957">
<ele>42</ele>
<time>2014-05-25T13:46:19Z</time>
</trkpt>
<trkpt lat="37.56860632" lon="-1.10278955">
<ele>42</ele>
<time>2014-05-25T13:46:21Z</time>
</trkpt>
<trkpt lat="37.56860632" lon="-1.10278955">
<ele>42</ele>
<time>2014-05-25T13:46:23Z</time>
</trkpt>
<trkpt lat="37.56860633" lon="-1.10278954">
<ele>42</ele>
<time>2014-05-25T13:46:25Z</time>
</trkpt>
<trkpt lat="37.56860685" lon="-1.10278987">
<ele>42</ele>
<time>2014-05-25T13:46:27Z</time>
</trkpt>
<trkpt lat="37.56860713" lon="-1.10278999">
<ele>42</ele>
<time>2014-05-25T13:46:29Z</time>
</trkpt>
<trkpt lat="37.56860727" lon="-1.10279005">
<ele>42</ele>
<time>2014-05-25T13:46:31Z</time>
</trkpt>
<trkpt lat="37.56860737" lon="-1.1027901">
<ele>42</ele>
<time>2014-05-25T13:46:33Z</time>
</trkpt>
<trkpt lat="37.5686074" lon="-1.10279012">
<ele>42</ele>
<time>2014-05-25T13:46:35Z</time>
</trkpt>
<trkpt lat="37.5686074" lon="-1.10279012">
<ele>42</ele>
<time>2014-05-25T13:46:37Z</time>
</trkpt>
<trkpt lat="37.56860741" lon="-1.10279012">
<ele>42</ele>
<time>2014-05-25T13:46:39Z</time>
</trkpt>
<trkpt lat="37.56860742" lon="-1.10279014">
<ele>42</ele>
<time>2014-05-25T13:46:41Z</time>
</trkpt>
<trkpt lat="37.56860743" lon="-1.10279014">
<ele>42</ele>
<time>2014-05-25T13:46:43Z</time>
</trkpt>
<trkpt lat="37.56860744" lon="-1.10279015">
<ele>42</ele>
<time>2014-05-25T13:46:45Z</time>
</trkpt>
<trkpt lat="37.56860746" lon="-1.10279016">
<ele>42</ele>
<time>2014-05-25T13:46:47Z</time>
</trkpt>
<trkpt lat="37.56860748" lon="-1.10279017">
<ele>42</ele>
<time>2014-05-25T13:46:49Z</time>
</trkpt>
<trkpt lat="37.56860749" lon="-1.10279019">
<ele>42</ele>
<time>2014-05-25T13:46:51Z</time>
</trkpt>
<trkpt lat="37.56860752" lon="-1.10279018">
<ele>42</ele>
<time>2014-05-25T13:46:53Z</time>
</trkpt>
<trkpt lat="37.56860755" lon="-1.10279015">
<ele>42</ele>
<time>2014-05-25T13:46:55Z</time>
</trkpt>
<trkpt lat="37.56860756" lon="-1.10279014">
<ele>42</ele>
<time>2014-05-25T13:46:57Z</time>
</trkpt>
<trkpt lat="37.56860759" lon="-1.10279014">
<ele>42</ele>
<time>2014-05-25T13:46:59Z</time>
</trkpt>
<trkpt lat="37.5686076" lon="-1.10279015">
<ele>42</ele>
<time>2014-05-25T13:47:01Z</time>
</trkpt>
<trkpt lat="37.56860762" lon="-1.10279016">
<ele>42</ele>
<time>2014-05-25T13:47:03Z</time>
</trkpt>
<trkpt lat="37.5686079" lon="-1.10279052">
<ele>42</ele>
<time>2014-05-25T13:47:05Z</time>
</trkpt>
<trkpt lat="37.56860807" lon="-1.10279072">
<ele>42</ele>
<time>2014-05-25T13:47:07Z</time>
</trkpt>
<trkpt lat="37.56860816" lon="-1.10279079">
<ele>42</ele>
<time>2014-05-25T13:47:09Z</time>
</trkpt>
<trkpt lat="37.56860855" lon="-1.10279091">
<ele>42</ele>
<time>2014-05-25T13:47:11Z</time>
</trkpt>
<trkpt lat="37.56860499" lon="-1.10278348">
<ele>42</ele>
<time>2014-05-25T13:47:13Z</time>
</trkpt>
<trkpt lat="37.56860779" lon="-1.1027787">
<ele>42</ele>
<time>2014-05-25T13:47:15Z</time>
</trkpt>
<trkpt lat="37.56861003" lon="-1.10277817">
<ele>42</ele>
<time>2014-05-25T13:47:17Z</time>
</trkpt>
<trkpt lat="37.5686105" lon="-1.10277777">
<ele>43</ele>
<time>2014-05-25T13:47:19Z</time>
</trkpt>
<trkpt lat="37.56861313" lon="-1.10277871">
<ele>43</ele>
<time>2014-05-25T13:47:21Z</time>
</trkpt>
<trkpt lat="37.56861465" lon="-1.10278054">
<ele>43</ele>
<time>2014-05-25T13:47:23Z</time>
</trkpt>
<trkpt lat="37.56861727" lon="-1.10278161">
<ele>43</ele>
<time>2014-05-25T13:47:25Z</time>
</trkpt>
<trkpt lat="37.56861739" lon="-1.10278337">
<ele>43</ele>
<time>2014-05-25T13:47:27Z</time>
</trkpt>
<trkpt lat="37.56861848" lon="-1.10278388">
<ele>43</ele>
<time>2014-05-25T13:47:29Z</time>
</trkpt>
<trkpt lat="37.56862016" lon="-1.10278429">
<ele>43</ele>
<time>2014-05-25T13:47:31Z</time>
</trkpt>
<trkpt lat="37.56862082" lon="-1.10278445">
<ele>42</ele>
<time>2014-05-25T13:47:33Z</time>
</trkpt>
<trkpt lat="37.56862097" lon="-1.10278441">
<ele>43</ele>
<time>2014-05-25T13:47:35Z</time>
</trkpt>
<trkpt lat="37.5686209" lon="-1.10278449">
<ele>42</ele>
<time>2014-05-25T13:47:37Z</time>
</trkpt>
<trkpt lat="37.56862079" lon="-1.10278459">
<ele>42</ele>
<time>2014-05-25T13:47:39Z</time>
</trkpt>
<trkpt lat="37.56862077" lon="-1.10278462">
<ele>42</ele>
<time>2014-05-25T13:47:41Z</time>
</trkpt>
<trkpt lat="37.56862076" lon="-1.10278467">
<ele>42</ele>
<time>2014-05-25T13:47:43Z</time>
</trkpt>
<trkpt lat="37.56862076" lon="-1.1027847">
<ele>42</ele>
<time>2014-05-25T13:47:45Z</time>
</trkpt>
<trkpt lat="37.56862076" lon="-1.10278469">
<ele>42</ele>
<time>2014-05-25T13:47:47Z</time>
</trkpt>
<trkpt lat="37.56862074" lon="-1.10278468">
<ele>42</ele>
<time>2014-05-25T13:47:49Z</time>
</trkpt>
<trkpt lat="37.56862075" lon="-1.10278468">
<ele>42</ele>
<time>2014-05-25T13:47:51Z</time>
</trkpt>
<trkpt lat="37.56862074" lon="-1.1027847">
<ele>42</ele>
<time>2014-05-25T13:47:53Z</time>
</trkpt>
<trkpt lat="37.56862074" lon="-1.10278472">
<ele>42</ele>
<time>2014-05-25T13:47:55Z</time>
</trkpt>
<trkpt lat="37.56862075" lon="-1.10278472">
<ele>42</ele>
<time>2014-05-25T13:47:57Z</time>
</trkpt>
<trkpt lat="37.56862074" lon="-1.10278474">
<ele>42</ele>
<time>2014-05-25T13:47:59Z</time>
</trkpt>
<trkpt lat="37.56862072" lon="-1.10278475">
<ele>42</ele>
<time>2014-05-25T13:48:01Z</time>
</trkpt>
<trkpt lat="37.56862072" lon="-1.10278474">
<ele>42</ele>
<time>2014-05-25T13:48:03Z</time>
</trkpt>
<trkpt lat="37.56862073" lon="-1.10278471">
<ele>42</ele>
<time>2014-05-25T13:48:05Z</time>
</trkpt>
<trkpt lat="37.56862075" lon="-1.10278472">
<ele>42</ele>
<time>2014-05-25T13:48:07Z</time>
</trkpt>
<trkpt lat="37.56862078" lon="-1.10278472">
<ele>42</ele>
<time>2014-05-25T13:48:09Z</time>
</trkpt>
<trkpt lat="37.56862134" lon="-1.1027853">
<ele>42</ele>
<time>2014-05-25T13:48:11Z</time>
</trkpt>
<trkpt lat="37.56862144" lon="-1.10278541">
<ele>42</ele>
<time>2014-05-25T13:48:13Z</time>
</trkpt>
<trkpt lat="37.56862152" lon="-1.1027855">
<ele>42</ele>
<time>2014-05-25T13:48:15Z</time>
</trkpt>
<trkpt lat="37.5686215" lon="-1.10278552">
<ele>42</ele>
<time>2014-05-25T13:48:17Z</time>
</trkpt>
<trkpt lat="37.56862123" lon="-1.10278551">
<ele>42</ele>
<time>2014-05-25T13:48:19Z</time>
</trkpt>
<trkpt lat="37.56862113" lon="-1.10278556">
<ele>42</ele>
<time>2014-05-25T13:48:21Z</time>
</trkpt>
<trkpt lat="37.56862101" lon="-1.10278548">
<ele>42</ele>
<time>2014-05-25T13:48:23Z</time>
</trkpt>
<trkpt lat="37.56862097" lon="-1.10278534">
<ele>42</ele>
<time>2014-05-25T13:48:25Z</time>
</trkpt>
<trkpt lat="37.56862094" lon="-1.10278522">
<ele>42</ele>
<time>2014-05-25T13:48:27Z</time>
</trkpt>
<trkpt lat="37.56862096" lon="-1.10278507">
<ele>42</ele>
<time>2014-05-25T13:48:29Z</time>
</trkpt>
<trkpt lat="37.56862109" lon="-1.10278494">
<ele>42</ele>
<time>2014-05-25T13:48:31Z</time>
</trkpt>
<trkpt lat="37.56862117" lon="-1.10278482">
<ele>42</ele>
<time>2014-05-25T13:48:33Z</time>
</trkpt>
<trkpt lat="37.56862121" lon="-1.10278472">
<ele>42</ele>
<time>2014-05-25T13:48:35Z</time>
</trkpt>
<trkpt lat="37.56862124" lon="-1.1027847">
<ele>42</ele>
<time>2014-05-25T13:48:37Z</time>
</trkpt>
<trkpt lat="37.56862126" lon="-1.10278469">
<ele>42</ele>
<time>2014-05-25T13:48:39Z</time>
</trkpt>
<trkpt lat="37.56862121" lon="-1.10278472">
<ele>42</ele>
<time>2014-05-25T13:48:41Z</time>
</trkpt>
<trkpt lat="37.56862118" lon="-1.1027847">
<ele>43</ele>
<time>2014-05-25T13:48:43Z</time>
</trkpt>
<trkpt lat="37.5686212" lon="-1.10278464">
<ele>42</ele>
<time>2014-05-25T13:48:45Z</time>
</trkpt>
<trkpt lat="37.56862119" lon="-1.10278459">
<ele>42</ele>
<time>2014-05-25T13:48:47Z</time>
</trkpt>
<trkpt lat="37.56862122" lon="-1.10278454">
<ele>42</ele>
<time>2014-05-25T13:48:49Z</time>
</trkpt>
<trkpt lat="37.5686212" lon="-1.10278457">
<ele>43</ele>
<time>2014-05-25T13:48:51Z</time>
</trkpt>
<trkpt lat="37.56862119" lon="-1.10278461">
<ele>43</ele>
<time>2014-05-25T13:48:53Z</time>
</trkpt>
<trkpt lat="37.56862124" lon="-1.10278458">
<ele>42</ele>
<time>2014-05-25T13:48:55Z</time>
</trkpt>
<trkpt lat="37.56862131" lon="-1.10278451">
<ele>42</ele>
<time>2014-05-25T13:48:57Z</time>
</trkpt>
<trkpt lat="37.56862135" lon="-1.10278442">
<ele>42</ele>
<time>2014-05-25T13:48:59Z</time>
</trkpt>
<trkpt lat="37.56862138" lon="-1.10278429">
<ele>42</ele>
<time>2014-05-25T13:49:01Z</time>
</trkpt>
<trkpt lat="37.56862137" lon="-1.10278422">
<ele>42</ele>
<time>2014-05-25T13:49:03Z</time>
</trkpt>
<trkpt lat="37.5686214" lon="-1.10278414">
<ele>42</ele>
<time>2014-05-25T13:49:05Z</time>
</trkpt>
<trkpt lat="37.5686214" lon="-1.10278404">
<ele>42</ele>
<time>2014-05-25T13:49:07Z</time>
</trkpt>
<trkpt lat="37.5686214" lon="-1.10278396">
<ele>43</ele>
<time>2014-05-25T13:49:09Z</time>
</trkpt>
<trkpt lat="37.56862136" lon="-1.102784">
<ele>43</ele>
<time>2014-05-25T13:49:11Z</time>
</trkpt>
<trkpt lat="37.56862132" lon="-1.10278398">
<ele>43</ele>
<time>2014-05-25T13:49:13Z</time>
</trkpt>
<trkpt lat="37.56862122" lon="-1.10278398">
<ele>43</ele>
<time>2014-05-25T13:49:15Z</time>
</trkpt>
<trkpt lat="37.56862117" lon="-1.10278396">
<ele>43</ele>
<time>2014-05-25T13:49:17Z</time>
</trkpt>
<trkpt lat="37.56862112" lon="-1.102784">
<ele>43</ele>
<time>2014-05-25T13:49:19Z</time>
</trkpt>
<trkpt lat="37.56862108" lon="-1.10278406">
<ele>43</ele>
<time>2014-05-25T13:49:21Z</time>
</trkpt>
<trkpt lat="37.56862107" lon="-1.10278406">
<ele>43</ele>
<time>2014-05-25T13:49:23Z</time>
</trkpt>
<trkpt lat="37.56862108" lon="-1.10278402">
<ele>43</ele>
<time>2014-05-25T13:49:25Z</time>
</trkpt>
<trkpt lat="37.56862115" lon="-1.10278391">
<ele>43</ele>
<time>2014-05-25T13:49:27Z</time>
</trkpt>
<trkpt lat="37.56862118" lon="-1.10278378">
<ele>43</ele>
<time>2014-05-25T13:49:29Z</time>
</trkpt>
<trkpt lat="37.56862122" lon="-1.10278363">
<ele>43</ele>
<time>2014-05-25T13:49:31Z</time>
</trkpt>
<trkpt lat="37.56862129" lon="-1.10278347">
<ele>43</ele>
<time>2014-05-25T13:49:33Z</time>
</trkpt>
<trkpt lat="37.56862134" lon="-1.1027834">
<ele>43</ele>
<time>2014-05-25T13:49:35Z</time>
</trkpt>
<trkpt lat="37.56862137" lon="-1.10278335">
<ele>43</ele>
<time>2014-05-25T13:49:37Z</time>
</trkpt>
<trkpt lat="37.5686213" lon="-1.10278331">
<ele>43</ele>
<time>2014-05-25T13:49:39Z</time>
</trkpt>
<trkpt lat="37.56862125" lon="-1.10278328">
<ele>43</ele>
<time>2014-05-25T13:49:41Z</time>
</trkpt>
<trkpt lat="37.56862121" lon="-1.10278333">
<ele>43</ele>
<time>2014-05-25T13:49:43Z</time>
</trkpt>
<trkpt lat="37.56862121" lon="-1.10278335">
<ele>43</ele>
<time>2014-05-25T13:49:45Z</time>
</trkpt>
<trkpt lat="37.56862118" lon="-1.10278342">
<ele>43</ele>
<time>2014-05-25T13:49:47Z</time>
</trkpt>
<trkpt lat="37.56862113" lon="-1.10278352">
<ele>43</ele>
<time>2014-05-25T13:49:49Z</time>
</trkpt>
<trkpt lat="37.56862114" lon="-1.10278352">
<ele>43</ele>
<time>2014-05-25T13:49:51Z</time>
</trkpt>
<trkpt lat="37.56862118" lon="-1.10278348">
<ele>43</ele>
<time>2014-05-25T13:49:53Z</time>
</trkpt>
<trkpt lat="37.56862123" lon="-1.1027834">
<ele>43</ele>
<time>2014-05-25T13:49:55Z</time>
</trkpt>
<trkpt lat="37.56862131" lon="-1.10278329">
<ele>43</ele>
<time>2014-05-25T13:49:57Z</time>
</trkpt>
<trkpt lat="37.56862143" lon="-1.10278324">
<ele>43</ele>
<time>2014-05-25T13:49:59Z</time>
</trkpt>
<trkpt lat="37.56862151" lon="-1.10278324">
<ele>43</ele>
<time>2014-05-25T13:50:01Z</time>
</trkpt>
<trkpt lat="37.56862155" lon="-1.1027832">
<ele>43</ele>
<time>2014-05-25T13:50:03Z</time>
</trkpt>
<trkpt lat="37.56862159" lon="-1.10278311">
<ele>43</ele>
<time>2014-05-25T13:50:05Z</time>
</trkpt>
<trkpt lat="37.56862165" lon="-1.10278307">
<ele>43</ele>
<time>2014-05-25T13:50:07Z</time>
</trkpt>
<trkpt lat="37.56862174" lon="-1.10278298">
<ele>43</ele>
<time>2014-05-25T13:50:09Z</time>
</trkpt>
<trkpt lat="37.56862188" lon="-1.10278286">
<ele>43</ele>
<time>2014-05-25T13:50:11Z</time>
</trkpt>
<trkpt lat="37.56862192" lon="-1.1027828">
<ele>43</ele>
<time>2014-05-25T13:50:13Z</time>
</trkpt>
<trkpt lat="37.56862194" lon="-1.10278274">
<ele>43</ele>
<time>2014-05-25T13:50:15Z</time>
</trkpt>
<trkpt lat="37.5686221" lon="-1.10278232">
<ele>43</ele>
<time>2014-05-25T13:50:17Z</time>
</trkpt>
<trkpt lat="37.5686222" lon="-1.10278207">
<ele>43</ele>
<time>2014-05-25T13:50:19Z</time>
</trkpt>
<trkpt lat="37.56862226" lon="-1.10278195">
<ele>43</ele>
<time>2014-05-25T13:50:21Z</time>
</trkpt>
<trkpt lat="37.56862226" lon="-1.1027819">
<ele>43</ele>
<time>2014-05-25T13:50:23Z</time>
</trkpt>
<trkpt lat="37.56862223" lon="-1.10278191">
<ele>43</ele>
<time>2014-05-25T13:50:25Z</time>
</trkpt>
<trkpt lat="37.5686222" lon="-1.10278193">
<ele>43</ele>
<time>2014-05-25T13:50:27Z</time>
</trkpt>
<trkpt lat="37.56862225" lon="-1.10278189">
<ele>43</ele>
<time>2014-05-25T13:50:29Z</time>
</trkpt>
<trkpt lat="37.56862227" lon="-1.10278186">
<ele>43</ele>
<time>2014-05-25T13:50:31Z</time>
</trkpt>
<trkpt lat="37.56862233" lon="-1.10278178">
<ele>43</ele>
<time>2014-05-25T13:50:33Z</time>
</trkpt>
<trkpt lat="37.56862237" lon="-1.10278173">
<ele>43</ele>
<time>2014-05-25T13:50:35Z</time>
</trkpt>
<trkpt lat="37.56862241" lon="-1.10278168">
<ele>43</ele>
<time>2014-05-25T13:50:37Z</time>
</trkpt>
<trkpt lat="37.56862242" lon="-1.10278165">
<ele>43</ele>
<time>2014-05-25T13:50:39Z</time>
</trkpt>
<trkpt lat="37.56862245" lon="-1.10278164">
<ele>43</ele>
<time>2014-05-25T13:50:41Z</time>
</trkpt>
<trkpt lat="37.56862252" lon="-1.10278158">
<ele>43</ele>
<time>2014-05-25T13:50:43Z</time>
</trkpt>
<trkpt lat="37.56862258" lon="-1.10278145">
<ele>43</ele>
<time>2014-05-25T13:50:45Z</time>
</trkpt>
<trkpt lat="37.56862262" lon="-1.10278141">
<ele>43</ele>
<time>2014-05-25T13:50:47Z</time>
</trkpt>
<trkpt lat="37.56862261" lon="-1.10278143">
<ele>43</ele>
<time>2014-05-25T13:50:49Z</time>
</trkpt>
<trkpt lat="37.56862265" lon="-1.10278144">
<ele>43</ele>
<time>2014-05-25T13:50:51Z</time>
</trkpt>
<trkpt lat="37.56862269" lon="-1.1027814">
<ele>43</ele>
<time>2014-05-25T13:50:53Z</time>
</trkpt>
<trkpt lat="37.56862276" lon="-1.10278132">
<ele>43</ele>
<time>2014-05-25T13:50:55Z</time>
</trkpt>
<trkpt lat="37.56862283" lon="-1.10278121">
<ele>43</ele>
<time>2014-05-25T13:50:57Z</time>
</trkpt>
<trkpt lat="37.5686229" lon="-1.10278115">
<ele>43</ele>
<time>2014-05-25T13:50:59Z</time>
</trkpt>
<trkpt lat="37.56862291" lon="-1.10278113">
<ele>43</ele>
<time>2014-05-25T13:51:01Z</time>
</trkpt>
<trkpt lat="37.56862292" lon="-1.1027811">
<ele>43</ele>
<time>2014-05-25T13:51:03Z</time>
</trkpt>
<trkpt lat="37.56862293" lon="-1.1027811">
<ele>43</ele>
<time>2014-05-25T13:51:05Z</time>
</trkpt>
<trkpt lat="37.56862294" lon="-1.10278109">
<ele>43</ele>
<time>2014-05-25T13:51:07Z</time>
</trkpt>
<trkpt lat="37.56862299" lon="-1.10278104">
<ele>43</ele>
<time>2014-05-25T13:51:09Z</time>
</trkpt>
<trkpt lat="37.56862299" lon="-1.10278102">
<ele>43</ele>
<time>2014-05-25T13:51:11Z</time>
</trkpt>
<trkpt lat="37.56862304" lon="-1.10278099">
<ele>43</ele>
<time>2014-05-25T13:51:13Z</time>
</trkpt>
<trkpt lat="37.56862306" lon="-1.10278098">
<ele>43</ele>
<time>2014-05-25T13:51:15Z</time>
</trkpt>
<trkpt lat="37.56862308" lon="-1.10278094">
<ele>43</ele>
<time>2014-05-25T13:51:17Z</time>
</trkpt>
<trkpt lat="37.56862311" lon="-1.10278086">
<ele>43</ele>
<time>2014-05-25T13:51:19Z</time>
</trkpt>
<trkpt lat="37.56862313" lon="-1.1027808">
<ele>43</ele>
<time>2014-05-25T13:51:21Z</time>
</trkpt>
<trkpt lat="37.56862316" lon="-1.10278072">
<ele>43</ele>
<time>2014-05-25T13:51:23Z</time>
</trkpt>
<trkpt lat="37.56862321" lon="-1.10278066">
<ele>43</ele>
<time>2014-05-25T13:51:25Z</time>
</trkpt>
<trkpt lat="37.56862325" lon="-1.10278059">
<ele>43</ele>
<time>2014-05-25T13:51:27Z</time>
</trkpt>
<trkpt lat="37.56862326" lon="-1.10278058">
<ele>43</ele>
<time>2014-05-25T13:51:29Z</time>
</trkpt>
<trkpt lat="37.56862326" lon="-1.10278054">
<ele>43</ele>
<time>2014-05-25T13:51:31Z</time>
</trkpt>
<trkpt lat="37.56862327" lon="-1.10278052">
<ele>43</ele>
<time>2014-05-25T13:51:33Z</time>
</trkpt>
<trkpt lat="37.56862329" lon="-1.10278052">
<ele>43</ele>
<time>2014-05-25T13:51:35Z</time>
</trkpt>
<trkpt lat="37.56862332" lon="-1.10278054">
<ele>43</ele>
<time>2014-05-25T13:51:37Z</time>
</trkpt>
<trkpt lat="37.56862332" lon="-1.1027805">
<ele>43</ele>
<time>2014-05-25T13:51:39Z</time>
</trkpt>
<trkpt lat="37.56862334" lon="-1.10278047">
<ele>43</ele>
<time>2014-05-25T13:51:41Z</time>
</trkpt>
<trkpt lat="37.5686234" lon="-1.10278046">
<ele>43</ele>
<time>2014-05-25T13:51:43Z</time>
</trkpt>
<trkpt lat="37.56862346" lon="-1.10278048">
<ele>43</ele>
<time>2014-05-25T13:51:45Z</time>
</trkpt>
<trkpt lat="37.56862347" lon="-1.10278051">
<ele>43</ele>
<time>2014-05-25T13:51:47Z</time>
</trkpt>
<trkpt lat="37.56862347" lon="-1.10278049">
<ele>43</ele>
<time>2014-05-25T13:51:49Z</time>
</trkpt>
<trkpt lat="37.56862347" lon="-1.10278044">
<ele>43</ele>
<time>2014-05-25T13:51:51Z</time>
</trkpt>
<trkpt lat="37.56862348" lon="-1.10278036">
<ele>43</ele>
<time>2014-05-25T13:51:53Z</time>
</trkpt>
<trkpt lat="37.56862349" lon="-1.10278033">
<ele>43</ele>
<time>2014-05-25T13:51:55Z</time>
</trkpt>
<trkpt lat="37.56862353" lon="-1.10278029">
<ele>43</ele>
<time>2014-05-25T13:51:57Z</time>
</trkpt>
<trkpt lat="37.56862353" lon="-1.10278031">
<ele>43</ele>
<time>2014-05-25T13:51:59Z</time>
</trkpt>
<trkpt lat="37.56862352" lon="-1.10278031">
<ele>43</ele>
<time>2014-05-25T13:52:01Z</time>
</trkpt>
<trkpt lat="37.56862352" lon="-1.1027803">
<ele>43</ele>
<time>2014-05-25T13:52:03Z</time>
</trkpt>
<trkpt lat="37.56862351" lon="-1.10278028">
<ele>43</ele>
<time>2014-05-25T13:52:05Z</time>
</trkpt>
<trkpt lat="37.5686235" lon="-1.10278022">
<ele>43</ele>
<time>2014-05-25T13:52:07Z</time>
</trkpt>
<trkpt lat="37.56862354" lon="-1.10278018">
<ele>43</ele>
<time>2014-05-25T13:52:09Z</time>
</trkpt>
<trkpt lat="37.56862356" lon="-1.10278017">
<ele>43</ele>
<time>2014-05-25T13:52:11Z</time>
</trkpt>
<trkpt lat="37.56862361" lon="-1.1027801">
<ele>43</ele>
<time>2014-05-25T13:52:13Z</time>
</trkpt>
<trkpt lat="37.56862359" lon="-1.10278007">
<ele>43</ele>
<time>2014-05-25T13:52:15Z</time>
</trkpt>
<trkpt lat="37.56862357" lon="-1.10278002">
<ele>43</ele>
<time>2014-05-25T13:52:17Z</time>
</trkpt>
<trkpt lat="37.56862356" lon="-1.10278">
<ele>43</ele>
<time>2014-05-25T13:52:19Z</time>
</trkpt>
<trkpt lat="37.56862357" lon="-1.10277995">
<ele>43</ele>
<time>2014-05-25T13:52:21Z</time>
</trkpt>
<trkpt lat="37.56862356" lon="-1.10277992">
<ele>43</ele>
<time>2014-05-25T13:52:23Z</time>
</trkpt>
<trkpt lat="37.56862352" lon="-1.10277993">
<ele>43</ele>
<time>2014-05-25T13:52:25Z</time>
</trkpt>
<trkpt lat="37.56862348" lon="-1.10277999">
<ele>43</ele>
<time>2014-05-25T13:52:27Z</time>
</trkpt>
<trkpt lat="37.56862351" lon="-1.10277997">
<ele>43</ele>
<time>2014-05-25T13:52:29Z</time>
</trkpt>
<trkpt lat="37.56862355" lon="-1.10277989">
<ele>43</ele>
<time>2014-05-25T13:52:31Z</time>
</trkpt>
<trkpt lat="37.56862357" lon="-1.10277983">
<ele>43</ele>
<time>2014-05-25T13:52:33Z</time>
</trkpt>
<trkpt lat="37.56862358" lon="-1.10277981">
<ele>43</ele>
<time>2014-05-25T13:52:35Z</time>
</trkpt>
<trkpt lat="37.56862356" lon="-1.10277983">
<ele>43</ele>
<time>2014-05-25T13:52:37Z</time>
</trkpt>
<trkpt lat="37.56862359" lon="-1.10277982">
<ele>43</ele>
<time>2014-05-25T13:52:39Z</time>
</trkpt>
<trkpt lat="37.56862367" lon="-1.10277978">
<ele>43</ele>
<time>2014-05-25T13:52:41Z</time>
</trkpt>
<trkpt lat="37.56862367" lon="-1.10277979">
<ele>43</ele>
<time>2014-05-25T13:52:43Z</time>
</trkpt>
<trkpt lat="37.56862364" lon="-1.10277983">
<ele>43</ele>
<time>2014-05-25T13:52:45Z</time>
</trkpt>
<trkpt lat="37.56862363" lon="-1.10277983">
<ele>43</ele>
<time>2014-05-25T13:52:47Z</time>
</trkpt>
<trkpt lat="37.56862364" lon="-1.10277981">
<ele>43</ele>
<time>2014-05-25T13:52:49Z</time>
</trkpt>
<trkpt lat="37.56862367" lon="-1.1027798">
<ele>43</ele>
<time>2014-05-25T13:52:51Z</time>
</trkpt>
<trkpt lat="37.56862373" lon="-1.10277977">
<ele>43</ele>
<time>2014-05-25T13:52:53Z</time>
</trkpt>
<trkpt lat="37.56862377" lon="-1.10277972">
<ele>43</ele>
<time>2014-05-25T13:52:55Z</time>
</trkpt>
<trkpt lat="37.56862377" lon="-1.10277973">
<ele>43</ele>
<time>2014-05-25T13:52:57Z</time>
</trkpt>
<trkpt lat="37.56862379" lon="-1.10277972">
<ele>43</ele>
<time>2014-05-25T13:52:59Z</time>
</trkpt>
<trkpt lat="37.56862379" lon="-1.10277972">
<ele>43</ele>
<time>2014-05-25T13:53:01Z</time>
</trkpt>
<trkpt lat="37.56862381" lon="-1.10277964">
<ele>43</ele>
<time>2014-05-25T13:53:03Z</time>
</trkpt>
<trkpt lat="37.56862377" lon="-1.10277968">
<ele>43</ele>
<time>2014-05-25T13:53:05Z</time>
</trkpt>
<trkpt lat="37.56862375" lon="-1.10277969">
<ele>43</ele>
<time>2014-05-25T13:53:07Z</time>
</trkpt>
<trkpt lat="37.56862372" lon="-1.10277972">
<ele>43</ele>
<time>2014-05-25T13:53:09Z</time>
</trkpt>
<trkpt lat="37.5686237" lon="-1.10277976">
<ele>43</ele>
<time>2014-05-25T13:53:11Z</time>
</trkpt>
<trkpt lat="37.56862366" lon="-1.10277982">
<ele>43</ele>
<time>2014-05-25T13:53:13Z</time>
</trkpt>
<trkpt lat="37.56862365" lon="-1.10277983">
<ele>43</ele>
<time>2014-05-25T13:53:15Z</time>
</trkpt>
<trkpt lat="37.56862367" lon="-1.10277981">
<ele>43</ele>
<time>2014-05-25T13:53:17Z</time>
</trkpt>
<trkpt lat="37.56862368" lon="-1.10277978">
<ele>43</ele>
<time>2014-05-25T13:53:19Z</time>
</trkpt>
<trkpt lat="37.56862372" lon="-1.10277974">
<ele>43</ele>
<time>2014-05-25T13:53:21Z</time>
</trkpt>
<trkpt lat="37.56862375" lon="-1.10277975">
<ele>43</ele>
<time>2014-05-25T13:53:23Z</time>
</trkpt>
<trkpt lat="37.5686238" lon="-1.1027797">
<ele>43</ele>
<time>2014-05-25T13:53:25Z</time>
</trkpt>
<trkpt lat="37.56862381" lon="-1.10277967">
<ele>43</ele>
<time>2014-05-25T13:53:27Z</time>
</trkpt>
<trkpt lat="37.56862379" lon="-1.10277968">
<ele>43</ele>
<time>2014-05-25T13:53:29Z</time>
</trkpt>
<trkpt lat="37.56862378" lon="-1.10277967">
<ele>43</ele>
<time>2014-05-25T13:53:31Z</time>
</trkpt>
<trkpt lat="37.56862375" lon="-1.10277965">
<ele>43</ele>
<time>2014-05-25T13:53:33Z</time>
</trkpt>
<trkpt lat="37.5686237" lon="-1.10277964">
<ele>43</ele>
<time>2014-05-25T13:53:35Z</time>
</trkpt>
<trkpt lat="37.56862368" lon="-1.10277959">
<ele>43</ele>
<time>2014-05-25T13:53:37Z</time>
</trkpt>
<trkpt lat="37.56862367" lon="-1.10277954">
<ele>43</ele>
<time>2014-05-25T13:53:39Z</time>
</trkpt>
<trkpt lat="37.56862368" lon="-1.10277949">
<ele>43</ele>
<time>2014-05-25T13:53:41Z</time>
</trkpt>
<trkpt lat="37.56862364" lon="-1.10277947">
<ele>43</ele>
<time>2014-05-25T13:53:43Z</time>
</trkpt>
<trkpt lat="37.56862365" lon="-1.10277941">
<ele>43</ele>
<time>2014-05-25T13:53:45Z</time>
</trkpt>
<trkpt lat="37.56862365" lon="-1.10277939">
<ele>43</ele>
<time>2014-05-25T13:53:47Z</time>
</trkpt>
<trkpt lat="37.56862368" lon="-1.10277938">
<ele>43</ele>
<time>2014-05-25T13:53:49Z</time>
</trkpt>
<trkpt lat="37.56862371" lon="-1.10277938">
<ele>43</ele>
<time>2014-05-25T13:53:51Z</time>
</trkpt>
<trkpt lat="37.56862372" lon="-1.10277939">
<ele>43</ele>
<time>2014-05-25T13:53:53Z</time>
</trkpt>
<trkpt lat="37.56862371" lon="-1.10277942">
<ele>43</ele>
<time>2014-05-25T13:53:55Z</time>
</trkpt>
<trkpt lat="37.56862374" lon="-1.1027794">
<ele>43</ele>
<time>2014-05-25T13:53:57Z</time>
</trkpt>
<trkpt lat="37.56862377" lon="-1.10277938">
<ele>43</ele>
<time>2014-05-25T13:53:59Z</time>
</trkpt>
<trkpt lat="37.56862378" lon="-1.10277936">
<ele>43</ele>
<time>2014-05-25T13:54:01Z</time>
</trkpt>
<trkpt lat="37.56862384" lon="-1.10277932">
<ele>43</ele>
<time>2014-05-25T13:54:03Z</time>
</trkpt>
<trkpt lat="37.56862385" lon="-1.10277933">
<ele>43</ele>
<time>2014-05-25T13:54:05Z</time>
</trkpt>
<trkpt lat="37.56862386" lon="-1.1027793">
<ele>43</ele>
<time>2014-05-25T13:54:07Z</time>
</trkpt>
<trkpt lat="37.56862383" lon="-1.10277928">
<ele>43</ele>
<time>2014-05-25T13:54:09Z</time>
</trkpt>
<trkpt lat="37.56862382" lon="-1.10277925">
<ele>43</ele>
<time>2014-05-25T13:54:11Z</time>
</trkpt>
<trkpt lat="37.56862383" lon="-1.1027792">
<ele>43</ele>
<time>2014-05-25T13:54:13Z</time>
</trkpt>
<trkpt lat="37.56862388" lon="-1.10277913">
<ele>43</ele>
<time>2014-05-25T13:54:15Z</time>
</trkpt>
<trkpt lat="37.56862392" lon="-1.10277906">
<ele>43</ele>
<time>2014-05-25T13:54:17Z</time>
</trkpt>
<trkpt lat="37.56862396" lon="-1.10277901">
<ele>43</ele>
<time>2014-05-25T13:54:19Z</time>
</trkpt>
<trkpt lat="37.568624" lon="-1.10277901">
<ele>43</ele>
<time>2014-05-25T13:54:21Z</time>
</trkpt>
<trkpt lat="37.56862402" lon="-1.10277899">
<ele>43</ele>
<time>2014-05-25T13:54:23Z</time>
</trkpt>
<trkpt lat="37.56862403" lon="-1.10277895">
<ele>43</ele>
<time>2014-05-25T13:54:25Z</time>
</trkpt>
<trkpt lat="37.56862403" lon="-1.10277894">
<ele>43</ele>
<time>2014-05-25T13:54:27Z</time>
</trkpt>
<trkpt lat="37.56862404" lon="-1.10277892">
<ele>43</ele>
<time>2014-05-25T13:54:29Z</time>
</trkpt>
<trkpt lat="37.56862407" lon="-1.10277888">
<ele>43</ele>
<time>2014-05-25T13:54:31Z</time>
</trkpt>
<trkpt lat="37.56862408" lon="-1.10277887">
<ele>43</ele>
<time>2014-05-25T13:54:33Z</time>
</trkpt>
<trkpt lat="37.56862407" lon="-1.10277888">
<ele>43</ele>
<time>2014-05-25T13:54:35Z</time>
</trkpt>
<trkpt lat="37.56862405" lon="-1.10277891">
<ele>43</ele>
<time>2014-05-25T13:54:37Z</time>
</trkpt>
<trkpt lat="37.56862406" lon="-1.10277892">
<ele>43</ele>
<time>2014-05-25T13:54:39Z</time>
</trkpt>
<trkpt lat="37.56862412" lon="-1.1027789">
<ele>43</ele>
<time>2014-05-25T13:54:41Z</time>
</trkpt>
<trkpt lat="37.56862417" lon="-1.10277889">
<ele>43</ele>
<time>2014-05-25T13:54:43Z</time>
</trkpt>
<trkpt lat="37.56862422" lon="-1.10277888">
<ele>43</ele>
<time>2014-05-25T13:54:45Z</time>
</trkpt>
<trkpt lat="37.56862423" lon="-1.10277887">
<ele>43</ele>
<time>2014-05-25T13:54:47Z</time>
</trkpt>
<trkpt lat="37.5686242" lon="-1.1027789">
<ele>43</ele>
<time>2014-05-25T13:54:49Z</time>
</trkpt>
<trkpt lat="37.56862417" lon="-1.10277891">
<ele>43</ele>
<time>2014-05-25T13:54:51Z</time>
</trkpt>
<trkpt lat="37.56862414" lon="-1.10277891">
<ele>43</ele>
<time>2014-05-25T13:54:53Z</time>
</trkpt>
<trkpt lat="37.56862411" lon="-1.10277891">
<ele>43</ele>
<time>2014-05-25T13:54:55Z</time>
</trkpt>
<trkpt lat="37.56862409" lon="-1.10277893">
<ele>43</ele>
<time>2014-05-25T13:54:57Z</time>
</trkpt>
<trkpt lat="37.56862408" lon="-1.10277889">
<ele>43</ele>
<time>2014-05-25T13:54:59Z</time>
</trkpt>
<trkpt lat="37.56862407" lon="-1.10277882">
<ele>43</ele>
<time>2014-05-25T13:55:01Z</time>
</trkpt>
<trkpt lat="37.56862407" lon="-1.10277879">
<ele>43</ele>
<time>2014-05-25T13:55:03Z</time>
</trkpt>
<trkpt lat="37.56862406" lon="-1.10277875">
<ele>43</ele>
<time>2014-05-25T13:55:05Z</time>
</trkpt>
<trkpt lat="37.56862403" lon="-1.10277873">
<ele>43</ele>
<time>2014-05-25T13:55:07Z</time>
</trkpt>
<trkpt lat="37.56862401" lon="-1.10277871">
<ele>43</ele>
<time>2014-05-25T13:55:09Z</time>
</trkpt>
<trkpt lat="37.56862399" lon="-1.1027787">
<ele>43</ele>
<time>2014-05-25T13:55:11Z</time>
</trkpt>
<trkpt lat="37.56862398" lon="-1.10277869">
<ele>43</ele>
<time>2014-05-25T13:55:13Z</time>
</trkpt>
<trkpt lat="37.56862398" lon="-1.10277867">
<ele>43</ele>
<time>2014-05-25T13:55:15Z</time>
</trkpt>
<trkpt lat="37.56862397" lon="-1.10277866">
<ele>43</ele>
<time>2014-05-25T13:55:17Z</time>
</trkpt>
<trkpt lat="37.56862399" lon="-1.10277863">
<ele>43</ele>
<time>2014-05-25T13:55:19Z</time>
</trkpt>
<trkpt lat="37.56862398" lon="-1.10277862">
<ele>43</ele>
<time>2014-05-25T13:55:21Z</time>
</trkpt>
<trkpt lat="37.56862398" lon="-1.10277861">
<ele>43</ele>
<time>2014-05-25T13:55:23Z</time>
</trkpt>
<trkpt lat="37.56862399" lon="-1.10277858">
<ele>43</ele>
<time>2014-05-25T13:55:25Z</time>
</trkpt>
<trkpt lat="37.56862403" lon="-1.10277848">
<ele>43</ele>
<time>2014-05-25T13:55:27Z</time>
</trkpt>
<trkpt lat="37.56862405" lon="-1.1027784">
<ele>43</ele>
<time>2014-05-25T13:55:29Z</time>
</trkpt>
<trkpt lat="37.56862405" lon="-1.10277836">
<ele>43</ele>
<time>2014-05-25T13:55:31Z</time>
</trkpt>
<trkpt lat="37.56862405" lon="-1.10277831">
<ele>43</ele>
<time>2014-05-25T13:55:33Z</time>
</trkpt>
<trkpt lat="37.56862405" lon="-1.10277827">
<ele>43</ele>
<time>2014-05-25T13:55:35Z</time>
</trkpt>
<trkpt lat="37.56862408" lon="-1.10277821">
<ele>43</ele>
<time>2014-05-25T13:55:37Z</time>
</trkpt>
<trkpt lat="37.5686241" lon="-1.10277815">
<ele>43</ele>
<time>2014-05-25T13:55:39Z</time>
</trkpt>
<trkpt lat="37.56862408" lon="-1.10277813">
<ele>43</ele>
<time>2014-05-25T13:55:41Z</time>
</trkpt>
<trkpt lat="37.56862408" lon="-1.1027781">
<ele>43</ele>
<time>2014-05-25T13:55:43Z</time>
</trkpt>
<trkpt lat="37.56862404" lon="-1.10277812">
<ele>43</ele>
<time>2014-05-25T13:55:45Z</time>
</trkpt>
<trkpt lat="37.56862403" lon="-1.10277813">
<ele>43</ele>
<time>2014-05-25T13:55:47Z</time>
</trkpt>
<trkpt lat="37.56862406" lon="-1.10277809">
<ele>43</ele>
<time>2014-05-25T13:55:49Z</time>
</trkpt>
<trkpt lat="37.56862411" lon="-1.10277807">
<ele>43</ele>
<time>2014-05-25T13:55:51Z</time>
</trkpt>
<trkpt lat="37.56862415" lon="-1.10277804">
<ele>43</ele>
<time>2014-05-25T13:55:53Z</time>
</trkpt>
<trkpt lat="37.56862421" lon="-1.10277798">
<ele>43</ele>
<time>2014-05-25T13:55:55Z</time>
</trkpt>
<trkpt lat="37.56862422" lon="-1.10277793">
<ele>43</ele>
<time>2014-05-25T13:55:57Z</time>
</trkpt>
<trkpt lat="37.56862422" lon="-1.10277787">
<ele>43</ele>
<time>2014-05-25T13:55:59Z</time>
</trkpt>
<trkpt lat="37.56862427" lon="-1.10277781">
<ele>43</ele>
<time>2014-05-25T13:56:01Z</time>
</trkpt>
<trkpt lat="37.56862428" lon="-1.10277779">
<ele>43</ele>
<time>2014-05-25T13:56:03Z</time>
</trkpt>
<trkpt lat="37.56862432" lon="-1.10277776">
<ele>43</ele>
<time>2014-05-25T13:56:05Z</time>
</trkpt>
<trkpt lat="37.5686244" lon="-1.10277768">
<ele>43</ele>
<time>2014-05-25T13:56:07Z</time>
</trkpt>
<trkpt lat="37.56862444" lon="-1.10277762">
<ele>43</ele>
<time>2014-05-25T13:56:09Z</time>
</trkpt>
<trkpt lat="37.56862451" lon="-1.10277762">
<ele>43</ele>
<time>2014-05-25T13:56:11Z</time>
</trkpt>
<trkpt lat="37.56862456" lon="-1.10277762">
<ele>43</ele>
<time>2014-05-25T13:56:13Z</time>
</trkpt>
<trkpt lat="37.56862462" lon="-1.10277759">
<ele>43</ele>
<time>2014-05-25T13:56:15Z</time>
</trkpt>
<trkpt lat="37.56862465" lon="-1.10277755">
<ele>43</ele>
<time>2014-05-25T13:56:17Z</time>
</trkpt>
<trkpt lat="37.5686247" lon="-1.10277747">
<ele>43</ele>
<time>2014-05-25T13:56:19Z</time>
</trkpt>
<trkpt lat="37.56862474" lon="-1.10277739">
<ele>43</ele>
<time>2014-05-25T13:56:21Z</time>
</trkpt>
<trkpt lat="37.5686248" lon="-1.10277733">
<ele>43</ele>
<time>2014-05-25T13:56:23Z</time>
</trkpt>
<trkpt lat="37.56862485" lon="-1.10277728">
<ele>43</ele>
<time>2014-05-25T13:56:25Z</time>
</trkpt>
<trkpt lat="37.56862491" lon="-1.10277723">
<ele>43</ele>
<time>2014-05-25T13:56:27Z</time>
</trkpt>
<trkpt lat="37.56862494" lon="-1.10277718">
<ele>43</ele>
<time>2014-05-25T13:56:29Z</time>
</trkpt>
<trkpt lat="37.56862495" lon="-1.10277715">
<ele>43</ele>
<time>2014-05-25T13:56:31Z</time>
</trkpt>
<trkpt lat="37.56862493" lon="-1.10277713">
<ele>43</ele>
<time>2014-05-25T13:56:33Z</time>
</trkpt>
<trkpt lat="37.56862493" lon="-1.1027771">
<ele>43</ele>
<time>2014-05-25T13:56:35Z</time>
</trkpt>
<trkpt lat="37.56862496" lon="-1.10277707">
<ele>43</ele>
<time>2014-05-25T13:56:37Z</time>
</trkpt>
<trkpt lat="37.56862494" lon="-1.10277707">
<ele>43</ele>
<time>2014-05-25T13:56:39Z</time>
</trkpt>
<trkpt lat="37.56862495" lon="-1.10277708">
<ele>43</ele>
<time>2014-05-25T13:56:41Z</time>
</trkpt>
<trkpt lat="37.56862496" lon="-1.10277706">
<ele>43</ele>
<time>2014-05-25T13:56:43Z</time>
</trkpt>
<trkpt lat="37.56862497" lon="-1.10277705">
<ele>43</ele>
<time>2014-05-25T13:56:45Z</time>
</trkpt>
<trkpt lat="37.56862496" lon="-1.10277703">
<ele>43</ele>
<time>2014-05-25T13:56:47Z</time>
</trkpt>
<trkpt lat="37.56862492" lon="-1.10277699">
<ele>43</ele>
<time>2014-05-25T13:56:49Z</time>
</trkpt>
<trkpt lat="37.56862494" lon="-1.10277692">
<ele>43</ele>
<time>2014-05-25T13:56:51Z</time>
</trkpt>
<trkpt lat="37.56862497" lon="-1.10277686">
<ele>43</ele>
<time>2014-05-25T13:56:53Z</time>
</trkpt>
<trkpt lat="37.56862497" lon="-1.10277686">
<ele>43</ele>
<time>2014-05-25T13:56:55Z</time>
</trkpt>
<trkpt lat="37.56862495" lon="-1.10277685">
<ele>43</ele>
<time>2014-05-25T13:56:57Z</time>
</trkpt>
<trkpt lat="37.56862492" lon="-1.10277686">
<ele>43</ele>
<time>2014-05-25T13:56:59Z</time>
</trkpt>
<trkpt lat="37.5686249" lon="-1.10277685">
<ele>43</ele>
<time>2014-05-25T13:57:01Z</time>
</trkpt>
<trkpt lat="37.5686249" lon="-1.10277684">
<ele>43</ele>
<time>2014-05-25T13:57:03Z</time>
</trkpt>
<trkpt lat="37.56862494" lon="-1.10277682">
<ele>43</ele>
<time>2014-05-25T13:57:05Z</time>
</trkpt>
<trkpt lat="37.56862496" lon="-1.1027768">
<ele>43</ele>
<time>2014-05-25T13:57:07Z</time>
</trkpt>
<trkpt lat="37.56862499" lon="-1.10277678">
<ele>43</ele>
<time>2014-05-25T13:57:09Z</time>
</trkpt>
<trkpt lat="37.56862502" lon="-1.10277677">
<ele>43</ele>
<time>2014-05-25T13:57:11Z</time>
</trkpt>
<trkpt lat="37.56862504" lon="-1.10277676">
<ele>43</ele>
<time>2014-05-25T13:57:13Z</time>
</trkpt>
<trkpt lat="37.56862504" lon="-1.10277674">
<ele>43</ele>
<time>2014-05-25T13:57:15Z</time>
</trkpt>
<trkpt lat="37.56862506" lon="-1.10277672">
<ele>43</ele>
<time>2014-05-25T13:57:17Z</time>
</trkpt>
<trkpt lat="37.56862507" lon="-1.1027767">
<ele>43</ele>
<time>2014-05-25T13:57:19Z</time>
</trkpt>
<trkpt lat="37.56862507" lon="-1.10277662">
<ele>43</ele>
<time>2014-05-25T13:57:21Z</time>
</trkpt>
<trkpt lat="37.56862507" lon="-1.10277658">
<ele>43</ele>
<time>2014-05-25T13:57:23Z</time>
</trkpt>
<trkpt lat="37.56862506" lon="-1.10277656">
<ele>43</ele>
<time>2014-05-25T13:57:25Z</time>
</trkpt>
<trkpt lat="37.56862507" lon="-1.10277654">
<ele>43</ele>
<time>2014-05-25T13:57:27Z</time>
</trkpt>
<trkpt lat="37.5686251" lon="-1.10277653">
<ele>43</ele>
<time>2014-05-25T13:57:29Z</time>
</trkpt>
<trkpt lat="37.56862511" lon="-1.10277651">
<ele>43</ele>
<time>2014-05-25T13:57:31Z</time>
</trkpt>
<trkpt lat="37.56862512" lon="-1.10277651">
<ele>43</ele>
<time>2014-05-25T13:57:33Z</time>
</trkpt>
<trkpt lat="37.56862514" lon="-1.10277649">
<ele>43</ele>
<time>2014-05-25T13:57:35Z</time>
</trkpt>
<trkpt lat="37.56862514" lon="-1.10277648">
<ele>43</ele>
<time>2014-05-25T13:57:37Z</time>
</trkpt>
<trkpt lat="37.56862515" lon="-1.10277647">
<ele>43</ele>
<time>2014-05-25T13:57:39Z</time>
</trkpt>
<trkpt lat="37.56862515" lon="-1.10277645">
<ele>43</ele>
<time>2014-05-25T13:57:41Z</time>
</trkpt>
<trkpt lat="37.56862513" lon="-1.10277642">
<ele>43</ele>
<time>2014-05-25T13:57:43Z</time>
</trkpt>
<trkpt lat="37.56862508" lon="-1.10277638">
<ele>43</ele>
<time>2014-05-25T13:57:45Z</time>
</trkpt>
<trkpt lat="37.56862507" lon="-1.10277635">
<ele>43</ele>
<time>2014-05-25T13:57:47Z</time>
</trkpt>
<trkpt lat="37.5686251" lon="-1.10277633">
<ele>43</ele>
<time>2014-05-25T13:57:49Z</time>
</trkpt>
<trkpt lat="37.56862512" lon="-1.10277631">
<ele>43</ele>
<time>2014-05-25T13:57:51Z</time>
</trkpt>
<trkpt lat="37.56862511" lon="-1.10277632">
<ele>43</ele>
<time>2014-05-25T13:57:53Z</time>
</trkpt>
<trkpt lat="37.56862511" lon="-1.10277633">
<ele>43</ele>
<time>2014-05-25T13:57:55Z</time>
</trkpt>
<trkpt lat="37.56862514" lon="-1.10277633">
<ele>43</ele>
<time>2014-05-25T13:57:57Z</time>
</trkpt>
<trkpt lat="37.5686251" lon="-1.10277634">
<ele>43</ele>
<time>2014-05-25T13:57:59Z</time>
</trkpt>
<trkpt lat="37.5686251" lon="-1.10277634">
<ele>43</ele>
<time>2014-05-25T13:58:01Z</time>
</trkpt>
<trkpt lat="37.56862511" lon="-1.10277633">
<ele>43</ele>
<time>2014-05-25T13:58:03Z</time>
</trkpt>
<trkpt lat="37.5686251" lon="-1.10277633">
<ele>43</ele>
<time>2014-05-25T13:58:05Z</time>
</trkpt>
<trkpt lat="37.56862508" lon="-1.10277632">
<ele>43</ele>
<time>2014-05-25T13:58:07Z</time>
</trkpt>
<trkpt lat="37.56862511" lon="-1.10277628">
<ele>43</ele>
<time>2014-05-25T13:58:09Z</time>
</trkpt>
<trkpt lat="37.56862513" lon="-1.10277625">
<ele>43</ele>
<time>2014-05-25T13:58:11Z</time>
</trkpt>
<trkpt lat="37.56862513" lon="-1.10277624">
<ele>43</ele>
<time>2014-05-25T13:58:13Z</time>
</trkpt>
<trkpt lat="37.56862511" lon="-1.10277627">
<ele>43</ele>
<time>2014-05-25T13:58:15Z</time>
</trkpt>
<trkpt lat="37.56862509" lon="-1.1027763">
<ele>43</ele>
<time>2014-05-25T13:58:17Z</time>
</trkpt>
<trkpt lat="37.56862509" lon="-1.10277632">
<ele>43</ele>
<time>2014-05-25T13:58:19Z</time>
</trkpt>
<trkpt lat="37.56862514" lon="-1.10277632">
<ele>43</ele>
<time>2014-05-25T13:58:21Z</time>
</trkpt>
<trkpt lat="37.56862513" lon="-1.10277632">
<ele>43</ele>
<time>2014-05-25T13:58:23Z</time>
</trkpt>
<trkpt lat="37.56862511" lon="-1.10277632">
<ele>43</ele>
<time>2014-05-25T13:58:25Z</time>
</trkpt>
<trkpt lat="37.56862511" lon="-1.10277633">
<ele>43</ele>
<time>2014-05-25T13:58:27Z</time>
</trkpt>
<trkpt lat="37.5686251" lon="-1.10277633">
<ele>43</ele>
<time>2014-05-25T13:58:29Z</time>
</trkpt>
<trkpt lat="37.56862509" lon="-1.10277633">
<ele>43</ele>
<time>2014-05-25T13:58:31Z</time>
</trkpt>
<trkpt lat="37.56862506" lon="-1.10277632">
<ele>43</ele>
<time>2014-05-25T13:58:33Z</time>
</trkpt>
<trkpt lat="37.56862503" lon="-1.10277629">
<ele>43</ele>
<time>2014-05-25T13:58:35Z</time>
</trkpt>
<trkpt lat="37.56862501" lon="-1.10277627">
<ele>43</ele>
<time>2014-05-25T13:58:37Z</time>
</trkpt>
<trkpt lat="37.56862503" lon="-1.10277625">
<ele>43</ele>
<time>2014-05-25T13:58:39Z</time>
</trkpt>
<trkpt lat="37.56862501" lon="-1.10277625">
<ele>43</ele>
<time>2014-05-25T13:58:41Z</time>
</trkpt>
<trkpt lat="37.56862498" lon="-1.10277627">
<ele>43</ele>
<time>2014-05-25T13:58:43Z</time>
</trkpt>
<trkpt lat="37.56862494" lon="-1.10277628">
<ele>43</ele>
<time>2014-05-25T13:58:45Z</time>
</trkpt>
<trkpt lat="37.5686249" lon="-1.10277628">
<ele>43</ele>
<time>2014-05-25T13:58:47Z</time>
</trkpt>
<trkpt lat="37.56862486" lon="-1.10277628">
<ele>43</ele>
<time>2014-05-25T13:58:49Z</time>
</trkpt>
<trkpt lat="37.56862486" lon="-1.10277626">
<ele>43</ele>
<time>2014-05-25T13:58:51Z</time>
</trkpt>
<trkpt lat="37.56862484" lon="-1.10277625">
<ele>44</ele>
<time>2014-05-25T13:58:53Z</time>
</trkpt>
<trkpt lat="37.56862484" lon="-1.10277621">
<ele>44</ele>
<time>2014-05-25T13:58:55Z</time>
</trkpt>
<trkpt lat="37.56862482" lon="-1.1027762">
<ele>44</ele>
<time>2014-05-25T13:58:57Z</time>
</trkpt>
<trkpt lat="37.56862482" lon="-1.10277619">
<ele>44</ele>
<time>2014-05-25T13:58:59Z</time>
</trkpt>
<trkpt lat="37.56862483" lon="-1.10277618">
<ele>44</ele>
<time>2014-05-25T13:59:01Z</time>
</trkpt>
<trkpt lat="37.5686248" lon="-1.10277618">
<ele>44</ele>
<time>2014-05-25T13:59:03Z</time>
</trkpt>
<trkpt lat="37.56862475" lon="-1.10277615">
<ele>44</ele>
<time>2014-05-25T13:59:05Z</time>
</trkpt>
<trkpt lat="37.56862473" lon="-1.10277612">
<ele>44</ele>
<time>2014-05-25T13:59:07Z</time>
</trkpt>
<trkpt lat="37.56862476" lon="-1.1027761">
<ele>44</ele>
<time>2014-05-25T13:59:09Z</time>
</trkpt>
<trkpt lat="37.56862479" lon="-1.10277609">
<ele>44</ele>
<time>2014-05-25T13:59:11Z</time>
</trkpt>
<trkpt lat="37.5686248" lon="-1.10277609">
<ele>44</ele>
<time>2014-05-25T13:59:13Z</time>
</trkpt>
<trkpt lat="37.56862481" lon="-1.10277608">
<ele>44</ele>
<time>2014-05-25T13:59:15Z</time>
</trkpt>
<trkpt lat="37.56862485" lon="-1.10277603">
<ele>44</ele>
<time>2014-05-25T13:59:17Z</time>
</trkpt>
<trkpt lat="37.56862486" lon="-1.10277597">
<ele>44</ele>
<time>2014-05-25T13:59:19Z</time>
</trkpt>
<trkpt lat="37.56862489" lon="-1.10277591">
<ele>44</ele>
<time>2014-05-25T13:59:21Z</time>
</trkpt>
<trkpt lat="37.56862491" lon="-1.10277585">
<ele>44</ele>
<time>2014-05-25T13:59:23Z</time>
</trkpt>
<trkpt lat="37.56862494" lon="-1.10277583">
<ele>44</ele>
<time>2014-05-25T13:59:25Z</time>
</trkpt>
<trkpt lat="37.56862496" lon="-1.10277579">
<ele>44</ele>
<time>2014-05-25T13:59:27Z</time>
</trkpt>
<trkpt lat="37.56862499" lon="-1.10277579">
<ele>44</ele>
<time>2014-05-25T13:59:29Z</time>
</trkpt>
<trkpt lat="37.56862502" lon="-1.10277578">
<ele>44</ele>
<time>2014-05-25T13:59:31Z</time>
</trkpt>
<trkpt lat="37.568625" lon="-1.1027758">
<ele>44</ele>
<time>2014-05-25T13:59:33Z</time>
</trkpt>
<trkpt lat="37.56862495" lon="-1.1027758">
<ele>44</ele>
<time>2014-05-25T13:59:35Z</time>
</trkpt>
<trkpt lat="37.56862493" lon="-1.10277578">
<ele>44</ele>
<time>2014-05-25T13:59:37Z</time>
</trkpt>
<trkpt lat="37.56862493" lon="-1.10277578">
<ele>44</ele>
<time>2014-05-25T13:59:39Z</time>
</trkpt>
<trkpt lat="37.56862496" lon="-1.10277578">
<ele>44</ele>
<time>2014-05-25T13:59:41Z</time>
</trkpt>
<trkpt lat="37.56862498" lon="-1.10277579">
<ele>44</ele>
<time>2014-05-25T13:59:43Z</time>
</trkpt>
<trkpt lat="37.568625" lon="-1.10277577">
<ele>44</ele>
<time>2014-05-25T13:59:45Z</time>
</trkpt>
<trkpt lat="37.56862502" lon="-1.10277573">
<ele>44</ele>
<time>2014-05-25T13:59:47Z</time>
</trkpt>
<trkpt lat="37.56862503" lon="-1.10277566">
<ele>44</ele>
<time>2014-05-25T13:59:49Z</time>
</trkpt>
<trkpt lat="37.56862507" lon="-1.10277564">
<ele>44</ele>
<time>2014-05-25T13:59:51Z</time>
</trkpt>
<trkpt lat="37.56862514" lon="-1.10277557">
<ele>44</ele>
<time>2014-05-25T13:59:53Z</time>
</trkpt>
<trkpt lat="37.56862519" lon="-1.10277551">
<ele>44</ele>
<time>2014-05-25T13:59:55Z</time>
</trkpt>
<trkpt lat="37.56862519" lon="-1.10277548">
<ele>44</ele>
<time>2014-05-25T13:59:57Z</time>
</trkpt>
<trkpt lat="37.56862518" lon="-1.10277548">
<ele>44</ele>
<time>2014-05-25T13:59:59Z</time>
</trkpt>
<trkpt lat="37.56862519" lon="-1.10277547">
<ele>44</ele>
<time>2014-05-25T14:00:01Z</time>
</trkpt>
<trkpt lat="37.56862515" lon="-1.10277545">
<ele>44</ele>
<time>2014-05-25T14:00:03Z</time>
</trkpt>
<trkpt lat="37.56862512" lon="-1.10277542">
<ele>44</ele>
<time>2014-05-25T14:00:05Z</time>
</trkpt>
<trkpt lat="37.56862511" lon="-1.10277537">
<ele>44</ele>
<time>2014-05-25T14:00:07Z</time>
</trkpt>
<trkpt lat="37.56862511" lon="-1.1027753">
<ele>44</ele>
<time>2014-05-25T14:00:09Z</time>
</trkpt>
<trkpt lat="37.56862512" lon="-1.10277525">
<ele>44</ele>
<time>2014-05-25T14:00:11Z</time>
</trkpt>
<trkpt lat="37.56862512" lon="-1.10277522">
<ele>44</ele>
<time>2014-05-25T14:00:13Z</time>
</trkpt>
<trkpt lat="37.56862512" lon="-1.10277523">
<ele>44</ele>
<time>2014-05-25T14:00:15Z</time>
</trkpt>
<trkpt lat="37.56862513" lon="-1.10277523">
<ele>44</ele>
<time>2014-05-25T14:00:17Z</time>
</trkpt>
<trkpt lat="37.56862512" lon="-1.1027752">
<ele>44</ele>
<time>2014-05-25T14:00:19Z</time>
</trkpt>
<trkpt lat="37.56862514" lon="-1.1027752">
<ele>44</ele>
<time>2014-05-25T14:00:21Z</time>
</trkpt>
<trkpt lat="37.56862521" lon="-1.10277521">
<ele>44</ele>
<time>2014-05-25T14:00:23Z</time>
</trkpt>
<trkpt lat="37.56862528" lon="-1.10277521">
<ele>44</ele>
<time>2014-05-25T14:00:25Z</time>
</trkpt>
<trkpt lat="37.56862532" lon="-1.10277523">
<ele>44</ele>
<time>2014-05-25T14:00:27Z</time>
</trkpt>
<trkpt lat="37.56862537" lon="-1.10277523">
<ele>44</ele>
<time>2014-05-25T14:00:29Z</time>
</trkpt>
<trkpt lat="37.56862534" lon="-1.10277522">
<ele>44</ele>
<time>2014-05-25T14:00:31Z</time>
</trkpt>
<trkpt lat="37.56862535" lon="-1.10277522">
<ele>44</ele>
<time>2014-05-25T14:00:33Z</time>
</trkpt>
<trkpt lat="37.56862535" lon="-1.1027752">
<ele>44</ele>
<time>2014-05-25T14:00:35Z</time>
</trkpt>
<trkpt lat="37.56862534" lon="-1.10277517">
<ele>44</ele>
<time>2014-05-25T14:00:37Z</time>
</trkpt>
<trkpt lat="37.56862538" lon="-1.10277513">
<ele>44</ele>
<time>2014-05-25T14:00:39Z</time>
</trkpt>
<trkpt lat="37.56862538" lon="-1.10277511">
<ele>44</ele>
<time>2014-05-25T14:00:41Z</time>
</trkpt>
<trkpt lat="37.56862539" lon="-1.10277508">
<ele>44</ele>
<time>2014-05-25T14:00:43Z</time>
</trkpt>
<trkpt lat="37.56862539" lon="-1.10277504">
<ele>44</ele>
<time>2014-05-25T14:00:45Z</time>
</trkpt>
<trkpt lat="37.56862538" lon="-1.10277501">
<ele>44</ele>
<time>2014-05-25T14:00:47Z</time>
</trkpt>
<trkpt lat="37.56862542" lon="-1.10277497">
<ele>44</ele>
<time>2014-05-25T14:00:49Z</time>
</trkpt>
<trkpt lat="37.56862544" lon="-1.10277494">
<ele>44</ele>
<time>2014-05-25T14:00:51Z</time>
</trkpt>
<trkpt lat="37.5686254" lon="-1.10277493">
<ele>44</ele>
<time>2014-05-25T14:00:53Z</time>
</trkpt>
<trkpt lat="37.56862539" lon="-1.1027749">
<ele>44</ele>
<time>2014-05-25T14:00:55Z</time>
</trkpt>
<trkpt lat="37.56862539" lon="-1.10277488">
<ele>44</ele>
<time>2014-05-25T14:00:57Z</time>
</trkpt>
<trkpt lat="37.56862542" lon="-1.10277486">
<ele>44</ele>
<time>2014-05-25T14:00:59Z</time>
</trkpt>
<trkpt lat="37.56862546" lon="-1.10277481">
<ele>44</ele>
<time>2014-05-25T14:01:01Z</time>
</trkpt>
<trkpt lat="37.5686255" lon="-1.10277479">
<ele>44</ele>
<time>2014-05-25T14:01:03Z</time>
</trkpt>
<trkpt lat="37.56862553" lon="-1.10277476">
<ele>44</ele>
<time>2014-05-25T14:01:05Z</time>
</trkpt>
<trkpt lat="37.56862554" lon="-1.10277476">
<ele>44</ele>
<time>2014-05-25T14:01:07Z</time>
</trkpt>
<trkpt lat="37.56862555" lon="-1.10277476">
<ele>44</ele>
<time>2014-05-25T14:01:09Z</time>
</trkpt>
<trkpt lat="37.56862552" lon="-1.10277476">
<ele>44</ele>
<time>2014-05-25T14:01:11Z</time>
</trkpt>
<trkpt lat="37.5686255" lon="-1.10277477">
<ele>44</ele>
<time>2014-05-25T14:01:13Z</time>
</trkpt>
<trkpt lat="37.5686255" lon="-1.10277476">
<ele>44</ele>
<time>2014-05-25T14:01:15Z</time>
</trkpt>
<trkpt lat="37.56862549" lon="-1.10277472">
<ele>44</ele>
<time>2014-05-25T14:01:17Z</time>
</trkpt>
<trkpt lat="37.56862547" lon="-1.10277473">
<ele>44</ele>
<time>2014-05-25T14:01:19Z</time>
</trkpt>
<trkpt lat="37.56862549" lon="-1.10277471">
<ele>44</ele>
<time>2014-05-25T14:01:21Z</time>
</trkpt>
<trkpt lat="37.56862548" lon="-1.10277471">
<ele>44</ele>
<time>2014-05-25T14:01:23Z</time>
</trkpt>
<trkpt lat="37.56862546" lon="-1.10277471">
<ele>44</ele>
<time>2014-05-25T14:01:25Z</time>
</trkpt>
<trkpt lat="37.56862543" lon="-1.10277469">
<ele>44</ele>
<time>2014-05-25T14:01:27Z</time>
</trkpt>
<trkpt lat="37.56862539" lon="-1.10277468">
<ele>44</ele>
<time>2014-05-25T14:01:29Z</time>
</trkpt>
<trkpt lat="37.5686254" lon="-1.10277464">
<ele>44</ele>
<time>2014-05-25T14:01:31Z</time>
</trkpt>
<trkpt lat="37.56862542" lon="-1.1027746">
<ele>44</ele>
<time>2014-05-25T14:01:33Z</time>
</trkpt>
<trkpt lat="37.56862544" lon="-1.10277456">
<ele>44</ele>
<time>2014-05-25T14:01:35Z</time>
</trkpt>
<trkpt lat="37.56862546" lon="-1.10277453">
<ele>44</ele>
<time>2014-05-25T14:01:37Z</time>
</trkpt>
<trkpt lat="37.56862549" lon="-1.10277451">
<ele>44</ele>
<time>2014-05-25T14:01:39Z</time>
</trkpt>
<trkpt lat="37.56862549" lon="-1.10277451">
<ele>44</ele>
<time>2014-05-25T14:01:41Z</time>
</trkpt>
<trkpt lat="37.56862548" lon="-1.1027745">
<ele>44</ele>
<time>2014-05-25T14:01:43Z</time>
</trkpt>
<trkpt lat="37.56862545" lon="-1.10277451">
<ele>44</ele>
<time>2014-05-25T14:01:45Z</time>
</trkpt>
<trkpt lat="37.56862543" lon="-1.10277449">
<ele>44</ele>
<time>2014-05-25T14:01:47Z</time>
</trkpt>
<trkpt lat="37.56862539" lon="-1.10277448">
<ele>44</ele>
<time>2014-05-25T14:01:49Z</time>
</trkpt>
<trkpt lat="37.56862538" lon="-1.10277445">
<ele>44</ele>
<time>2014-05-25T14:01:51Z</time>
</trkpt>
<trkpt lat="37.5686254" lon="-1.1027744">
<ele>44</ele>
<time>2014-05-25T14:01:53Z</time>
</trkpt>
<trkpt lat="37.56862547" lon="-1.10277435">
<ele>44</ele>
<time>2014-05-25T14:01:55Z</time>
</trkpt>
<trkpt lat="37.56862547" lon="-1.10277431">
<ele>44</ele>
<time>2014-05-25T14:01:57Z</time>
</trkpt>
<trkpt lat="37.56862548" lon="-1.10277425">
<ele>44</ele>
<time>2014-05-25T14:01:59Z</time>
</trkpt>
<trkpt lat="37.56862547" lon="-1.10277419">
<ele>44</ele>
<time>2014-05-25T14:02:01Z</time>
</trkpt>
<trkpt lat="37.5686255" lon="-1.10277417">
<ele>44</ele>
<time>2014-05-25T14:02:03Z</time>
</trkpt>
<trkpt lat="37.56862552" lon="-1.10277414">
<ele>44</ele>
<time>2014-05-25T14:02:05Z</time>
</trkpt>
<trkpt lat="37.56862552" lon="-1.10277413">
<ele>44</ele>
<time>2014-05-25T14:02:07Z</time>
</trkpt>
<trkpt lat="37.56862552" lon="-1.10277413">
<ele>44</ele>
<time>2014-05-25T14:02:09Z</time>
</trkpt>
<trkpt lat="37.56862552" lon="-1.10277413">
<ele>44</ele>
<time>2014-05-25T14:02:11Z</time>
</trkpt>
<trkpt lat="37.56862554" lon="-1.10277411">
<ele>44</ele>
<time>2014-05-25T14:02:13Z</time>
</trkpt>
<trkpt lat="37.56862559" lon="-1.10277407">
<ele>44</ele>
<time>2014-05-25T14:02:15Z</time>
</trkpt>
<trkpt lat="37.56862566" lon="-1.10277404">
<ele>44</ele>
<time>2014-05-25T14:02:17Z</time>
</trkpt>
<trkpt lat="37.56862571" lon="-1.10277402">
<ele>44</ele>
<time>2014-05-25T14:02:19Z</time>
</trkpt>
<trkpt lat="37.56862575" lon="-1.10277401">
<ele>44</ele>
<time>2014-05-25T14:02:21Z</time>
</trkpt>
<trkpt lat="37.56862577" lon="-1.10277398">
<ele>44</ele>
<time>2014-05-25T14:02:23Z</time>
</trkpt>
<trkpt lat="37.5686258" lon="-1.10277397">
<ele>44</ele>
<time>2014-05-25T14:02:25Z</time>
</trkpt>
<trkpt lat="37.5686258" lon="-1.10277395">
<ele>44</ele>
<time>2014-05-25T14:02:27Z</time>
</trkpt>
<trkpt lat="37.56862581" lon="-1.10277395">
<ele>44</ele>
<time>2014-05-25T14:02:29Z</time>
</trkpt>
<trkpt lat="37.5686258" lon="-1.10277396">
<ele>44</ele>
<time>2014-05-25T14:02:31Z</time>
</trkpt>
<trkpt lat="37.56862578" lon="-1.10277395">
<ele>44</ele>
<time>2014-05-25T14:02:33Z</time>
</trkpt>
<trkpt lat="37.56862575" lon="-1.10277393">
<ele>44</ele>
<time>2014-05-25T14:02:35Z</time>
</trkpt>
<trkpt lat="37.56862572" lon="-1.10277388">
<ele>44</ele>
<time>2014-05-25T14:02:37Z</time>
</trkpt>
<trkpt lat="37.56862572" lon="-1.10277383">
<ele>44</ele>
<time>2014-05-25T14:02:39Z</time>
</trkpt>
<trkpt lat="37.56862575" lon="-1.10277382">
<ele>44</ele>
<time>2014-05-25T14:02:41Z</time>
</trkpt>
<trkpt lat="37.56862578" lon="-1.1027738">
<ele>44</ele>
<time>2014-05-25T14:02:43Z</time>
</trkpt>
<trkpt lat="37.56862579" lon="-1.10277377">
<ele>44</ele>
<time>2014-05-25T14:02:45Z</time>
</trkpt>
<trkpt lat="37.5686258" lon="-1.10277373">
<ele>44</ele>
<time>2014-05-25T14:02:47Z</time>
</trkpt>
<trkpt lat="37.5686258" lon="-1.10277371">
<ele>44</ele>
<time>2014-05-25T14:02:49Z</time>
</trkpt>
<trkpt lat="37.56862582" lon="-1.10277369">
<ele>44</ele>
<time>2014-05-25T14:02:51Z</time>
</trkpt>
<trkpt lat="37.56862584" lon="-1.10277365">
<ele>44</ele>
<time>2014-05-25T14:02:53Z</time>
</trkpt>
<trkpt lat="37.56862584" lon="-1.10277362">
<ele>44</ele>
<time>2014-05-25T14:02:55Z</time>
</trkpt>
<trkpt lat="37.56862583" lon="-1.10277361">
<ele>44</ele>
<time>2014-05-25T14:02:57Z</time>
</trkpt>
<trkpt lat="37.56862581" lon="-1.10277356">
<ele>44</ele>
<time>2014-05-25T14:02:59Z</time>
</trkpt>
<trkpt lat="37.56862579" lon="-1.10277354">
<ele>44</ele>
<time>2014-05-25T14:03:01Z</time>
</trkpt>
<trkpt lat="37.56862576" lon="-1.10277353">
<ele>44</ele>
<time>2014-05-25T14:03:03Z</time>
</trkpt>
<trkpt lat="37.56862576" lon="-1.10277349">
<ele>44</ele>
<time>2014-05-25T14:03:05Z</time>
</trkpt>
<trkpt lat="37.56862574" lon="-1.10277345">
<ele>44</ele>
<time>2014-05-25T14:03:07Z</time>
</trkpt>
<trkpt lat="37.56862574" lon="-1.10277344">
<ele>44</ele>
<time>2014-05-25T14:03:09Z</time>
</trkpt>
<trkpt lat="37.56862573" lon="-1.10277346">
<ele>44</ele>
<time>2014-05-25T14:03:11Z</time>
</trkpt>
<trkpt lat="37.5686257" lon="-1.10277345">
<ele>44</ele>
<time>2014-05-25T14:03:13Z</time>
</trkpt>
<trkpt lat="37.5686257" lon="-1.10277341">
<ele>44</ele>
<time>2014-05-25T14:03:15Z</time>
</trkpt>
<trkpt lat="37.56862569" lon="-1.10277338">
<ele>44</ele>
<time>2014-05-25T14:03:17Z</time>
</trkpt>
<trkpt lat="37.56862571" lon="-1.10277336">
<ele>44</ele>
<time>2014-05-25T14:03:19Z</time>
</trkpt>
<trkpt lat="37.56862571" lon="-1.10277333">
<ele>44</ele>
<time>2014-05-25T14:03:21Z</time>
</trkpt>
<trkpt lat="37.56862569" lon="-1.10277329">
<ele>44</ele>
<time>2014-05-25T14:03:23Z</time>
</trkpt>
<trkpt lat="37.56862566" lon="-1.10277324">
<ele>44</ele>
<time>2014-05-25T14:03:25Z</time>
</trkpt>
<trkpt lat="37.56862566" lon="-1.10277321">
<ele>44</ele>
<time>2014-05-25T14:03:27Z</time>
</trkpt>
<trkpt lat="37.56862566" lon="-1.10277317">
<ele>44</ele>
<time>2014-05-25T14:03:29Z</time>
</trkpt>
<trkpt lat="37.56862566" lon="-1.10277313">
<ele>44</ele>
<time>2014-05-25T14:03:31Z</time>
</trkpt>
<trkpt lat="37.56862565" lon="-1.10277312">
<ele>44</ele>
<time>2014-05-25T14:03:33Z</time>
</trkpt>
<trkpt lat="37.56862564" lon="-1.10277312">
<ele>44</ele>
<time>2014-05-25T14:03:35Z</time>
</trkpt>
<trkpt lat="37.5686256" lon="-1.10277314">
<ele>44</ele>
<time>2014-05-25T14:03:37Z</time>
</trkpt>
<trkpt lat="37.56862558" lon="-1.10277314">
<ele>44</ele>
<time>2014-05-25T14:03:39Z</time>
</trkpt>
<trkpt lat="37.56862558" lon="-1.1027731">
<ele>44</ele>
<time>2014-05-25T14:03:41Z</time>
</trkpt>
<trkpt lat="37.56862556" lon="-1.1027731">
<ele>44</ele>
<time>2014-05-25T14:03:43Z</time>
</trkpt>
<trkpt lat="37.56862554" lon="-1.10277309">
<ele>44</ele>
<time>2014-05-25T14:03:45Z</time>
</trkpt>
<trkpt lat="37.56862555" lon="-1.10277307">
<ele>44</ele>
<time>2014-05-25T14:03:47Z</time>
</trkpt>
<trkpt lat="37.56862558" lon="-1.10277304">
<ele>44</ele>
<time>2014-05-25T14:03:49Z</time>
</trkpt>
<trkpt lat="37.56862556" lon="-1.10277304">
<ele>44</ele>
<time>2014-05-25T14:03:51Z</time>
</trkpt>
<trkpt lat="37.56862557" lon="-1.10277302">
<ele>44</ele>
<time>2014-05-25T14:03:53Z</time>
</trkpt>
<trkpt lat="37.56862559" lon="-1.10277299">
<ele>44</ele>
<time>2014-05-25T14:03:55Z</time>
</trkpt>
<trkpt lat="37.56862562" lon="-1.10277297">
<ele>44</ele>
<time>2014-05-25T14:03:57Z</time>
</trkpt>
<trkpt lat="37.56862563" lon="-1.10277294">
<ele>44</ele>
<time>2014-05-25T14:03:59Z</time>
</trkpt>
<trkpt lat="37.56862565" lon="-1.10277289">
<ele>44</ele>
<time>2014-05-25T14:04:01Z</time>
</trkpt>
<trkpt lat="37.56862565" lon="-1.10277286">
<ele>44</ele>
<time>2014-05-25T14:04:03Z</time>
</trkpt>
<trkpt lat="37.56862564" lon="-1.10277282">
<ele>44</ele>
<time>2014-05-25T14:04:05Z</time>
</trkpt>
<trkpt lat="37.56862562" lon="-1.10277279">
<ele>44</ele>
<time>2014-05-25T14:04:07Z</time>
</trkpt>
<trkpt lat="37.56862563" lon="-1.10277274">
<ele>44</ele>
<time>2014-05-25T14:04:09Z</time>
</trkpt>
<trkpt lat="37.56862563" lon="-1.10277269">
<ele>44</ele>
<time>2014-05-25T14:04:11Z</time>
</trkpt>
<trkpt lat="37.56862562" lon="-1.10277265">
<ele>44</ele>
<time>2014-05-25T14:04:13Z</time>
</trkpt>
<trkpt lat="37.56862562" lon="-1.10277261">
<ele>44</ele>
<time>2014-05-25T14:04:15Z</time>
</trkpt>
<trkpt lat="37.56862562" lon="-1.10277259">
<ele>44</ele>
<time>2014-05-25T14:04:17Z</time>
</trkpt>
<trkpt lat="37.56862563" lon="-1.10277256">
<ele>44</ele>
<time>2014-05-25T14:04:19Z</time>
</trkpt>
<trkpt lat="37.56862564" lon="-1.10277255">
<ele>44</ele>
<time>2014-05-25T14:04:21Z</time>
</trkpt>
<trkpt lat="37.56862563" lon="-1.10277254">
<ele>44</ele>
<time>2014-05-25T14:04:23Z</time>
</trkpt>
<trkpt lat="37.56862561" lon="-1.10277252">
<ele>44</ele>
<time>2014-05-25T14:04:25Z</time>
</trkpt>
<trkpt lat="37.5686256" lon="-1.10277251">
<ele>44</ele>
<time>2014-05-25T14:04:27Z</time>
</trkpt>
<trkpt lat="37.56862562" lon="-1.1027725">
<ele>44</ele>
<time>2014-05-25T14:04:29Z</time>
</trkpt>
<trkpt lat="37.56862564" lon="-1.10277247">
<ele>44</ele>
<time>2014-05-25T14:04:31Z</time>
</trkpt>
<trkpt lat="37.56862565" lon="-1.10277242">
<ele>44</ele>
<time>2014-05-25T14:04:33Z</time>
</trkpt>
<trkpt lat="37.56862567" lon="-1.10277239">
<ele>44</ele>
<time>2014-05-25T14:04:35Z</time>
</trkpt>
<trkpt lat="37.56862565" lon="-1.10277239">
<ele>44</ele>
<time>2014-05-25T14:04:37Z</time>
</trkpt>
<trkpt lat="37.56862565" lon="-1.10277236">
<ele>44</ele>
<time>2014-05-25T14:04:39Z</time>
</trkpt>
<trkpt lat="37.56862562" lon="-1.10277233">
<ele>44</ele>
<time>2014-05-25T14:04:41Z</time>
</trkpt>
<trkpt lat="37.56862561" lon="-1.1027723">
<ele>44</ele>
<time>2014-05-25T14:04:43Z</time>
</trkpt>
<trkpt lat="37.56862561" lon="-1.1027723">
<ele>44</ele>
<time>2014-05-25T14:04:45Z</time>
</trkpt>
<trkpt lat="37.56862562" lon="-1.10277229">
<ele>44</ele>
<time>2014-05-25T14:04:47Z</time>
</trkpt>
<trkpt lat="37.56862564" lon="-1.10277226">
<ele>44</ele>
<time>2014-05-25T14:04:49Z</time>
</trkpt>
<trkpt lat="37.56862565" lon="-1.10277223">
<ele>44</ele>
<time>2014-05-25T14:04:51Z</time>
</trkpt>
<trkpt lat="37.56862568" lon="-1.10277221">
<ele>44</ele>
<time>2014-05-25T14:04:53Z</time>
</trkpt>
<trkpt lat="37.56862568" lon="-1.10277216">
<ele>44</ele>
<time>2014-05-25T14:04:55Z</time>
</trkpt>
<trkpt lat="37.56862569" lon="-1.10277211">
<ele>44</ele>
<time>2014-05-25T14:04:57Z</time>
</trkpt>
<trkpt lat="37.56862569" lon="-1.10277207">
<ele>44</ele>
<time>2014-05-25T14:04:59Z</time>
</trkpt>
<trkpt lat="37.56862569" lon="-1.10277204">
<ele>44</ele>
<time>2014-05-25T14:05:01Z</time>
</trkpt>
<trkpt lat="37.56862568" lon="-1.10277202">
<ele>44</ele>
<time>2014-05-25T14:05:03Z</time>
</trkpt>
<trkpt lat="37.56862568" lon="-1.10277202">
<ele>44</ele>
<time>2014-05-25T14:05:05Z</time>
</trkpt>
<trkpt lat="37.56862571" lon="-1.10277202">
<ele>44</ele>
<time>2014-05-25T14:05:07Z</time>
</trkpt>
<trkpt lat="37.56862571" lon="-1.10277203">
<ele>44</ele>
<time>2014-05-25T14:05:09Z</time>
</trkpt>
<trkpt lat="37.56862571" lon="-1.10277203">
<ele>44</ele>
<time>2014-05-25T14:05:11Z</time>
</trkpt>
<trkpt lat="37.56862572" lon="-1.10277199">
<ele>44</ele>
<time>2014-05-25T14:05:13Z</time>
</trkpt>
<trkpt lat="37.56862569" lon="-1.10277198">
<ele>44</ele>
<time>2014-05-25T14:05:15Z</time>
</trkpt>
<trkpt lat="37.56862566" lon="-1.10277202">
<ele>44</ele>
<time>2014-05-25T14:05:17Z</time>
</trkpt>
<trkpt lat="37.56862565" lon="-1.10277201">
<ele>44</ele>
<time>2014-05-25T14:05:19Z</time>
</trkpt>
<trkpt lat="37.56862565" lon="-1.10277198">
<ele>44</ele>
<time>2014-05-25T14:05:21Z</time>
</trkpt>
<trkpt lat="37.56862563" lon="-1.10277196">
<ele>44</ele>
<time>2014-05-25T14:05:23Z</time>
</trkpt>
<trkpt lat="37.56862562" lon="-1.10277196">
<ele>44</ele>
<time>2014-05-25T14:05:25Z</time>
</trkpt>
<trkpt lat="37.5686256" lon="-1.10277195">
<ele>44</ele>
<time>2014-05-25T14:05:27Z</time>
</trkpt>
<trkpt lat="37.5686256" lon="-1.10277194">
<ele>44</ele>
<time>2014-05-25T14:05:29Z</time>
</trkpt>
<trkpt lat="37.56864487" lon="-1.10285915">
<ele>17</ele>
<time>2014-05-25T16:22:35Z</time>
</trkpt>
<trkpt lat="37.56871554" lon="-1.10284">
<ele>1</ele>
<time>2014-05-25T16:22:37Z</time>
</trkpt>
<trkpt lat="37.56862673" lon="-1.10269433">
<ele>98</ele>
<time>2014-05-25T16:22:38Z</time>
</trkpt>
<trkpt lat="37.56855555" lon="-1.10274181">
<ele>37</ele>
<time>2014-05-25T16:22:41Z</time>
</trkpt>
<trkpt lat="37.56855552" lon="-1.10274182">
<ele>37</ele>
<time>2014-05-25T16:22:43Z</time>
</trkpt>
<trkpt lat="37.56855552" lon="-1.10274182">
<ele>37</ele>
<time>2014-05-25T16:22:45Z</time>
</trkpt>
<trkpt lat="37.56856138" lon="-1.1027366">
<ele>34</ele>
<time>2014-05-25T16:22:47Z</time>
</trkpt>
<trkpt lat="37.56857178" lon="-1.10277107">
<ele>31</ele>
<time>2014-05-25T16:22:49Z</time>
</trkpt>
<trkpt lat="37.56858009" lon="-1.1027829">
<ele>31</ele>
<time>2014-05-25T16:22:51Z</time>
</trkpt>
<trkpt lat="37.56859277" lon="-1.1027861">
<ele>29</ele>
<time>2014-05-25T16:22:53Z</time>
</trkpt>
<trkpt lat="37.56859442" lon="-1.10280225">
<ele>27</ele>
<time>2014-05-25T16:22:55Z</time>
</trkpt>
<trkpt lat="37.56859892" lon="-1.10281453">
<ele>24</ele>
<time>2014-05-25T16:22:57Z</time>
</trkpt>
<trkpt lat="37.56859815" lon="-1.10281913">
<ele>23</ele>
<time>2014-05-25T16:22:59Z</time>
</trkpt>
<trkpt lat="37.56859841" lon="-1.10281832">
<ele>23</ele>
<time>2014-05-25T16:23:01Z</time>
</trkpt>
<trkpt lat="37.56859871" lon="-1.10281865">
<ele>23</ele>
<time>2014-05-25T16:23:03Z</time>
</trkpt>
<trkpt lat="37.56859893" lon="-1.102815">
<ele>23</ele>
<time>2014-05-25T16:23:05Z</time>
</trkpt>
<trkpt lat="37.56859884" lon="-1.10281503">
<ele>23</ele>
<time>2014-05-25T16:23:07Z</time>
</trkpt>
<trkpt lat="37.56859889" lon="-1.10281495">
<ele>23</ele>
<time>2014-05-25T16:23:09Z</time>
</trkpt>
<trkpt lat="37.56859902" lon="-1.10281477">
<ele>23</ele>
<time>2014-05-25T16:23:11Z</time>
</trkpt>
<trkpt lat="37.56859947" lon="-1.10281412">
<ele>23</ele>
<time>2014-05-25T16:23:13Z</time>
</trkpt>
<trkpt lat="37.5685993" lon="-1.10281426">
<ele>23</ele>
<time>2014-05-25T16:23:15Z</time>
</trkpt>
<trkpt lat="37.5685994" lon="-1.10281411">
<ele>23</ele>
<time>2014-05-25T16:23:17Z</time>
</trkpt>
<trkpt lat="37.56859951" lon="-1.10281378">
<ele>23</ele>
<time>2014-05-25T16:23:19Z</time>
</trkpt>
<trkpt lat="37.56859928" lon="-1.10281367">
<ele>23</ele>
<time>2014-05-25T16:23:21Z</time>
</trkpt>
<trkpt lat="37.56859899" lon="-1.10281353">
<ele>23</ele>
<time>2014-05-25T16:23:23Z</time>
</trkpt>
<trkpt lat="37.56859866" lon="-1.10281358">
<ele>23</ele>
<time>2014-05-25T16:23:25Z</time>
</trkpt>
<trkpt lat="37.56859863" lon="-1.10281335">
<ele>23</ele>
<time>2014-05-25T16:23:27Z</time>
</trkpt>
<trkpt lat="37.5685987" lon="-1.10281271">
<ele>23</ele>
<time>2014-05-25T16:23:29Z</time>
</trkpt>
<trkpt lat="37.56859828" lon="-1.10281272">
<ele>23</ele>
<time>2014-05-25T16:23:31Z</time>
</trkpt>
<trkpt lat="37.56859827" lon="-1.10281269">
<ele>23</ele>
<time>2014-05-25T16:23:33Z</time>
</trkpt>
<trkpt lat="37.56859847" lon="-1.10281264">
<ele>23</ele>
<time>2014-05-25T16:23:35Z</time>
</trkpt>
<trkpt lat="37.56859832" lon="-1.10281282">
<ele>23</ele>
<time>2014-05-25T16:23:37Z</time>
</trkpt>
<trkpt lat="37.56859836" lon="-1.10281286">
<ele>23</ele>
<time>2014-05-25T16:23:39Z</time>
</trkpt>
<trkpt lat="37.56859839" lon="-1.10281197">
<ele>23</ele>
<time>2014-05-25T16:23:41Z</time>
</trkpt>
<trkpt lat="37.56859851" lon="-1.10281183">
<ele>23</ele>
<time>2014-05-25T16:23:43Z</time>
</trkpt>
<trkpt lat="37.56859795" lon="-1.10281087">
<ele>23</ele>
<time>2014-05-25T16:23:45Z</time>
</trkpt>
<trkpt lat="37.56859712" lon="-1.10280852">
<ele>24</ele>
<time>2014-05-25T16:23:47Z</time>
</trkpt>
<trkpt lat="37.5685963" lon="-1.10280587">
<ele>24</ele>
<time>2014-05-25T16:23:49Z</time>
</trkpt>
<trkpt lat="37.56859583" lon="-1.10280446">
<ele>25</ele>
<time>2014-05-25T16:23:51Z</time>
</trkpt>
<trkpt lat="37.56859555" lon="-1.10280252">
<ele>25</ele>
<time>2014-05-25T16:23:53Z</time>
</trkpt>
<trkpt lat="37.56856818" lon="-1.10275075">
<ele>25</ele>
<time>2014-05-25T16:23:55Z</time>
</trkpt>
<trkpt lat="37.56856856" lon="-1.10274358">
<ele>24</ele>
<time>2014-05-25T16:23:57Z</time>
</trkpt>
<trkpt lat="37.5686042" lon="-1.10274073">
<ele>25</ele>
<time>2014-05-25T16:23:59Z</time>
</trkpt>
<trkpt lat="37.56857869" lon="-1.10273551">
<ele>25</ele>
<time>2014-05-25T16:24:01Z</time>
</trkpt>
<trkpt lat="37.56858578" lon="-1.10273213">
<ele>23</ele>
<time>2014-05-25T16:24:03Z</time>
</trkpt>
<trkpt lat="37.5685639" lon="-1.10274143">
<ele>21</ele>
<time>2014-05-25T16:24:05Z</time>
</trkpt>
<trkpt lat="37.56855859" lon="-1.10275055">
<ele>19</ele>
<time>2014-05-25T16:24:07Z</time>
</trkpt>
<trkpt lat="37.56856134" lon="-1.10275542">
<ele>19</ele>
<time>2014-05-25T16:24:09Z</time>
</trkpt>
<trkpt lat="37.56855948" lon="-1.10275436">
<ele>18</ele>
<time>2014-05-25T16:24:11Z</time>
</trkpt>
<trkpt lat="37.56855956" lon="-1.1027543">
<ele>19</ele>
<time>2014-05-25T16:24:13Z</time>
</trkpt>
<trkpt lat="37.56855965" lon="-1.10275566">
<ele>18</ele>
<time>2014-05-25T16:24:15Z</time>
</trkpt>
<trkpt lat="37.56856007" lon="-1.1027549">
<ele>19</ele>
<time>2014-05-25T16:24:17Z</time>
</trkpt>
<trkpt lat="37.56856034" lon="-1.10275495">
<ele>19</ele>
<time>2014-05-25T16:24:19Z</time>
</trkpt>
<trkpt lat="37.56856049" lon="-1.10275503">
<ele>19</ele>
<time>2014-05-25T16:24:21Z</time>
</trkpt>
<trkpt lat="37.56856047" lon="-1.10275514">
<ele>19</ele>
<time>2014-05-25T16:24:23Z</time>
</trkpt>
<trkpt lat="37.56856088" lon="-1.10275571">
<ele>19</ele>
<time>2014-05-25T16:24:25Z</time>
</trkpt>
<trkpt lat="37.56856118" lon="-1.10275578">
<ele>19</ele>
<time>2014-05-25T16:24:27Z</time>
</trkpt>
<trkpt lat="37.56856152" lon="-1.10275591">
<ele>19</ele>
<time>2014-05-25T16:24:29Z</time>
</trkpt>
<trkpt lat="37.56856156" lon="-1.10275592">
<ele>19</ele>
<time>2014-05-25T16:24:31Z</time>
</trkpt>
<trkpt lat="37.56856167" lon="-1.1027559">
<ele>19</ele>
<time>2014-05-25T16:24:33Z</time>
</trkpt>
<trkpt lat="37.56856192" lon="-1.10275603">
<ele>19</ele>
<time>2014-05-25T16:24:35Z</time>
</trkpt>
<trkpt lat="37.56856213" lon="-1.10275604">
<ele>19</ele>
<time>2014-05-25T16:24:37Z</time>
</trkpt>
<trkpt lat="37.56856249" lon="-1.10275628">
<ele>19</ele>
<time>2014-05-25T16:24:39Z</time>
</trkpt>
<trkpt lat="37.56856269" lon="-1.1027564">
<ele>19</ele>
<time>2014-05-25T16:24:41Z</time>
</trkpt>
<trkpt lat="37.56860401" lon="-1.10279636">
<ele>25</ele>
<time>2014-05-25T16:24:43Z</time>
</trkpt>
<trkpt lat="37.56860841" lon="-1.10279055">
<ele>29</ele>
<time>2014-05-25T16:24:45Z</time>
</trkpt>
<trkpt lat="37.56861242" lon="-1.10280126">
<ele>32</ele>
<time>2014-05-25T16:24:47Z</time>
</trkpt>
<trkpt lat="37.56860704" lon="-1.10279902">
<ele>31</ele>
<time>2014-05-25T16:24:49Z</time>
</trkpt>
<trkpt lat="37.56860708" lon="-1.10280121">
<ele>32</ele>
<time>2014-05-25T16:24:51Z</time>
</trkpt>
<trkpt lat="37.56860824" lon="-1.10280448">
<ele>33</ele>
<time>2014-05-25T16:24:53Z</time>
</trkpt>
<trkpt lat="37.56860763" lon="-1.10280413">
<ele>33</ele>
<time>2014-05-25T16:24:55Z</time>
</trkpt>
<trkpt lat="37.56859982" lon="-1.10280485">
<ele>32</ele>
<time>2014-05-25T16:24:57Z</time>
</trkpt>
<trkpt lat="37.56859543" lon="-1.10280755">
<ele>32</ele>
<time>2014-05-25T16:24:59Z</time>
</trkpt>
<trkpt lat="37.5685946" lon="-1.10280785">
<ele>32</ele>
<time>2014-05-25T16:25:01Z</time>
</trkpt>
<trkpt lat="37.5685929" lon="-1.1028063">
<ele>32</ele>
<time>2014-05-25T16:25:03Z</time>
</trkpt>
<trkpt lat="37.56858403" lon="-1.10279904">
<ele>35</ele>
<time>2014-05-25T16:25:05Z</time>
</trkpt>
<trkpt lat="37.56858432" lon="-1.10280203">
<ele>33</ele>
<time>2014-05-25T16:25:07Z</time>
</trkpt>
<trkpt lat="37.56858446" lon="-1.10280376">
<ele>33</ele>
<time>2014-05-25T16:25:09Z</time>
</trkpt>
<trkpt lat="37.56858446" lon="-1.10280374">
<ele>33</ele>
<time>2014-05-25T16:25:11Z</time>
</trkpt>
<trkpt lat="37.56858444" lon="-1.10280372">
<ele>33</ele>
<time>2014-05-25T16:25:13Z</time>
</trkpt>
<trkpt lat="37.5685785" lon="-1.10280027">
<ele>33</ele>
<time>2014-05-25T16:25:15Z</time>
</trkpt>
<trkpt lat="37.56856293" lon="-1.10279399">
<ele>33</ele>
<time>2014-05-25T16:25:17Z</time>
</trkpt>
<trkpt lat="37.56853602" lon="-1.10278804">
<ele>33</ele>
<time>2014-05-25T16:25:19Z</time>
</trkpt>
<trkpt lat="37.56851811" lon="-1.10278973">
<ele>35</ele>
<time>2014-05-25T16:25:21Z</time>
</trkpt>
<trkpt lat="37.56850059" lon="-1.10279343">
<ele>35</ele>
<time>2014-05-25T16:25:23Z</time>
</trkpt>
<trkpt lat="37.56849744" lon="-1.1027909">
<ele>36</ele>
<time>2014-05-25T16:25:25Z</time>
</trkpt>
<trkpt lat="37.56852083" lon="-1.10278804">
<ele>36</ele>
<time>2014-05-25T16:25:27Z</time>
</trkpt>
<trkpt lat="37.56852811" lon="-1.10278747">
<ele>36</ele>
<time>2014-05-25T16:25:29Z</time>
</trkpt>
<trkpt lat="37.56852609" lon="-1.10278582">
<ele>37</ele>
<time>2014-05-25T16:25:31Z</time>
</trkpt>
<trkpt lat="37.56852479" lon="-1.10278403">
<ele>36</ele>
<time>2014-05-25T16:25:33Z</time>
</trkpt>
<trkpt lat="37.56852414" lon="-1.10277916">
<ele>36</ele>
<time>2014-05-25T16:25:35Z</time>
</trkpt>
<trkpt lat="37.56852222" lon="-1.10277689">
<ele>36</ele>
<time>2014-05-25T16:25:37Z</time>
</trkpt>
<trkpt lat="37.56852058" lon="-1.10277617">
<ele>36</ele>
<time>2014-05-25T16:25:39Z</time>
</trkpt>
<trkpt lat="37.56851865" lon="-1.10277614">
<ele>36</ele>
<time>2014-05-25T16:25:41Z</time>
</trkpt>
<trkpt lat="37.5685003" lon="-1.10276534">
<ele>37</ele>
<time>2014-05-25T16:25:43Z</time>
</trkpt>
<trkpt lat="37.56848457" lon="-1.10274784">
<ele>37</ele>
<time>2014-05-25T16:25:45Z</time>
</trkpt>
<trkpt lat="37.56845896" lon="-1.10273429">
<ele>38</ele>
<time>2014-05-25T16:25:47Z</time>
</trkpt>
<trkpt lat="37.56842648" lon="-1.10272219">
<ele>39</ele>
<time>2014-05-25T16:25:49Z</time>
</trkpt>
<trkpt lat="37.56839326" lon="-1.10271584">
<ele>40</ele>
<time>2014-05-25T16:25:51Z</time>
</trkpt>
<trkpt lat="37.56836997" lon="-1.1027128">
<ele>41</ele>
<time>2014-05-25T16:25:53Z</time>
</trkpt>
<trkpt lat="37.56834901" lon="-1.10271067">
<ele>41</ele>
<time>2014-05-25T16:25:55Z</time>
</trkpt>
<trkpt lat="37.56833293" lon="-1.10270626">
<ele>42</ele>
<time>2014-05-25T16:25:57Z</time>
</trkpt>
<trkpt lat="37.56832237" lon="-1.10269512">
<ele>44</ele>
<time>2014-05-25T16:25:59Z</time>
</trkpt>
<trkpt lat="37.56830969" lon="-1.10268363">
<ele>45</ele>
<time>2014-05-25T16:26:01Z</time>
</trkpt>
<trkpt lat="37.56829907" lon="-1.10267386">
<ele>45</ele>
<time>2014-05-25T16:26:03Z</time>
</trkpt>
<trkpt lat="37.56829072" lon="-1.10266238">
<ele>44</ele>
<time>2014-05-25T16:26:05Z</time>
</trkpt>
<trkpt lat="37.56829014" lon="-1.10265565">
<ele>45</ele>
<time>2014-05-25T16:26:07Z</time>
</trkpt>
<trkpt lat="37.56828913" lon="-1.10265343">
<ele>45</ele>
<time>2014-05-25T16:26:09Z</time>
</trkpt>
<trkpt lat="37.56827953" lon="-1.10265645">
<ele>45</ele>
<time>2014-05-25T16:26:11Z</time>
</trkpt>
<trkpt lat="37.56826837" lon="-1.1026605">
<ele>45</ele>
<time>2014-05-25T16:26:13Z</time>
</trkpt>
<trkpt lat="37.5682519" lon="-1.10266591">
<ele>46</ele>
<time>2014-05-25T16:26:15Z</time>
</trkpt>
<trkpt lat="37.56823225" lon="-1.10266049">
<ele>46</ele>
<time>2014-05-25T16:26:17Z</time>
</trkpt>
<trkpt lat="37.56821591" lon="-1.10264713">
<ele>46</ele>
<time>2014-05-25T16:26:19Z</time>
</trkpt>
<trkpt lat="37.56819401" lon="-1.102624">
<ele>46</ele>
<time>2014-05-25T16:26:21Z</time>
</trkpt>
<trkpt lat="37.56816903" lon="-1.10260757">
<ele>46</ele>
<time>2014-05-25T16:26:23Z</time>
</trkpt>
<trkpt lat="37.56814133" lon="-1.10258487">
<ele>46</ele>
<time>2014-05-25T16:26:25Z</time>
</trkpt>
<trkpt lat="37.56811116" lon="-1.10256265">
<ele>47</ele>
<time>2014-05-25T16:26:27Z</time>
</trkpt>
<trkpt lat="37.56807924" lon="-1.10254524">
<ele>48</ele>
<time>2014-05-25T16:26:29Z</time>
</trkpt>
<trkpt lat="37.56805598" lon="-1.10253251">
<ele>48</ele>
<time>2014-05-25T16:26:31Z</time>
</trkpt>
<trkpt lat="37.56803105" lon="-1.10251791">
<ele>48</ele>
<time>2014-05-25T16:26:33Z</time>
</trkpt>
<trkpt lat="37.56800373" lon="-1.1025035">
<ele>49</ele>
<time>2014-05-25T16:26:35Z</time>
</trkpt>
<trkpt lat="37.56797074" lon="-1.10248783">
<ele>48</ele>
<time>2014-05-25T16:26:37Z</time>
</trkpt>
<trkpt lat="37.56794068" lon="-1.10246723">
<ele>47</ele>
<time>2014-05-25T16:26:39Z</time>
</trkpt>
<trkpt lat="37.56791888" lon="-1.10244937">
<ele>46</ele>
<time>2014-05-25T16:26:41Z</time>
</trkpt>
<trkpt lat="37.56789957" lon="-1.10242668">
<ele>47</ele>
<time>2014-05-25T16:26:43Z</time>
</trkpt>
<trkpt lat="37.56788208" lon="-1.10240083">
<ele>48</ele>
<time>2014-05-25T16:26:45Z</time>
</trkpt>
<trkpt lat="37.56786119" lon="-1.10237523">
<ele>48</ele>
<time>2014-05-25T16:26:47Z</time>
</trkpt>
<trkpt lat="37.56783185" lon="-1.10235111">
<ele>47</ele>
<time>2014-05-25T16:26:49Z</time>
</trkpt>
<trkpt lat="37.56780814" lon="-1.10232584">
<ele>48</ele>
<time>2014-05-25T16:26:51Z</time>
</trkpt>
<trkpt lat="37.56778519" lon="-1.10229814">
<ele>48</ele>
<time>2014-05-25T16:26:53Z</time>
</trkpt>
<trkpt lat="37.56776359" lon="-1.102265">
<ele>48</ele>
<time>2014-05-25T16:26:55Z</time>
</trkpt>
<trkpt lat="37.56774113" lon="-1.10223215">
<ele>47</ele>
<time>2014-05-25T16:26:57Z</time>
</trkpt>
<trkpt lat="37.56769901" lon="-1.10219808">
<ele>49</ele>
<time>2014-05-25T16:26:59Z</time>
</trkpt>
<trkpt lat="37.56766217" lon="-1.10216556">
<ele>49</ele>
<time>2014-05-25T16:27:01Z</time>
</trkpt>
<trkpt lat="37.5676283" lon="-1.10213325">
<ele>49</ele>
<time>2014-05-25T16:27:03Z</time>
</trkpt>
<trkpt lat="37.56760093" lon="-1.10210108">
<ele>48</ele>
<time>2014-05-25T16:27:05Z</time>
</trkpt>
<trkpt lat="37.56757277" lon="-1.10207102">
<ele>48</ele>
<time>2014-05-25T16:27:07Z</time>
</trkpt>
<trkpt lat="37.56754665" lon="-1.10204234">
<ele>48</ele>
<time>2014-05-25T16:27:09Z</time>
</trkpt>
<trkpt lat="37.56751862" lon="-1.10201635">
<ele>49</ele>
<time>2014-05-25T16:27:11Z</time>
</trkpt>
<trkpt lat="37.56749911" lon="-1.10198969">
<ele>49</ele>
<time>2014-05-25T16:27:13Z</time>
</trkpt>
<trkpt lat="37.56748553" lon="-1.10196388">
<ele>48</ele>
<time>2014-05-25T16:27:15Z</time>
</trkpt>
<trkpt lat="37.56748126" lon="-1.10193161">
<ele>48</ele>
<time>2014-05-25T16:27:17Z</time>
</trkpt>
<trkpt lat="37.56747911" lon="-1.1018947">
<ele>47</ele>
<time>2014-05-25T16:27:19Z</time>
</trkpt>
<trkpt lat="37.56748026" lon="-1.10184346">
<ele>48</ele>
<time>2014-05-25T16:27:21Z</time>
</trkpt>
<trkpt lat="37.56748203" lon="-1.10179256">
<ele>47</ele>
<time>2014-05-25T16:27:23Z</time>
</trkpt>
<trkpt lat="37.56749263" lon="-1.10174464">
<ele>47</ele>
<time>2014-05-25T16:27:25Z</time>
</trkpt>
<trkpt lat="37.567505" lon="-1.10170383">
<ele>48</ele>
<time>2014-05-25T16:27:27Z</time>
</trkpt>
<trkpt lat="37.5675086" lon="-1.10165981">
<ele>48</ele>
<time>2014-05-25T16:27:29Z</time>
</trkpt>
<trkpt lat="37.56751053" lon="-1.10161569">
<ele>47</ele>
<time>2014-05-25T16:27:31Z</time>
</trkpt>
<trkpt lat="37.56751346" lon="-1.1015663">
<ele>47</ele>
<time>2014-05-25T16:27:33Z</time>
</trkpt>
<trkpt lat="37.56751686" lon="-1.10151249">
<ele>47</ele>
<time>2014-05-25T16:27:35Z</time>
</trkpt>
<trkpt lat="37.56752457" lon="-1.10146046">
<ele>46</ele>
<time>2014-05-25T16:27:37Z</time>
</trkpt>
<trkpt lat="37.56752971" lon="-1.10140804">
<ele>47</ele>
<time>2014-05-25T16:27:39Z</time>
</trkpt>
<trkpt lat="37.56753755" lon="-1.10135961">
<ele>46</ele>
<time>2014-05-25T16:27:41Z</time>
</trkpt>
<trkpt lat="37.56754296" lon="-1.10131188">
<ele>47</ele>
<time>2014-05-25T16:27:43Z</time>
</trkpt>
<trkpt lat="37.56754329" lon="-1.10126027">
<ele>47</ele>
<time>2014-05-25T16:27:45Z</time>
</trkpt>
<trkpt lat="37.56754301" lon="-1.10121019">
<ele>47</ele>
<time>2014-05-25T16:27:47Z</time>
</trkpt>
<trkpt lat="37.56753715" lon="-1.1011596">
<ele>47</ele>
<time>2014-05-25T16:27:49Z</time>
</trkpt>
<trkpt lat="37.56753576" lon="-1.10111651">
<ele>47</ele>
<time>2014-05-25T16:27:51Z</time>
</trkpt>
<trkpt lat="37.56753761" lon="-1.10106914">
<ele>47</ele>
<time>2014-05-25T16:27:53Z</time>
</trkpt>
<trkpt lat="37.56753718" lon="-1.10102889">
<ele>48</ele>
<time>2014-05-25T16:27:55Z</time>
</trkpt>
<trkpt lat="37.56753213" lon="-1.10097759">
<ele>47</ele>
<time>2014-05-25T16:27:57Z</time>
</trkpt>
<trkpt lat="37.5675263" lon="-1.10093526">
<ele>48</ele>
<time>2014-05-25T16:27:59Z</time>
</trkpt>
<trkpt lat="37.56752286" lon="-1.1008915">
<ele>47</ele>
<time>2014-05-25T16:28:01Z</time>
</trkpt>
<trkpt lat="37.56752305" lon="-1.10084673">
<ele>48</ele>
<time>2014-05-25T16:28:03Z</time>
</trkpt>
<trkpt lat="37.56753526" lon="-1.10082216">
<ele>47</ele>
<time>2014-05-25T16:28:05Z</time>
</trkpt>
<trkpt lat="37.56754699" lon="-1.10078289">
<ele>48</ele>
<time>2014-05-25T16:28:07Z</time>
</trkpt>
<trkpt lat="37.56755867" lon="-1.10074426">
<ele>48</ele>
<time>2014-05-25T16:28:09Z</time>
</trkpt>
<trkpt lat="37.56757027" lon="-1.10070914">
<ele>47</ele>
<time>2014-05-25T16:28:11Z</time>
</trkpt>
<trkpt lat="37.56757298" lon="-1.10066753">
<ele>47</ele>
<time>2014-05-25T16:28:13Z</time>
</trkpt>
<trkpt lat="37.56757851" lon="-1.10062054">
<ele>47</ele>
<time>2014-05-25T16:28:15Z</time>
</trkpt>
<trkpt lat="37.5675824" lon="-1.10057541">
<ele>46</ele>
<time>2014-05-25T16:28:17Z</time>
</trkpt>
<trkpt lat="37.56758714" lon="-1.10053271">
<ele>46</ele>
<time>2014-05-25T16:28:19Z</time>
</trkpt>
<trkpt lat="37.5675903" lon="-1.10049926">
<ele>46</ele>
<time>2014-05-25T16:28:21Z</time>
</trkpt>
<trkpt lat="37.56759189" lon="-1.10046146">
<ele>47</ele>
<time>2014-05-25T16:28:23Z</time>
</trkpt>
<trkpt lat="37.56759648" lon="-1.10041802">
<ele>49</ele>
<time>2014-05-25T16:28:25Z</time>
</trkpt>
<trkpt lat="37.56760555" lon="-1.10037497">
<ele>49</ele>
<time>2014-05-25T16:28:27Z</time>
</trkpt>
<trkpt lat="37.5676199" lon="-1.10032969">
<ele>49</ele>
<time>2014-05-25T16:28:29Z</time>
</trkpt>
<trkpt lat="37.56763354" lon="-1.10028348">
<ele>49</ele>
<time>2014-05-25T16:28:31Z</time>
</trkpt>
<trkpt lat="37.56764178" lon="-1.10023032">
<ele>48</ele>
<time>2014-05-25T16:28:33Z</time>
</trkpt>
<trkpt lat="37.56764673" lon="-1.10018582">
<ele>50</ele>
<time>2014-05-25T16:28:35Z</time>
</trkpt>
<trkpt lat="37.56764866" lon="-1.10013798">
<ele>50</ele>
<time>2014-05-25T16:28:37Z</time>
</trkpt>
<trkpt lat="37.56764375" lon="-1.10009231">
<ele>50</ele>
<time>2014-05-25T16:28:39Z</time>
</trkpt>
<trkpt lat="37.56763902" lon="-1.10004438">
<ele>50</ele>
<time>2014-05-25T16:28:41Z</time>
</trkpt>
<trkpt lat="37.5676366" lon="-1.0999982">
<ele>50</ele>
<time>2014-05-25T16:28:43Z</time>
</trkpt>
<trkpt lat="37.56763608" lon="-1.09996551">
<ele>51</ele>
<time>2014-05-25T16:28:45Z</time>
</trkpt>
<trkpt lat="37.56764108" lon="-1.0999323">
<ele>50</ele>
<time>2014-05-25T16:28:47Z</time>
</trkpt>
<trkpt lat="37.5676554" lon="-1.09990428">
<ele>50</ele>
<time>2014-05-25T16:28:49Z</time>
</trkpt>
<trkpt lat="37.56766575" lon="-1.09988134">
<ele>50</ele>
<time>2014-05-25T16:28:51Z</time>
</trkpt>
<trkpt lat="37.5676807" lon="-1.09985454">
<ele>50</ele>
<time>2014-05-25T16:28:53Z</time>
</trkpt>
<trkpt lat="37.56768866" lon="-1.09982359">
<ele>50</ele>
<time>2014-05-25T16:28:55Z</time>
</trkpt>
<trkpt lat="37.56769654" lon="-1.09978617">
<ele>50</ele>
<time>2014-05-25T16:28:57Z</time>
</trkpt>
<trkpt lat="37.56771638" lon="-1.09974737">
<ele>50</ele>
<time>2014-05-25T16:28:59Z</time>
</trkpt>
<trkpt lat="37.56773353" lon="-1.09970429">
<ele>50</ele>
<time>2014-05-25T16:29:01Z</time>
</trkpt>
<trkpt lat="37.56774679" lon="-1.09966487">
<ele>51</ele>
<time>2014-05-25T16:29:03Z</time>
</trkpt>
<trkpt lat="37.56775671" lon="-1.09962298">
<ele>51</ele>
<time>2014-05-25T16:29:05Z</time>
</trkpt>
<trkpt lat="37.56776699" lon="-1.09959728">
<ele>51</ele>
<time>2014-05-25T16:29:07Z</time>
</trkpt>
<trkpt lat="37.56776962" lon="-1.0995633">
<ele>52</ele>
<time>2014-05-25T16:29:09Z</time>
</trkpt>
<trkpt lat="37.56776793" lon="-1.09953062">
<ele>52</ele>
<time>2014-05-25T16:29:11Z</time>
</trkpt>
<trkpt lat="37.56775816" lon="-1.09949114">
<ele>52</ele>
<time>2014-05-25T16:29:13Z</time>
</trkpt>
<trkpt lat="37.56775277" lon="-1.09944149">
<ele>52</ele>
<time>2014-05-25T16:29:15Z</time>
</trkpt>
<trkpt lat="37.56774958" lon="-1.09939099">
<ele>52</ele>
<time>2014-05-25T16:29:17Z</time>
</trkpt>
<trkpt lat="37.56775197" lon="-1.09933798">
<ele>51</ele>
<time>2014-05-25T16:29:19Z</time>
</trkpt>
<trkpt lat="37.56775285" lon="-1.09929548">
<ele>51</ele>
<time>2014-05-25T16:29:21Z</time>
</trkpt>
<trkpt lat="37.56775271" lon="-1.09924977">
<ele>51</ele>
<time>2014-05-25T16:29:23Z</time>
</trkpt>
<trkpt lat="37.56775891" lon="-1.09919906">
<ele>50</ele>
<time>2014-05-25T16:29:25Z</time>
</trkpt>
<trkpt lat="37.56776869" lon="-1.09914876">
<ele>51</ele>
<time>2014-05-25T16:29:27Z</time>
</trkpt>
<trkpt lat="37.56777665" lon="-1.09910652">
<ele>50</ele>
<time>2014-05-25T16:29:29Z</time>
</trkpt>
<trkpt lat="37.56778319" lon="-1.09907396">
<ele>50</ele>
<time>2014-05-25T16:29:31Z</time>
</trkpt>
<trkpt lat="37.56778853" lon="-1.09903957">
<ele>51</ele>
<time>2014-05-25T16:29:33Z</time>
</trkpt>
<trkpt lat="37.56779612" lon="-1.09901248">
<ele>51</ele>
<time>2014-05-25T16:29:35Z</time>
</trkpt>
<trkpt lat="37.56780007" lon="-1.0989822">
<ele>52</ele>
<time>2014-05-25T16:29:37Z</time>
</trkpt>
<trkpt lat="37.56781015" lon="-1.09894343">
<ele>52</ele>
<time>2014-05-25T16:29:39Z</time>
</trkpt>
<trkpt lat="37.56782361" lon="-1.09889297">
<ele>52</ele>
<time>2014-05-25T16:29:41Z</time>
</trkpt>
<trkpt lat="37.5678357" lon="-1.09883952">
<ele>52</ele>
<time>2014-05-25T16:29:43Z</time>
</trkpt>
<trkpt lat="37.56784408" lon="-1.09879039">
<ele>51</ele>
<time>2014-05-25T16:29:45Z</time>
</trkpt>
<trkpt lat="37.5678485" lon="-1.09874551">
<ele>52</ele>
<time>2014-05-25T16:29:47Z</time>
</trkpt>
<trkpt lat="37.56785254" lon="-1.09869673">
<ele>51</ele>
<time>2014-05-25T16:29:49Z</time>
</trkpt>
<trkpt lat="37.56785852" lon="-1.09864412">
<ele>52</ele>
<time>2014-05-25T16:29:51Z</time>
</trkpt>
<trkpt lat="37.5678722" lon="-1.09859801">
<ele>52</ele>
<time>2014-05-25T16:29:53Z</time>
</trkpt>
<trkpt lat="37.56788503" lon="-1.09854619">
<ele>52</ele>
<time>2014-05-25T16:29:55Z</time>
</trkpt>
<trkpt lat="37.56790008" lon="-1.09850568">
<ele>51</ele>
<time>2014-05-25T16:29:57Z</time>
</trkpt>
<trkpt lat="37.56791538" lon="-1.09847056">
<ele>51</ele>
<time>2014-05-25T16:29:59Z</time>
</trkpt>
<trkpt lat="37.56793611" lon="-1.09843326">
<ele>51</ele>
<time>2014-05-25T16:30:01Z</time>
</trkpt>
<trkpt lat="37.56795064" lon="-1.09838568">
<ele>51</ele>
<time>2014-05-25T16:30:03Z</time>
</trkpt>
<trkpt lat="37.56796011" lon="-1.0983422">
<ele>50</ele>
<time>2014-05-25T16:30:05Z</time>
</trkpt>
<trkpt lat="37.56796232" lon="-1.09829699">
<ele>51</ele>
<time>2014-05-25T16:30:07Z</time>
</trkpt>
<trkpt lat="37.56796394" lon="-1.09826036">
<ele>51</ele>
<time>2014-05-25T16:30:09Z</time>
</trkpt>
<trkpt lat="37.5679603" lon="-1.09821678">
<ele>52</ele>
<time>2014-05-25T16:30:11Z</time>
</trkpt>
<trkpt lat="37.56796168" lon="-1.09816563">
<ele>51</ele>
<time>2014-05-25T16:30:13Z</time>
</trkpt>
<trkpt lat="37.56796378" lon="-1.09812057">
<ele>50</ele>
<time>2014-05-25T16:30:15Z</time>
</trkpt>
<trkpt lat="37.56795974" lon="-1.09807396">
<ele>50</ele>
<time>2014-05-25T16:30:17Z</time>
</trkpt>
<trkpt lat="37.56796201" lon="-1.09802719">
<ele>49</ele>
<time>2014-05-25T16:30:19Z</time>
</trkpt>
<trkpt lat="37.56796738" lon="-1.09798209">
<ele>49</ele>
<time>2014-05-25T16:30:21Z</time>
</trkpt>
<trkpt lat="37.56797249" lon="-1.09794652">
<ele>49</ele>
<time>2014-05-25T16:30:23Z</time>
</trkpt>
<trkpt lat="37.56798503" lon="-1.09790639">
<ele>49</ele>
<time>2014-05-25T16:30:25Z</time>
</trkpt>
<trkpt lat="37.56800672" lon="-1.09787431">
<ele>49</ele>
<time>2014-05-25T16:30:27Z</time>
</trkpt>
<trkpt lat="37.56802397" lon="-1.0978432">
<ele>50</ele>
<time>2014-05-25T16:30:29Z</time>
</trkpt>
<trkpt lat="37.56803037" lon="-1.09781627">
<ele>51</ele>
<time>2014-05-25T16:30:31Z</time>
</trkpt>
<trkpt lat="37.56803798" lon="-1.09779713">
<ele>50</ele>
<time>2014-05-25T16:30:33Z</time>
</trkpt>
<trkpt lat="37.56804197" lon="-1.0977646">
<ele>50</ele>
<time>2014-05-25T16:30:35Z</time>
</trkpt>
<trkpt lat="37.56805448" lon="-1.09772494">
<ele>51</ele>
<time>2014-05-25T16:30:37Z</time>
</trkpt>
<trkpt lat="37.56805323" lon="-1.09768339">
<ele>52</ele>
<time>2014-05-25T16:30:39Z</time>
</trkpt>
<trkpt lat="37.56805681" lon="-1.09763727">
<ele>52</ele>
<time>2014-05-25T16:30:41Z</time>
</trkpt>
<trkpt lat="37.56806432" lon="-1.09759229">
<ele>53</ele>
<time>2014-05-25T16:30:43Z</time>
</trkpt>
<trkpt lat="37.5680746" lon="-1.09754828">
<ele>53</ele>
<time>2014-05-25T16:30:45Z</time>
</trkpt>
<trkpt lat="37.5680839" lon="-1.09750825">
<ele>54</ele>
<time>2014-05-25T16:30:47Z</time>
</trkpt>
<trkpt lat="37.56809609" lon="-1.09746654">
<ele>53</ele>
<time>2014-05-25T16:30:49Z</time>
</trkpt>
<trkpt lat="37.56810119" lon="-1.09742075">
<ele>54</ele>
<time>2014-05-25T16:30:51Z</time>
</trkpt>
<trkpt lat="37.56810082" lon="-1.09738354">
<ele>55</ele>
<time>2014-05-25T16:30:53Z</time>
</trkpt>
<trkpt lat="37.56810226" lon="-1.09735444">
<ele>54</ele>
<time>2014-05-25T16:30:55Z</time>
</trkpt>
<trkpt lat="37.56810916" lon="-1.0973216">
<ele>54</ele>
<time>2014-05-25T16:30:57Z</time>
</trkpt>
<trkpt lat="37.56811974" lon="-1.0972914">
<ele>54</ele>
<time>2014-05-25T16:30:59Z</time>
</trkpt>
<trkpt lat="37.56812915" lon="-1.09725931">
<ele>54</ele>
<time>2014-05-25T16:31:01Z</time>
</trkpt>
<trkpt lat="37.56813785" lon="-1.09722019">
<ele>54</ele>
<time>2014-05-25T16:31:03Z</time>
</trkpt>
<trkpt lat="37.56814581" lon="-1.09717994">
<ele>53</ele>
<time>2014-05-25T16:31:05Z</time>
</trkpt>
<trkpt lat="37.56815573" lon="-1.09713388">
<ele>52</ele>
<time>2014-05-25T16:31:07Z</time>
</trkpt>
<trkpt lat="37.56816195" lon="-1.09708664">
<ele>52</ele>
<time>2014-05-25T16:31:09Z</time>
</trkpt>
<trkpt lat="37.56817094" lon="-1.09704275">
<ele>52</ele>
<time>2014-05-25T16:31:11Z</time>
</trkpt>
<trkpt lat="37.56818218" lon="-1.09699743">
<ele>51</ele>
<time>2014-05-25T16:31:13Z</time>
</trkpt>
<trkpt lat="37.56818768" lon="-1.09695472">
<ele>52</ele>
<time>2014-05-25T16:31:15Z</time>
</trkpt>
<trkpt lat="37.56819507" lon="-1.09691535">
<ele>50</ele>
<time>2014-05-25T16:31:17Z</time>
</trkpt>
<trkpt lat="37.56819844" lon="-1.09687522">
<ele>51</ele>
<time>2014-05-25T16:31:19Z</time>
</trkpt>
<trkpt lat="37.56820708" lon="-1.09683448">
<ele>51</ele>
<time>2014-05-25T16:31:21Z</time>
</trkpt>
<trkpt lat="37.56822057" lon="-1.0967946">
<ele>51</ele>
<time>2014-05-25T16:31:23Z</time>
</trkpt>
<trkpt lat="37.56822619" lon="-1.09675978">
<ele>52</ele>
<time>2014-05-25T16:31:25Z</time>
</trkpt>
<trkpt lat="37.56823768" lon="-1.09672336">
<ele>53</ele>
<time>2014-05-25T16:31:27Z</time>
</trkpt>
<trkpt lat="37.56824937" lon="-1.09668845">
<ele>54</ele>
<time>2014-05-25T16:31:29Z</time>
</trkpt>
<trkpt lat="37.56826533" lon="-1.09664856">
<ele>54</ele>
<time>2014-05-25T16:31:31Z</time>
</trkpt>
<trkpt lat="37.5682838" lon="-1.09660566">
<ele>52</ele>
<time>2014-05-25T16:31:33Z</time>
</trkpt>
<trkpt lat="37.56829992" lon="-1.09655675">
<ele>50</ele>
<time>2014-05-25T16:31:35Z</time>
</trkpt>
<trkpt lat="37.56830436" lon="-1.0965135">
<ele>50</ele>
<time>2014-05-25T16:31:37Z</time>
</trkpt>
<trkpt lat="37.56830552" lon="-1.09647021">
<ele>49</ele>
<time>2014-05-25T16:31:39Z</time>
</trkpt>
<trkpt lat="37.56830673" lon="-1.09642355">
<ele>50</ele>
<time>2014-05-25T16:31:41Z</time>
</trkpt>
<trkpt lat="37.56830991" lon="-1.0963685">
<ele>50</ele>
<time>2014-05-25T16:31:43Z</time>
</trkpt>
<trkpt lat="37.56831861" lon="-1.09631687">
<ele>49</ele>
<time>2014-05-25T16:31:45Z</time>
</trkpt>
<trkpt lat="37.56832915" lon="-1.09627234">
<ele>49</ele>
<time>2014-05-25T16:31:47Z</time>
</trkpt>
<trkpt lat="37.56834231" lon="-1.09622925">
<ele>49</ele>
<time>2014-05-25T16:31:49Z</time>
</trkpt>
<trkpt lat="37.56835468" lon="-1.09618442">
<ele>49</ele>
<time>2014-05-25T16:31:51Z</time>
</trkpt>
<trkpt lat="37.56836399" lon="-1.09613741">
<ele>48</ele>
<time>2014-05-25T16:31:53Z</time>
</trkpt>
<trkpt lat="37.56837681" lon="-1.09609578">
<ele>49</ele>
<time>2014-05-25T16:31:55Z</time>
</trkpt>
<trkpt lat="37.56838818" lon="-1.09605842">
<ele>49</ele>
<time>2014-05-25T16:31:57Z</time>
</trkpt>
<trkpt lat="37.56840008" lon="-1.09602842">
<ele>48</ele>
<time>2014-05-25T16:31:59Z</time>
</trkpt>
<trkpt lat="37.56841636" lon="-1.09599542">
<ele>47</ele>
<time>2014-05-25T16:32:01Z</time>
</trkpt>
<trkpt lat="37.56843658" lon="-1.09596068">
<ele>47</ele>
<time>2014-05-25T16:32:03Z</time>
</trkpt>
<trkpt lat="37.56846121" lon="-1.09592516">
<ele>48</ele>
<time>2014-05-25T16:32:05Z</time>
</trkpt>
<trkpt lat="37.56848221" lon="-1.09589207">
<ele>47</ele>
<time>2014-05-25T16:32:07Z</time>
</trkpt>
<trkpt lat="37.56850197" lon="-1.0958612">
<ele>46</ele>
<time>2014-05-25T16:32:09Z</time>
</trkpt>
<trkpt lat="37.56852379" lon="-1.09582868">
<ele>46</ele>
<time>2014-05-25T16:32:11Z</time>
</trkpt>
<trkpt lat="37.56853313" lon="-1.09579674">
<ele>45</ele>
<time>2014-05-25T16:32:13Z</time>
</trkpt>
<trkpt lat="37.56854367" lon="-1.09576213">
<ele>45</ele>
<time>2014-05-25T16:32:15Z</time>
</trkpt>
<trkpt lat="37.56855214" lon="-1.09572348">
<ele>44</ele>
<time>2014-05-25T16:32:17Z</time>
</trkpt>
<trkpt lat="37.56856216" lon="-1.09568042">
<ele>44</ele>
<time>2014-05-25T16:32:19Z</time>
</trkpt>
<trkpt lat="37.56857374" lon="-1.09563976">
<ele>43</ele>
<time>2014-05-25T16:32:21Z</time>
</trkpt>
<trkpt lat="37.56858642" lon="-1.09559936">
<ele>42</ele>
<time>2014-05-25T16:32:23Z</time>
</trkpt>
<trkpt lat="37.56859502" lon="-1.09555649">
<ele>42</ele>
<time>2014-05-25T16:32:25Z</time>
</trkpt>
<trkpt lat="37.5686096" lon="-1.09551448">
<ele>42</ele>
<time>2014-05-25T16:32:27Z</time>
</trkpt>
<trkpt lat="37.56862931" lon="-1.09548007">
<ele>42</ele>
<time>2014-05-25T16:32:29Z</time>
</trkpt>
<trkpt lat="37.56863494" lon="-1.09544473">
<ele>43</ele>
<time>2014-05-25T16:32:31Z</time>
</trkpt>
<trkpt lat="37.56864146" lon="-1.09540544">
<ele>43</ele>
<time>2014-05-25T16:32:33Z</time>
</trkpt>
<trkpt lat="37.56865089" lon="-1.09536622">
<ele>43</ele>
<time>2014-05-25T16:32:35Z</time>
</trkpt>
<trkpt lat="37.56866397" lon="-1.09532552">
<ele>44</ele>
<time>2014-05-25T16:32:37Z</time>
</trkpt>
<trkpt lat="37.56868371" lon="-1.09528273">
<ele>43</ele>
<time>2014-05-25T16:32:39Z</time>
</trkpt>
<trkpt lat="37.56870808" lon="-1.0952431">
<ele>43</ele>
<time>2014-05-25T16:32:41Z</time>
</trkpt>
<trkpt lat="37.56873106" lon="-1.09520563">
<ele>43</ele>
<time>2014-05-25T16:32:43Z</time>
</trkpt>
<trkpt lat="37.5687519" lon="-1.09517195">
<ele>43</ele>
<time>2014-05-25T16:32:45Z</time>
</trkpt>
<trkpt lat="37.56877082" lon="-1.09513698">
<ele>44</ele>
<time>2014-05-25T16:32:47Z</time>
</trkpt>
<trkpt lat="37.56878536" lon="-1.09509895">
<ele>44</ele>
<time>2014-05-25T16:32:49Z</time>
</trkpt>
<trkpt lat="37.56879785" lon="-1.09505222">
<ele>44</ele>
<time>2014-05-25T16:32:51Z</time>
</trkpt>
<trkpt lat="37.56880785" lon="-1.09501747">
<ele>45</ele>
<time>2014-05-25T16:32:53Z</time>
</trkpt>
<trkpt lat="37.56881703" lon="-1.094985">
<ele>45</ele>
<time>2014-05-25T16:32:55Z</time>
</trkpt>
<trkpt lat="37.56883023" lon="-1.09495219">
<ele>45</ele>
<time>2014-05-25T16:32:57Z</time>
</trkpt>
<trkpt lat="37.56884408" lon="-1.0949171">
<ele>45</ele>
<time>2014-05-25T16:32:59Z</time>
</trkpt>
<trkpt lat="37.56886606" lon="-1.0948836">
<ele>45</ele>
<time>2014-05-25T16:33:01Z</time>
</trkpt>
<trkpt lat="37.56889215" lon="-1.09485259">
<ele>45</ele>
<time>2014-05-25T16:33:03Z</time>
</trkpt>
<trkpt lat="37.5689175" lon="-1.0948201">
<ele>44</ele>
<time>2014-05-25T16:33:05Z</time>
</trkpt>
<trkpt lat="37.56893956" lon="-1.09478463">
<ele>44</ele>
<time>2014-05-25T16:33:07Z</time>
</trkpt>
<trkpt lat="37.56895895" lon="-1.0947467">
<ele>45</ele>
<time>2014-05-25T16:33:09Z</time>
</trkpt>
<trkpt lat="37.56896804" lon="-1.09470311">
<ele>46</ele>
<time>2014-05-25T16:33:11Z</time>
</trkpt>
<trkpt lat="37.5689794" lon="-1.09466718">
<ele>46</ele>
<time>2014-05-25T16:33:13Z</time>
</trkpt>
<trkpt lat="37.56899307" lon="-1.09463905">
<ele>46</ele>
<time>2014-05-25T16:33:15Z</time>
</trkpt>
<trkpt lat="37.56901585" lon="-1.09460673">
<ele>45</ele>
<time>2014-05-25T16:33:17Z</time>
</trkpt>
<trkpt lat="37.56903086" lon="-1.09457775">
<ele>45</ele>
<time>2014-05-25T16:33:19Z</time>
</trkpt>
<trkpt lat="37.56904724" lon="-1.09453998">
<ele>45</ele>
<time>2014-05-25T16:33:21Z</time>
</trkpt>
<trkpt lat="37.56906153" lon="-1.09450679">
<ele>47</ele>
<time>2014-05-25T16:33:23Z</time>
</trkpt>
<trkpt lat="37.56907771" lon="-1.09446503">
<ele>46</ele>
<time>2014-05-25T16:33:25Z</time>
</trkpt>
<trkpt lat="37.56909483" lon="-1.09442922">
<ele>48</ele>
<time>2014-05-25T16:33:27Z</time>
</trkpt>
<trkpt lat="37.56911251" lon="-1.094396">
<ele>47</ele>
<time>2014-05-25T16:33:29Z</time>
</trkpt>
<trkpt lat="37.5691304" lon="-1.09436086">
<ele>48</ele>
<time>2014-05-25T16:33:31Z</time>
</trkpt>
<trkpt lat="37.56915208" lon="-1.09433544">
<ele>47</ele>
<time>2014-05-25T16:33:33Z</time>
</trkpt>
<trkpt lat="37.56917026" lon="-1.09430977">
<ele>49</ele>
<time>2014-05-25T16:33:35Z</time>
</trkpt>
<trkpt lat="37.56918904" lon="-1.09427855">
<ele>48</ele>
<time>2014-05-25T16:33:37Z</time>
</trkpt>
<trkpt lat="37.56920929" lon="-1.09425082">
<ele>49</ele>
<time>2014-05-25T16:33:39Z</time>
</trkpt>
<trkpt lat="37.56922973" lon="-1.09422394">
<ele>49</ele>
<time>2014-05-25T16:33:41Z</time>
</trkpt>
<trkpt lat="37.56925057" lon="-1.09418469">
<ele>49</ele>
<time>2014-05-25T16:33:43Z</time>
</trkpt>
<trkpt lat="37.5692661" lon="-1.09414479">
<ele>49</ele>
<time>2014-05-25T16:33:45Z</time>
</trkpt>
<trkpt lat="37.56928204" lon="-1.09409888">
<ele>50</ele>
<time>2014-05-25T16:33:47Z</time>
</trkpt>
<trkpt lat="37.56929899" lon="-1.09405942">
<ele>50</ele>
<time>2014-05-25T16:33:49Z</time>
</trkpt>
<trkpt lat="37.56930959" lon="-1.09402085">
<ele>51</ele>
<time>2014-05-25T16:33:51Z</time>
</trkpt>
<trkpt lat="37.569324" lon="-1.09398327">
<ele>51</ele>
<time>2014-05-25T16:33:53Z</time>
</trkpt>
<trkpt lat="37.56933423" lon="-1.09395116">
<ele>52</ele>
<time>2014-05-25T16:33:55Z</time>
</trkpt>
<trkpt lat="37.56934675" lon="-1.09392128">
<ele>52</ele>
<time>2014-05-25T16:33:57Z</time>
</trkpt>
<trkpt lat="37.56936053" lon="-1.09388326">
<ele>53</ele>
<time>2014-05-25T16:33:59Z</time>
</trkpt>
<trkpt lat="37.56937583" lon="-1.0938471">
<ele>55</ele>
<time>2014-05-25T16:34:01Z</time>
</trkpt>
<trkpt lat="37.56939841" lon="-1.09380945">
<ele>55</ele>
<time>2014-05-25T16:34:03Z</time>
</trkpt>
<trkpt lat="37.56941944" lon="-1.09377059">
<ele>55</ele>
<time>2014-05-25T16:34:05Z</time>
</trkpt>
<trkpt lat="37.56943587" lon="-1.09373014">
<ele>54</ele>
<time>2014-05-25T16:34:07Z</time>
</trkpt>
<trkpt lat="37.56946168" lon="-1.09369148">
<ele>55</ele>
<time>2014-05-25T16:34:09Z</time>
</trkpt>
<trkpt lat="37.5694859" lon="-1.09365602">
<ele>54</ele>
<time>2014-05-25T16:34:11Z</time>
</trkpt>
<trkpt lat="37.56950639" lon="-1.09362788">
<ele>54</ele>
<time>2014-05-25T16:34:13Z</time>
</trkpt>
<trkpt lat="37.56952574" lon="-1.09359662">
<ele>55</ele>
<time>2014-05-25T16:34:15Z</time>
</trkpt>
<trkpt lat="37.56955009" lon="-1.09356335">
<ele>54</ele>
<time>2014-05-25T16:34:17Z</time>
</trkpt>
<trkpt lat="37.56956593" lon="-1.09352651">
<ele>55</ele>
<time>2014-05-25T16:34:19Z</time>
</trkpt>
<trkpt lat="37.56957827" lon="-1.09350271">
<ele>55</ele>
<time>2014-05-25T16:34:21Z</time>
</trkpt>
<trkpt lat="37.56958477" lon="-1.09346802">
<ele>55</ele>
<time>2014-05-25T16:34:23Z</time>
</trkpt>
<trkpt lat="37.56959238" lon="-1.09343843">
<ele>55</ele>
<time>2014-05-25T16:34:25Z</time>
</trkpt>
<trkpt lat="37.56960358" lon="-1.09340093">
<ele>55</ele>
<time>2014-05-25T16:34:27Z</time>
</trkpt>
<trkpt lat="37.56961915" lon="-1.09337233">
<ele>55</ele>
<time>2014-05-25T16:34:29Z</time>
</trkpt>
<trkpt lat="37.56963455" lon="-1.09334599">
<ele>54</ele>
<time>2014-05-25T16:34:31Z</time>
</trkpt>
<trkpt lat="37.56964862" lon="-1.09331464">
<ele>54</ele>
<time>2014-05-25T16:34:33Z</time>
</trkpt>
<trkpt lat="37.56966285" lon="-1.09328711">
<ele>54</ele>
<time>2014-05-25T16:34:35Z</time>
</trkpt>
<trkpt lat="37.56968078" lon="-1.09325752">
<ele>54</ele>
<time>2014-05-25T16:34:37Z</time>
</trkpt>
<trkpt lat="37.56970296" lon="-1.09322516">
<ele>53</ele>
<time>2014-05-25T16:34:39Z</time>
</trkpt>
<trkpt lat="37.56972156" lon="-1.09319011">
<ele>53</ele>
<time>2014-05-25T16:34:41Z</time>
</trkpt>
<trkpt lat="37.56974856" lon="-1.09315359">
<ele>52</ele>
<time>2014-05-25T16:34:43Z</time>
</trkpt>
<trkpt lat="37.56976869" lon="-1.09311718">
<ele>52</ele>
<time>2014-05-25T16:34:45Z</time>
</trkpt>
<trkpt lat="37.56978627" lon="-1.09307865">
<ele>51</ele>
<time>2014-05-25T16:34:47Z</time>
</trkpt>
<trkpt lat="37.56979605" lon="-1.09304314">
<ele>52</ele>
<time>2014-05-25T16:34:49Z</time>
</trkpt>
<trkpt lat="37.56981013" lon="-1.09300688">
<ele>51</ele>
<time>2014-05-25T16:34:51Z</time>
</trkpt>
<trkpt lat="37.5698299" lon="-1.0929642">
<ele>52</ele>
<time>2014-05-25T16:34:53Z</time>
</trkpt>
<trkpt lat="37.56985525" lon="-1.09291589">
<ele>52</ele>
<time>2014-05-25T16:34:55Z</time>
</trkpt>
<trkpt lat="37.56988847" lon="-1.09287831">
<ele>52</ele>
<time>2014-05-25T16:34:57Z</time>
</trkpt>
<trkpt lat="37.56990783" lon="-1.09284148">
<ele>51</ele>
<time>2014-05-25T16:34:59Z</time>
</trkpt>
<trkpt lat="37.56992798" lon="-1.09280614">
<ele>52</ele>
<time>2014-05-25T16:35:01Z</time>
</trkpt>
<trkpt lat="37.56994158" lon="-1.09276506">
<ele>51</ele>
<time>2014-05-25T16:35:03Z</time>
</trkpt>
<trkpt lat="37.56995844" lon="-1.09272287">
<ele>50</ele>
<time>2014-05-25T16:35:05Z</time>
</trkpt>
<trkpt lat="37.56998755" lon="-1.092677">
<ele>50</ele>
<time>2014-05-25T16:35:07Z</time>
</trkpt>
<trkpt lat="37.57000305" lon="-1.09262391">
<ele>50</ele>
<time>2014-05-25T16:35:09Z</time>
</trkpt>
<trkpt lat="37.57002279" lon="-1.09257354">
<ele>51</ele>
<time>2014-05-25T16:35:11Z</time>
</trkpt>
<trkpt lat="37.57003833" lon="-1.09253016">
<ele>51</ele>
<time>2014-05-25T16:35:13Z</time>
</trkpt>
<trkpt lat="37.57006529" lon="-1.09249987">
<ele>51</ele>
<time>2014-05-25T16:35:15Z</time>
</trkpt>
<trkpt lat="37.57008717" lon="-1.09247403">
<ele>51</ele>
<time>2014-05-25T16:35:17Z</time>
</trkpt>
<trkpt lat="37.57011415" lon="-1.09244399">
<ele>50</ele>
<time>2014-05-25T16:35:19Z</time>
</trkpt>
<trkpt lat="37.57013785" lon="-1.09240575">
<ele>51</ele>
<time>2014-05-25T16:35:21Z</time>
</trkpt>
<trkpt lat="37.57016097" lon="-1.09236277">
<ele>50</ele>
<time>2014-05-25T16:35:23Z</time>
</trkpt>
<trkpt lat="37.57018001" lon="-1.09232676">
<ele>51</ele>
<time>2014-05-25T16:35:25Z</time>
</trkpt>
<trkpt lat="37.57019825" lon="-1.09229817">
<ele>51</ele>
<time>2014-05-25T16:35:27Z</time>
</trkpt>
<trkpt lat="37.57021978" lon="-1.09227768">
<ele>51</ele>
<time>2014-05-25T16:35:29Z</time>
</trkpt>
<trkpt lat="37.5702371" lon="-1.09224896">
<ele>51</ele>
<time>2014-05-25T16:35:31Z</time>
</trkpt>
<trkpt lat="37.57024887" lon="-1.09222335">
<ele>51</ele>
<time>2014-05-25T16:35:33Z</time>
</trkpt>
<trkpt lat="37.57025705" lon="-1.09218689">
<ele>51</ele>
<time>2014-05-25T16:35:35Z</time>
</trkpt>
<trkpt lat="37.57026823" lon="-1.09215653">
<ele>51</ele>
<time>2014-05-25T16:35:37Z</time>
</trkpt>
<trkpt lat="37.57028947" lon="-1.09212197">
<ele>51</ele>
<time>2014-05-25T16:35:39Z</time>
</trkpt>
<trkpt lat="37.5703179" lon="-1.09209241">
<ele>51</ele>
<time>2014-05-25T16:35:41Z</time>
</trkpt>
<trkpt lat="37.57034267" lon="-1.09205489">
<ele>50</ele>
<time>2014-05-25T16:35:43Z</time>
</trkpt>
<trkpt lat="37.57036016" lon="-1.09202276">
<ele>50</ele>
<time>2014-05-25T16:35:45Z</time>
</trkpt>
<trkpt lat="37.57037752" lon="-1.09200147">
<ele>49</ele>
<time>2014-05-25T16:35:47Z</time>
</trkpt>
<trkpt lat="37.57039652" lon="-1.09197662">
<ele>50</ele>
<time>2014-05-25T16:35:49Z</time>
</trkpt>
<trkpt lat="37.57041784" lon="-1.09193627">
<ele>50</ele>
<time>2014-05-25T16:35:51Z</time>
</trkpt>
<trkpt lat="37.57044596" lon="-1.09189621">
<ele>50</ele>
<time>2014-05-25T16:35:53Z</time>
</trkpt>
<trkpt lat="37.57047804" lon="-1.0918615">
<ele>49</ele>
<time>2014-05-25T16:35:55Z</time>
</trkpt>
<trkpt lat="37.57050932" lon="-1.09184163">
<ele>49</ele>
<time>2014-05-25T16:35:57Z</time>
</trkpt>
<trkpt lat="37.57053158" lon="-1.09181887">
<ele>49</ele>
<time>2014-05-25T16:35:59Z</time>
</trkpt>
<trkpt lat="37.57055811" lon="-1.09178675">
<ele>48</ele>
<time>2014-05-25T16:36:01Z</time>
</trkpt>
<trkpt lat="37.57058122" lon="-1.09175334">
<ele>48</ele>
<time>2014-05-25T16:36:03Z</time>
</trkpt>
<trkpt lat="37.57060502" lon="-1.09172324">
<ele>48</ele>
<time>2014-05-25T16:36:05Z</time>
</trkpt>
<trkpt lat="37.57062406" lon="-1.09169677">
<ele>49</ele>
<time>2014-05-25T16:36:07Z</time>
</trkpt>
<trkpt lat="37.57064407" lon="-1.09165339">
<ele>49</ele>
<time>2014-05-25T16:36:09Z</time>
</trkpt>
<trkpt lat="37.57066401" lon="-1.09160978">
<ele>49</ele>
<time>2014-05-25T16:36:11Z</time>
</trkpt>
<trkpt lat="37.5706816" lon="-1.09156712">
<ele>48</ele>
<time>2014-05-25T16:36:13Z</time>
</trkpt>
<trkpt lat="37.57069674" lon="-1.09152924">
<ele>47</ele>
<time>2014-05-25T16:36:15Z</time>
</trkpt>
<trkpt lat="37.57071665" lon="-1.09149676">
<ele>47</ele>
<time>2014-05-25T16:36:17Z</time>
</trkpt>
<trkpt lat="37.57073" lon="-1.09146656">
<ele>47</ele>
<time>2014-05-25T16:36:19Z</time>
</trkpt>
<trkpt lat="37.57074653" lon="-1.09143772">
<ele>46</ele>
<time>2014-05-25T16:36:21Z</time>
</trkpt>
<trkpt lat="37.57076772" lon="-1.09140894">
<ele>46</ele>
<time>2014-05-25T16:36:23Z</time>
</trkpt>
<trkpt lat="37.57079254" lon="-1.09138747">
<ele>44</ele>
<time>2014-05-25T16:36:25Z</time>
</trkpt>
<trkpt lat="37.57081402" lon="-1.09136192">
<ele>44</ele>
<time>2014-05-25T16:36:27Z</time>
</trkpt>
<trkpt lat="37.57082596" lon="-1.09133662">
<ele>44</ele>
<time>2014-05-25T16:36:29Z</time>
</trkpt>
<trkpt lat="37.57084011" lon="-1.09131037">
<ele>44</ele>
<time>2014-05-25T16:36:31Z</time>
</trkpt>
<trkpt lat="37.57086715" lon="-1.09127596">
<ele>45</ele>
<time>2014-05-25T16:36:33Z</time>
</trkpt>
<trkpt lat="37.5708957" lon="-1.09124577">
<ele>44</ele>
<time>2014-05-25T16:36:35Z</time>
</trkpt>
<trkpt lat="37.57092564" lon="-1.09120973">
<ele>44</ele>
<time>2014-05-25T16:36:37Z</time>
</trkpt>
<trkpt lat="37.57094923" lon="-1.09117447">
<ele>44</ele>
<time>2014-05-25T16:36:39Z</time>
</trkpt>
<trkpt lat="37.57096218" lon="-1.09114772">
<ele>44</ele>
<time>2014-05-25T16:36:41Z</time>
</trkpt>
<trkpt lat="37.5709749" lon="-1.09111356">
<ele>44</ele>
<time>2014-05-25T16:36:43Z</time>
</trkpt>
<trkpt lat="37.57098877" lon="-1.09107408">
<ele>44</ele>
<time>2014-05-25T16:36:45Z</time>
</trkpt>
<trkpt lat="37.57100509" lon="-1.09103533">
<ele>45</ele>
<time>2014-05-25T16:36:47Z</time>
</trkpt>
<trkpt lat="37.5710223" lon="-1.09100138">
<ele>45</ele>
<time>2014-05-25T16:36:49Z</time>
</trkpt>
<trkpt lat="37.57104373" lon="-1.09097151">
<ele>45</ele>
<time>2014-05-25T16:36:51Z</time>
</trkpt>
<trkpt lat="37.57106095" lon="-1.09095253">
<ele>44</ele>
<time>2014-05-25T16:36:53Z</time>
</trkpt>
<trkpt lat="37.57107839" lon="-1.09093047">
<ele>43</ele>
<time>2014-05-25T16:36:55Z</time>
</trkpt>
<trkpt lat="37.57110762" lon="-1.09090415">
<ele>43</ele>
<time>2014-05-25T16:36:57Z</time>
</trkpt>
<trkpt lat="37.57114227" lon="-1.09086932">
<ele>42</ele>
<time>2014-05-25T16:36:59Z</time>
</trkpt>
<trkpt lat="37.5711714" lon="-1.0908374">
<ele>41</ele>
<time>2014-05-25T16:37:01Z</time>
</trkpt>
<trkpt lat="37.5711857" lon="-1.09080716">
<ele>41</ele>
<time>2014-05-25T16:37:03Z</time>
</trkpt>
<trkpt lat="37.57119656" lon="-1.09078123">
<ele>40</ele>
<time>2014-05-25T16:37:05Z</time>
</trkpt>
<trkpt lat="37.57121053" lon="-1.09075564">
<ele>40</ele>
<time>2014-05-25T16:37:07Z</time>
</trkpt>
<trkpt lat="37.5712286" lon="-1.0907316">
<ele>41</ele>
<time>2014-05-25T16:37:09Z</time>
</trkpt>
<trkpt lat="37.57124738" lon="-1.09069952">
<ele>41</ele>
<time>2014-05-25T16:37:11Z</time>
</trkpt>
<trkpt lat="37.57125417" lon="-1.09067581">
<ele>41</ele>
<time>2014-05-25T16:37:13Z</time>
</trkpt>
<trkpt lat="37.57125742" lon="-1.09065441">
<ele>41</ele>
<time>2014-05-25T16:37:15Z</time>
</trkpt>
<trkpt lat="37.57125854" lon="-1.09064508">
<ele>41</ele>
<time>2014-05-25T16:37:17Z</time>
</trkpt>
<trkpt lat="37.57126226" lon="-1.09063285">
<ele>41</ele>
<time>2014-05-25T16:37:19Z</time>
</trkpt>
<trkpt lat="37.57129124" lon="-1.09058753">
<ele>40</ele>
<time>2014-05-25T16:37:21Z</time>
</trkpt>
<trkpt lat="37.57132989" lon="-1.09053559">
<ele>40</ele>
<time>2014-05-25T16:37:23Z</time>
</trkpt>
<trkpt lat="37.57136629" lon="-1.09048047">
<ele>40</ele>
<time>2014-05-25T16:37:25Z</time>
</trkpt>
<trkpt lat="37.57139994" lon="-1.09042485">
<ele>40</ele>
<time>2014-05-25T16:37:27Z</time>
</trkpt>
<trkpt lat="37.57142501" lon="-1.09037789">
<ele>40</ele>
<time>2014-05-25T16:37:29Z</time>
</trkpt>
<trkpt lat="37.57144953" lon="-1.09033929">
<ele>40</ele>
<time>2014-05-25T16:37:31Z</time>
</trkpt>
<trkpt lat="37.57147573" lon="-1.09029962">
<ele>41</ele>
<time>2014-05-25T16:37:33Z</time>
</trkpt>
<trkpt lat="37.57150368" lon="-1.09026384">
<ele>40</ele>
<time>2014-05-25T16:37:35Z</time>
</trkpt>
<trkpt lat="37.57153077" lon="-1.09022095">
<ele>41</ele>
<time>2014-05-25T16:37:37Z</time>
</trkpt>
<trkpt lat="37.57155668" lon="-1.09018248">
<ele>40</ele>
<time>2014-05-25T16:37:39Z</time>
</trkpt>
<trkpt lat="37.57158265" lon="-1.09013935">
<ele>40</ele>
<time>2014-05-25T16:37:41Z</time>
</trkpt>
<trkpt lat="37.57160599" lon="-1.09009964">
<ele>41</ele>
<time>2014-05-25T16:37:43Z</time>
</trkpt>
<trkpt lat="37.57162734" lon="-1.09006363">
<ele>41</ele>
<time>2014-05-25T16:37:45Z</time>
</trkpt>
<trkpt lat="37.57163151" lon="-1.09004913">
<ele>41</ele>
<time>2014-05-25T16:37:47Z</time>
</trkpt>
<trkpt lat="37.5716352" lon="-1.09004734">
<ele>41</ele>
<time>2014-05-25T16:37:49Z</time>
</trkpt>
<trkpt lat="37.5716405" lon="-1.09004838">
<ele>41</ele>
<time>2014-05-25T16:37:51Z</time>
</trkpt>
<trkpt lat="37.57164335" lon="-1.09004102">
<ele>41</ele>
<time>2014-05-25T16:37:53Z</time>
</trkpt>
<trkpt lat="37.57166166" lon="-1.08999802">
<ele>42</ele>
<time>2014-05-25T16:37:55Z</time>
</trkpt>
<trkpt lat="37.57167938" lon="-1.08995686">
<ele>41</ele>
<time>2014-05-25T16:37:57Z</time>
</trkpt>
<trkpt lat="37.57170191" lon="-1.08990877">
<ele>41</ele>
<time>2014-05-25T16:37:59Z</time>
</trkpt>
<trkpt lat="37.57172895" lon="-1.08986737">
<ele>41</ele>
<time>2014-05-25T16:38:01Z</time>
</trkpt>
<trkpt lat="37.57175757" lon="-1.08982845">
<ele>41</ele>
<time>2014-05-25T16:38:03Z</time>
</trkpt>
<trkpt lat="37.57178658" lon="-1.08978843">
<ele>40</ele>
<time>2014-05-25T16:38:05Z</time>
</trkpt>
<trkpt lat="37.57179963" lon="-1.08975966">
<ele>40</ele>
<time>2014-05-25T16:38:07Z</time>
</trkpt>
<trkpt lat="37.57180133" lon="-1.08975363">
<ele>40</ele>
<time>2014-05-25T16:38:09Z</time>
</trkpt>
<trkpt lat="37.57180096" lon="-1.08975106">
<ele>40</ele>
<time>2014-05-25T16:38:11Z</time>
</trkpt>
<trkpt lat="37.57180448" lon="-1.0897486">
<ele>40</ele>
<time>2014-05-25T16:38:13Z</time>
</trkpt>
<trkpt lat="37.57181509" lon="-1.08973115">
<ele>39</ele>
<time>2014-05-25T16:38:15Z</time>
</trkpt>
<trkpt lat="37.57184454" lon="-1.08969996">
<ele>39</ele>
<time>2014-05-25T16:38:17Z</time>
</trkpt>
<trkpt lat="37.57188206" lon="-1.08965529">
<ele>38</ele>
<time>2014-05-25T16:38:19Z</time>
</trkpt>
<trkpt lat="37.57192506" lon="-1.08961913">
<ele>36</ele>
<time>2014-05-25T16:38:21Z</time>
</trkpt>
<trkpt lat="37.5719395" lon="-1.08960712">
<ele>36</ele>
<time>2014-05-25T16:38:23Z</time>
</trkpt>
<trkpt lat="37.57194783" lon="-1.08959295">
<ele>37</ele>
<time>2014-05-25T16:38:25Z</time>
</trkpt>
<trkpt lat="37.57195157" lon="-1.08958083">
<ele>36</ele>
<time>2014-05-25T16:38:27Z</time>
</trkpt>
<trkpt lat="37.57197507" lon="-1.08954022">
<ele>35</ele>
<time>2014-05-25T16:38:29Z</time>
</trkpt>
<trkpt lat="37.57199506" lon="-1.08948149">
<ele>36</ele>
<time>2014-05-25T16:38:31Z</time>
</trkpt>
<trkpt lat="37.57201393" lon="-1.08941409">
<ele>36</ele>
<time>2014-05-25T16:38:33Z</time>
</trkpt>
<trkpt lat="37.57205356" lon="-1.08935093">
<ele>31</ele>
<time>2014-05-25T16:38:35Z</time>
</trkpt>
<trkpt lat="37.57209327" lon="-1.089314">
<ele>31</ele>
<time>2014-05-25T16:38:37Z</time>
</trkpt>
<trkpt lat="37.57212753" lon="-1.08928491">
<ele>32</ele>
<time>2014-05-25T16:38:39Z</time>
</trkpt>
<trkpt lat="37.57215349" lon="-1.08924913">
<ele>34</ele>
<time>2014-05-25T16:38:41Z</time>
</trkpt>
<trkpt lat="37.57217603" lon="-1.08921222">
<ele>33</ele>
<time>2014-05-25T16:38:43Z</time>
</trkpt>
<trkpt lat="37.57219104" lon="-1.08917396">
<ele>34</ele>
<time>2014-05-25T16:38:45Z</time>
</trkpt>
<trkpt lat="37.57220477" lon="-1.08913139">
<ele>34</ele>
<time>2014-05-25T16:38:47Z</time>
</trkpt>
<trkpt lat="37.57221417" lon="-1.08908309">
<ele>34</ele>
<time>2014-05-25T16:38:49Z</time>
</trkpt>
<trkpt lat="37.57222945" lon="-1.08904076">
<ele>33</ele>
<time>2014-05-25T16:38:51Z</time>
</trkpt>
<trkpt lat="37.57224156" lon="-1.08901023">
<ele>31</ele>
<time>2014-05-25T16:38:53Z</time>
</trkpt>
<trkpt lat="37.57225252" lon="-1.0889747">
<ele>31</ele>
<time>2014-05-25T16:38:55Z</time>
</trkpt>
<trkpt lat="37.57226366" lon="-1.08893281">
<ele>32</ele>
<time>2014-05-25T16:38:57Z</time>
</trkpt>
<trkpt lat="37.57228027" lon="-1.08887688">
<ele>32</ele>
<time>2014-05-25T16:38:59Z</time>
</trkpt>
<trkpt lat="37.57230606" lon="-1.08882715">
<ele>31</ele>
<time>2014-05-25T16:39:01Z</time>
</trkpt>
<trkpt lat="37.57233657" lon="-1.08878488">
<ele>31</ele>
<time>2014-05-25T16:39:03Z</time>
</trkpt>
<trkpt lat="37.57236854" lon="-1.08875037">
<ele>29</ele>
<time>2014-05-25T16:39:05Z</time>
</trkpt>
<trkpt lat="37.57240293" lon="-1.08872351">
<ele>29</ele>
<time>2014-05-25T16:39:07Z</time>
</trkpt>
<trkpt lat="37.57243517" lon="-1.08869627">
<ele>29</ele>
<time>2014-05-25T16:39:09Z</time>
</trkpt>
<trkpt lat="37.57246091" lon="-1.08866434">
<ele>30</ele>
<time>2014-05-25T16:39:11Z</time>
</trkpt>
<trkpt lat="37.57248241" lon="-1.08863431">
<ele>29</ele>
<time>2014-05-25T16:39:13Z</time>
</trkpt>
<trkpt lat="37.57249562" lon="-1.08859459">
<ele>29</ele>
<time>2014-05-25T16:39:15Z</time>
</trkpt>
<trkpt lat="37.57250493" lon="-1.08856178">
<ele>28</ele>
<time>2014-05-25T16:39:17Z</time>
</trkpt>
<trkpt lat="37.57251666" lon="-1.08853069">
<ele>29</ele>
<time>2014-05-25T16:39:19Z</time>
</trkpt>
<trkpt lat="37.57252741" lon="-1.08849004">
<ele>30</ele>
<time>2014-05-25T16:39:21Z</time>
</trkpt>
<trkpt lat="37.57254534" lon="-1.08844871">
<ele>29</ele>
<time>2014-05-25T16:39:23Z</time>
</trkpt>
<trkpt lat="37.57256204" lon="-1.08840257">
<ele>31</ele>
<time>2014-05-25T16:39:25Z</time>
</trkpt>
<trkpt lat="37.57257893" lon="-1.08834504">
<ele>31</ele>
<time>2014-05-25T16:39:27Z</time>
</trkpt>
<trkpt lat="37.57259067" lon="-1.08829722">
<ele>30</ele>
<time>2014-05-25T16:39:29Z</time>
</trkpt>
<trkpt lat="37.57260742" lon="-1.08825948">
<ele>30</ele>
<time>2014-05-25T16:39:31Z</time>
</trkpt>
<trkpt lat="37.57262583" lon="-1.08822209">
<ele>30</ele>
<time>2014-05-25T16:39:33Z</time>
</trkpt>
<trkpt lat="37.57264631" lon="-1.08819514">
<ele>29</ele>
<time>2014-05-25T16:39:35Z</time>
</trkpt>
<trkpt lat="37.57266402" lon="-1.08817877">
<ele>29</ele>
<time>2014-05-25T16:39:37Z</time>
</trkpt>
<trkpt lat="37.57268662" lon="-1.08816415">
<ele>28</ele>
<time>2014-05-25T16:39:39Z</time>
</trkpt>
<trkpt lat="37.57270812" lon="-1.08812787">
<ele>28</ele>
<time>2014-05-25T16:39:41Z</time>
</trkpt>
<trkpt lat="37.57272675" lon="-1.08808254">
<ele>29</ele>
<time>2014-05-25T16:39:43Z</time>
</trkpt>
<trkpt lat="37.57274257" lon="-1.08802955">
<ele>29</ele>
<time>2014-05-25T16:39:45Z</time>
</trkpt>
<trkpt lat="37.57275601" lon="-1.08797641">
<ele>29</ele>
<time>2014-05-25T16:39:47Z</time>
</trkpt>
<trkpt lat="37.57277256" lon="-1.08793131">
<ele>29</ele>
<time>2014-05-25T16:39:49Z</time>
</trkpt>
<trkpt lat="37.57277999" lon="-1.08793671">
<ele>29</ele>
<time>2014-05-25T16:39:51Z</time>
</trkpt>
<trkpt lat="37.57278132" lon="-1.08793672">
<ele>28</ele>
<time>2014-05-25T16:39:53Z</time>
</trkpt>
<trkpt lat="37.57278426" lon="-1.08793703">
<ele>28</ele>
<time>2014-05-25T16:39:55Z</time>
</trkpt>
<trkpt lat="37.57279045" lon="-1.08793557">
<ele>29</ele>
<time>2014-05-25T16:39:57Z</time>
</trkpt>
<trkpt lat="37.57281217" lon="-1.0879016">
<ele>29</ele>
<time>2014-05-25T16:39:59Z</time>
</trkpt>
<trkpt lat="37.57283361" lon="-1.08786535">
<ele>29</ele>
<time>2014-05-25T16:40:01Z</time>
</trkpt>
<trkpt lat="37.57285959" lon="-1.087832">
<ele>29</ele>
<time>2014-05-25T16:40:03Z</time>
</trkpt>
<trkpt lat="37.57288838" lon="-1.0877984">
<ele>28</ele>
<time>2014-05-25T16:40:05Z</time>
</trkpt>
<trkpt lat="37.57291499" lon="-1.08775592">
<ele>28</ele>
<time>2014-05-25T16:40:07Z</time>
</trkpt>
<trkpt lat="37.57293556" lon="-1.08771421">
<ele>29</ele>
<time>2014-05-25T16:40:09Z</time>
</trkpt>
<trkpt lat="37.57295725" lon="-1.08766863">
<ele>29</ele>
<time>2014-05-25T16:40:11Z</time>
</trkpt>
<trkpt lat="37.57297763" lon="-1.08761818">
<ele>29</ele>
<time>2014-05-25T16:40:13Z</time>
</trkpt>
<trkpt lat="37.57299524" lon="-1.08755659">
<ele>31</ele>
<time>2014-05-25T16:40:15Z</time>
</trkpt>
<trkpt lat="37.57300941" lon="-1.08748771">
<ele>31</ele>
<time>2014-05-25T16:40:17Z</time>
</trkpt>
<trkpt lat="37.5730304" lon="-1.08743362">
<ele>31</ele>
<time>2014-05-25T16:40:19Z</time>
</trkpt>
<trkpt lat="37.57305367" lon="-1.08738864">
<ele>31</ele>
<time>2014-05-25T16:40:21Z</time>
</trkpt>
<trkpt lat="37.57307138" lon="-1.08734235">
<ele>32</ele>
<time>2014-05-25T16:40:23Z</time>
</trkpt>
<trkpt lat="37.57308837" lon="-1.08730991">
<ele>32</ele>
<time>2014-05-25T16:40:25Z</time>
</trkpt>
<trkpt lat="37.57310456" lon="-1.08728753">
<ele>32</ele>
<time>2014-05-25T16:40:27Z</time>
</trkpt>
<trkpt lat="37.57312226" lon="-1.08727654">
<ele>33</ele>
<time>2014-05-25T16:40:29Z</time>
</trkpt>
<trkpt lat="37.5731399" lon="-1.08726675">
<ele>33</ele>
<time>2014-05-25T16:40:31Z</time>
</trkpt>
<trkpt lat="37.57315526" lon="-1.08725914">
<ele>35</ele>
<time>2014-05-25T16:40:33Z</time>
</trkpt>
<trkpt lat="37.57316495" lon="-1.08724328">
<ele>36</ele>
<time>2014-05-25T16:40:35Z</time>
</trkpt>
<trkpt lat="37.57316687" lon="-1.08721767">
<ele>36</ele>
<time>2014-05-25T16:40:37Z</time>
</trkpt>
<trkpt lat="37.57317387" lon="-1.08718407">
<ele>36</ele>
<time>2014-05-25T16:40:39Z</time>
</trkpt>
<trkpt lat="37.57318259" lon="-1.08714383">
<ele>36</ele>
<time>2014-05-25T16:40:41Z</time>
</trkpt>
<trkpt lat="37.57319376" lon="-1.08711306">
<ele>36</ele>
<time>2014-05-25T16:40:43Z</time>
</trkpt>
<trkpt lat="37.57321488" lon="-1.08709027">
<ele>35</ele>
<time>2014-05-25T16:40:45Z</time>
</trkpt>
<trkpt lat="37.57323447" lon="-1.08706735">
<ele>34</ele>
<time>2014-05-25T16:40:47Z</time>
</trkpt>
<trkpt lat="37.57325219" lon="-1.08703692">
<ele>35</ele>
<time>2014-05-25T16:40:49Z</time>
</trkpt>
<trkpt lat="37.57326805" lon="-1.08700384">
<ele>35</ele>
<time>2014-05-25T16:40:51Z</time>
</trkpt>
<trkpt lat="37.57328215" lon="-1.08696325">
<ele>35</ele>
<time>2014-05-25T16:40:53Z</time>
</trkpt>
<trkpt lat="37.57329795" lon="-1.08692704">
<ele>35</ele>
<time>2014-05-25T16:40:55Z</time>
</trkpt>
<trkpt lat="37.57331114" lon="-1.08689201">
<ele>35</ele>
<time>2014-05-25T16:40:57Z</time>
</trkpt>
<trkpt lat="37.57332401" lon="-1.08685954">
<ele>35</ele>
<time>2014-05-25T16:40:59Z</time>
</trkpt>
<trkpt lat="37.57334511" lon="-1.08682825">
<ele>35</ele>
<time>2014-05-25T16:41:01Z</time>
</trkpt>
<trkpt lat="37.57337149" lon="-1.08678997">
<ele>36</ele>
<time>2014-05-25T16:41:03Z</time>
</trkpt>
<trkpt lat="37.57339621" lon="-1.08675587">
<ele>35</ele>
<time>2014-05-25T16:41:05Z</time>
</trkpt>
<trkpt lat="37.57341376" lon="-1.0867159">
<ele>35</ele>
<time>2014-05-25T16:41:07Z</time>
</trkpt>
<trkpt lat="37.57342508" lon="-1.08668151">
<ele>35</ele>
<time>2014-05-25T16:41:09Z</time>
</trkpt>
<trkpt lat="37.57344141" lon="-1.08664669">
<ele>36</ele>
<time>2014-05-25T16:41:11Z</time>
</trkpt>
<trkpt lat="37.57346079" lon="-1.08661439">
<ele>35</ele>
<time>2014-05-25T16:41:13Z</time>
</trkpt>
<trkpt lat="37.57349138" lon="-1.08658987">
<ele>34</ele>
<time>2014-05-25T16:41:15Z</time>
</trkpt>
<trkpt lat="37.57352064" lon="-1.08656531">
<ele>33</ele>
<time>2014-05-25T16:41:17Z</time>
</trkpt>
<trkpt lat="37.57353841" lon="-1.08653779">
<ele>35</ele>
<time>2014-05-25T16:41:19Z</time>
</trkpt>
<trkpt lat="37.57355233" lon="-1.08650653">
<ele>34</ele>
<time>2014-05-25T16:41:21Z</time>
</trkpt>
<trkpt lat="37.57356692" lon="-1.08647587">
<ele>35</ele>
<time>2014-05-25T16:41:23Z</time>
</trkpt>
<trkpt lat="37.57358032" lon="-1.08644092">
<ele>35</ele>
<time>2014-05-25T16:41:25Z</time>
</trkpt>
<trkpt lat="37.5735907" lon="-1.08640103">
<ele>35</ele>
<time>2014-05-25T16:41:27Z</time>
</trkpt>
<trkpt lat="37.57360201" lon="-1.08635489">
<ele>34</ele>
<time>2014-05-25T16:41:29Z</time>
</trkpt>
<trkpt lat="37.57361667" lon="-1.08631386">
<ele>34</ele>
<time>2014-05-25T16:41:31Z</time>
</trkpt>
<trkpt lat="37.5736362" lon="-1.08628057">
<ele>34</ele>
<time>2014-05-25T16:41:33Z</time>
</trkpt>
<trkpt lat="37.57365716" lon="-1.08624289">
<ele>33</ele>
<time>2014-05-25T16:41:35Z</time>
</trkpt>
<trkpt lat="37.57367417" lon="-1.08620507">
<ele>33</ele>
<time>2014-05-25T16:41:37Z</time>
</trkpt>
<trkpt lat="37.5736927" lon="-1.08617342">
<ele>34</ele>
<time>2014-05-25T16:41:39Z</time>
</trkpt>
<trkpt lat="37.57371023" lon="-1.0861354">
<ele>33</ele>
<time>2014-05-25T16:41:41Z</time>
</trkpt>
<trkpt lat="37.5737349" lon="-1.08609348">
<ele>33</ele>
<time>2014-05-25T16:41:43Z</time>
</trkpt>
<trkpt lat="37.57375088" lon="-1.08604696">
<ele>34</ele>
<time>2014-05-25T16:41:45Z</time>
</trkpt>
<trkpt lat="37.57376169" lon="-1.08600699">
<ele>34</ele>
<time>2014-05-25T16:41:47Z</time>
</trkpt>
<trkpt lat="37.5737751" lon="-1.08597208">
<ele>34</ele>
<time>2014-05-25T16:41:49Z</time>
</trkpt>
<trkpt lat="37.57378979" lon="-1.08598087">
<ele>34</ele>
<time>2014-05-25T16:41:51Z</time>
</trkpt>
<trkpt lat="37.57379601" lon="-1.08598785">
<ele>34</ele>
<time>2014-05-25T16:41:53Z</time>
</trkpt>
<trkpt lat="37.57379453" lon="-1.08599354">
<ele>34</ele>
<time>2014-05-25T16:41:55Z</time>
</trkpt>
<trkpt lat="37.5737981" lon="-1.0859918">
<ele>34</ele>
<time>2014-05-25T16:41:57Z</time>
</trkpt>
<trkpt lat="37.57380897" lon="-1.08597845">
<ele>34</ele>
<time>2014-05-25T16:41:59Z</time>
</trkpt>
<trkpt lat="37.57383486" lon="-1.08595436">
<ele>34</ele>
<time>2014-05-25T16:42:01Z</time>
</trkpt>
<trkpt lat="37.5738672" lon="-1.08592704">
<ele>33</ele>
<time>2014-05-25T16:42:03Z</time>
</trkpt>
<trkpt lat="37.57388368" lon="-1.08590546">
<ele>33</ele>
<time>2014-05-25T16:42:05Z</time>
</trkpt>
<trkpt lat="37.57388661" lon="-1.085896">
<ele>34</ele>
<time>2014-05-25T16:42:07Z</time>
</trkpt>
<trkpt lat="37.5738883" lon="-1.08588621">
<ele>34</ele>
<time>2014-05-25T16:42:09Z</time>
</trkpt>
<trkpt lat="37.5738933" lon="-1.08588304">
<ele>34</ele>
<time>2014-05-25T16:42:11Z</time>
</trkpt>
<trkpt lat="37.57391138" lon="-1.08586128">
<ele>34</ele>
<time>2014-05-25T16:42:13Z</time>
</trkpt>
<trkpt lat="37.57393355" lon="-1.08583116">
<ele>33</ele>
<time>2014-05-25T16:42:15Z</time>
</trkpt>
<trkpt lat="37.57396059" lon="-1.08579701">
<ele>33</ele>
<time>2014-05-25T16:42:17Z</time>
</trkpt>
<trkpt lat="37.57398897" lon="-1.08574925">
<ele>34</ele>
<time>2014-05-25T16:42:19Z</time>
</trkpt>
<trkpt lat="37.57401972" lon="-1.08569773">
<ele>34</ele>
<time>2014-05-25T16:42:21Z</time>
</trkpt>
<trkpt lat="37.57404726" lon="-1.08564282">
<ele>34</ele>
<time>2014-05-25T16:42:23Z</time>
</trkpt>
<trkpt lat="37.574071" lon="-1.08559978">
<ele>35</ele>
<time>2014-05-25T16:42:25Z</time>
</trkpt>
<trkpt lat="37.57409279" lon="-1.08556514">
<ele>34</ele>
<time>2014-05-25T16:42:27Z</time>
</trkpt>
<trkpt lat="37.57410382" lon="-1.08552935">
<ele>34</ele>
<time>2014-05-25T16:42:29Z</time>
</trkpt>
<trkpt lat="37.57411497" lon="-1.08550973">
<ele>34</ele>
<time>2014-05-25T16:42:31Z</time>
</trkpt>
<trkpt lat="37.57413255" lon="-1.08552401">
<ele>33</ele>
<time>2014-05-25T16:42:33Z</time>
</trkpt>
<trkpt lat="37.57415171" lon="-1.08551592">
<ele>30</ele>
<time>2014-05-25T16:42:35Z</time>
</trkpt>
<trkpt lat="37.57416707" lon="-1.08550622">
<ele>28</ele>
<time>2014-05-25T16:42:37Z</time>
</trkpt>
<trkpt lat="37.57417554" lon="-1.08549654">
<ele>28</ele>
<time>2014-05-25T16:42:39Z</time>
</trkpt>
<trkpt lat="37.57418002" lon="-1.08548987">
<ele>28</ele>
<time>2014-05-25T16:42:41Z</time>
</trkpt>
<trkpt lat="37.57418608" lon="-1.08547921">
<ele>28</ele>
<time>2014-05-25T16:42:43Z</time>
</trkpt>
<trkpt lat="37.57419188" lon="-1.08547267">
<ele>28</ele>
<time>2014-05-25T16:42:45Z</time>
</trkpt>
<trkpt lat="37.57419312" lon="-1.08546864">
<ele>28</ele>
<time>2014-05-25T16:42:47Z</time>
</trkpt>
<trkpt lat="37.57419383" lon="-1.08546702">
<ele>28</ele>
<time>2014-05-25T16:42:49Z</time>
</trkpt>
<trkpt lat="37.57420378" lon="-1.08543282">
<ele>29</ele>
<time>2014-05-25T16:42:51Z</time>
</trkpt>
<trkpt lat="37.57421866" lon="-1.08539234">
<ele>29</ele>
<time>2014-05-25T16:42:53Z</time>
</trkpt>
<trkpt lat="37.57423163" lon="-1.08534699">
<ele>30</ele>
<time>2014-05-25T16:42:55Z</time>
</trkpt>
<trkpt lat="37.5742462" lon="-1.0852942">
<ele>32</ele>
<time>2014-05-25T16:42:57Z</time>
</trkpt>
<trkpt lat="37.57425471" lon="-1.08523829">
<ele>33</ele>
<time>2014-05-25T16:42:59Z</time>
</trkpt>
<trkpt lat="37.57426234" lon="-1.08519723">
<ele>33</ele>
<time>2014-05-25T16:43:01Z</time>
</trkpt>
<trkpt lat="37.5742707" lon="-1.08515906">
<ele>33</ele>
<time>2014-05-25T16:43:03Z</time>
</trkpt>
<trkpt lat="37.57427785" lon="-1.08512125">
<ele>33</ele>
<time>2014-05-25T16:43:05Z</time>
</trkpt>
<trkpt lat="37.57429422" lon="-1.08508802">
<ele>33</ele>
<time>2014-05-25T16:43:07Z</time>
</trkpt>
<trkpt lat="37.57431232" lon="-1.08505966">
<ele>33</ele>
<time>2014-05-25T16:43:09Z</time>
</trkpt>
<trkpt lat="37.57433367" lon="-1.08502358">
<ele>33</ele>
<time>2014-05-25T16:43:11Z</time>
</trkpt>
<trkpt lat="37.57436402" lon="-1.08497949">
<ele>34</ele>
<time>2014-05-25T16:43:13Z</time>
</trkpt>
<trkpt lat="37.57439252" lon="-1.08494004">
<ele>33</ele>
<time>2014-05-25T16:43:15Z</time>
</trkpt>
<trkpt lat="37.57442386" lon="-1.08488995">
<ele>32</ele>
<time>2014-05-25T16:43:17Z</time>
</trkpt>
<trkpt lat="37.57445425" lon="-1.08483791">
<ele>33</ele>
<time>2014-05-25T16:43:19Z</time>
</trkpt>
<trkpt lat="37.57448209" lon="-1.08478658">
<ele>32</ele>
<time>2014-05-25T16:43:21Z</time>
</trkpt>
<trkpt lat="37.5745029" lon="-1.08474354">
<ele>31</ele>
<time>2014-05-25T16:43:23Z</time>
</trkpt>
<trkpt lat="37.57451676" lon="-1.08470483">
<ele>32</ele>
<time>2014-05-25T16:43:25Z</time>
</trkpt>
<trkpt lat="37.57451968" lon="-1.08466457">
<ele>32</ele>
<time>2014-05-25T16:43:27Z</time>
</trkpt>
<trkpt lat="37.57452486" lon="-1.08461488">
<ele>31</ele>
<time>2014-05-25T16:43:29Z</time>
</trkpt>
<trkpt lat="37.57453285" lon="-1.08456562">
<ele>31</ele>
<time>2014-05-25T16:43:31Z</time>
</trkpt>
<trkpt lat="37.57454976" lon="-1.08452236">
<ele>30</ele>
<time>2014-05-25T16:43:33Z</time>
</trkpt>
<trkpt lat="37.57456451" lon="-1.08448029">
<ele>30</ele>
<time>2014-05-25T16:43:35Z</time>
</trkpt>
<trkpt lat="37.57458168" lon="-1.08443694">
<ele>30</ele>
<time>2014-05-25T16:43:37Z</time>
</trkpt>
<trkpt lat="37.57459972" lon="-1.08443161">
<ele>29</ele>
<time>2014-05-25T16:43:39Z</time>
</trkpt>
<trkpt lat="37.57460889" lon="-1.08442632">
<ele>29</ele>
<time>2014-05-25T16:43:41Z</time>
</trkpt>
<trkpt lat="37.57461246" lon="-1.08442792">
<ele>30</ele>
<time>2014-05-25T16:43:43Z</time>
</trkpt>
<trkpt lat="37.57461647" lon="-1.08442684">
<ele>30</ele>
<time>2014-05-25T16:43:45Z</time>
</trkpt>
<trkpt lat="37.57462404" lon="-1.08440894">
<ele>30</ele>
<time>2014-05-25T16:43:47Z</time>
</trkpt>
<trkpt lat="37.57463773" lon="-1.08435834">
<ele>30</ele>
<time>2014-05-25T16:43:49Z</time>
</trkpt>
<trkpt lat="37.57465553" lon="-1.08430403">
<ele>31</ele>
<time>2014-05-25T16:43:51Z</time>
</trkpt>
<trkpt lat="37.57467745" lon="-1.0842507">
<ele>30</ele>
<time>2014-05-25T16:43:53Z</time>
</trkpt>
<trkpt lat="37.57470315" lon="-1.08420984">
<ele>30</ele>
<time>2014-05-25T16:43:55Z</time>
</trkpt>
<trkpt lat="37.57473224" lon="-1.08416655">
<ele>30</ele>
<time>2014-05-25T16:43:57Z</time>
</trkpt>
<trkpt lat="37.57476093" lon="-1.08411873">
<ele>30</ele>
<time>2014-05-25T16:43:59Z</time>
</trkpt>
<trkpt lat="37.57478866" lon="-1.08407038">
<ele>29</ele>
<time>2014-05-25T16:44:01Z</time>
</trkpt>
<trkpt lat="37.57481391" lon="-1.08401912">
<ele>30</ele>
<time>2014-05-25T16:44:03Z</time>
</trkpt>
<trkpt lat="37.57484137" lon="-1.08397381">
<ele>30</ele>
<time>2014-05-25T16:44:05Z</time>
</trkpt>
<trkpt lat="37.57485731" lon="-1.08392958">
<ele>30</ele>
<time>2014-05-25T16:44:07Z</time>
</trkpt>
<trkpt lat="37.57487104" lon="-1.08388549">
<ele>30</ele>
<time>2014-05-25T16:44:09Z</time>
</trkpt>
<trkpt lat="37.57488577" lon="-1.08384881">
<ele>30</ele>
<time>2014-05-25T16:44:11Z</time>
</trkpt>
<trkpt lat="37.57490871" lon="-1.08381194">
<ele>30</ele>
<time>2014-05-25T16:44:13Z</time>
</trkpt>
<trkpt lat="37.57493446" lon="-1.08378383">
<ele>30</ele>
<time>2014-05-25T16:44:15Z</time>
</trkpt>
<trkpt lat="37.57495359" lon="-1.08375397">
<ele>31</ele>
<time>2014-05-25T16:44:17Z</time>
</trkpt>
<trkpt lat="37.57497173" lon="-1.08373034">
<ele>31</ele>
<time>2014-05-25T16:44:19Z</time>
</trkpt>
<trkpt lat="37.57498714" lon="-1.08370563">
<ele>32</ele>
<time>2014-05-25T16:44:21Z</time>
</trkpt>
<trkpt lat="37.57499958" lon="-1.08367823">
<ele>32</ele>
<time>2014-05-25T16:44:23Z</time>
</trkpt>
<trkpt lat="37.57501416" lon="-1.08364433">
<ele>32</ele>
<time>2014-05-25T16:44:25Z</time>
</trkpt>
<trkpt lat="37.5750312" lon="-1.08360681">
<ele>33</ele>
<time>2014-05-25T16:44:27Z</time>
</trkpt>
<trkpt lat="37.57504734" lon="-1.0835846">
<ele>32</ele>
<time>2014-05-25T16:44:29Z</time>
</trkpt>
<trkpt lat="37.57506266" lon="-1.08355206">
<ele>31</ele>
<time>2014-05-25T16:44:31Z</time>
</trkpt>
<trkpt lat="37.57506747" lon="-1.08350906">
<ele>33</ele>
<time>2014-05-25T16:44:33Z</time>
</trkpt>
<trkpt lat="37.5750744" lon="-1.08347742">
<ele>32</ele>
<time>2014-05-25T16:44:35Z</time>
</trkpt>
<trkpt lat="37.57507894" lon="-1.08344427">
<ele>33</ele>
<time>2014-05-25T16:44:37Z</time>
</trkpt>
<trkpt lat="37.5750891" lon="-1.08340688">
<ele>32</ele>
<time>2014-05-25T16:44:39Z</time>
</trkpt>
<trkpt lat="37.57510005" lon="-1.08336744">
<ele>32</ele>
<time>2014-05-25T16:44:41Z</time>
</trkpt>
<trkpt lat="37.5751177" lon="-1.08332897">
<ele>32</ele>
<time>2014-05-25T16:44:43Z</time>
</trkpt>
<trkpt lat="37.57513124" lon="-1.08329264">
<ele>32</ele>
<time>2014-05-25T16:44:45Z</time>
</trkpt>
<trkpt lat="37.57514492" lon="-1.08325848">
<ele>32</ele>
<time>2014-05-25T16:44:47Z</time>
</trkpt>
<trkpt lat="37.57516249" lon="-1.08322874">
<ele>31</ele>
<time>2014-05-25T16:44:49Z</time>
</trkpt>
<trkpt lat="37.57516832" lon="-1.08323563">
<ele>31</ele>
<time>2014-05-25T16:44:51Z</time>
</trkpt>
<trkpt lat="37.57517609" lon="-1.08323334">
<ele>31</ele>
<time>2014-05-25T16:44:53Z</time>
</trkpt>
<trkpt lat="37.57518029" lon="-1.08322864">
<ele>31</ele>
<time>2014-05-25T16:44:55Z</time>
</trkpt>
<trkpt lat="37.57518444" lon="-1.08322977">
<ele>31</ele>
<time>2014-05-25T16:44:57Z</time>
</trkpt>
<trkpt lat="37.57519932" lon="-1.0831912">
<ele>31</ele>
<time>2014-05-25T16:44:59Z</time>
</trkpt>
<trkpt lat="37.57521509" lon="-1.08315319">
<ele>31</ele>
<time>2014-05-25T16:45:01Z</time>
</trkpt>
<trkpt lat="37.57523174" lon="-1.0830969">
<ele>31</ele>
<time>2014-05-25T16:45:03Z</time>
</trkpt>
<trkpt lat="37.57525011" lon="-1.08305514">
<ele>31</ele>
<time>2014-05-25T16:45:05Z</time>
</trkpt>
<trkpt lat="37.57527702" lon="-1.08300514">
<ele>31</ele>
<time>2014-05-25T16:45:07Z</time>
</trkpt>
<trkpt lat="37.57530202" lon="-1.08296175">
<ele>31</ele>
<time>2014-05-25T16:45:09Z</time>
</trkpt>
<trkpt lat="37.57533068" lon="-1.08291948">
<ele>31</ele>
<time>2014-05-25T16:45:11Z</time>
</trkpt>
<trkpt lat="37.57535302" lon="-1.08288293">
<ele>31</ele>
<time>2014-05-25T16:45:13Z</time>
</trkpt>
<trkpt lat="37.57537513" lon="-1.08285484">
<ele>31</ele>
<time>2014-05-25T16:45:15Z</time>
</trkpt>
<trkpt lat="37.57539322" lon="-1.08283089">
<ele>31</ele>
<time>2014-05-25T16:45:17Z</time>
</trkpt>
<trkpt lat="37.57541603" lon="-1.08280824">
<ele>32</ele>
<time>2014-05-25T16:45:19Z</time>
</trkpt>
<trkpt lat="37.57543546" lon="-1.08278577">
<ele>31</ele>
<time>2014-05-25T16:45:21Z</time>
</trkpt>
<trkpt lat="37.57545047" lon="-1.08275852">
<ele>30</ele>
<time>2014-05-25T16:45:23Z</time>
</trkpt>
<trkpt lat="37.57546755" lon="-1.08272696">
<ele>31</ele>
<time>2014-05-25T16:45:25Z</time>
</trkpt>
<trkpt lat="37.57548527" lon="-1.08268324">
<ele>30</ele>
<time>2014-05-25T16:45:27Z</time>
</trkpt>
<trkpt lat="37.57550703" lon="-1.08264732">
<ele>30</ele>
<time>2014-05-25T16:45:29Z</time>
</trkpt>
<trkpt lat="37.57552829" lon="-1.08261181">
<ele>31</ele>
<time>2014-05-25T16:45:31Z</time>
</trkpt>
<trkpt lat="37.57555253" lon="-1.08257875">
<ele>29</ele>
<time>2014-05-25T16:45:33Z</time>
</trkpt>
<trkpt lat="37.57557985" lon="-1.08254054">
<ele>30</ele>
<time>2014-05-25T16:45:35Z</time>
</trkpt>
<trkpt lat="37.57560873" lon="-1.08250184">
<ele>29</ele>
<time>2014-05-25T16:45:37Z</time>
</trkpt>
<trkpt lat="37.57563379" lon="-1.08245638">
<ele>29</ele>
<time>2014-05-25T16:45:39Z</time>
</trkpt>
<trkpt lat="37.57565584" lon="-1.08240938">
<ele>29</ele>
<time>2014-05-25T16:45:41Z</time>
</trkpt>
<trkpt lat="37.57567588" lon="-1.08236211">
<ele>29</ele>
<time>2014-05-25T16:45:43Z</time>
</trkpt>
<trkpt lat="37.57569465" lon="-1.08232119">
<ele>28</ele>
<time>2014-05-25T16:45:45Z</time>
</trkpt>
<trkpt lat="37.57571245" lon="-1.0822896">
<ele>27</ele>
<time>2014-05-25T16:45:47Z</time>
</trkpt>
<trkpt lat="37.57572764" lon="-1.0822602">
<ele>29</ele>
<time>2014-05-25T16:45:49Z</time>
</trkpt>
<trkpt lat="37.57573674" lon="-1.08222481">
<ele>30</ele>
<time>2014-05-25T16:45:51Z</time>
</trkpt>
<trkpt lat="37.57574877" lon="-1.08218935">
<ele>30</ele>
<time>2014-05-25T16:45:53Z</time>
</trkpt>
<trkpt lat="37.57575626" lon="-1.08216028">
<ele>30</ele>
<time>2014-05-25T16:45:55Z</time>
</trkpt>
<trkpt lat="37.57576328" lon="-1.08214073">
<ele>30</ele>
<time>2014-05-25T16:45:57Z</time>
</trkpt>
<trkpt lat="37.57577396" lon="-1.08211094">
<ele>30</ele>
<time>2014-05-25T16:45:59Z</time>
</trkpt>
<trkpt lat="37.57579156" lon="-1.08208037">
<ele>30</ele>
<time>2014-05-25T16:46:01Z</time>
</trkpt>
<trkpt lat="37.57581198" lon="-1.08204986">
<ele>29</ele>
<time>2014-05-25T16:46:03Z</time>
</trkpt>
<trkpt lat="37.57583671" lon="-1.08202256">
<ele>30</ele>
<time>2014-05-25T16:46:05Z</time>
</trkpt>
<trkpt lat="37.57585922" lon="-1.08199034">
<ele>32</ele>
<time>2014-05-25T16:46:07Z</time>
</trkpt>
<trkpt lat="37.57588113" lon="-1.08195433">
<ele>33</ele>
<time>2014-05-25T16:46:09Z</time>
</trkpt>
<trkpt lat="37.57589637" lon="-1.08190943">
<ele>34</ele>
<time>2014-05-25T16:46:11Z</time>
</trkpt>
<trkpt lat="37.57591117" lon="-1.08186702">
<ele>33</ele>
<time>2014-05-25T16:46:13Z</time>
</trkpt>
<trkpt lat="37.57593042" lon="-1.08182315">
<ele>33</ele>
<time>2014-05-25T16:46:15Z</time>
</trkpt>
<trkpt lat="37.57595534" lon="-1.08178142">
<ele>33</ele>
<time>2014-05-25T16:46:17Z</time>
</trkpt>
<trkpt lat="37.5759795" lon="-1.08174876">
<ele>33</ele>
<time>2014-05-25T16:46:19Z</time>
</trkpt>
<trkpt lat="37.57600567" lon="-1.0817243">
<ele>32</ele>
<time>2014-05-25T16:46:21Z</time>
</trkpt>
<trkpt lat="37.5760329" lon="-1.08170491">
<ele>33</ele>
<time>2014-05-25T16:46:23Z</time>
</trkpt>
<trkpt lat="37.57605275" lon="-1.0816788">
<ele>34</ele>
<time>2014-05-25T16:46:25Z</time>
</trkpt>
<trkpt lat="37.57607013" lon="-1.08165509">
<ele>34</ele>
<time>2014-05-25T16:46:27Z</time>
</trkpt>
<trkpt lat="37.5760854" lon="-1.08163301">
<ele>34</ele>
<time>2014-05-25T16:46:29Z</time>
</trkpt>
<trkpt lat="37.57609911" lon="-1.0816133">
<ele>34</ele>
<time>2014-05-25T16:46:31Z</time>
</trkpt>
<trkpt lat="37.5761105" lon="-1.08159158">
<ele>33</ele>
<time>2014-05-25T16:46:33Z</time>
</trkpt>
<trkpt lat="37.57612071" lon="-1.08158145">
<ele>33</ele>
<time>2014-05-25T16:46:35Z</time>
</trkpt>
<trkpt lat="37.57614271" lon="-1.08156964">
<ele>32</ele>
<time>2014-05-25T16:46:37Z</time>
</trkpt>
<trkpt lat="37.57616713" lon="-1.08154225">
<ele>32</ele>
<time>2014-05-25T16:46:39Z</time>
</trkpt>
<trkpt lat="37.5761865" lon="-1.08151589">
<ele>33</ele>
<time>2014-05-25T16:46:41Z</time>
</trkpt>
<trkpt lat="37.57620216" lon="-1.08148581">
<ele>34</ele>
<time>2014-05-25T16:46:43Z</time>
</trkpt>
<trkpt lat="37.57621776" lon="-1.08143899">
<ele>34</ele>
<time>2014-05-25T16:46:45Z</time>
</trkpt>
<trkpt lat="37.57623781" lon="-1.08139851">
<ele>33</ele>
<time>2014-05-25T16:46:47Z</time>
</trkpt>
<trkpt lat="37.57625301" lon="-1.08136077">
<ele>32</ele>
<time>2014-05-25T16:46:49Z</time>
</trkpt>
<trkpt lat="37.57627276" lon="-1.08131297">
<ele>32</ele>
<time>2014-05-25T16:46:51Z</time>
</trkpt>
<trkpt lat="37.57629113" lon="-1.08127339">
<ele>30</ele>
<time>2014-05-25T16:46:53Z</time>
</trkpt>
<trkpt lat="37.57631263" lon="-1.08123902">
<ele>31</ele>
<time>2014-05-25T16:46:55Z</time>
</trkpt>
<trkpt lat="37.57633391" lon="-1.08121329">
<ele>30</ele>
<time>2014-05-25T16:46:57Z</time>
</trkpt>
<trkpt lat="37.57635603" lon="-1.08118474">
<ele>29</ele>
<time>2014-05-25T16:46:59Z</time>
</trkpt>
<trkpt lat="37.57637354" lon="-1.08114716">
<ele>29</ele>
<time>2014-05-25T16:47:01Z</time>
</trkpt>
<trkpt lat="37.57639107" lon="-1.08110802">
<ele>31</ele>
<time>2014-05-25T16:47:03Z</time>
</trkpt>
<trkpt lat="37.57640752" lon="-1.08106621">
<ele>30</ele>
<time>2014-05-25T16:47:05Z</time>
</trkpt>
<trkpt lat="37.57642475" lon="-1.08101864">
<ele>31</ele>
<time>2014-05-25T16:47:07Z</time>
</trkpt>
<trkpt lat="37.57643654" lon="-1.0809744">
<ele>31</ele>
<time>2014-05-25T16:47:09Z</time>
</trkpt>
<trkpt lat="37.57644654" lon="-1.08092506">
<ele>31</ele>
<time>2014-05-25T16:47:11Z</time>
</trkpt>
<trkpt lat="37.57645522" lon="-1.08088377">
<ele>32</ele>
<time>2014-05-25T16:47:13Z</time>
</trkpt>
<trkpt lat="37.57646115" lon="-1.08084215">
<ele>34</ele>
<time>2014-05-25T16:47:15Z</time>
</trkpt>
<trkpt lat="37.57646954" lon="-1.08080388">
<ele>34</ele>
<time>2014-05-25T16:47:17Z</time>
</trkpt>
<trkpt lat="37.57647731" lon="-1.08077485">
<ele>34</ele>
<time>2014-05-25T16:47:19Z</time>
</trkpt>
<trkpt lat="37.57648432" lon="-1.08074256">
<ele>35</ele>
<time>2014-05-25T16:47:21Z</time>
</trkpt>
<trkpt lat="37.57648982" lon="-1.0806993">
<ele>34</ele>
<time>2014-05-25T16:47:23Z</time>
</trkpt>
<trkpt lat="37.57649868" lon="-1.08065138">
<ele>35</ele>
<time>2014-05-25T16:47:25Z</time>
</trkpt>
<trkpt lat="37.57650172" lon="-1.08060111">
<ele>35</ele>
<time>2014-05-25T16:47:27Z</time>
</trkpt>
<trkpt lat="37.57651416" lon="-1.08055573">
<ele>36</ele>
<time>2014-05-25T16:47:29Z</time>
</trkpt>
<trkpt lat="37.57653078" lon="-1.08051183">
<ele>36</ele>
<time>2014-05-25T16:47:31Z</time>
</trkpt>
<trkpt lat="37.5765526" lon="-1.08048114">
<ele>37</ele>
<time>2014-05-25T16:47:33Z</time>
</trkpt>
<trkpt lat="37.57657439" lon="-1.08044874">
<ele>37</ele>
<time>2014-05-25T16:47:35Z</time>
</trkpt>
<trkpt lat="37.57659909" lon="-1.08041706">
<ele>37</ele>
<time>2014-05-25T16:47:37Z</time>
</trkpt>
<trkpt lat="37.57662018" lon="-1.08038668">
<ele>36</ele>
<time>2014-05-25T16:47:39Z</time>
</trkpt>
<trkpt lat="37.57663668" lon="-1.08036863">
<ele>36</ele>
<time>2014-05-25T16:47:41Z</time>
</trkpt>
<trkpt lat="37.57665511" lon="-1.08035252">
<ele>36</ele>
<time>2014-05-25T16:47:43Z</time>
</trkpt>
<trkpt lat="37.57668017" lon="-1.08032922">
<ele>36</ele>
<time>2014-05-25T16:47:45Z</time>
</trkpt>
<trkpt lat="37.57670391" lon="-1.08030431">
<ele>36</ele>
<time>2014-05-25T16:47:47Z</time>
</trkpt>
<trkpt lat="37.57672169" lon="-1.08030036">
<ele>35</ele>
<time>2014-05-25T16:47:49Z</time>
</trkpt>
<trkpt lat="37.57672161" lon="-1.08030669">
<ele>35</ele>
<time>2014-05-25T16:47:51Z</time>
</trkpt>
<trkpt lat="37.57672037" lon="-1.08030905">
<ele>35</ele>
<time>2014-05-25T16:47:53Z</time>
</trkpt>
<trkpt lat="37.57672286" lon="-1.08029913">
<ele>35</ele>
<time>2014-05-25T16:47:55Z</time>
</trkpt>
<trkpt lat="37.57672532" lon="-1.08028907">
<ele>35</ele>
<time>2014-05-25T16:47:57Z</time>
</trkpt>
<trkpt lat="37.57674497" lon="-1.0802414">
<ele>35</ele>
<time>2014-05-25T16:47:59Z</time>
</trkpt>
<trkpt lat="37.57676899" lon="-1.08019129">
<ele>35</ele>
<time>2014-05-25T16:48:01Z</time>
</trkpt>
<trkpt lat="37.57679637" lon="-1.08013548">
<ele>36</ele>
<time>2014-05-25T16:48:03Z</time>
</trkpt>
<trkpt lat="37.5768282" lon="-1.08007735">
<ele>37</ele>
<time>2014-05-25T16:48:05Z</time>
</trkpt>
<trkpt lat="37.5768581" lon="-1.08003036">
<ele>37</ele>
<time>2014-05-25T16:48:07Z</time>
</trkpt>
<trkpt lat="37.57688577" lon="-1.07998464">
<ele>37</ele>
<time>2014-05-25T16:48:09Z</time>
</trkpt>
<trkpt lat="37.57691611" lon="-1.07993128">
<ele>39</ele>
<time>2014-05-25T16:48:11Z</time>
</trkpt>
<trkpt lat="37.57694512" lon="-1.07988021">
<ele>39</ele>
<time>2014-05-25T16:48:13Z</time>
</trkpt>
<trkpt lat="37.57697559" lon="-1.07982339">
<ele>39</ele>
<time>2014-05-25T16:48:15Z</time>
</trkpt>
<trkpt lat="37.57699772" lon="-1.07976586">
<ele>40</ele>
<time>2014-05-25T16:48:17Z</time>
</trkpt>
<trkpt lat="37.57701639" lon="-1.07971483">
<ele>41</ele>
<time>2014-05-25T16:48:19Z</time>
</trkpt>
<trkpt lat="37.57704093" lon="-1.07967166">
<ele>40</ele>
<time>2014-05-25T16:48:21Z</time>
</trkpt>
<trkpt lat="37.57706673" lon="-1.07963742">
<ele>40</ele>
<time>2014-05-25T16:48:23Z</time>
</trkpt>
<trkpt lat="37.57709707" lon="-1.07959857">
<ele>41</ele>
<time>2014-05-25T16:48:25Z</time>
</trkpt>
<trkpt lat="37.5771247" lon="-1.0795637">
<ele>42</ele>
<time>2014-05-25T16:48:27Z</time>
</trkpt>
<trkpt lat="37.57714962" lon="-1.07952089">
<ele>44</ele>
<time>2014-05-25T16:48:29Z</time>
</trkpt>
<trkpt lat="37.57716811" lon="-1.07948441">
<ele>44</ele>
<time>2014-05-25T16:48:31Z</time>
</trkpt>
<trkpt lat="37.57719083" lon="-1.07945052">
<ele>43</ele>
<time>2014-05-25T16:48:33Z</time>
</trkpt>
<trkpt lat="37.5772057" lon="-1.07941428">
<ele>44</ele>
<time>2014-05-25T16:48:35Z</time>
</trkpt>
<trkpt lat="37.57723199" lon="-1.07937329">
<ele>43</ele>
<time>2014-05-25T16:48:37Z</time>
</trkpt>
<trkpt lat="37.57725231" lon="-1.0793348">
<ele>44</ele>
<time>2014-05-25T16:48:39Z</time>
</trkpt>
<trkpt lat="37.57727436" lon="-1.07930365">
<ele>43</ele>
<time>2014-05-25T16:48:41Z</time>
</trkpt>
<trkpt lat="37.57729152" lon="-1.07927083">
<ele>43</ele>
<time>2014-05-25T16:48:43Z</time>
</trkpt>
<trkpt lat="37.57731365" lon="-1.07923654">
<ele>43</ele>
<time>2014-05-25T16:48:45Z</time>
</trkpt>
<trkpt lat="37.57732957" lon="-1.0792053">
<ele>43</ele>
<time>2014-05-25T16:48:47Z</time>
</trkpt>
<trkpt lat="37.57734867" lon="-1.07917601">
<ele>45</ele>
<time>2014-05-25T16:48:49Z</time>
</trkpt>
<trkpt lat="37.57737385" lon="-1.07914574">
<ele>46</ele>
<time>2014-05-25T16:48:51Z</time>
</trkpt>
<trkpt lat="37.57739992" lon="-1.07911316">
<ele>45</ele>
<time>2014-05-25T16:48:53Z</time>
</trkpt>
<trkpt lat="37.57741175" lon="-1.07907912">
<ele>45</ele>
<time>2014-05-25T16:48:55Z</time>
</trkpt>
<trkpt lat="37.57741526" lon="-1.07904973">
<ele>46</ele>
<time>2014-05-25T16:48:57Z</time>
</trkpt>
<trkpt lat="37.57742786" lon="-1.0790205">
<ele>47</ele>
<time>2014-05-25T16:48:59Z</time>
</trkpt>
<trkpt lat="37.57744113" lon="-1.07898605">
<ele>46</ele>
<time>2014-05-25T16:49:01Z</time>
</trkpt>
<trkpt lat="37.57745642" lon="-1.0789441">
<ele>46</ele>
<time>2014-05-25T16:49:03Z</time>
</trkpt>
<trkpt lat="37.57747131" lon="-1.07890167">
<ele>45</ele>
<time>2014-05-25T16:49:05Z</time>
</trkpt>
<trkpt lat="37.5774843" lon="-1.0788593">
<ele>45</ele>
<time>2014-05-25T16:49:07Z</time>
</trkpt>
<trkpt lat="37.57749676" lon="-1.07881947">
<ele>47</ele>
<time>2014-05-25T16:49:09Z</time>
</trkpt>
<trkpt lat="37.57751159" lon="-1.07878157">
<ele>47</ele>
<time>2014-05-25T16:49:11Z</time>
</trkpt>
<trkpt lat="37.57752618" lon="-1.07874118">
<ele>47</ele>
<time>2014-05-25T16:49:13Z</time>
</trkpt>
<trkpt lat="37.57754207" lon="-1.0787069">
<ele>47</ele>
<time>2014-05-25T16:49:15Z</time>
</trkpt>
<trkpt lat="37.57755792" lon="-1.07867559">
<ele>47</ele>
<time>2014-05-25T16:49:17Z</time>
</trkpt>
<trkpt lat="37.57755562" lon="-1.0786782">
<ele>48</ele>
<time>2014-05-25T16:49:19Z</time>
</trkpt>
<trkpt lat="37.57755487" lon="-1.07867856">
<ele>47</ele>
<time>2014-05-25T16:49:21Z</time>
</trkpt>
<trkpt lat="37.57755844" lon="-1.07867473">
<ele>48</ele>
<time>2014-05-25T16:49:23Z</time>
</trkpt>
<trkpt lat="37.57756153" lon="-1.07866916">
<ele>48</ele>
<time>2014-05-25T16:49:25Z</time>
</trkpt>
<trkpt lat="37.57757203" lon="-1.07863014">
<ele>48</ele>
<time>2014-05-25T16:49:27Z</time>
</trkpt>
<trkpt lat="37.5775808" lon="-1.07858905">
<ele>49</ele>
<time>2014-05-25T16:49:29Z</time>
</trkpt>
<trkpt lat="37.57759203" lon="-1.07854216">
<ele>48</ele>
<time>2014-05-25T16:49:31Z</time>
</trkpt>
<trkpt lat="37.57759811" lon="-1.07848724">
<ele>48</ele>
<time>2014-05-25T16:49:33Z</time>
</trkpt>
<trkpt lat="37.57761727" lon="-1.07843817">
<ele>48</ele>
<time>2014-05-25T16:49:35Z</time>
</trkpt>
<trkpt lat="37.57764609" lon="-1.07839694">
<ele>48</ele>
<time>2014-05-25T16:49:37Z</time>
</trkpt>
<trkpt lat="37.57767555" lon="-1.07835677">
<ele>48</ele>
<time>2014-05-25T16:49:39Z</time>
</trkpt>
<trkpt lat="37.57769971" lon="-1.0783145">
<ele>49</ele>
<time>2014-05-25T16:49:41Z</time>
</trkpt>
<trkpt lat="37.57771837" lon="-1.07827277">
<ele>48</ele>
<time>2014-05-25T16:49:43Z</time>
</trkpt>
<trkpt lat="37.57773825" lon="-1.07823479">
<ele>48</ele>
<time>2014-05-25T16:49:45Z</time>
</trkpt>
<trkpt lat="37.57775509" lon="-1.07819576">
<ele>48</ele>
<time>2014-05-25T16:49:47Z</time>
</trkpt>
<trkpt lat="37.5777655" lon="-1.07814512">
<ele>48</ele>
<time>2014-05-25T16:49:49Z</time>
</trkpt>
<trkpt lat="37.57777859" lon="-1.07809642">
<ele>48</ele>
<time>2014-05-25T16:49:51Z</time>
</trkpt>
<trkpt lat="37.57779176" lon="-1.07805292">
<ele>48</ele>
<time>2014-05-25T16:49:53Z</time>
</trkpt>
<trkpt lat="37.57780455" lon="-1.07801229">
<ele>48</ele>
<time>2014-05-25T16:49:55Z</time>
</trkpt>
<trkpt lat="37.57781644" lon="-1.07796672">
<ele>48</ele>
<time>2014-05-25T16:49:57Z</time>
</trkpt>
<trkpt lat="37.57783016" lon="-1.07792886">
<ele>48</ele>
<time>2014-05-25T16:49:59Z</time>
</trkpt>
<trkpt lat="37.57784716" lon="-1.07788731">
<ele>48</ele>
<time>2014-05-25T16:50:01Z</time>
</trkpt>
<trkpt lat="37.57786168" lon="-1.07784784">
<ele>48</ele>
<time>2014-05-25T16:50:03Z</time>
</trkpt>
<trkpt lat="37.57787603" lon="-1.07780539">
<ele>48</ele>
<time>2014-05-25T16:50:05Z</time>
</trkpt>
<trkpt lat="37.57789095" lon="-1.07776028">
<ele>47</ele>
<time>2014-05-25T16:50:07Z</time>
</trkpt>
<trkpt lat="37.57791055" lon="-1.07772204">
<ele>47</ele>
<time>2014-05-25T16:50:09Z</time>
</trkpt>
<trkpt lat="37.5779352" lon="-1.0776855">
<ele>46</ele>
<time>2014-05-25T16:50:11Z</time>
</trkpt>
<trkpt lat="37.57794787" lon="-1.07764837">
<ele>46</ele>
<time>2014-05-25T16:50:13Z</time>
</trkpt>
<trkpt lat="37.57796058" lon="-1.07761265">
<ele>46</ele>
<time>2014-05-25T16:50:15Z</time>
</trkpt>
<trkpt lat="37.57798083" lon="-1.07757239">
<ele>45</ele>
<time>2014-05-25T16:50:17Z</time>
</trkpt>
<trkpt lat="37.57800413" lon="-1.07753322">
<ele>46</ele>
<time>2014-05-25T16:50:19Z</time>
</trkpt>
<trkpt lat="37.57802363" lon="-1.07750702">
<ele>45</ele>
<time>2014-05-25T16:50:21Z</time>
</trkpt>
<trkpt lat="37.57803471" lon="-1.0774824">
<ele>45</ele>
<time>2014-05-25T16:50:23Z</time>
</trkpt>
<trkpt lat="37.5780409" lon="-1.07746671">
<ele>46</ele>
<time>2014-05-25T16:50:25Z</time>
</trkpt>
<trkpt lat="37.57804763" lon="-1.07744166">
<ele>46</ele>
<time>2014-05-25T16:50:27Z</time>
</trkpt>
<trkpt lat="37.57805513" lon="-1.07740851">
<ele>46</ele>
<time>2014-05-25T16:50:29Z</time>
</trkpt>
<trkpt lat="37.57807171" lon="-1.07737047">
<ele>45</ele>
<time>2014-05-25T16:50:31Z</time>
</trkpt>
<trkpt lat="37.57809377" lon="-1.07732963">
<ele>45</ele>
<time>2014-05-25T16:50:33Z</time>
</trkpt>
<trkpt lat="37.57811414" lon="-1.07729379">
<ele>46</ele>
<time>2014-05-25T16:50:35Z</time>
</trkpt>
<trkpt lat="37.57813124" lon="-1.0772682">
<ele>47</ele>
<time>2014-05-25T16:50:37Z</time>
</trkpt>
<trkpt lat="37.57814526" lon="-1.07724817">
<ele>48</ele>
<time>2014-05-25T16:50:39Z</time>
</trkpt>
<trkpt lat="37.57815211" lon="-1.07721702">
<ele>49</ele>
<time>2014-05-25T16:50:41Z</time>
</trkpt>
<trkpt lat="37.57815572" lon="-1.07718637">
<ele>48</ele>
<time>2014-05-25T16:50:43Z</time>
</trkpt>
<trkpt lat="37.57815717" lon="-1.07715533">
<ele>49</ele>
<time>2014-05-25T16:50:45Z</time>
</trkpt>
<trkpt lat="37.57815887" lon="-1.07713376">
<ele>52</ele>
<time>2014-05-25T16:50:47Z</time>
</trkpt>
<trkpt lat="37.57816238" lon="-1.07711401">
<ele>52</ele>
<time>2014-05-25T16:50:49Z</time>
</trkpt>
<trkpt lat="37.57816373" lon="-1.07709109">
<ele>53</ele>
<time>2014-05-25T16:50:51Z</time>
</trkpt>
<trkpt lat="37.57816368" lon="-1.07707794">
<ele>54</ele>
<time>2014-05-25T16:50:53Z</time>
</trkpt>
<trkpt lat="37.57816831" lon="-1.07707318">
<ele>55</ele>
<time>2014-05-25T16:50:55Z</time>
</trkpt>
<trkpt lat="37.57818082" lon="-1.07706987">
<ele>55</ele>
<time>2014-05-25T16:50:57Z</time>
</trkpt>
<trkpt lat="37.57819363" lon="-1.07706536">
<ele>56</ele>
<time>2014-05-25T16:50:59Z</time>
</trkpt>
<trkpt lat="37.57820611" lon="-1.07705301">
<ele>56</ele>
<time>2014-05-25T16:51:01Z</time>
</trkpt>
<trkpt lat="37.57821482" lon="-1.07704833">
<ele>58</ele>
<time>2014-05-25T16:51:03Z</time>
</trkpt>
<trkpt lat="37.57822224" lon="-1.07704117">
<ele>58</ele>
<time>2014-05-25T16:51:05Z</time>
</trkpt>
<trkpt lat="37.57822946" lon="-1.07703751">
<ele>58</ele>
<time>2014-05-25T16:51:07Z</time>
</trkpt>
<trkpt lat="37.57823378" lon="-1.0770333">
<ele>58</ele>
<time>2014-05-25T16:51:09Z</time>
</trkpt>
<trkpt lat="37.57823834" lon="-1.0770245">
<ele>59</ele>
<time>2014-05-25T16:51:11Z</time>
</trkpt>
<trkpt lat="37.57824748" lon="-1.07701795">
<ele>58</ele>
<time>2014-05-25T16:51:13Z</time>
</trkpt>
<trkpt lat="37.57825751" lon="-1.07701126">
<ele>59</ele>
<time>2014-05-25T16:51:15Z</time>
</trkpt>
<trkpt lat="37.57826633" lon="-1.07700415">
<ele>58</ele>
<time>2014-05-25T16:51:17Z</time>
</trkpt>
<trkpt lat="37.57827505" lon="-1.07699691">
<ele>58</ele>
<time>2014-05-25T16:51:19Z</time>
</trkpt>
<trkpt lat="37.57828575" lon="-1.07698041">
<ele>57</ele>
<time>2014-05-25T16:51:21Z</time>
</trkpt>
<trkpt lat="37.57829644" lon="-1.07696471">
<ele>57</ele>
<time>2014-05-25T16:51:23Z</time>
</trkpt>
<trkpt lat="37.57830788" lon="-1.07695824">
<ele>57</ele>
<time>2014-05-25T16:51:25Z</time>
</trkpt>
<trkpt lat="37.57831723" lon="-1.07695586">
<ele>57</ele>
<time>2014-05-25T16:51:27Z</time>
</trkpt>
<trkpt lat="37.57832348" lon="-1.07695347">
<ele>56</ele>
<time>2014-05-25T16:51:29Z</time>
</trkpt>
<trkpt lat="37.57832947" lon="-1.07694257">
<ele>56</ele>
<time>2014-05-25T16:51:31Z</time>
</trkpt>
<trkpt lat="37.57833568" lon="-1.07692501">
<ele>55</ele>
<time>2014-05-25T16:51:33Z</time>
</trkpt>
<trkpt lat="37.57834809" lon="-1.07689619">
<ele>55</ele>
<time>2014-05-25T16:51:35Z</time>
</trkpt>
<trkpt lat="37.57834787" lon="-1.07687759">
<ele>55</ele>
<time>2014-05-25T16:51:37Z</time>
</trkpt>
<trkpt lat="37.57834899" lon="-1.0768597">
<ele>55</ele>
<time>2014-05-25T16:51:39Z</time>
</trkpt>
<trkpt lat="37.57835438" lon="-1.07684177">
<ele>55</ele>
<time>2014-05-25T16:51:41Z</time>
</trkpt>
<trkpt lat="37.57837343" lon="-1.07683101">
<ele>54</ele>
<time>2014-05-25T16:51:43Z</time>
</trkpt>
<trkpt lat="37.57839157" lon="-1.07682407">
<ele>53</ele>
<time>2014-05-25T16:51:45Z</time>
</trkpt>
<trkpt lat="37.57840548" lon="-1.07682034">
<ele>53</ele>
<time>2014-05-25T16:51:47Z</time>
</trkpt>
<trkpt lat="37.57841417" lon="-1.07681629">
<ele>53</ele>
<time>2014-05-25T16:51:49Z</time>
</trkpt>
<trkpt lat="37.57842228" lon="-1.07681592">
<ele>53</ele>
<time>2014-05-25T16:51:51Z</time>
</trkpt>
<trkpt lat="37.57843233" lon="-1.07681797">
<ele>54</ele>
<time>2014-05-25T16:51:53Z</time>
</trkpt>
<trkpt lat="37.57843905" lon="-1.0768148">
<ele>54</ele>
<time>2014-05-25T16:51:55Z</time>
</trkpt>
<trkpt lat="37.57844715" lon="-1.07681377">
<ele>55</ele>
<time>2014-05-25T16:51:57Z</time>
</trkpt>
<trkpt lat="37.57845309" lon="-1.07680317">
<ele>55</ele>
<time>2014-05-25T16:51:59Z</time>
</trkpt>
<trkpt lat="37.57845961" lon="-1.07678469">
<ele>56</ele>
<time>2014-05-25T16:52:01Z</time>
</trkpt>
<trkpt lat="37.57846816" lon="-1.07675302">
<ele>57</ele>
<time>2014-05-25T16:52:03Z</time>
</trkpt>
<trkpt lat="37.57847799" lon="-1.07671068">
<ele>57</ele>
<time>2014-05-25T16:52:05Z</time>
</trkpt>
<trkpt lat="37.57848624" lon="-1.07666287">
<ele>57</ele>
<time>2014-05-25T16:52:07Z</time>
</trkpt>
<trkpt lat="37.57849866" lon="-1.07662614">
<ele>57</ele>
<time>2014-05-25T16:52:09Z</time>
</trkpt>
<trkpt lat="37.57850576" lon="-1.0765901">
<ele>57</ele>
<time>2014-05-25T16:52:11Z</time>
</trkpt>
<trkpt lat="37.57851178" lon="-1.07656316">
<ele>58</ele>
<time>2014-05-25T16:52:13Z</time>
</trkpt>
<trkpt lat="37.57852442" lon="-1.07653521">
<ele>57</ele>
<time>2014-05-25T16:52:15Z</time>
</trkpt>
<trkpt lat="37.57854172" lon="-1.07650834">
<ele>55</ele>
<time>2014-05-25T16:52:17Z</time>
</trkpt>
<trkpt lat="37.57856147" lon="-1.07647735">
<ele>54</ele>
<time>2014-05-25T16:52:19Z</time>
</trkpt>
<trkpt lat="37.57857518" lon="-1.07644302">
<ele>53</ele>
<time>2014-05-25T16:52:21Z</time>
</trkpt>
<trkpt lat="37.57858349" lon="-1.07641984">
<ele>52</ele>
<time>2014-05-25T16:52:23Z</time>
</trkpt>
<trkpt lat="37.57859009" lon="-1.07639718">
<ele>52</ele>
<time>2014-05-25T16:52:25Z</time>
</trkpt>
<trkpt lat="37.5786002" lon="-1.07637741">
<ele>52</ele>
<time>2014-05-25T16:52:27Z</time>
</trkpt>
<trkpt lat="37.57861866" lon="-1.07635021">
<ele>53</ele>
<time>2014-05-25T16:52:29Z</time>
</trkpt>
<trkpt lat="37.57864027" lon="-1.07632103">
<ele>52</ele>
<time>2014-05-25T16:52:31Z</time>
</trkpt>
<trkpt lat="37.57866315" lon="-1.07628624">
<ele>52</ele>
<time>2014-05-25T16:52:33Z</time>
</trkpt>
<trkpt lat="37.57868551" lon="-1.07625502">
<ele>51</ele>
<time>2014-05-25T16:52:35Z</time>
</trkpt>
<trkpt lat="37.57870477" lon="-1.07621958">
<ele>51</ele>
<time>2014-05-25T16:52:37Z</time>
</trkpt>
<trkpt lat="37.57872405" lon="-1.07618391">
<ele>50</ele>
<time>2014-05-25T16:52:39Z</time>
</trkpt>
<trkpt lat="37.57874386" lon="-1.07614395">
<ele>49</ele>
<time>2014-05-25T16:52:41Z</time>
</trkpt>
<trkpt lat="37.57876269" lon="-1.07610499">
<ele>49</ele>
<time>2014-05-25T16:52:43Z</time>
</trkpt>
<trkpt lat="37.57878319" lon="-1.07606877">
<ele>48</ele>
<time>2014-05-25T16:52:45Z</time>
</trkpt>
<trkpt lat="37.57880581" lon="-1.07604028">
<ele>48</ele>
<time>2014-05-25T16:52:47Z</time>
</trkpt>
<trkpt lat="37.57882966" lon="-1.07600945">
<ele>49</ele>
<time>2014-05-25T16:52:49Z</time>
</trkpt>
<trkpt lat="37.57885671" lon="-1.07597822">
<ele>49</ele>
<time>2014-05-25T16:52:51Z</time>
</trkpt>
<trkpt lat="37.57888172" lon="-1.0759371">
<ele>48</ele>
<time>2014-05-25T16:52:53Z</time>
</trkpt>
<trkpt lat="37.57890251" lon="-1.07590836">
<ele>49</ele>
<time>2014-05-25T16:52:55Z</time>
</trkpt>
<trkpt lat="37.57892025" lon="-1.07588157">
<ele>49</ele>
<time>2014-05-25T16:52:57Z</time>
</trkpt>
<trkpt lat="37.57893833" lon="-1.0758636">
<ele>49</ele>
<time>2014-05-25T16:52:59Z</time>
</trkpt>
<trkpt lat="37.5789528" lon="-1.07583732">
<ele>49</ele>
<time>2014-05-25T16:53:01Z</time>
</trkpt>
<trkpt lat="37.5789691" lon="-1.07581305">
<ele>49</ele>
<time>2014-05-25T16:53:03Z</time>
</trkpt>
<trkpt lat="37.5789845" lon="-1.07578684">
<ele>49</ele>
<time>2014-05-25T16:53:05Z</time>
</trkpt>
<trkpt lat="37.5789964" lon="-1.07576331">
<ele>50</ele>
<time>2014-05-25T16:53:07Z</time>
</trkpt>
<trkpt lat="37.57901674" lon="-1.07572936">
<ele>50</ele>
<time>2014-05-25T16:53:09Z</time>
</trkpt>
<trkpt lat="37.57902846" lon="-1.07570021">
<ele>50</ele>
<time>2014-05-25T16:53:11Z</time>
</trkpt>
<trkpt lat="37.57904484" lon="-1.0756668">
<ele>50</ele>
<time>2014-05-25T16:53:13Z</time>
</trkpt>
<trkpt lat="37.57906004" lon="-1.07562531">
<ele>51</ele>
<time>2014-05-25T16:53:15Z</time>
</trkpt>
<trkpt lat="37.57907268" lon="-1.07558858">
<ele>50</ele>
<time>2014-05-25T16:53:17Z</time>
</trkpt>
<trkpt lat="37.57908812" lon="-1.07554608">
<ele>50</ele>
<time>2014-05-25T16:53:19Z</time>
</trkpt>
<trkpt lat="37.5791031" lon="-1.07550622">
<ele>50</ele>
<time>2014-05-25T16:53:21Z</time>
</trkpt>
<trkpt lat="37.5791205" lon="-1.07546035">
<ele>49</ele>
<time>2014-05-25T16:53:23Z</time>
</trkpt>
<trkpt lat="37.57913524" lon="-1.07542592">
<ele>50</ele>
<time>2014-05-25T16:53:25Z</time>
</trkpt>
<trkpt lat="37.5791498" lon="-1.0753906">
<ele>49</ele>
<time>2014-05-25T16:53:27Z</time>
</trkpt>
<trkpt lat="37.57916585" lon="-1.07534889">
<ele>50</ele>
<time>2014-05-25T16:53:29Z</time>
</trkpt>
<trkpt lat="37.5791826" lon="-1.07530287">
<ele>50</ele>
<time>2014-05-25T16:53:31Z</time>
</trkpt>
<trkpt lat="37.57919765" lon="-1.07526394">
<ele>50</ele>
<time>2014-05-25T16:53:33Z</time>
</trkpt>
<trkpt lat="37.57920803" lon="-1.07523138">
<ele>50</ele>
<time>2014-05-25T16:53:35Z</time>
</trkpt>
<trkpt lat="37.57922138" lon="-1.07520097">
<ele>49</ele>
<time>2014-05-25T16:53:37Z</time>
</trkpt>
<trkpt lat="37.57923534" lon="-1.07516903">
<ele>50</ele>
<time>2014-05-25T16:53:39Z</time>
</trkpt>
<trkpt lat="37.57924969" lon="-1.07513355">
<ele>49</ele>
<time>2014-05-25T16:53:41Z</time>
</trkpt>
<trkpt lat="37.57926799" lon="-1.07509412">
<ele>48</ele>
<time>2014-05-25T16:53:43Z</time>
</trkpt>
<trkpt lat="37.57928673" lon="-1.07505413">
<ele>48</ele>
<time>2014-05-25T16:53:45Z</time>
</trkpt>
<trkpt lat="37.57930218" lon="-1.07501863">
<ele>49</ele>
<time>2014-05-25T16:53:47Z</time>
</trkpt>
<trkpt lat="37.57931859" lon="-1.07497909">
<ele>48</ele>
<time>2014-05-25T16:53:49Z</time>
</trkpt>
<trkpt lat="37.57933208" lon="-1.07494413">
<ele>47</ele>
<time>2014-05-25T16:53:51Z</time>
</trkpt>
<trkpt lat="37.57934621" lon="-1.07490483">
<ele>47</ele>
<time>2014-05-25T16:53:53Z</time>
</trkpt>
<trkpt lat="37.57935841" lon="-1.07486753">
<ele>46</ele>
<time>2014-05-25T16:53:55Z</time>
</trkpt>
<trkpt lat="37.57937046" lon="-1.0748393">
<ele>46</ele>
<time>2014-05-25T16:53:57Z</time>
</trkpt>
<trkpt lat="37.5793838" lon="-1.07481274">
<ele>46</ele>
<time>2014-05-25T16:53:59Z</time>
</trkpt>
<trkpt lat="37.57939618" lon="-1.07478107">
<ele>46</ele>
<time>2014-05-25T16:54:01Z</time>
</trkpt>
<trkpt lat="37.57940975" lon="-1.07474486">
<ele>46</ele>
<time>2014-05-25T16:54:03Z</time>
</trkpt>
<trkpt lat="37.57942367" lon="-1.07471292">
<ele>46</ele>
<time>2014-05-25T16:54:05Z</time>
</trkpt>
<trkpt lat="37.57943633" lon="-1.07467938">
<ele>46</ele>
<time>2014-05-25T16:54:07Z</time>
</trkpt>
<trkpt lat="37.57944849" lon="-1.07464815">
<ele>46</ele>
<time>2014-05-25T16:54:09Z</time>
</trkpt>
<trkpt lat="37.57946507" lon="-1.07461013">
<ele>46</ele>
<time>2014-05-25T16:54:11Z</time>
</trkpt>
<trkpt lat="37.57948456" lon="-1.07456862">
<ele>46</ele>
<time>2014-05-25T16:54:13Z</time>
</trkpt>
<trkpt lat="37.57950199" lon="-1.07453089">
<ele>47</ele>
<time>2014-05-25T16:54:15Z</time>
</trkpt>
<trkpt lat="37.57952084" lon="-1.07449359">
<ele>48</ele>
<time>2014-05-25T16:54:17Z</time>
</trkpt>
<trkpt lat="37.57953602" lon="-1.07445558">
<ele>46</ele>
<time>2014-05-25T16:54:19Z</time>
</trkpt>
<trkpt lat="37.57955009" lon="-1.07441521">
<ele>46</ele>
<time>2014-05-25T16:54:21Z</time>
</trkpt>
<trkpt lat="37.57956138" lon="-1.07438227">
<ele>46</ele>
<time>2014-05-25T16:54:23Z</time>
</trkpt>
<trkpt lat="37.57957551" lon="-1.07434081">
<ele>45</ele>
<time>2014-05-25T16:54:25Z</time>
</trkpt>
<trkpt lat="37.57958496" lon="-1.07430826">
<ele>44</ele>
<time>2014-05-25T16:54:27Z</time>
</trkpt>
<trkpt lat="37.5795947" lon="-1.07427216">
<ele>44</ele>
<time>2014-05-25T16:54:29Z</time>
</trkpt>
<trkpt lat="37.57960295" lon="-1.07424423">
<ele>43</ele>
<time>2014-05-25T16:54:31Z</time>
</trkpt>
<trkpt lat="37.57961317" lon="-1.07421463">
<ele>45</ele>
<time>2014-05-25T16:54:33Z</time>
</trkpt>
<trkpt lat="37.57962164" lon="-1.07418871">
<ele>44</ele>
<time>2014-05-25T16:54:35Z</time>
</trkpt>
<trkpt lat="37.57963085" lon="-1.07415672">
<ele>44</ele>
<time>2014-05-25T16:54:37Z</time>
</trkpt>
<trkpt lat="37.57964244" lon="-1.0741206">
<ele>44</ele>
<time>2014-05-25T16:54:39Z</time>
</trkpt>
<trkpt lat="37.57965464" lon="-1.07408512">
<ele>45</ele>
<time>2014-05-25T16:54:41Z</time>
</trkpt>
<trkpt lat="37.57967246" lon="-1.07404452">
<ele>46</ele>
<time>2014-05-25T16:54:43Z</time>
</trkpt>
<trkpt lat="37.57969084" lon="-1.07400317">
<ele>47</ele>
<time>2014-05-25T16:54:45Z</time>
</trkpt>
<trkpt lat="37.57970838" lon="-1.07396192">
<ele>47</ele>
<time>2014-05-25T16:54:47Z</time>
</trkpt>
<trkpt lat="37.5797198" lon="-1.07392923">
<ele>46</ele>
<time>2014-05-25T16:54:49Z</time>
</trkpt>
<trkpt lat="37.57973314" lon="-1.07389543">
<ele>47</ele>
<time>2014-05-25T16:54:51Z</time>
</trkpt>
<trkpt lat="37.57974654" lon="-1.07386106">
<ele>47</ele>
<time>2014-05-25T16:54:53Z</time>
</trkpt>
<trkpt lat="37.57976091" lon="-1.07382353">
<ele>47</ele>
<time>2014-05-25T16:54:55Z</time>
</trkpt>
<trkpt lat="37.57977371" lon="-1.07379075">
<ele>47</ele>
<time>2014-05-25T16:54:57Z</time>
</trkpt>
<trkpt lat="37.57978512" lon="-1.07375964">
<ele>47</ele>
<time>2014-05-25T16:54:59Z</time>
</trkpt>
<trkpt lat="37.57979365" lon="-1.07372896">
<ele>47</ele>
<time>2014-05-25T16:55:01Z</time>
</trkpt>
<trkpt lat="37.57980033" lon="-1.07368997">
<ele>47</ele>
<time>2014-05-25T16:55:03Z</time>
</trkpt>
<trkpt lat="37.57980811" lon="-1.07365122">
<ele>48</ele>
<time>2014-05-25T16:55:05Z</time>
</trkpt>
<trkpt lat="37.5798152" lon="-1.07361296">
<ele>49</ele>
<time>2014-05-25T16:55:07Z</time>
</trkpt>
<trkpt lat="37.57982448" lon="-1.0735725">
<ele>49</ele>
<time>2014-05-25T16:55:09Z</time>
</trkpt>
<trkpt lat="37.57983496" lon="-1.07353022">
<ele>48</ele>
<time>2014-05-25T16:55:11Z</time>
</trkpt>
<trkpt lat="37.57984492" lon="-1.07349615">
<ele>50</ele>
<time>2014-05-25T16:55:13Z</time>
</trkpt>
<trkpt lat="37.57985611" lon="-1.07346431">
<ele>50</ele>
<time>2014-05-25T16:55:15Z</time>
</trkpt>
<trkpt lat="37.57986467" lon="-1.07343584">
<ele>49</ele>
<time>2014-05-25T16:55:17Z</time>
</trkpt>
<trkpt lat="37.57987285" lon="-1.07340164">
<ele>49</ele>
<time>2014-05-25T16:55:19Z</time>
</trkpt>
<trkpt lat="37.57988067" lon="-1.07336555">
<ele>49</ele>
<time>2014-05-25T16:55:21Z</time>
</trkpt>
<trkpt lat="37.57989089" lon="-1.07332632">
<ele>49</ele>
<time>2014-05-25T16:55:23Z</time>
</trkpt>
<trkpt lat="37.57989994" lon="-1.07328506">
<ele>48</ele>
<time>2014-05-25T16:55:25Z</time>
</trkpt>
<trkpt lat="37.57990793" lon="-1.07324333">
<ele>49</ele>
<time>2014-05-25T16:55:27Z</time>
</trkpt>
<trkpt lat="37.57991491" lon="-1.07320523">
<ele>48</ele>
<time>2014-05-25T16:55:29Z</time>
</trkpt>
<trkpt lat="37.57991678" lon="-1.07317326">
<ele>48</ele>
<time>2014-05-25T16:55:31Z</time>
</trkpt>
<trkpt lat="37.57992017" lon="-1.07313957">
<ele>48</ele>
<time>2014-05-25T16:55:33Z</time>
</trkpt>
<trkpt lat="37.57992749" lon="-1.0731037">
<ele>48</ele>
<time>2014-05-25T16:55:35Z</time>
</trkpt>
<trkpt lat="37.57993515" lon="-1.07306585">
<ele>48</ele>
<time>2014-05-25T16:55:37Z</time>
</trkpt>
<trkpt lat="37.57994649" lon="-1.073022">
<ele>47</ele>
<time>2014-05-25T16:55:39Z</time>
</trkpt>
<trkpt lat="37.57996251" lon="-1.07297965">
<ele>48</ele>
<time>2014-05-25T16:55:41Z</time>
</trkpt>
<trkpt lat="37.57997747" lon="-1.07293921">
<ele>49</ele>
<time>2014-05-25T16:55:43Z</time>
</trkpt>
<trkpt lat="37.57998912" lon="-1.07290059">
<ele>49</ele>
<time>2014-05-25T16:55:45Z</time>
</trkpt>
<trkpt lat="37.58000005" lon="-1.07286318">
<ele>50</ele>
<time>2014-05-25T16:55:47Z</time>
</trkpt>
<trkpt lat="37.5800056" lon="-1.07282974">
<ele>48</ele>
<time>2014-05-25T16:55:49Z</time>
</trkpt>
<trkpt lat="37.58001016" lon="-1.07279645">
<ele>48</ele>
<time>2014-05-25T16:55:51Z</time>
</trkpt>
<trkpt lat="37.58000904" lon="-1.07276451">
<ele>47</ele>
<time>2014-05-25T16:55:53Z</time>
</trkpt>
<trkpt lat="37.5800088" lon="-1.0727319">
<ele>46</ele>
<time>2014-05-25T16:55:55Z</time>
</trkpt>
<trkpt lat="37.5800116" lon="-1.07269413">
<ele>46</ele>
<time>2014-05-25T16:55:57Z</time>
</trkpt>
<trkpt lat="37.58002535" lon="-1.072653">
<ele>48</ele>
<time>2014-05-25T16:55:59Z</time>
</trkpt>
<trkpt lat="37.58003754" lon="-1.07260778">
<ele>48</ele>
<time>2014-05-25T16:56:01Z</time>
</trkpt>
<trkpt lat="37.58005248" lon="-1.07256155">
<ele>48</ele>
<time>2014-05-25T16:56:03Z</time>
</trkpt>
<trkpt lat="37.58006296" lon="-1.07252312">
<ele>48</ele>
<time>2014-05-25T16:56:05Z</time>
</trkpt>
<trkpt lat="37.58007354" lon="-1.07248629">
<ele>48</ele>
<time>2014-05-25T16:56:07Z</time>
</trkpt>
<trkpt lat="37.58008215" lon="-1.07245807">
<ele>48</ele>
<time>2014-05-25T16:56:09Z</time>
</trkpt>
<trkpt lat="37.58009331" lon="-1.07242037">
<ele>48</ele>
<time>2014-05-25T16:56:11Z</time>
</trkpt>
<trkpt lat="37.58010461" lon="-1.07238007">
<ele>47</ele>
<time>2014-05-25T16:56:13Z</time>
</trkpt>
<trkpt lat="37.58011731" lon="-1.07234202">
<ele>47</ele>
<time>2014-05-25T16:56:15Z</time>
</trkpt>
<trkpt lat="37.58012619" lon="-1.0723051">
<ele>48</ele>
<time>2014-05-25T16:56:17Z</time>
</trkpt>
<trkpt lat="37.58013413" lon="-1.07227294">
<ele>47</ele>
<time>2014-05-25T16:56:19Z</time>
</trkpt>
<trkpt lat="37.58014201" lon="-1.07223974">
<ele>47</ele>
<time>2014-05-25T16:56:21Z</time>
</trkpt>
<trkpt lat="37.58015184" lon="-1.0722051">
<ele>48</ele>
<time>2014-05-25T16:56:23Z</time>
</trkpt>
<trkpt lat="37.58016267" lon="-1.07217412">
<ele>48</ele>
<time>2014-05-25T16:56:25Z</time>
</trkpt>
<trkpt lat="37.58017498" lon="-1.07214606">
<ele>49</ele>
<time>2014-05-25T16:56:27Z</time>
</trkpt>
<trkpt lat="37.58018634" lon="-1.07212351">
<ele>49</ele>
<time>2014-05-25T16:56:29Z</time>
</trkpt>
<trkpt lat="37.58020082" lon="-1.07210833">
<ele>49</ele>
<time>2014-05-25T16:56:31Z</time>
</trkpt>
<trkpt lat="37.58021131" lon="-1.07210104">
<ele>49</ele>
<time>2014-05-25T16:56:33Z</time>
</trkpt>
<trkpt lat="37.58022082" lon="-1.07208617">
<ele>48</ele>
<time>2014-05-25T16:56:35Z</time>
</trkpt>
<trkpt lat="37.58022712" lon="-1.07206592">
<ele>48</ele>
<time>2014-05-25T16:56:37Z</time>
</trkpt>
<trkpt lat="37.58022971" lon="-1.07204482">
<ele>48</ele>
<time>2014-05-25T16:56:39Z</time>
</trkpt>
<trkpt lat="37.580226" lon="-1.07202715">
<ele>49</ele>
<time>2014-05-25T16:56:41Z</time>
</trkpt>
<trkpt lat="37.58022542" lon="-1.07202017">
<ele>48</ele>
<time>2014-05-25T16:56:43Z</time>
</trkpt>
<trkpt lat="37.58023" lon="-1.07200406">
<ele>49</ele>
<time>2014-05-25T16:56:45Z</time>
</trkpt>
<trkpt lat="37.58023854" lon="-1.0719812">
<ele>49</ele>
<time>2014-05-25T16:56:47Z</time>
</trkpt>
<trkpt lat="37.58024451" lon="-1.07195478">
<ele>49</ele>
<time>2014-05-25T16:56:49Z</time>
</trkpt>
<trkpt lat="37.5802449" lon="-1.07193297">
<ele>49</ele>
<time>2014-05-25T16:56:51Z</time>
</trkpt>
<trkpt lat="37.58025265" lon="-1.07190004">
<ele>49</ele>
<time>2014-05-25T16:56:53Z</time>
</trkpt>
<trkpt lat="37.58026486" lon="-1.07186804">
<ele>48</ele>
<time>2014-05-25T16:56:55Z</time>
</trkpt>
<trkpt lat="37.58027534" lon="-1.07183231">
<ele>48</ele>
<time>2014-05-25T16:56:57Z</time>
</trkpt>
<trkpt lat="37.58028833" lon="-1.07179439">
<ele>48</ele>
<time>2014-05-25T16:56:59Z</time>
</trkpt>
<trkpt lat="37.58030629" lon="-1.07175394">
<ele>50</ele>
<time>2014-05-25T16:57:01Z</time>
</trkpt>
<trkpt lat="37.5803232" lon="-1.07171465">
<ele>51</ele>
<time>2014-05-25T16:57:03Z</time>
</trkpt>
<trkpt lat="37.58033984" lon="-1.07167901">
<ele>51</ele>
<time>2014-05-25T16:57:05Z</time>
</trkpt>
<trkpt lat="37.58035084" lon="-1.07164596">
<ele>51</ele>
<time>2014-05-25T16:57:07Z</time>
</trkpt>
<trkpt lat="37.58035687" lon="-1.07161318">
<ele>51</ele>
<time>2014-05-25T16:57:09Z</time>
</trkpt>
<trkpt lat="37.58036885" lon="-1.07158007">
<ele>51</ele>
<time>2014-05-25T16:57:11Z</time>
</trkpt>
<trkpt lat="37.58038089" lon="-1.07154835">
<ele>52</ele>
<time>2014-05-25T16:57:13Z</time>
</trkpt>
<trkpt lat="37.58039605" lon="-1.07151953">
<ele>53</ele>
<time>2014-05-25T16:57:15Z</time>
</trkpt>
<trkpt lat="37.58040951" lon="-1.07149386">
<ele>53</ele>
<time>2014-05-25T16:57:17Z</time>
</trkpt>
<trkpt lat="37.58042667" lon="-1.07146835">
<ele>53</ele>
<time>2014-05-25T16:57:19Z</time>
</trkpt>
<trkpt lat="37.58044021" lon="-1.07143652">
<ele>52</ele>
<time>2014-05-25T16:57:21Z</time>
</trkpt>
<trkpt lat="37.58045581" lon="-1.07139728">
<ele>53</ele>
<time>2014-05-25T16:57:23Z</time>
</trkpt>
<trkpt lat="37.58046637" lon="-1.07136353">
<ele>53</ele>
<time>2014-05-25T16:57:25Z</time>
</trkpt>
<trkpt lat="37.58047833" lon="-1.07133006">
<ele>53</ele>
<time>2014-05-25T16:57:27Z</time>
</trkpt>
<trkpt lat="37.58048812" lon="-1.07129873">
<ele>54</ele>
<time>2014-05-25T16:57:29Z</time>
</trkpt>
<trkpt lat="37.58050096" lon="-1.07126534">
<ele>55</ele>
<time>2014-05-25T16:57:31Z</time>
</trkpt>
<trkpt lat="37.58051273" lon="-1.07122969">
<ele>55</ele>
<time>2014-05-25T16:57:33Z</time>
</trkpt>
<trkpt lat="37.58052277" lon="-1.07119416">
<ele>54</ele>
<time>2014-05-25T16:57:35Z</time>
</trkpt>
<trkpt lat="37.58053605" lon="-1.07115547">
<ele>54</ele>
<time>2014-05-25T16:57:37Z</time>
</trkpt>
<trkpt lat="37.58055169" lon="-1.07111999">
<ele>55</ele>
<time>2014-05-25T16:57:39Z</time>
</trkpt>
<trkpt lat="37.58056678" lon="-1.0710836">
<ele>55</ele>
<time>2014-05-25T16:57:41Z</time>
</trkpt>
<trkpt lat="37.58057824" lon="-1.07104976">
<ele>55</ele>
<time>2014-05-25T16:57:43Z</time>
</trkpt>
<trkpt lat="37.58058968" lon="-1.07101549">
<ele>55</ele>
<time>2014-05-25T16:57:45Z</time>
</trkpt>
<trkpt lat="37.58059915" lon="-1.07097504">
<ele>55</ele>
<time>2014-05-25T16:57:47Z</time>
</trkpt>
<trkpt lat="37.58061487" lon="-1.0709346">
<ele>54</ele>
<time>2014-05-25T16:57:49Z</time>
</trkpt>
<trkpt lat="37.58062605" lon="-1.07089338">
<ele>53</ele>
<time>2014-05-25T16:57:51Z</time>
</trkpt>
<trkpt lat="37.58064135" lon="-1.07085617">
<ele>53</ele>
<time>2014-05-25T16:57:53Z</time>
</trkpt>
<trkpt lat="37.58066055" lon="-1.0708211">
<ele>53</ele>
<time>2014-05-25T16:57:55Z</time>
</trkpt>
<trkpt lat="37.58068817" lon="-1.07079042">
<ele>54</ele>
<time>2014-05-25T16:57:57Z</time>
</trkpt>
<trkpt lat="37.5807097" lon="-1.07075121">
<ele>53</ele>
<time>2014-05-25T16:57:59Z</time>
</trkpt>
<trkpt lat="37.58072808" lon="-1.07071601">
<ele>53</ele>
<time>2014-05-25T16:58:01Z</time>
</trkpt>
<trkpt lat="37.5807456" lon="-1.0706726">
<ele>52</ele>
<time>2014-05-25T16:58:03Z</time>
</trkpt>
<trkpt lat="37.58076016" lon="-1.07063276">
<ele>52</ele>
<time>2014-05-25T16:58:05Z</time>
</trkpt>
<trkpt lat="37.58077295" lon="-1.07060249">
<ele>52</ele>
<time>2014-05-25T16:58:07Z</time>
</trkpt>
<trkpt lat="37.58078635" lon="-1.07056825">
<ele>52</ele>
<time>2014-05-25T16:58:09Z</time>
</trkpt>
<trkpt lat="37.58080334" lon="-1.07053328">
<ele>52</ele>
<time>2014-05-25T16:58:11Z</time>
</trkpt>
<trkpt lat="37.5808181" lon="-1.070496">
<ele>51</ele>
<time>2014-05-25T16:58:13Z</time>
</trkpt>
<trkpt lat="37.58083182" lon="-1.07046148">
<ele>51</ele>
<time>2014-05-25T16:58:15Z</time>
</trkpt>
<trkpt lat="37.58084791" lon="-1.0704253">
<ele>51</ele>
<time>2014-05-25T16:58:17Z</time>
</trkpt>
<trkpt lat="37.58086315" lon="-1.07038906">
<ele>51</ele>
<time>2014-05-25T16:58:19Z</time>
</trkpt>
<trkpt lat="37.58087706" lon="-1.07034703">
<ele>51</ele>
<time>2014-05-25T16:58:21Z</time>
</trkpt>
<trkpt lat="37.58088706" lon="-1.07030324">
<ele>51</ele>
<time>2014-05-25T16:58:23Z</time>
</trkpt>
<trkpt lat="37.58089869" lon="-1.07026198">
<ele>51</ele>
<time>2014-05-25T16:58:25Z</time>
</trkpt>
<trkpt lat="37.58091046" lon="-1.07020958">
<ele>51</ele>
<time>2014-05-25T16:58:27Z</time>
</trkpt>
<trkpt lat="37.58092362" lon="-1.07016581">
<ele>50</ele>
<time>2014-05-25T16:58:29Z</time>
</trkpt>
<trkpt lat="37.5809364" lon="-1.07011937">
<ele>50</ele>
<time>2014-05-25T16:58:31Z</time>
</trkpt>
<trkpt lat="37.58094969" lon="-1.07007718">
<ele>50</ele>
<time>2014-05-25T16:58:33Z</time>
</trkpt>
<trkpt lat="37.5809595" lon="-1.07003978">
<ele>48</ele>
<time>2014-05-25T16:58:35Z</time>
</trkpt>
<trkpt lat="37.58096914" lon="-1.07000422">
<ele>48</ele>
<time>2014-05-25T16:58:37Z</time>
</trkpt>
<trkpt lat="37.58097608" lon="-1.06996752">
<ele>49</ele>
<time>2014-05-25T16:58:39Z</time>
</trkpt>
<trkpt lat="37.58098318" lon="-1.0699353">
<ele>48</ele>
<time>2014-05-25T16:58:41Z</time>
</trkpt>
<trkpt lat="37.58099375" lon="-1.06990461">
<ele>48</ele>
<time>2014-05-25T16:58:43Z</time>
</trkpt>
<trkpt lat="37.58100491" lon="-1.06987057">
<ele>48</ele>
<time>2014-05-25T16:58:45Z</time>
</trkpt>
<trkpt lat="37.58101701" lon="-1.06983468">
<ele>48</ele>
<time>2014-05-25T16:58:47Z</time>
</trkpt>
<trkpt lat="37.58102984" lon="-1.06979851">
<ele>49</ele>
<time>2014-05-25T16:58:49Z</time>
</trkpt>
<trkpt lat="37.58104211" lon="-1.06976649">
<ele>48</ele>
<time>2014-05-25T16:58:51Z</time>
</trkpt>
<trkpt lat="37.58104902" lon="-1.06973626">
<ele>49</ele>
<time>2014-05-25T16:58:53Z</time>
</trkpt>
<trkpt lat="37.58105383" lon="-1.06970992">
<ele>49</ele>
<time>2014-05-25T16:58:55Z</time>
</trkpt>
<trkpt lat="37.58106208" lon="-1.06968603">
<ele>50</ele>
<time>2014-05-25T16:58:57Z</time>
</trkpt>
<trkpt lat="37.5810742" lon="-1.069661">
<ele>50</ele>
<time>2014-05-25T16:58:59Z</time>
</trkpt>
<trkpt lat="37.58109124" lon="-1.06963098">
<ele>50</ele>
<time>2014-05-25T16:59:01Z</time>
</trkpt>
<trkpt lat="37.58110757" lon="-1.06960641">
<ele>51</ele>
<time>2014-05-25T16:59:03Z</time>
</trkpt>
<trkpt lat="37.58112612" lon="-1.06957707">
<ele>51</ele>
<time>2014-05-25T16:59:05Z</time>
</trkpt>
<trkpt lat="37.58113973" lon="-1.06954253">
<ele>51</ele>
<time>2014-05-25T16:59:07Z</time>
</trkpt>
<trkpt lat="37.58115256" lon="-1.0695117">
<ele>51</ele>
<time>2014-05-25T16:59:09Z</time>
</trkpt>
<trkpt lat="37.58116562" lon="-1.06948003">
<ele>50</ele>
<time>2014-05-25T16:59:11Z</time>
</trkpt>
<trkpt lat="37.58118038" lon="-1.06945391">
<ele>51</ele>
<time>2014-05-25T16:59:13Z</time>
</trkpt>
<trkpt lat="37.58119397" lon="-1.06942849">
<ele>52</ele>
<time>2014-05-25T16:59:15Z</time>
</trkpt>
<trkpt lat="37.58121148" lon="-1.06940282">
<ele>52</ele>
<time>2014-05-25T16:59:17Z</time>
</trkpt>
<trkpt lat="37.58122292" lon="-1.06937203">
<ele>52</ele>
<time>2014-05-25T16:59:19Z</time>
</trkpt>
<trkpt lat="37.58123887" lon="-1.06934025">
<ele>52</ele>
<time>2014-05-25T16:59:21Z</time>
</trkpt>
<trkpt lat="37.58125407" lon="-1.06930516">
<ele>51</ele>
<time>2014-05-25T16:59:23Z</time>
</trkpt>
<trkpt lat="37.58126497" lon="-1.06926925">
<ele>50</ele>
<time>2014-05-25T16:59:25Z</time>
</trkpt>
<trkpt lat="37.58126856" lon="-1.06923083">
<ele>50</ele>
<time>2014-05-25T16:59:27Z</time>
</trkpt>
<trkpt lat="37.58126992" lon="-1.0691898">
<ele>49</ele>
<time>2014-05-25T16:59:29Z</time>
</trkpt>
<trkpt lat="37.58127289" lon="-1.06915093">
<ele>49</ele>
<time>2014-05-25T16:59:31Z</time>
</trkpt>
<trkpt lat="37.58127896" lon="-1.06911188">
<ele>49</ele>
<time>2014-05-25T16:59:33Z</time>
</trkpt>
<trkpt lat="37.58128554" lon="-1.06907724">
<ele>49</ele>
<time>2014-05-25T16:59:35Z</time>
</trkpt>
<trkpt lat="37.58129079" lon="-1.06904372">
<ele>48</ele>
<time>2014-05-25T16:59:37Z</time>
</trkpt>
<trkpt lat="37.58129726" lon="-1.06900434">
<ele>48</ele>
<time>2014-05-25T16:59:39Z</time>
</trkpt>
<trkpt lat="37.58130731" lon="-1.06895986">
<ele>48</ele>
<time>2014-05-25T16:59:41Z</time>
</trkpt>
<trkpt lat="37.58131794" lon="-1.06892124">
<ele>48</ele>
<time>2014-05-25T16:59:43Z</time>
</trkpt>
<trkpt lat="37.58132894" lon="-1.06888596">
<ele>48</ele>
<time>2014-05-25T16:59:45Z</time>
</trkpt>
<trkpt lat="37.58134253" lon="-1.06884491">
<ele>48</ele>
<time>2014-05-25T16:59:47Z</time>
</trkpt>
<trkpt lat="37.581356" lon="-1.06880398">
<ele>48</ele>
<time>2014-05-25T16:59:49Z</time>
</trkpt>
<trkpt lat="37.5813683" lon="-1.06876423">
<ele>48</ele>
<time>2014-05-25T16:59:51Z</time>
</trkpt>
<trkpt lat="37.58137758" lon="-1.0687281">
<ele>48</ele>
<time>2014-05-25T16:59:53Z</time>
</trkpt>
<trkpt lat="37.58138705" lon="-1.06868559">
<ele>49</ele>
<time>2014-05-25T16:59:55Z</time>
</trkpt>
<trkpt lat="37.58139224" lon="-1.06864431">
<ele>49</ele>
<time>2014-05-25T16:59:57Z</time>
</trkpt>
<trkpt lat="37.58139611" lon="-1.0686003">
<ele>50</ele>
<time>2014-05-25T16:59:59Z</time>
</trkpt>
<trkpt lat="37.58139938" lon="-1.06855929">
<ele>50</ele>
<time>2014-05-25T17:00:01Z</time>
</trkpt>
<trkpt lat="37.58140047" lon="-1.06852911">
<ele>51</ele>
<time>2014-05-25T17:00:03Z</time>
</trkpt>
<trkpt lat="37.58140485" lon="-1.06848942">
<ele>51</ele>
<time>2014-05-25T17:00:05Z</time>
</trkpt>
<trkpt lat="37.58140989" lon="-1.06844776">
<ele>52</ele>
<time>2014-05-25T17:00:07Z</time>
</trkpt>
<trkpt lat="37.58141688" lon="-1.06840738">
<ele>51</ele>
<time>2014-05-25T17:00:09Z</time>
</trkpt>
<trkpt lat="37.58142556" lon="-1.06836913">
<ele>51</ele>
<time>2014-05-25T17:00:11Z</time>
</trkpt>
<trkpt lat="37.58143655" lon="-1.06833636">
<ele>51</ele>
<time>2014-05-25T17:00:13Z</time>
</trkpt>
<trkpt lat="37.58144224" lon="-1.06831414">
<ele>50</ele>
<time>2014-05-25T17:00:15Z</time>
</trkpt>
<trkpt lat="37.58143542" lon="-1.06831484">
<ele>50</ele>
<time>2014-05-25T17:00:17Z</time>
</trkpt>
<trkpt lat="37.58142934" lon="-1.06832151">
<ele>50</ele>
<time>2014-05-25T17:00:19Z</time>
</trkpt>
<trkpt lat="37.58142931" lon="-1.06833171">
<ele>51</ele>
<time>2014-05-25T17:00:21Z</time>
</trkpt>
<trkpt lat="37.58143192" lon="-1.0683382">
<ele>50</ele>
<time>2014-05-25T17:00:23Z</time>
</trkpt>
<trkpt lat="37.5814302" lon="-1.06835366">
<ele>50</ele>
<time>2014-05-25T17:00:25Z</time>
</trkpt>
<trkpt lat="37.58142986" lon="-1.06835594">
<ele>50</ele>
<time>2014-05-25T17:00:27Z</time>
</trkpt>
<trkpt lat="37.58142992" lon="-1.06835645">
<ele>50</ele>
<time>2014-05-25T17:00:29Z</time>
</trkpt>
<trkpt lat="37.58142988" lon="-1.06835659">
<ele>50</ele>
<time>2014-05-25T17:00:31Z</time>
</trkpt>
<trkpt lat="37.58142983" lon="-1.06835673">
<ele>50</ele>
<time>2014-05-25T17:00:33Z</time>
</trkpt>
<trkpt lat="37.58142985" lon="-1.06835672">
<ele>50</ele>
<time>2014-05-25T17:00:35Z</time>
</trkpt>
<trkpt lat="37.58142985" lon="-1.06835666">
<ele>50</ele>
<time>2014-05-25T17:00:37Z</time>
</trkpt>
<trkpt lat="37.58142982" lon="-1.06835666">
<ele>50</ele>
<time>2014-05-25T17:00:39Z</time>
</trkpt>
<trkpt lat="37.58142981" lon="-1.06835668">
<ele>50</ele>
<time>2014-05-25T17:00:41Z</time>
</trkpt>
<trkpt lat="37.58142982" lon="-1.06835667">
<ele>50</ele>
<time>2014-05-25T17:00:43Z</time>
</trkpt>
<trkpt lat="37.58142977" lon="-1.0683567">
<ele>50</ele>
<time>2014-05-25T17:00:45Z</time>
</trkpt>
<trkpt lat="37.58142976" lon="-1.06835672">
<ele>50</ele>
<time>2014-05-25T17:00:47Z</time>
</trkpt>
<trkpt lat="37.58142974" lon="-1.06835666">
<ele>50</ele>
<time>2014-05-25T17:00:49Z</time>
</trkpt>
<trkpt lat="37.58142969" lon="-1.06835662">
<ele>50</ele>
<time>2014-05-25T17:00:51Z</time>
</trkpt>
<trkpt lat="37.58142972" lon="-1.0683566">
<ele>50</ele>
<time>2014-05-25T17:00:53Z</time>
</trkpt>
<trkpt lat="37.58142974" lon="-1.06835659">
<ele>50</ele>
<time>2014-05-25T17:00:55Z</time>
</trkpt>
<trkpt lat="37.58142973" lon="-1.0683566">
<ele>50</ele>
<time>2014-05-25T17:00:57Z</time>
</trkpt>
<trkpt lat="37.58142971" lon="-1.06835665">
<ele>50</ele>
<time>2014-05-25T17:00:59Z</time>
</trkpt>
<trkpt lat="37.58142969" lon="-1.06835661">
<ele>50</ele>
<time>2014-05-25T17:01:01Z</time>
</trkpt>
<trkpt lat="37.58142966" lon="-1.06835657">
<ele>50</ele>
<time>2014-05-25T17:01:03Z</time>
</trkpt>
<trkpt lat="37.58142965" lon="-1.06835649">
<ele>50</ele>
<time>2014-05-25T17:01:05Z</time>
</trkpt>
<trkpt lat="37.58142962" lon="-1.06835647">
<ele>50</ele>
<time>2014-05-25T17:01:07Z</time>
</trkpt>
<trkpt lat="37.58142961" lon="-1.06835648">
<ele>50</ele>
<time>2014-05-25T17:01:09Z</time>
</trkpt>
<trkpt lat="37.58142958" lon="-1.06835644">
<ele>50</ele>
<time>2014-05-25T17:01:11Z</time>
</trkpt>
<trkpt lat="37.58142958" lon="-1.06835634">
<ele>50</ele>
<time>2014-05-25T17:01:13Z</time>
</trkpt>
<trkpt lat="37.58142955" lon="-1.06835626">
<ele>50</ele>
<time>2014-05-25T17:01:15Z</time>
</trkpt>
<trkpt lat="37.5814295" lon="-1.06835618">
<ele>50</ele>
<time>2014-05-25T17:01:17Z</time>
</trkpt>
<trkpt lat="37.58142949" lon="-1.06835615">
<ele>50</ele>
<time>2014-05-25T17:01:19Z</time>
</trkpt>
<trkpt lat="37.58142947" lon="-1.06835615">
<ele>50</ele>
<time>2014-05-25T17:01:21Z</time>
</trkpt>
<trkpt lat="37.58142946" lon="-1.0683561">
<ele>50</ele>
<time>2014-05-25T17:01:23Z</time>
</trkpt>
<trkpt lat="37.58142943" lon="-1.06835603">
<ele>50</ele>
<time>2014-05-25T17:01:25Z</time>
</trkpt>
<trkpt lat="37.58142943" lon="-1.06835598">
<ele>50</ele>
<time>2014-05-25T17:01:27Z</time>
</trkpt>
<trkpt lat="37.58142943" lon="-1.06835595">
<ele>50</ele>
<time>2014-05-25T17:01:29Z</time>
</trkpt>
<trkpt lat="37.5814294" lon="-1.06835594">
<ele>50</ele>
<time>2014-05-25T17:01:31Z</time>
</trkpt>
<trkpt lat="37.58142937" lon="-1.06835592">
<ele>50</ele>
<time>2014-05-25T17:01:33Z</time>
</trkpt>
<trkpt lat="37.58142935" lon="-1.06835588">
<ele>50</ele>
<time>2014-05-25T17:01:35Z</time>
</trkpt>
<trkpt lat="37.58142935" lon="-1.06835584">
<ele>50</ele>
<time>2014-05-25T17:01:37Z</time>
</trkpt>
<trkpt lat="37.58142933" lon="-1.06835581">
<ele>50</ele>
<time>2014-05-25T17:01:39Z</time>
</trkpt>
<trkpt lat="37.58142931" lon="-1.06835578">
<ele>50</ele>
<time>2014-05-25T17:01:41Z</time>
</trkpt>
<trkpt lat="37.58142928" lon="-1.06835576">
<ele>50</ele>
<time>2014-05-25T17:01:43Z</time>
</trkpt>
<trkpt lat="37.58142923" lon="-1.06835572">
<ele>50</ele>
<time>2014-05-25T17:01:45Z</time>
</trkpt>
<trkpt lat="37.5814292" lon="-1.06835568">
<ele>50</ele>
<time>2014-05-25T17:01:47Z</time>
</trkpt>
<trkpt lat="37.58142913" lon="-1.06835568">
<ele>50</ele>
<time>2014-05-25T17:01:49Z</time>
</trkpt>
<trkpt lat="37.58142909" lon="-1.06835568">
<ele>50</ele>
<time>2014-05-25T17:01:51Z</time>
</trkpt>
<trkpt lat="37.58142907" lon="-1.06835568">
<ele>50</ele>
<time>2014-05-25T17:01:53Z</time>
</trkpt>
<trkpt lat="37.58142906" lon="-1.06835568">
<ele>50</ele>
<time>2014-05-25T17:01:55Z</time>
</trkpt>
<trkpt lat="37.58142908" lon="-1.0683557">
<ele>50</ele>
<time>2014-05-25T17:01:57Z</time>
</trkpt>
<trkpt lat="37.58142909" lon="-1.06835569">
<ele>50</ele>
<time>2014-05-25T17:01:59Z</time>
</trkpt>
<trkpt lat="37.58142908" lon="-1.06835566">
<ele>50</ele>
<time>2014-05-25T17:02:01Z</time>
</trkpt>
<trkpt lat="37.58142908" lon="-1.06835566">
<ele>50</ele>
<time>2014-05-25T17:02:03Z</time>
</trkpt>
<trkpt lat="37.58142905" lon="-1.06835565">
<ele>50</ele>
<time>2014-05-25T17:02:05Z</time>
</trkpt>
<trkpt lat="37.58142904" lon="-1.06835565">
<ele>50</ele>
<time>2014-05-25T17:02:07Z</time>
</trkpt>
<trkpt lat="37.58142901" lon="-1.06835565">
<ele>50</ele>
<time>2014-05-25T17:02:09Z</time>
</trkpt>
<trkpt lat="37.58142901" lon="-1.06835565">
<ele>50</ele>
<time>2014-05-25T17:02:11Z</time>
</trkpt>
<trkpt lat="37.58142899" lon="-1.06835562">
<ele>50</ele>
<time>2014-05-25T17:02:13Z</time>
</trkpt>
<trkpt lat="37.58142897" lon="-1.06835559">
<ele>50</ele>
<time>2014-05-25T17:02:15Z</time>
</trkpt>
<trkpt lat="37.58142894" lon="-1.06835559">
<ele>50</ele>
<time>2014-05-25T17:02:17Z</time>
</trkpt>
<trkpt lat="37.58142893" lon="-1.06835556">
<ele>50</ele>
<time>2014-05-25T17:02:19Z</time>
</trkpt>
<trkpt lat="37.58142891" lon="-1.06835552">
<ele>50</ele>
<time>2014-05-25T17:02:21Z</time>
</trkpt>
<trkpt lat="37.58142887" lon="-1.06835552">
<ele>50</ele>
<time>2014-05-25T17:02:23Z</time>
</trkpt>
<trkpt lat="37.58142884" lon="-1.06835548">
<ele>50</ele>
<time>2014-05-25T17:02:25Z</time>
</trkpt>
<trkpt lat="37.58142888" lon="-1.06835539">
<ele>50</ele>
<time>2014-05-25T17:02:27Z</time>
</trkpt>
<trkpt lat="37.58142888" lon="-1.06835533">
<ele>50</ele>
<time>2014-05-25T17:02:29Z</time>
</trkpt>
<trkpt lat="37.58142887" lon="-1.06835535">
<ele>50</ele>
<time>2014-05-25T17:02:31Z</time>
</trkpt>
<trkpt lat="37.58142881" lon="-1.06835537">
<ele>50</ele>
<time>2014-05-25T17:02:33Z</time>
</trkpt>
<trkpt lat="37.58142876" lon="-1.06835537">
<ele>50</ele>
<time>2014-05-25T17:02:35Z</time>
</trkpt>
<trkpt lat="37.58142871" lon="-1.06835537">
<ele>50</ele>
<time>2014-05-25T17:02:37Z</time>
</trkpt>
<trkpt lat="37.5814287" lon="-1.06835539">
<ele>50</ele>
<time>2014-05-25T17:02:39Z</time>
</trkpt>
<trkpt lat="37.58142867" lon="-1.06835537">
<ele>50</ele>
<time>2014-05-25T17:02:41Z</time>
</trkpt>
<trkpt lat="37.58142863" lon="-1.06835533">
<ele>50</ele>
<time>2014-05-25T17:02:43Z</time>
</trkpt>
<trkpt lat="37.58142861" lon="-1.06835527">
<ele>50</ele>
<time>2014-05-25T17:02:45Z</time>
</trkpt>
<trkpt lat="37.58142859" lon="-1.06835525">
<ele>50</ele>
<time>2014-05-25T17:02:47Z</time>
</trkpt>
<trkpt lat="37.58142856" lon="-1.0683552">
<ele>50</ele>
<time>2014-05-25T17:02:49Z</time>
</trkpt>
<trkpt lat="37.58142856" lon="-1.06835516">
<ele>50</ele>
<time>2014-05-25T17:02:51Z</time>
</trkpt>
<trkpt lat="37.58142856" lon="-1.06835513">
<ele>50</ele>
<time>2014-05-25T17:02:53Z</time>
</trkpt>
<trkpt lat="37.58142857" lon="-1.06835509">
<ele>50</ele>
<time>2014-05-25T17:02:55Z</time>
</trkpt>
<trkpt lat="37.58142855" lon="-1.06835502">
<ele>50</ele>
<time>2014-05-25T17:02:57Z</time>
</trkpt>
<trkpt lat="37.58142853" lon="-1.0683549">
<ele>50</ele>
<time>2014-05-25T17:02:59Z</time>
</trkpt>
<trkpt lat="37.5814285" lon="-1.06835479">
<ele>50</ele>
<time>2014-05-25T17:03:01Z</time>
</trkpt>
<trkpt lat="37.58142845" lon="-1.06835476">
<ele>50</ele>
<time>2014-05-25T17:03:03Z</time>
</trkpt>
<trkpt lat="37.58142841" lon="-1.06835473">
<ele>50</ele>
<time>2014-05-25T17:03:05Z</time>
</trkpt>
<trkpt lat="37.58142843" lon="-1.06835468">
<ele>50</ele>
<time>2014-05-25T17:03:07Z</time>
</trkpt>
<trkpt lat="37.58142845" lon="-1.06835461">
<ele>50</ele>
<time>2014-05-25T17:03:09Z</time>
</trkpt>
<trkpt lat="37.58142845" lon="-1.06835455">
<ele>50</ele>
<time>2014-05-25T17:03:11Z</time>
</trkpt>
<trkpt lat="37.58142845" lon="-1.06835451">
<ele>50</ele>
<time>2014-05-25T17:03:13Z</time>
</trkpt>
<trkpt lat="37.58142844" lon="-1.06835447">
<ele>50</ele>
<time>2014-05-25T17:03:15Z</time>
</trkpt>
<trkpt lat="37.58142843" lon="-1.0683544">
<ele>50</ele>
<time>2014-05-25T17:03:17Z</time>
</trkpt>
<trkpt lat="37.58142842" lon="-1.06835437">
<ele>50</ele>
<time>2014-05-25T17:03:19Z</time>
</trkpt>
<trkpt lat="37.5814284" lon="-1.06835435">
<ele>50</ele>
<time>2014-05-25T17:03:21Z</time>
</trkpt>
<trkpt lat="37.58142842" lon="-1.06835432">
<ele>50</ele>
<time>2014-05-25T17:03:23Z</time>
</trkpt>
<trkpt lat="37.5814284" lon="-1.06835425">
<ele>50</ele>
<time>2014-05-25T17:03:25Z</time>
</trkpt>
<trkpt lat="37.58142838" lon="-1.0683542">
<ele>50</ele>
<time>2014-05-25T17:03:27Z</time>
</trkpt>
<trkpt lat="37.58142837" lon="-1.06835417">
<ele>50</ele>
<time>2014-05-25T17:03:29Z</time>
</trkpt>
<trkpt lat="37.58142834" lon="-1.06835417">
<ele>50</ele>
<time>2014-05-25T17:03:31Z</time>
</trkpt>
<trkpt lat="37.58142833" lon="-1.06835421">
<ele>50</ele>
<time>2014-05-25T17:03:33Z</time>
</trkpt>
<trkpt lat="37.58142834" lon="-1.06835421">
<ele>50</ele>
<time>2014-05-25T17:03:35Z</time>
</trkpt>
<trkpt lat="37.58142836" lon="-1.06835421">
<ele>50</ele>
<time>2014-05-25T17:03:37Z</time>
</trkpt>
<trkpt lat="37.5814284" lon="-1.06835413">
<ele>50</ele>
<time>2014-05-25T17:03:39Z</time>
</trkpt>
<trkpt lat="37.58142841" lon="-1.06835411">
<ele>50</ele>
<time>2014-05-25T17:03:41Z</time>
</trkpt>
<trkpt lat="37.58142843" lon="-1.0683541">
<ele>50</ele>
<time>2014-05-25T17:03:43Z</time>
</trkpt>
<trkpt lat="37.58142845" lon="-1.06835409">
<ele>50</ele>
<time>2014-05-25T17:03:45Z</time>
</trkpt>
<trkpt lat="37.58142844" lon="-1.06835406">
<ele>50</ele>
<time>2014-05-25T17:03:47Z</time>
</trkpt>
<trkpt lat="37.58142843" lon="-1.06835399">
<ele>50</ele>
<time>2014-05-25T17:03:49Z</time>
</trkpt>
<trkpt lat="37.58142842" lon="-1.06835389">
<ele>50</ele>
<time>2014-05-25T17:03:51Z</time>
</trkpt>
<trkpt lat="37.58142842" lon="-1.06835385">
<ele>50</ele>
<time>2014-05-25T17:03:53Z</time>
</trkpt>
<trkpt lat="37.58142846" lon="-1.06835384">
<ele>50</ele>
<time>2014-05-25T17:03:55Z</time>
</trkpt>
<trkpt lat="37.58142844" lon="-1.06835381">
<ele>50</ele>
<time>2014-05-25T17:03:57Z</time>
</trkpt>
<trkpt lat="37.58142842" lon="-1.06835379">
<ele>50</ele>
<time>2014-05-25T17:03:59Z</time>
</trkpt>
<trkpt lat="37.58142838" lon="-1.06835375">
<ele>50</ele>
<time>2014-05-25T17:04:01Z</time>
</trkpt>
<trkpt lat="37.58142838" lon="-1.06835372">
<ele>50</ele>
<time>2014-05-25T17:04:03Z</time>
</trkpt>
<trkpt lat="37.58142838" lon="-1.06835368">
<ele>50</ele>
<time>2014-05-25T17:04:05Z</time>
</trkpt>
<trkpt lat="37.58142837" lon="-1.06835367">
<ele>50</ele>
<time>2014-05-25T17:04:07Z</time>
</trkpt>
<trkpt lat="37.58142836" lon="-1.06835366">
<ele>50</ele>
<time>2014-05-25T17:04:09Z</time>
</trkpt>
<trkpt lat="37.58142834" lon="-1.06835368">
<ele>50</ele>
<time>2014-05-25T17:04:11Z</time>
</trkpt>
<trkpt lat="37.58142834" lon="-1.06835371">
<ele>50</ele>
<time>2014-05-25T17:04:13Z</time>
</trkpt>
<trkpt lat="37.58142831" lon="-1.06835375">
<ele>50</ele>
<time>2014-05-25T17:04:15Z</time>
</trkpt>
<trkpt lat="37.58142829" lon="-1.06835372">
<ele>50</ele>
<time>2014-05-25T17:04:17Z</time>
</trkpt>
<trkpt lat="37.58142828" lon="-1.06835367">
<ele>50</ele>
<time>2014-05-25T17:04:19Z</time>
</trkpt>
<trkpt lat="37.58142825" lon="-1.06835367">
<ele>50</ele>
<time>2014-05-25T17:04:21Z</time>
</trkpt>
<trkpt lat="37.58142824" lon="-1.06835365">
<ele>50</ele>
<time>2014-05-25T17:04:23Z</time>
</trkpt>
<trkpt lat="37.58142821" lon="-1.06835363">
<ele>50</ele>
<time>2014-05-25T17:04:25Z</time>
</trkpt>
<trkpt lat="37.5814282" lon="-1.0683536">
<ele>50</ele>
<time>2014-05-25T17:04:27Z</time>
</trkpt>
<trkpt lat="37.58142823" lon="-1.06835358">
<ele>50</ele>
<time>2014-05-25T17:04:29Z</time>
</trkpt>
<trkpt lat="37.58142822" lon="-1.06835355">
<ele>50</ele>
<time>2014-05-25T17:04:31Z</time>
</trkpt>
<trkpt lat="37.58142822" lon="-1.0683535">
<ele>50</ele>
<time>2014-05-25T17:04:33Z</time>
</trkpt>
<trkpt lat="37.5814282" lon="-1.06835348">
<ele>50</ele>
<time>2014-05-25T17:04:35Z</time>
</trkpt>
<trkpt lat="37.5814282" lon="-1.06835346">
<ele>50</ele>
<time>2014-05-25T17:04:37Z</time>
</trkpt>
<trkpt lat="37.5814282" lon="-1.06835343">
<ele>50</ele>
<time>2014-05-25T17:04:39Z</time>
</trkpt>
<trkpt lat="37.58142821" lon="-1.0683534">
<ele>50</ele>
<time>2014-05-25T17:04:41Z</time>
</trkpt>
<trkpt lat="37.58142819" lon="-1.0683534">
<ele>50</ele>
<time>2014-05-25T17:04:43Z</time>
</trkpt>
<trkpt lat="37.58142819" lon="-1.06835338">
<ele>50</ele>
<time>2014-05-25T17:04:45Z</time>
</trkpt>
<trkpt lat="37.5814282" lon="-1.06835336">
<ele>50</ele>
<time>2014-05-25T17:04:47Z</time>
</trkpt>
<trkpt lat="37.5814282" lon="-1.06835331">
<ele>50</ele>
<time>2014-05-25T17:04:49Z</time>
</trkpt>
<trkpt lat="37.58142819" lon="-1.06835327">
<ele>50</ele>
<time>2014-05-25T17:04:51Z</time>
</trkpt>
<trkpt lat="37.58142819" lon="-1.06835323">
<ele>50</ele>
<time>2014-05-25T17:04:53Z</time>
</trkpt>
<trkpt lat="37.58142815" lon="-1.06835318">
<ele>50</ele>
<time>2014-05-25T17:04:55Z</time>
</trkpt>
<trkpt lat="37.58142811" lon="-1.06835312">
<ele>50</ele>
<time>2014-05-25T17:04:57Z</time>
</trkpt>
<trkpt lat="37.5814281" lon="-1.06835308">
<ele>50</ele>
<time>2014-05-25T17:04:59Z</time>
</trkpt>
<trkpt lat="37.58142809" lon="-1.06835303">
<ele>50</ele>
<time>2014-05-25T17:05:01Z</time>
</trkpt>
<trkpt lat="37.58142806" lon="-1.06835299">
<ele>50</ele>
<time>2014-05-25T17:05:03Z</time>
</trkpt>
<trkpt lat="37.58142804" lon="-1.06835294">
<ele>50</ele>
<time>2014-05-25T17:05:05Z</time>
</trkpt>
<trkpt lat="37.58142804" lon="-1.06835294">
<ele>50</ele>
<time>2014-05-25T17:05:07Z</time>
</trkpt>
<trkpt lat="37.58142802" lon="-1.06835293">
<ele>50</ele>
<time>2014-05-25T17:05:09Z</time>
</trkpt>
<trkpt lat="37.58142801" lon="-1.06835294">
<ele>50</ele>
<time>2014-05-25T17:05:11Z</time>
</trkpt>
<trkpt lat="37.58142803" lon="-1.06835295">
<ele>50</ele>
<time>2014-05-25T17:05:13Z</time>
</trkpt>
<trkpt lat="37.58142805" lon="-1.06835291">
<ele>50</ele>
<time>2014-05-25T17:05:15Z</time>
</trkpt>
<trkpt lat="37.58142805" lon="-1.06835289">
<ele>50</ele>
<time>2014-05-25T17:05:17Z</time>
</trkpt>
<trkpt lat="37.58142809" lon="-1.0683528">
<ele>50</ele>
<time>2014-05-25T17:05:19Z</time>
</trkpt>
<trkpt lat="37.5814281" lon="-1.06835267">
<ele>50</ele>
<time>2014-05-25T17:05:21Z</time>
</trkpt>
<trkpt lat="37.58142813" lon="-1.06835255">
<ele>50</ele>
<time>2014-05-25T17:05:23Z</time>
</trkpt>
<trkpt lat="37.58142818" lon="-1.06835249">
<ele>50</ele>
<time>2014-05-25T17:05:25Z</time>
</trkpt>
<trkpt lat="37.58142822" lon="-1.06835244">
<ele>50</ele>
<time>2014-05-25T17:05:27Z</time>
</trkpt>
<trkpt lat="37.58142827" lon="-1.06835238">
<ele>50</ele>
<time>2014-05-25T17:05:29Z</time>
</trkpt>
<trkpt lat="37.58142818" lon="-1.06835212">
<ele>50</ele>
<time>2014-05-25T17:05:31Z</time>
</trkpt>
<trkpt lat="37.58142811" lon="-1.06835186">
<ele>50</ele>
<time>2014-05-25T17:05:33Z</time>
</trkpt>
<trkpt lat="37.5814281" lon="-1.06835169">
<ele>50</ele>
<time>2014-05-25T17:05:35Z</time>
</trkpt>
<trkpt lat="37.58142828" lon="-1.06835174">
<ele>50</ele>
<time>2014-05-25T17:05:37Z</time>
</trkpt>
<trkpt lat="37.58142839" lon="-1.06835171">
<ele>50</ele>
<time>2014-05-25T17:05:39Z</time>
</trkpt>
<trkpt lat="37.5814284" lon="-1.06835161">
<ele>50</ele>
<time>2014-05-25T17:05:41Z</time>
</trkpt>
<trkpt lat="37.5814284" lon="-1.06835152">
<ele>50</ele>
<time>2014-05-25T17:05:43Z</time>
</trkpt>
<trkpt lat="37.58142837" lon="-1.06835144">
<ele>50</ele>
<time>2014-05-25T17:05:45Z</time>
</trkpt>
<trkpt lat="37.58142837" lon="-1.06835138">
<ele>50</ele>
<time>2014-05-25T17:05:47Z</time>
</trkpt>
<trkpt lat="37.58142837" lon="-1.06835132">
<ele>50</ele>
<time>2014-05-25T17:05:49Z</time>
</trkpt>
<trkpt lat="37.58142836" lon="-1.06835123">
<ele>50</ele>
<time>2014-05-25T17:05:51Z</time>
</trkpt>
<trkpt lat="37.58142834" lon="-1.06835116">
<ele>50</ele>
<time>2014-05-25T17:05:53Z</time>
</trkpt>
<trkpt lat="37.58142834" lon="-1.06835102">
<ele>50</ele>
<time>2014-05-25T17:05:55Z</time>
</trkpt>
<trkpt lat="37.58142834" lon="-1.06835096">
<ele>50</ele>
<time>2014-05-25T17:05:57Z</time>
</trkpt>
<trkpt lat="37.58142834" lon="-1.06835084">
<ele>50</ele>
<time>2014-05-25T17:05:59Z</time>
</trkpt>
<trkpt lat="37.58142832" lon="-1.06835077">
<ele>50</ele>
<time>2014-05-25T17:06:01Z</time>
</trkpt>
<trkpt lat="37.58142832" lon="-1.06835068">
<ele>50</ele>
<time>2014-05-25T17:06:03Z</time>
</trkpt>
<trkpt lat="37.5814283" lon="-1.06835059">
<ele>50</ele>
<time>2014-05-25T17:06:05Z</time>
</trkpt>
<trkpt lat="37.5814283" lon="-1.06835052">
<ele>50</ele>
<time>2014-05-25T17:06:07Z</time>
</trkpt>
<trkpt lat="37.5814283" lon="-1.06835044">
<ele>50</ele>
<time>2014-05-25T17:06:09Z</time>
</trkpt>
<trkpt lat="37.58142828" lon="-1.06835035">
<ele>50</ele>
<time>2014-05-25T17:06:11Z</time>
</trkpt>
<trkpt lat="37.58142827" lon="-1.06835029">
<ele>50</ele>
<time>2014-05-25T17:06:13Z</time>
</trkpt>
<trkpt lat="37.58142827" lon="-1.06835028">
<ele>50</ele>
<time>2014-05-25T17:06:15Z</time>
</trkpt>
<trkpt lat="37.58142828" lon="-1.06835022">
<ele>50</ele>
<time>2014-05-25T17:06:17Z</time>
</trkpt>
<trkpt lat="37.58142828" lon="-1.06835012">
<ele>50</ele>
<time>2014-05-25T17:06:19Z</time>
</trkpt>
<trkpt lat="37.58142828" lon="-1.06835005">
<ele>50</ele>
<time>2014-05-25T17:06:21Z</time>
</trkpt>
<trkpt lat="37.58142827" lon="-1.06834993">
<ele>50</ele>
<time>2014-05-25T17:06:23Z</time>
</trkpt>
<trkpt lat="37.58142823" lon="-1.06834977">
<ele>50</ele>
<time>2014-05-25T17:06:25Z</time>
</trkpt>
<trkpt lat="37.58142821" lon="-1.06834964">
<ele>50</ele>
<time>2014-05-25T17:06:27Z</time>
</trkpt>
<trkpt lat="37.58142819" lon="-1.06834951">
<ele>50</ele>
<time>2014-05-25T17:06:29Z</time>
</trkpt>
<trkpt lat="37.58142864" lon="-1.06834916">
<ele>50</ele>
<time>2014-05-25T17:06:31Z</time>
</trkpt>
<trkpt lat="37.58142874" lon="-1.06834904">
<ele>50</ele>
<time>2014-05-25T17:06:33Z</time>
</trkpt>
<trkpt lat="37.58142877" lon="-1.06834893">
<ele>50</ele>
<time>2014-05-25T17:06:35Z</time>
</trkpt>
<trkpt lat="37.58142876" lon="-1.0683489">
<ele>50</ele>
<time>2014-05-25T17:06:37Z</time>
</trkpt>
<trkpt lat="37.58142876" lon="-1.06834889">
<ele>50</ele>
<time>2014-05-25T17:06:39Z</time>
</trkpt>
<trkpt lat="37.58142876" lon="-1.06834889">
<ele>50</ele>
<time>2014-05-25T17:06:41Z</time>
</trkpt>
<trkpt lat="37.58142876" lon="-1.06834889">
<ele>50</ele>
<time>2014-05-25T17:06:43Z</time>
</trkpt>
<trkpt lat="37.58142876" lon="-1.06834888">
<ele>50</ele>
<time>2014-05-25T17:06:45Z</time>
</trkpt>
<trkpt lat="" lon="">
<ele></ele>
<time>2014-05-25TZ</time>
</trkpt>
</trkseg>
</trk>
<wpt lat="" lon="">
	<name></name>
	<desc></desc>
	<cmt></cmt>
	<photoid></photoid>
	<type></type>
</wpt>
</gpx>
